<?xml version="1.0" encoding="UTF-8" standalone="no" ?>
<gpx xmlns="http://www.topografix.com/GPX/1/1" xmlns:xsi="http://www.w3.org/2001/XMLSchema-instance" xsi:schemaLocation="http://www.topografix.com/GPX/1/1 http://www.topografix.com/GPX/1/1/gpx.xsd" version="1.1" creator="VisuGPX - https://www.visugpx.com">
  <metadata>
    <name>Pornichet 11/03/2021</name>
    <desc><![CDATA[Sortie VTT du jeudi 11 mars 2021]]></desc>
  </metadata>
  <trk>
    <name><![CDATA[Pornichet Cyclisme]]></name>
    <trkseg>
      <trkpt lat="47.26401" lon="-2.31561">
        <ele>2.5999999046326</ele>
        <time>2021-03-11T08:12:22.000Z</time>
      </trkpt>
      <trkpt lat="47.26407" lon="-2.31571">
        <ele>2.5999999046326</ele>
        <time>2021-03-11T08:12:25.000Z</time>
      </trkpt>
      <trkpt lat="47.26408" lon="-2.31574">
        <ele>2.4000000953674</ele>
        <time>2021-03-11T08:12:26.000Z</time>
      </trkpt>
      <trkpt lat="47.26412" lon="-2.31594">
        <ele>2.4000000953674</ele>
        <time>2021-03-11T08:12:30.000Z</time>
      </trkpt>
      <trkpt lat="47.26417" lon="-2.3163">
        <ele>2.4000000953674</ele>
        <time>2021-03-11T08:12:37.000Z</time>
      </trkpt>
      <trkpt lat="47.26416" lon="-2.31647">
        <ele>2.4000000953674</ele>
        <time>2021-03-11T08:12:41.000Z</time>
      </trkpt>
      <trkpt lat="47.26412" lon="-2.31648">
        <ele>2.4000000953674</ele>
        <time>2021-03-11T08:12:42.000Z</time>
      </trkpt>
      <trkpt lat="47.26387" lon="-2.31663">
        <ele>2.4000000953674</ele>
        <time>2021-03-11T08:12:49.000Z</time>
      </trkpt>
      <trkpt lat="47.26364" lon="-2.31674">
        <ele>2</ele>
        <time>2021-03-11T08:12:54.000Z</time>
      </trkpt>
      <trkpt lat="47.26359" lon="-2.31676">
        <ele>1.6000000238419</ele>
        <time>2021-03-11T08:12:55.000Z</time>
      </trkpt>
      <trkpt lat="47.26354" lon="-2.31678">
        <ele>1.2000000476837</ele>
        <time>2021-03-11T08:12:56.000Z</time>
      </trkpt>
      <trkpt lat="47.26349" lon="-2.3168">
        <ele>0.80000001192093</ele>
        <time>2021-03-11T08:12:57.000Z</time>
      </trkpt>
      <trkpt lat="47.26346" lon="-2.3168">
        <ele>0.40000000596046</ele>
        <time>2021-03-11T08:12:58.000Z</time>
      </trkpt>
      <trkpt lat="47.2634" lon="-2.31684">
        <ele>0.40000000596046</ele>
        <time>2021-03-11T08:13:00.000Z</time>
      </trkpt>
      <trkpt lat="47.26332" lon="-2.31688">
        <ele>0.40000000596046</ele>
        <time>2021-03-11T08:13:02.000Z</time>
      </trkpt>
      <trkpt lat="47.26327" lon="-2.31689">
        <ele>5.8</ele>
        <time>2021-03-11T08:13:03.000Z</time>
      </trkpt>
      <trkpt lat="47.26323" lon="-2.3169">
        <ele>-0.40000000596046</ele>
        <time>2021-03-11T08:13:04.000Z</time>
      </trkpt>
      <trkpt lat="47.2632" lon="-2.31692">
        <ele>-1</ele>
        <time>2021-03-11T08:13:05.000Z</time>
      </trkpt>
      <trkpt lat="47.26316" lon="-2.31695">
        <ele>-1.3999999761581</ele>
        <time>2021-03-11T08:13:06.000Z</time>
      </trkpt>
      <trkpt lat="47.26315" lon="-2.31699">
        <ele>-1.7999999523163</ele>
        <time>2021-03-11T08:13:07.000Z</time>
      </trkpt>
      <trkpt lat="47.26313" lon="-2.3171">
        <ele>-1.7999999523163</ele>
        <time>2021-03-11T08:13:09.000Z</time>
      </trkpt>
      <trkpt lat="47.26315" lon="-2.31725">
        <ele>-1.7999999523163</ele>
        <time>2021-03-11T08:13:12.000Z</time>
      </trkpt>
      <trkpt lat="47.26316" lon="-2.31736">
        <ele>-1.7999999523163</ele>
        <time>2021-03-11T08:13:14.000Z</time>
      </trkpt>
      <trkpt lat="47.26318" lon="-2.31763">
        <ele>-1.7999999523163</ele>
        <time>2021-03-11T08:13:19.000Z</time>
      </trkpt>
      <trkpt lat="47.26316" lon="-2.31807">
        <ele>-1.7999999523163</ele>
        <time>2021-03-11T08:13:27.000Z</time>
      </trkpt>
      <trkpt lat="47.26315" lon="-2.31832">
        <ele>-1.7999999523163</ele>
        <time>2021-03-11T08:13:33.000Z</time>
      </trkpt>
      <trkpt lat="47.26315" lon="-2.31844">
        <ele>-1.7999999523163</ele>
        <time>2021-03-11T08:13:37.000Z</time>
      </trkpt>
      <trkpt lat="47.26312" lon="-2.31848">
        <ele>-1.7999999523163</ele>
        <time>2021-03-11T08:13:39.000Z</time>
      </trkpt>
      <trkpt lat="47.2631" lon="-2.3185">
        <ele>-2.2000000476837</ele>
        <time>2021-03-11T08:13:40.000Z</time>
      </trkpt>
      <trkpt lat="47.26307" lon="-2.31851">
        <ele>-2.5999999046326</ele>
        <time>2021-03-11T08:13:41.000Z</time>
      </trkpt>
      <trkpt lat="47.26304" lon="-2.31853">
        <ele>-3</ele>
        <time>2021-03-11T08:13:42.000Z</time>
      </trkpt>
      <trkpt lat="47.263" lon="-2.31856">
        <ele>-3.4000000953674</ele>
        <time>2021-03-11T08:13:43.000Z</time>
      </trkpt>
      <trkpt lat="47.26297" lon="-2.31859">
        <ele>-3.7999999523163</ele>
        <time>2021-03-11T08:13:44.000Z</time>
      </trkpt>
      <trkpt lat="47.26295" lon="-2.31863">
        <ele>-3.7999999523163</ele>
        <time>2021-03-11T08:13:45.000Z</time>
      </trkpt>
      <trkpt lat="47.26282" lon="-2.31885">
        <ele>-3.7999999523163</ele>
        <time>2021-03-11T08:13:51.000Z</time>
      </trkpt>
      <trkpt lat="47.26273" lon="-2.31899">
        <ele>-3.7999999523163</ele>
        <time>2021-03-11T08:13:56.000Z</time>
      </trkpt>
      <trkpt lat="47.26265" lon="-2.31919">
        <ele>-3.7999999523163</ele>
        <time>2021-03-11T08:14:02.000Z</time>
      </trkpt>
      <trkpt lat="47.26257" lon="-2.31925">
        <ele>-3.7999999523163</ele>
        <time>2021-03-11T08:14:06.000Z</time>
      </trkpt>
      <trkpt lat="47.26249" lon="-2.31929">
        <ele>-3.7999999523163</ele>
        <time>2021-03-11T08:14:12.000Z</time>
      </trkpt>
      <trkpt lat="47.2624" lon="-2.31939">
        <ele>-3.7999999523163</ele>
        <time>2021-03-11T08:14:17.000Z</time>
      </trkpt>
      <trkpt lat="47.26233" lon="-2.3195">
        <ele>-3.7999999523163</ele>
        <time>2021-03-11T08:14:23.000Z</time>
      </trkpt>
      <trkpt lat="47.26229" lon="-2.31963">
        <ele>-3.7999999523163</ele>
        <time>2021-03-11T08:14:28.000Z</time>
      </trkpt>
      <trkpt lat="47.26229" lon="-2.31964">
        <ele>-3.7999999523163</ele>
        <time>2021-03-11T08:14:29.000Z</time>
      </trkpt>
      <trkpt lat="47.26224" lon="-2.31965">
        <ele>-3.7999999523163</ele>
        <time>2021-03-11T08:14:32.000Z</time>
      </trkpt>
      <trkpt lat="47.26222" lon="-2.31965">
        <ele>-3.7999999523163</ele>
        <time>2021-03-11T08:14:34.000Z</time>
      </trkpt>
      <trkpt lat="47.2621" lon="-2.3197">
        <ele>-3.7999999523163</ele>
        <time>2021-03-11T08:14:39.000Z</time>
      </trkpt>
      <trkpt lat="47.26201" lon="-2.31978">
        <ele>-3.7999999523163</ele>
        <time>2021-03-11T08:14:42.000Z</time>
      </trkpt>
      <trkpt lat="47.26196" lon="-2.31987">
        <ele>-3.7999999523163</ele>
        <time>2021-03-11T08:14:44.000Z</time>
      </trkpt>
      <trkpt lat="47.26192" lon="-2.32002">
        <ele>-3.7999999523163</ele>
        <time>2021-03-11T08:14:47.000Z</time>
      </trkpt>
      <trkpt lat="47.26187" lon="-2.32018">
        <ele>-3.7999999523163</ele>
        <time>2021-03-11T08:14:50.000Z</time>
      </trkpt>
      <trkpt lat="47.26178" lon="-2.32074">
        <ele>-3.7999999523163</ele>
        <time>2021-03-11T08:14:59.000Z</time>
      </trkpt>
      <trkpt lat="47.26165" lon="-2.32114">
        <ele>-3.7999999523163</ele>
        <time>2021-03-11T08:15:06.000Z</time>
      </trkpt>
      <trkpt lat="47.26154" lon="-2.32147">
        <ele>-3.7999999523163</ele>
        <time>2021-03-11T08:15:12.000Z</time>
      </trkpt>
      <trkpt lat="47.26137" lon="-2.3218">
        <ele>-3.7999999523163</ele>
        <time>2021-03-11T08:15:19.000Z</time>
      </trkpt>
      <trkpt lat="47.26114" lon="-2.32215">
        <ele>-3.7999999523163</ele>
        <time>2021-03-11T08:15:27.000Z</time>
      </trkpt>
      <trkpt lat="47.26094" lon="-2.32245">
        <ele>-3.7999999523163</ele>
        <time>2021-03-11T08:15:34.000Z</time>
      </trkpt>
      <trkpt lat="47.26074" lon="-2.32275">
        <ele>-3.7999999523163</ele>
        <time>2021-03-11T08:15:41.000Z</time>
      </trkpt>
      <trkpt lat="47.26071" lon="-2.32279">
        <ele>-3.7999999523163</ele>
        <time>2021-03-11T08:15:42.000Z</time>
      </trkpt>
      <trkpt lat="47.26063" lon="-2.32293">
        <ele>-3.7999999523163</ele>
        <time>2021-03-11T08:15:45.000Z</time>
      </trkpt>
      <trkpt lat="47.26052" lon="-2.32311">
        <ele>-3.7999999523163</ele>
        <time>2021-03-11T08:15:49.000Z</time>
      </trkpt>
      <trkpt lat="47.26031" lon="-2.3234">
        <ele>-3.7999999523163</ele>
        <time>2021-03-11T08:15:56.000Z</time>
      </trkpt>
      <trkpt lat="47.25984" lon="-2.32391">
        <ele>-3.7999999523163</ele>
        <time>2021-03-11T08:16:05.000Z</time>
      </trkpt>
      <trkpt lat="47.25938" lon="-2.32436">
        <ele>-3.7999999523163</ele>
        <time>2021-03-11T08:16:13.000Z</time>
      </trkpt>
      <trkpt lat="47.25924" lon="-2.32454">
        <ele>-3.7999999523163</ele>
        <time>2021-03-11T08:16:18.000Z</time>
      </trkpt>
      <trkpt lat="47.25923" lon="-2.32457">
        <ele>-3.7999999523163</ele>
        <time>2021-03-11T08:16:20.000Z</time>
      </trkpt>
      <trkpt lat="47.25924" lon="-2.32462">
        <ele>-3.7999999523163</ele>
        <time>2021-03-11T08:16:22.000Z</time>
      </trkpt>
      <trkpt lat="47.25934" lon="-2.32469">
        <ele>-3.7999999523163</ele>
        <time>2021-03-11T08:16:26.000Z</time>
      </trkpt>
      <trkpt lat="47.25943" lon="-2.3249">
        <ele>-3.7999999523163</ele>
        <time>2021-03-11T08:16:30.000Z</time>
      </trkpt>
      <trkpt lat="47.25945" lon="-2.32497">
        <ele>-3.7999999523163</ele>
        <time>2021-03-11T08:16:31.000Z</time>
      </trkpt>
      <trkpt lat="47.25951" lon="-2.32528">
        <ele>-3.7999999523163</ele>
        <time>2021-03-11T08:16:36.000Z</time>
      </trkpt>
      <trkpt lat="47.25963" lon="-2.3259">
        <ele>-3.7999999523163</ele>
        <time>2021-03-11T08:16:46.000Z</time>
      </trkpt>
      <trkpt lat="47.25968" lon="-2.32635">
        <ele>-3.7999999523163</ele>
        <time>2021-03-11T08:16:53.000Z</time>
      </trkpt>
      <trkpt lat="47.25968" lon="-2.32656">
        <ele>-3.7999999523163</ele>
        <time>2021-03-11T08:16:57.000Z</time>
      </trkpt>
      <trkpt lat="47.25972" lon="-2.32657">
        <ele>-3.7999999523163</ele>
        <time>2021-03-11T08:16:58.000Z</time>
      </trkpt>
      <trkpt lat="47.25983" lon="-2.32656">
        <ele>-3.7999999523163</ele>
        <time>2021-03-11T08:17:01.000Z</time>
      </trkpt>
      <trkpt lat="47.25986" lon="-2.32656">
        <ele>-3.7999999523163</ele>
        <time>2021-03-11T08:17:02.000Z</time>
      </trkpt>
      <trkpt lat="47.2601" lon="-2.32655">
        <ele>-3.7999999523163</ele>
        <time>2021-03-11T08:17:08.000Z</time>
      </trkpt>
      <trkpt lat="47.26035" lon="-2.32653">
        <ele>-3.7999999523163</ele>
        <time>2021-03-11T08:17:14.000Z</time>
      </trkpt>
      <trkpt lat="47.26064" lon="-2.32646">
        <ele>-3.7999999523163</ele>
        <time>2021-03-11T08:17:21.000Z</time>
      </trkpt>
      <trkpt lat="47.26096" lon="-2.32641">
        <ele>-3.7999999523163</ele>
        <time>2021-03-11T08:17:29.000Z</time>
      </trkpt>
      <trkpt lat="47.26131" lon="-2.32639">
        <ele>-3.7999999523163</ele>
        <time>2021-03-11T08:17:37.000Z</time>
      </trkpt>
      <trkpt lat="47.26166" lon="-2.32652">
        <ele>-3.7999999523163</ele>
        <time>2021-03-11T08:17:45.000Z</time>
      </trkpt>
      <trkpt lat="47.26187" lon="-2.32668">
        <ele>-3.7999999523163</ele>
        <time>2021-03-11T08:17:50.000Z</time>
      </trkpt>
      <trkpt lat="47.26195" lon="-2.32676">
        <ele>-3.4000000953674</ele>
        <time>2021-03-11T08:17:52.000Z</time>
      </trkpt>
      <trkpt lat="47.26198" lon="-2.3268">
        <ele>-3</ele>
        <time>2021-03-11T08:17:53.000Z</time>
      </trkpt>
      <trkpt lat="47.26202" lon="-2.32685">
        <ele>-2.5999999046326</ele>
        <time>2021-03-11T08:17:54.000Z</time>
      </trkpt>
      <trkpt lat="47.26205" lon="-2.32689">
        <ele>-2.2000000476837</ele>
        <time>2021-03-11T08:17:55.000Z</time>
      </trkpt>
      <trkpt lat="47.26208" lon="-2.32694">
        <ele>-1.7999999523163</ele>
        <time>2021-03-11T08:17:56.000Z</time>
      </trkpt>
      <trkpt lat="47.26215" lon="-2.32704">
        <ele>-1.7999999523163</ele>
        <time>2021-03-11T08:17:58.000Z</time>
      </trkpt>
      <trkpt lat="47.26243" lon="-2.32748">
        <ele>-1.7999999523163</ele>
        <time>2021-03-11T08:18:06.000Z</time>
      </trkpt>
      <trkpt lat="47.26268" lon="-2.32796">
        <ele>-1.7999999523163</ele>
        <time>2021-03-11T08:18:14.000Z</time>
      </trkpt>
      <trkpt lat="47.26281" lon="-2.32838">
        <ele>-1.7999999523163</ele>
        <time>2021-03-11T08:18:20.000Z</time>
      </trkpt>
      <trkpt lat="47.26283" lon="-2.32844">
        <ele>-1.7999999523163</ele>
        <time>2021-03-11T08:18:21.000Z</time>
      </trkpt>
      <trkpt lat="47.26297" lon="-2.32862">
        <ele>-1.7999999523163</ele>
        <time>2021-03-11T08:18:25.000Z</time>
      </trkpt>
      <trkpt lat="47.26301" lon="-2.32864">
        <ele>-2.4000000953674</ele>
        <time>2021-03-11T08:18:26.000Z</time>
      </trkpt>
      <trkpt lat="47.26306" lon="-2.32865">
        <ele>-2.7999999523163</ele>
        <time>2021-03-11T08:18:27.000Z</time>
      </trkpt>
      <trkpt lat="47.2631" lon="-2.32869">
        <ele>-3.2000000476837</ele>
        <time>2021-03-11T08:18:28.000Z</time>
      </trkpt>
      <trkpt lat="47.26313" lon="-2.32874">
        <ele>-3.5999999046326</ele>
        <time>2021-03-11T08:18:29.000Z</time>
      </trkpt>
      <trkpt lat="47.26315" lon="-2.3288">
        <ele>-4.1999998092651</ele>
        <time>2021-03-11T08:18:30.000Z</time>
      </trkpt>
      <trkpt lat="47.26326" lon="-2.32911">
        <ele>-4.1999998092651</ele>
        <time>2021-03-11T08:18:35.000Z</time>
      </trkpt>
      <trkpt lat="47.26332" lon="-2.32929">
        <ele>-4.1999998092651</ele>
        <time>2021-03-11T08:18:38.000Z</time>
      </trkpt>
      <trkpt lat="47.2635" lon="-2.32974">
        <ele>-4.1999998092651</ele>
        <time>2021-03-11T08:18:46.000Z</time>
      </trkpt>
      <trkpt lat="47.26362" lon="-2.32992">
        <ele>-4.1999998092651</ele>
        <time>2021-03-11T08:18:50.000Z</time>
      </trkpt>
      <trkpt lat="47.26362" lon="-2.32998">
        <ele>-4.1999998092651</ele>
        <time>2021-03-11T08:18:51.000Z</time>
      </trkpt>
      <trkpt lat="47.26364" lon="-2.33024">
        <ele>-4.1999998092651</ele>
        <time>2021-03-11T08:18:55.000Z</time>
      </trkpt>
      <trkpt lat="47.26364" lon="-2.33037">
        <ele>-4.1999998092651</ele>
        <time>2021-03-11T08:18:57.000Z</time>
      </trkpt>
      <trkpt lat="47.26365" lon="-2.33071">
        <ele>-4.1999998092651</ele>
        <time>2021-03-11T08:19:02.000Z</time>
      </trkpt>
      <trkpt lat="47.26366" lon="-2.3309">
        <ele>-4.1999998092651</ele>
        <time>2021-03-11T08:19:05.000Z</time>
      </trkpt>
      <trkpt lat="47.2637" lon="-2.33148">
        <ele>-4.1999998092651</ele>
        <time>2021-03-11T08:19:14.000Z</time>
      </trkpt>
      <trkpt lat="47.26375" lon="-2.33209">
        <ele>-4.1999998092651</ele>
        <time>2021-03-11T08:19:24.000Z</time>
      </trkpt>
      <trkpt lat="47.26378" lon="-2.33241">
        <ele>-4.1999998092651</ele>
        <time>2021-03-11T08:19:29.000Z</time>
      </trkpt>
      <trkpt lat="47.26381" lon="-2.33254">
        <ele>-4.1999998092651</ele>
        <time>2021-03-11T08:19:31.000Z</time>
      </trkpt>
      <trkpt lat="47.26391" lon="-2.33265">
        <ele>-4.1999998092651</ele>
        <time>2021-03-11T08:19:34.000Z</time>
      </trkpt>
      <trkpt lat="47.26405" lon="-2.33267">
        <ele>-4.1999998092651</ele>
        <time>2021-03-11T08:19:37.000Z</time>
      </trkpt>
      <trkpt lat="47.26415" lon="-2.33268">
        <ele>-4.1999998092651</ele>
        <time>2021-03-11T08:19:39.000Z</time>
      </trkpt>
      <trkpt lat="47.26447" lon="-2.33272">
        <ele>-4.1999998092651</ele>
        <time>2021-03-11T08:19:46.000Z</time>
      </trkpt>
      <trkpt lat="47.26471" lon="-2.33278">
        <ele>-4.1999998092651</ele>
        <time>2021-03-11T08:19:52.000Z</time>
      </trkpt>
      <trkpt lat="47.26495" lon="-2.33281">
        <ele>-4.1999998092651</ele>
        <time>2021-03-11T08:19:59.000Z</time>
      </trkpt>
      <trkpt lat="47.2651" lon="-2.33289">
        <ele>-4.1999998092651</ele>
        <time>2021-03-11T08:20:03.000Z</time>
      </trkpt>
      <trkpt lat="47.26527" lon="-2.3329">
        <ele>-4.1999998092651</ele>
        <time>2021-03-11T08:20:07.000Z</time>
      </trkpt>
      <trkpt lat="47.26532" lon="-2.33294">
        <ele>-4.1999998092651</ele>
        <time>2021-03-11T08:20:10.000Z</time>
      </trkpt>
      <trkpt lat="47.26539" lon="-2.33298">
        <ele>-4.1999998092651</ele>
        <time>2021-03-11T08:20:14.000Z</time>
      </trkpt>
      <trkpt lat="47.26544" lon="-2.33291">
        <ele>-4.1999998092651</ele>
        <time>2021-03-11T08:20:16.000Z</time>
      </trkpt>
      <trkpt lat="47.26553" lon="-2.3328">
        <ele>-4.1999998092651</ele>
        <time>2021-03-11T08:20:19.000Z</time>
      </trkpt>
      <trkpt lat="47.26575" lon="-2.33257">
        <ele>-4.1999998092651</ele>
        <time>2021-03-11T08:20:25.000Z</time>
      </trkpt>
      <trkpt lat="47.26602" lon="-2.33231">
        <ele>-4.1999998092651</ele>
        <time>2021-03-11T08:20:32.000Z</time>
      </trkpt>
      <trkpt lat="47.26605" lon="-2.33227">
        <ele>-4.1999998092651</ele>
        <time>2021-03-11T08:20:33.000Z</time>
      </trkpt>
      <trkpt lat="47.26636" lon="-2.33195">
        <ele>-4.1999998092651</ele>
        <time>2021-03-11T08:20:41.000Z</time>
      </trkpt>
      <trkpt lat="47.2666" lon="-2.33173">
        <ele>-4.1999998092651</ele>
        <time>2021-03-11T08:20:47.000Z</time>
      </trkpt>
      <trkpt lat="47.26694" lon="-2.33139">
        <ele>-4.1999998092651</ele>
        <time>2021-03-11T08:20:56.000Z</time>
      </trkpt>
      <trkpt lat="47.2672" lon="-2.33111">
        <ele>-4.1999998092651</ele>
        <time>2021-03-11T08:21:03.000Z</time>
      </trkpt>
      <trkpt lat="47.26731" lon="-2.33099">
        <ele>-3.7999999523163</ele>
        <time>2021-03-11T08:21:06.000Z</time>
      </trkpt>
      <trkpt lat="47.26734" lon="-2.33096">
        <ele>-3.4000000953674</ele>
        <time>2021-03-11T08:21:07.000Z</time>
      </trkpt>
      <trkpt lat="47.26737" lon="-2.33092">
        <ele>-2.7999999523163</ele>
        <time>2021-03-11T08:21:08.000Z</time>
      </trkpt>
      <trkpt lat="47.2674" lon="-2.33089">
        <ele>-2.4000000953674</ele>
        <time>2021-03-11T08:21:09.000Z</time>
      </trkpt>
      <trkpt lat="47.26744" lon="-2.33087">
        <ele>-2</ele>
        <time>2021-03-11T08:21:10.000Z</time>
      </trkpt>
      <trkpt lat="47.26754" lon="-2.33092">
        <ele>-2</ele>
        <time>2021-03-11T08:21:13.000Z</time>
      </trkpt>
      <trkpt lat="47.26762" lon="-2.33117">
        <ele>-2</ele>
        <time>2021-03-11T08:21:17.000Z</time>
      </trkpt>
      <trkpt lat="47.26761" lon="-2.33152">
        <ele>-2</ele>
        <time>2021-03-11T08:21:22.000Z</time>
      </trkpt>
      <trkpt lat="47.2676" lon="-2.33158">
        <ele>-2</ele>
        <time>2021-03-11T08:21:23.000Z</time>
      </trkpt>
      <trkpt lat="47.26748" lon="-2.33189">
        <ele>-2</ele>
        <time>2021-03-11T08:21:28.000Z</time>
      </trkpt>
      <trkpt lat="47.26733" lon="-2.33224">
        <ele>-2</ele>
        <time>2021-03-11T08:21:34.000Z</time>
      </trkpt>
      <trkpt lat="47.26725" lon="-2.33271">
        <ele>-2</ele>
        <time>2021-03-11T08:21:41.000Z</time>
      </trkpt>
      <trkpt lat="47.26725" lon="-2.33285">
        <ele>-2</ele>
        <time>2021-03-11T08:21:43.000Z</time>
      </trkpt>
      <trkpt lat="47.2673" lon="-2.333">
        <ele>-2</ele>
        <time>2021-03-11T08:21:45.000Z</time>
      </trkpt>
      <trkpt lat="47.26742" lon="-2.3334">
        <ele>-2</ele>
        <time>2021-03-11T08:21:51.000Z</time>
      </trkpt>
      <trkpt lat="47.26749" lon="-2.33391">
        <ele>-2</ele>
        <time>2021-03-11T08:21:58.000Z</time>
      </trkpt>
      <trkpt lat="47.26753" lon="-2.33425">
        <ele>-2</ele>
        <time>2021-03-11T08:22:03.000Z</time>
      </trkpt>
      <trkpt lat="47.26754" lon="-2.33438">
        <ele>-2</ele>
        <time>2021-03-11T08:22:05.000Z</time>
      </trkpt>
      <trkpt lat="47.26764" lon="-2.33498">
        <ele>-2</ele>
        <time>2021-03-11T08:22:14.000Z</time>
      </trkpt>
      <trkpt lat="47.26774" lon="-2.33556">
        <ele>-2</ele>
        <time>2021-03-11T08:22:23.000Z</time>
      </trkpt>
      <trkpt lat="47.26775" lon="-2.33562">
        <ele>-2</ele>
        <time>2021-03-11T08:22:24.000Z</time>
      </trkpt>
      <trkpt lat="47.26781" lon="-2.33569">
        <ele>-2</ele>
        <time>2021-03-11T08:22:26.000Z</time>
      </trkpt>
      <trkpt lat="47.26789" lon="-2.33568">
        <ele>-2</ele>
        <time>2021-03-11T08:22:28.000Z</time>
      </trkpt>
      <trkpt lat="47.26797" lon="-2.33566">
        <ele>-2</ele>
        <time>2021-03-11T08:22:30.000Z</time>
      </trkpt>
      <trkpt lat="47.26818" lon="-2.33552">
        <ele>-2</ele>
        <time>2021-03-11T08:22:36.000Z</time>
      </trkpt>
      <trkpt lat="47.2684" lon="-2.33544">
        <ele>-2</ele>
        <time>2021-03-11T08:22:41.000Z</time>
      </trkpt>
      <trkpt lat="47.26844" lon="-2.33542">
        <ele>-2</ele>
        <time>2021-03-11T08:22:42.000Z</time>
      </trkpt>
      <trkpt lat="47.26865" lon="-2.33534">
        <ele>-2</ele>
        <time>2021-03-11T08:22:47.000Z</time>
      </trkpt>
      <trkpt lat="47.26874" lon="-2.33534">
        <ele>-2</ele>
        <time>2021-03-11T08:22:49.000Z</time>
      </trkpt>
      <trkpt lat="47.26883" lon="-2.33539">
        <ele>-2</ele>
        <time>2021-03-11T08:22:51.000Z</time>
      </trkpt>
      <trkpt lat="47.26889" lon="-2.33547">
        <ele>-2</ele>
        <time>2021-03-11T08:22:53.000Z</time>
      </trkpt>
      <trkpt lat="47.26894" lon="-2.33556">
        <ele>-1.2000000476837</ele>
        <time>2021-03-11T08:22:55.000Z</time>
      </trkpt>
      <trkpt lat="47.26896" lon="-2.33561">
        <ele>-0.80000001192093</ele>
        <time>2021-03-11T08:22:56.000Z</time>
      </trkpt>
      <trkpt lat="47.26899" lon="-2.33567">
        <ele>-0.20000000298023</ele>
        <time>2021-03-11T08:22:57.000Z</time>
      </trkpt>
      <trkpt lat="47.26901" lon="-2.33572">
        <ele>0.20000000298023</ele>
        <time>2021-03-11T08:22:58.000Z</time>
      </trkpt>
      <trkpt lat="47.26913" lon="-2.336">
        <ele>0.20000000298023</ele>
        <time>2021-03-11T08:23:03.000Z</time>
      </trkpt>
      <trkpt lat="47.26918" lon="-2.33615">
        <ele>0.60000002384186</ele>
        <time>2021-03-11T08:23:06.000Z</time>
      </trkpt>
      <trkpt lat="47.26919" lon="-2.3362">
        <ele>1</ele>
        <time>2021-03-11T08:23:07.000Z</time>
      </trkpt>
      <trkpt lat="47.2692" lon="-2.33626">
        <ele>1.3999999761581</ele>
        <time>2021-03-11T08:23:08.000Z</time>
      </trkpt>
      <trkpt lat="47.26921" lon="-2.33631">
        <ele>1.7999999523163</ele>
        <time>2021-03-11T08:23:09.000Z</time>
      </trkpt>
      <trkpt lat="47.26922" lon="-2.33637">
        <ele>2.2000000476837</ele>
        <time>2021-03-11T08:23:10.000Z</time>
      </trkpt>
      <trkpt lat="47.26931" lon="-2.33676">
        <ele>2.2000000476837</ele>
        <time>2021-03-11T08:23:17.000Z</time>
      </trkpt>
      <trkpt lat="47.26938" lon="-2.3371">
        <ele>2.2000000476837</ele>
        <time>2021-03-11T08:23:23.000Z</time>
      </trkpt>
      <trkpt lat="47.2694" lon="-2.33722">
        <ele>2.5999999046326</ele>
        <time>2021-03-11T08:23:25.000Z</time>
      </trkpt>
      <trkpt lat="47.26939" lon="-2.33728">
        <ele>3</ele>
        <time>2021-03-11T08:23:26.000Z</time>
      </trkpt>
      <trkpt lat="47.26938" lon="-2.33733">
        <ele>3.4000000953674</ele>
        <time>2021-03-11T08:23:27.000Z</time>
      </trkpt>
      <trkpt lat="47.26937" lon="-2.33739">
        <ele>3.7999999523163</ele>
        <time>2021-03-11T08:23:28.000Z</time>
      </trkpt>
      <trkpt lat="47.26935" lon="-2.33745">
        <ele>4.1999998092651</ele>
        <time>2021-03-11T08:23:29.000Z</time>
      </trkpt>
      <trkpt lat="47.26928" lon="-2.33777">
        <ele>4.1999998092651</ele>
        <time>2021-03-11T08:23:34.000Z</time>
      </trkpt>
      <trkpt lat="47.26927" lon="-2.33784">
        <ele>4.1999998092651</ele>
        <time>2021-03-11T08:23:35.000Z</time>
      </trkpt>
      <trkpt lat="47.26931" lon="-2.33803">
        <ele>4.1999998092651</ele>
        <time>2021-03-11T08:23:38.000Z</time>
      </trkpt>
      <trkpt lat="47.26943" lon="-2.33819">
        <ele>4.1999998092651</ele>
        <time>2021-03-11T08:23:42.000Z</time>
      </trkpt>
      <trkpt lat="47.26947" lon="-2.33822">
        <ele>4.1999998092651</ele>
        <time>2021-03-11T08:23:43.000Z</time>
      </trkpt>
      <trkpt lat="47.26954" lon="-2.33828">
        <ele>4.1999998092651</ele>
        <time>2021-03-11T08:23:45.000Z</time>
      </trkpt>
      <trkpt lat="47.26969" lon="-2.33837">
        <ele>4.1999998092651</ele>
        <time>2021-03-11T08:23:49.000Z</time>
      </trkpt>
      <trkpt lat="47.26992" lon="-2.3385">
        <ele>4.1999998092651</ele>
        <time>2021-03-11T08:23:56.000Z</time>
      </trkpt>
      <trkpt lat="47.26995" lon="-2.33852">
        <ele>4.8000001907349</ele>
        <time>2021-03-11T08:23:57.000Z</time>
      </trkpt>
      <trkpt lat="47.26998" lon="-2.33854">
        <ele>5.1999998092651</ele>
        <time>2021-03-11T08:23:58.000Z</time>
      </trkpt>
      <trkpt lat="47.27" lon="-2.33857">
        <ele>5.5999999046326</ele>
        <time>2021-03-11T08:23:59.000Z</time>
      </trkpt>
      <trkpt lat="47.27004" lon="-2.33858">
        <ele>6</ele>
        <time>2021-03-11T08:24:00.000Z</time>
      </trkpt>
      <trkpt lat="47.27007" lon="-2.3386">
        <ele>6.4000000953674</ele>
        <time>2021-03-11T08:24:01.000Z</time>
      </trkpt>
      <trkpt lat="47.27012" lon="-2.33863">
        <ele>6.4000000953674</ele>
        <time>2021-03-11T08:24:03.000Z</time>
      </trkpt>
      <trkpt lat="47.27021" lon="-2.33869">
        <ele>6.8000001907349</ele>
        <time>2021-03-11T08:24:06.000Z</time>
      </trkpt>
      <trkpt lat="47.27024" lon="-2.33871">
        <ele>7.1999998092651</ele>
        <time>2021-03-11T08:24:07.000Z</time>
      </trkpt>
      <trkpt lat="47.27026" lon="-2.33873">
        <ele>7.5999999046326</ele>
        <time>2021-03-11T08:24:08.000Z</time>
      </trkpt>
      <trkpt lat="47.27029" lon="-2.33876">
        <ele>8.6000003814697</ele>
        <time>2021-03-11T08:24:09.000Z</time>
      </trkpt>
      <trkpt lat="47.27032" lon="-2.33878">
        <ele>8.6000003814697</ele>
        <time>2021-03-11T08:24:10.000Z</time>
      </trkpt>
      <trkpt lat="47.27053" lon="-2.33897">
        <ele>8.6000003814697</ele>
        <time>2021-03-11T08:24:17.000Z</time>
      </trkpt>
      <trkpt lat="47.27072" lon="-2.33917">
        <ele>9</ele>
        <time>2021-03-11T08:24:24.000Z</time>
      </trkpt>
      <trkpt lat="47.27075" lon="-2.33919">
        <ele>9.3999996185303</ele>
        <time>2021-03-11T08:24:25.000Z</time>
      </trkpt>
      <trkpt lat="47.27077" lon="-2.33921">
        <ele>9.8000001907349</ele>
        <time>2021-03-11T08:24:26.000Z</time>
      </trkpt>
      <trkpt lat="47.27079" lon="-2.33923">
        <ele>10.39999961853</ele>
        <time>2021-03-11T08:24:27.000Z</time>
      </trkpt>
      <trkpt lat="47.27081" lon="-2.33925">
        <ele>10.800000190735</ele>
        <time>2021-03-11T08:24:28.000Z</time>
      </trkpt>
      <trkpt lat="47.27091" lon="-2.33933">
        <ele>10.800000190735</ele>
        <time>2021-03-11T08:24:32.000Z</time>
      </trkpt>
      <trkpt lat="47.27103" lon="-2.33944">
        <ele>11.199999809265</ele>
        <time>2021-03-11T08:24:37.000Z</time>
      </trkpt>
      <trkpt lat="47.27106" lon="-2.33946">
        <ele>11.60000038147</ele>
        <time>2021-03-11T08:24:38.000Z</time>
      </trkpt>
      <trkpt lat="47.27108" lon="-2.33948">
        <ele>12</ele>
        <time>2021-03-11T08:24:39.000Z</time>
      </trkpt>
      <trkpt lat="47.2711" lon="-2.3395">
        <ele>12.39999961853</ele>
        <time>2021-03-11T08:24:40.000Z</time>
      </trkpt>
      <trkpt lat="47.27113" lon="-2.33952">
        <ele>12.800000190735</ele>
        <time>2021-03-11T08:24:41.000Z</time>
      </trkpt>
      <trkpt lat="47.2712" lon="-2.3396">
        <ele>13.199999809265</ele>
        <time>2021-03-11T08:24:44.000Z</time>
      </trkpt>
      <trkpt lat="47.27123" lon="-2.33963">
        <ele>13.60000038147</ele>
        <time>2021-03-11T08:24:45.000Z</time>
      </trkpt>
      <trkpt lat="47.27126" lon="-2.33966">
        <ele>14.199999809265</ele>
        <time>2021-03-11T08:24:46.000Z</time>
      </trkpt>
      <trkpt lat="47.27129" lon="-2.33969">
        <ele>14.60000038147</ele>
        <time>2021-03-11T08:24:47.000Z</time>
      </trkpt>
      <trkpt lat="47.27131" lon="-2.33971">
        <ele>15</ele>
        <time>2021-03-11T08:24:48.000Z</time>
      </trkpt>
      <trkpt lat="47.27151" lon="-2.33991">
        <ele>15</ele>
        <time>2021-03-11T08:24:55.000Z</time>
      </trkpt>
      <trkpt lat="47.27177" lon="-2.34018">
        <ele>15</ele>
        <time>2021-03-11T08:25:03.000Z</time>
      </trkpt>
      <trkpt lat="47.27203" lon="-2.34043">
        <ele>15</ele>
        <time>2021-03-11T08:25:11.000Z</time>
      </trkpt>
      <trkpt lat="47.27214" lon="-2.3405">
        <ele>15.39999961853</ele>
        <time>2021-03-11T08:25:14.000Z</time>
      </trkpt>
      <trkpt lat="47.27217" lon="-2.3405">
        <ele>15.800000190735</ele>
        <time>2021-03-11T08:25:15.000Z</time>
      </trkpt>
      <trkpt lat="47.27221" lon="-2.34051">
        <ele>16.200000762939</ele>
        <time>2021-03-11T08:25:16.000Z</time>
      </trkpt>
      <trkpt lat="47.27225" lon="-2.34051">
        <ele>16.60000038147</ele>
        <time>2021-03-11T08:25:17.000Z</time>
      </trkpt>
      <trkpt lat="47.27228" lon="-2.34051">
        <ele>17</ele>
        <time>2021-03-11T08:25:18.000Z</time>
      </trkpt>
      <trkpt lat="47.27247" lon="-2.34052">
        <ele>17</ele>
        <time>2021-03-11T08:25:23.000Z</time>
      </trkpt>
      <trkpt lat="47.27269" lon="-2.34065">
        <ele>17</ele>
        <time>2021-03-11T08:25:29.000Z</time>
      </trkpt>
      <trkpt lat="47.27276" lon="-2.34088">
        <ele>17</ele>
        <time>2021-03-11T08:25:33.000Z</time>
      </trkpt>
      <trkpt lat="47.27279" lon="-2.34107">
        <ele>17.39999961853</ele>
        <time>2021-03-11T08:25:36.000Z</time>
      </trkpt>
      <trkpt lat="47.2728" lon="-2.34113">
        <ele>18</ele>
        <time>2021-03-11T08:25:37.000Z</time>
      </trkpt>
      <trkpt lat="47.27283" lon="-2.34118">
        <ele>18.39999961853</ele>
        <time>2021-03-11T08:25:38.000Z</time>
      </trkpt>
      <trkpt lat="47.27287" lon="-2.34122">
        <ele>18.799999237061</ele>
        <time>2021-03-11T08:25:39.000Z</time>
      </trkpt>
      <trkpt lat="47.27291" lon="-2.34125">
        <ele>19.39999961853</ele>
        <time>2021-03-11T08:25:40.000Z</time>
      </trkpt>
      <trkpt lat="47.27295" lon="-2.34128">
        <ele>18.799999237061</ele>
        <time>2021-03-11T08:25:41.000Z</time>
      </trkpt>
      <trkpt lat="47.27299" lon="-2.34132">
        <ele>18.39999961853</ele>
        <time>2021-03-11T08:25:42.000Z</time>
      </trkpt>
      <trkpt lat="47.27303" lon="-2.34135">
        <ele>18</ele>
        <time>2021-03-11T08:25:43.000Z</time>
      </trkpt>
      <trkpt lat="47.27307" lon="-2.34138">
        <ele>17.39999961853</ele>
        <time>2021-03-11T08:25:44.000Z</time>
      </trkpt>
      <trkpt lat="47.27312" lon="-2.34142">
        <ele>17</ele>
        <time>2021-03-11T08:25:45.000Z</time>
      </trkpt>
      <trkpt lat="47.27337" lon="-2.34158">
        <ele>17</ele>
        <time>2021-03-11T08:25:51.000Z</time>
      </trkpt>
      <trkpt lat="47.27374" lon="-2.34177">
        <ele>17</ele>
        <time>2021-03-11T08:25:59.000Z</time>
      </trkpt>
      <trkpt lat="47.27378" lon="-2.3418">
        <ele>17</ele>
        <time>2021-03-11T08:26:00.000Z</time>
      </trkpt>
      <trkpt lat="47.27394" lon="-2.34202">
        <ele>17</ele>
        <time>2021-03-11T08:26:05.000Z</time>
      </trkpt>
      <trkpt lat="47.27396" lon="-2.34207">
        <ele>17</ele>
        <time>2021-03-11T08:26:06.000Z</time>
      </trkpt>
      <trkpt lat="47.27403" lon="-2.34232">
        <ele>17</ele>
        <time>2021-03-11T08:26:11.000Z</time>
      </trkpt>
      <trkpt lat="47.27406" lon="-2.34238">
        <ele>17</ele>
        <time>2021-03-11T08:26:13.000Z</time>
      </trkpt>
      <trkpt lat="47.27411" lon="-2.34238">
        <ele>17</ele>
        <time>2021-03-11T08:26:15.000Z</time>
      </trkpt>
      <trkpt lat="47.27415" lon="-2.34248">
        <ele>17</ele>
        <time>2021-03-11T08:26:18.000Z</time>
      </trkpt>
      <trkpt lat="47.27415" lon="-2.34253">
        <ele>17</ele>
        <time>2021-03-11T08:26:19.000Z</time>
      </trkpt>
      <trkpt lat="47.27416" lon="-2.34284">
        <ele>17</ele>
        <time>2021-03-11T08:26:24.000Z</time>
      </trkpt>
      <trkpt lat="47.27414" lon="-2.34327">
        <ele>17</ele>
        <time>2021-03-11T08:26:31.000Z</time>
      </trkpt>
      <trkpt lat="47.27419" lon="-2.34367">
        <ele>17</ele>
        <time>2021-03-11T08:26:37.000Z</time>
      </trkpt>
      <trkpt lat="47.27424" lon="-2.34416">
        <ele>17</ele>
        <time>2021-03-11T08:26:45.000Z</time>
      </trkpt>
      <trkpt lat="47.27425" lon="-2.34429">
        <ele>17.39999961853</ele>
        <time>2021-03-11T08:26:47.000Z</time>
      </trkpt>
      <trkpt lat="47.27425" lon="-2.34435">
        <ele>17.799999237061</ele>
        <time>2021-03-11T08:26:48.000Z</time>
      </trkpt>
      <trkpt lat="47.27425" lon="-2.34441">
        <ele>18.200000762939</ele>
        <time>2021-03-11T08:26:49.000Z</time>
      </trkpt>
      <trkpt lat="47.27426" lon="-2.34446">
        <ele>18.60000038147</ele>
        <time>2021-03-11T08:26:50.000Z</time>
      </trkpt>
      <trkpt lat="47.27426" lon="-2.34452">
        <ele>19</ele>
        <time>2021-03-11T08:26:51.000Z</time>
      </trkpt>
      <trkpt lat="47.27426" lon="-2.34465">
        <ele>19</ele>
        <time>2021-03-11T08:26:53.000Z</time>
      </trkpt>
      <trkpt lat="47.27433" lon="-2.34507">
        <ele>19</ele>
        <time>2021-03-11T08:27:00.000Z</time>
      </trkpt>
      <trkpt lat="47.2744" lon="-2.34542">
        <ele>19</ele>
        <time>2021-03-11T08:27:06.000Z</time>
      </trkpt>
      <trkpt lat="47.27447" lon="-2.34572">
        <ele>19.39999961853</ele>
        <time>2021-03-11T08:27:11.000Z</time>
      </trkpt>
      <trkpt lat="47.27449" lon="-2.34578">
        <ele>19.799999237061</ele>
        <time>2021-03-11T08:27:12.000Z</time>
      </trkpt>
      <trkpt lat="47.2745" lon="-2.34584">
        <ele>20.200000762939</ele>
        <time>2021-03-11T08:27:13.000Z</time>
      </trkpt>
      <trkpt lat="47.27451" lon="-2.3459">
        <ele>20.60000038147</ele>
        <time>2021-03-11T08:27:14.000Z</time>
      </trkpt>
      <trkpt lat="47.27452" lon="-2.34596">
        <ele>21</ele>
        <time>2021-03-11T08:27:15.000Z</time>
      </trkpt>
      <trkpt lat="47.27456" lon="-2.34631">
        <ele>21</ele>
        <time>2021-03-11T08:27:20.000Z</time>
      </trkpt>
      <trkpt lat="47.27459" lon="-2.34682">
        <ele>21</ele>
        <time>2021-03-11T08:27:27.000Z</time>
      </trkpt>
      <trkpt lat="47.2746" lon="-2.34688">
        <ele>21</ele>
        <time>2021-03-11T08:27:28.000Z</time>
      </trkpt>
      <trkpt lat="47.27466" lon="-2.34692">
        <ele>21</ele>
        <time>2021-03-11T08:27:30.000Z</time>
      </trkpt>
      <trkpt lat="47.27471" lon="-2.34691">
        <ele>20.60000038147</ele>
        <time>2021-03-11T08:27:31.000Z</time>
      </trkpt>
      <trkpt lat="47.27475" lon="-2.34689">
        <ele>20.200000762939</ele>
        <time>2021-03-11T08:27:32.000Z</time>
      </trkpt>
      <trkpt lat="47.27479" lon="-2.34686">
        <ele>19.799999237061</ele>
        <time>2021-03-11T08:27:33.000Z</time>
      </trkpt>
      <trkpt lat="47.27483" lon="-2.34684">
        <ele>19.39999961853</ele>
        <time>2021-03-11T08:27:34.000Z</time>
      </trkpt>
      <trkpt lat="47.27488" lon="-2.34681">
        <ele>19</ele>
        <time>2021-03-11T08:27:35.000Z</time>
      </trkpt>
      <trkpt lat="47.27492" lon="-2.3468">
        <ele>19</ele>
        <time>2021-03-11T08:27:36.000Z</time>
      </trkpt>
      <trkpt lat="47.27511" lon="-2.34677">
        <ele>19</ele>
        <time>2021-03-11T08:27:40.000Z</time>
      </trkpt>
      <trkpt lat="47.27538" lon="-2.34675">
        <ele>19</ele>
        <time>2021-03-11T08:27:46.000Z</time>
      </trkpt>
      <trkpt lat="47.27543" lon="-2.34673">
        <ele>19</ele>
        <time>2021-03-11T08:27:47.000Z</time>
      </trkpt>
      <trkpt lat="47.27566" lon="-2.3466">
        <ele>19</ele>
        <time>2021-03-11T08:27:52.000Z</time>
      </trkpt>
      <trkpt lat="47.27571" lon="-2.34656">
        <ele>19</ele>
        <time>2021-03-11T08:27:53.000Z</time>
      </trkpt>
      <trkpt lat="47.27603" lon="-2.34625">
        <ele>19</ele>
        <time>2021-03-11T08:28:00.000Z</time>
      </trkpt>
      <trkpt lat="47.27642" lon="-2.34587">
        <ele>19</ele>
        <time>2021-03-11T08:28:08.000Z</time>
      </trkpt>
      <trkpt lat="47.27669" lon="-2.34564">
        <ele>19</ele>
        <time>2021-03-11T08:28:14.000Z</time>
      </trkpt>
      <trkpt lat="47.27672" lon="-2.34564">
        <ele>19</ele>
        <time>2021-03-11T08:28:15.000Z</time>
      </trkpt>
      <trkpt lat="47.27678" lon="-2.34569">
        <ele>19</ele>
        <time>2021-03-11T08:28:17.000Z</time>
      </trkpt>
      <trkpt lat="47.27684" lon="-2.34581">
        <ele>19</ele>
        <time>2021-03-11T08:28:20.000Z</time>
      </trkpt>
      <trkpt lat="47.27688" lon="-2.34591">
        <ele>19</ele>
        <time>2021-03-11T08:28:23.000Z</time>
      </trkpt>
      <trkpt lat="47.27687" lon="-2.34593">
        <ele>19</ele>
        <time>2021-03-11T08:28:24.000Z</time>
      </trkpt>
      <trkpt lat="47.27684" lon="-2.34593">
        <ele>19</ele>
        <time>2021-03-11T08:28:27.000Z</time>
      </trkpt>
      <trkpt lat="47.27684" lon="-2.34585">
        <ele>19</ele>
        <time>2021-03-11T08:28:30.000Z</time>
      </trkpt>
      <trkpt lat="47.27683" lon="-2.34581">
        <ele>19</ele>
        <time>2021-03-11T08:28:31.000Z</time>
      </trkpt>
      <trkpt lat="47.27679" lon="-2.34559">
        <ele>19</ele>
        <time>2021-03-11T08:28:36.000Z</time>
      </trkpt>
      <trkpt lat="47.27681" lon="-2.34555">
        <ele>19</ele>
        <time>2021-03-11T08:28:37.000Z</time>
      </trkpt>
      <trkpt lat="47.27687" lon="-2.34547">
        <ele>19</ele>
        <time>2021-03-11T08:28:39.000Z</time>
      </trkpt>
      <trkpt lat="47.27694" lon="-2.34539">
        <ele>19</ele>
        <time>2021-03-11T08:28:41.000Z</time>
      </trkpt>
      <trkpt lat="47.27711" lon="-2.34524">
        <ele>19</ele>
        <time>2021-03-11T08:28:45.000Z</time>
      </trkpt>
      <trkpt lat="47.27745" lon="-2.34494">
        <ele>19</ele>
        <time>2021-03-11T08:28:53.000Z</time>
      </trkpt>
      <trkpt lat="47.27749" lon="-2.34491">
        <ele>19</ele>
        <time>2021-03-11T08:28:54.000Z</time>
      </trkpt>
      <trkpt lat="47.27757" lon="-2.34485">
        <ele>19</ele>
        <time>2021-03-11T08:28:56.000Z</time>
      </trkpt>
      <trkpt lat="47.27769" lon="-2.34475">
        <ele>19</ele>
        <time>2021-03-11T08:28:59.000Z</time>
      </trkpt>
      <trkpt lat="47.27776" lon="-2.34467">
        <ele>19</ele>
        <time>2021-03-11T08:29:01.000Z</time>
      </trkpt>
      <trkpt lat="47.27787" lon="-2.34459">
        <ele>19</ele>
        <time>2021-03-11T08:29:04.000Z</time>
      </trkpt>
      <trkpt lat="47.27796" lon="-2.34472">
        <ele>19</ele>
        <time>2021-03-11T08:29:07.000Z</time>
      </trkpt>
      <trkpt lat="47.27799" lon="-2.34476">
        <ele>19</ele>
        <time>2021-03-11T08:29:08.000Z</time>
      </trkpt>
      <trkpt lat="47.27804" lon="-2.34487">
        <ele>19</ele>
        <time>2021-03-11T08:29:11.000Z</time>
      </trkpt>
      <trkpt lat="47.27803" lon="-2.34489">
        <ele>19</ele>
        <time>2021-03-11T08:29:12.000Z</time>
      </trkpt>
      <trkpt lat="47.27799" lon="-2.34481">
        <ele>19</ele>
        <time>2021-03-11T08:29:15.000Z</time>
      </trkpt>
      <trkpt lat="47.27797" lon="-2.34477">
        <ele>19</ele>
        <time>2021-03-11T08:29:16.000Z</time>
      </trkpt>
      <trkpt lat="47.2779" lon="-2.34452">
        <ele>19</ele>
        <time>2021-03-11T08:29:21.000Z</time>
      </trkpt>
      <trkpt lat="47.27797" lon="-2.34437">
        <ele>19</ele>
        <time>2021-03-11T08:29:24.000Z</time>
      </trkpt>
      <trkpt lat="47.27811" lon="-2.34415">
        <ele>19</ele>
        <time>2021-03-11T08:29:28.000Z</time>
      </trkpt>
      <trkpt lat="47.27818" lon="-2.34404">
        <ele>19</ele>
        <time>2021-03-11T08:29:30.000Z</time>
      </trkpt>
      <trkpt lat="47.27841" lon="-2.34372">
        <ele>19</ele>
        <time>2021-03-11T08:29:36.000Z</time>
      </trkpt>
      <trkpt lat="47.27872" lon="-2.34325">
        <ele>19</ele>
        <time>2021-03-11T08:29:45.000Z</time>
      </trkpt>
      <trkpt lat="47.27882" lon="-2.34308">
        <ele>19.39999961853</ele>
        <time>2021-03-11T08:29:48.000Z</time>
      </trkpt>
      <trkpt lat="47.27885" lon="-2.34302">
        <ele>19.799999237061</ele>
        <time>2021-03-11T08:29:49.000Z</time>
      </trkpt>
      <trkpt lat="47.27888" lon="-2.34296">
        <ele>20.200000762939</ele>
        <time>2021-03-11T08:29:50.000Z</time>
      </trkpt>
      <trkpt lat="47.27891" lon="-2.3429">
        <ele>20.60000038147</ele>
        <time>2021-03-11T08:29:51.000Z</time>
      </trkpt>
      <trkpt lat="47.27893" lon="-2.34285">
        <ele>21</ele>
        <time>2021-03-11T08:29:52.000Z</time>
      </trkpt>
      <trkpt lat="47.27896" lon="-2.34282">
        <ele>21</ele>
        <time>2021-03-11T08:29:53.000Z</time>
      </trkpt>
      <trkpt lat="47.27905" lon="-2.34286">
        <ele>21</ele>
        <time>2021-03-11T08:29:56.000Z</time>
      </trkpt>
      <trkpt lat="47.27916" lon="-2.34306">
        <ele>21</ele>
        <time>2021-03-11T08:30:00.000Z</time>
      </trkpt>
      <trkpt lat="47.27934" lon="-2.34342">
        <ele>21.39999961853</ele>
        <time>2021-03-11T08:30:06.000Z</time>
      </trkpt>
      <trkpt lat="47.27937" lon="-2.34348">
        <ele>21.799999237061</ele>
        <time>2021-03-11T08:30:07.000Z</time>
      </trkpt>
      <trkpt lat="47.27941" lon="-2.34354">
        <ele>22.39999961853</ele>
        <time>2021-03-11T08:30:08.000Z</time>
      </trkpt>
      <trkpt lat="47.27944" lon="-2.34361">
        <ele>22.799999237061</ele>
        <time>2021-03-11T08:30:09.000Z</time>
      </trkpt>
      <trkpt lat="47.27948" lon="-2.34367">
        <ele>23.200000762939</ele>
        <time>2021-03-11T08:30:10.000Z</time>
      </trkpt>
      <trkpt lat="47.27971" lon="-2.34401">
        <ele>23.200000762939</ele>
        <time>2021-03-11T08:30:16.000Z</time>
      </trkpt>
      <trkpt lat="47.27995" lon="-2.34435">
        <ele>23.200000762939</ele>
        <time>2021-03-11T08:30:22.000Z</time>
      </trkpt>
      <trkpt lat="47.28001" lon="-2.3445">
        <ele>23.200000762939</ele>
        <time>2021-03-11T08:30:24.000Z</time>
      </trkpt>
      <trkpt lat="47.28001" lon="-2.34475">
        <ele>23.200000762939</ele>
        <time>2021-03-11T08:30:27.000Z</time>
      </trkpt>
      <trkpt lat="47.27992" lon="-2.34498">
        <ele>23.200000762939</ele>
        <time>2021-03-11T08:30:30.000Z</time>
      </trkpt>
      <trkpt lat="47.27988" lon="-2.34505">
        <ele>23.200000762939</ele>
        <time>2021-03-11T08:30:31.000Z</time>
      </trkpt>
      <trkpt lat="47.27966" lon="-2.34551">
        <ele>22.799999237061</ele>
        <time>2021-03-11T08:30:38.000Z</time>
      </trkpt>
      <trkpt lat="47.27961" lon="-2.34556">
        <ele>22.39999961853</ele>
        <time>2021-03-11T08:30:39.000Z</time>
      </trkpt>
      <trkpt lat="47.27956" lon="-2.3456">
        <ele>21.799999237061</ele>
        <time>2021-03-11T08:30:40.000Z</time>
      </trkpt>
      <trkpt lat="47.2795" lon="-2.34564">
        <ele>21.39999961853</ele>
        <time>2021-03-11T08:30:41.000Z</time>
      </trkpt>
      <trkpt lat="47.27945" lon="-2.34568">
        <ele>21</ele>
        <time>2021-03-11T08:30:42.000Z</time>
      </trkpt>
      <trkpt lat="47.27916" lon="-2.34599">
        <ele>21</ele>
        <time>2021-03-11T08:30:48.000Z</time>
      </trkpt>
      <trkpt lat="47.27913" lon="-2.34606">
        <ele>21</ele>
        <time>2021-03-11T08:30:49.000Z</time>
      </trkpt>
      <trkpt lat="47.27905" lon="-2.34628">
        <ele>21</ele>
        <time>2021-03-11T08:30:52.000Z</time>
      </trkpt>
      <trkpt lat="47.2789" lon="-2.34681">
        <ele>21</ele>
        <time>2021-03-11T08:30:59.000Z</time>
      </trkpt>
      <trkpt lat="47.2788" lon="-2.34711">
        <ele>20.60000038147</ele>
        <time>2021-03-11T08:31:03.000Z</time>
      </trkpt>
      <trkpt lat="47.27877" lon="-2.34718">
        <ele>20</ele>
        <time>2021-03-11T08:31:04.000Z</time>
      </trkpt>
      <trkpt lat="47.27874" lon="-2.34725">
        <ele>19.60000038147</ele>
        <time>2021-03-11T08:31:05.000Z</time>
      </trkpt>
      <trkpt lat="47.27871" lon="-2.34732">
        <ele>19.200000762939</ele>
        <time>2021-03-11T08:31:06.000Z</time>
      </trkpt>
      <trkpt lat="47.27868" lon="-2.34739">
        <ele>18.60000038147</ele>
        <time>2021-03-11T08:31:07.000Z</time>
      </trkpt>
      <trkpt lat="47.27837" lon="-2.34796">
        <ele>18.60000038147</ele>
        <time>2021-03-11T08:31:16.000Z</time>
      </trkpt>
      <trkpt lat="47.27807" lon="-2.34842">
        <ele>18.60000038147</ele>
        <time>2021-03-11T08:31:24.000Z</time>
      </trkpt>
      <trkpt lat="47.278" lon="-2.34854">
        <ele>18.60000038147</ele>
        <time>2021-03-11T08:31:26.000Z</time>
      </trkpt>
      <trkpt lat="47.27797" lon="-2.34861">
        <ele>18.200000762939</ele>
        <time>2021-03-11T08:31:27.000Z</time>
      </trkpt>
      <trkpt lat="47.27794" lon="-2.34869">
        <ele>17.799999237061</ele>
        <time>2021-03-11T08:31:28.000Z</time>
      </trkpt>
      <trkpt lat="47.27792" lon="-2.34877">
        <ele>17.39999961853</ele>
        <time>2021-03-11T08:31:29.000Z</time>
      </trkpt>
      <trkpt lat="47.2779" lon="-2.34885">
        <ele>17</ele>
        <time>2021-03-11T08:31:30.000Z</time>
      </trkpt>
      <trkpt lat="47.27788" lon="-2.34893">
        <ele>16.60000038147</ele>
        <time>2021-03-11T08:31:31.000Z</time>
      </trkpt>
      <trkpt lat="47.27783" lon="-2.34924">
        <ele>16.60000038147</ele>
        <time>2021-03-11T08:31:35.000Z</time>
      </trkpt>
      <trkpt lat="47.27778" lon="-2.34955">
        <ele>16.60000038147</ele>
        <time>2021-03-11T08:31:39.000Z</time>
      </trkpt>
      <trkpt lat="47.27773" lon="-2.34978">
        <ele>16.60000038147</ele>
        <time>2021-03-11T08:31:42.000Z</time>
      </trkpt>
      <trkpt lat="47.27765" lon="-2.35032">
        <ele>16.60000038147</ele>
        <time>2021-03-11T08:31:49.000Z</time>
      </trkpt>
      <trkpt lat="47.27765" lon="-2.35065">
        <ele>16.200000762939</ele>
        <time>2021-03-11T08:31:53.000Z</time>
      </trkpt>
      <trkpt lat="47.27765" lon="-2.35074">
        <ele>15.60000038147</ele>
        <time>2021-03-11T08:31:54.000Z</time>
      </trkpt>
      <trkpt lat="47.27766" lon="-2.35082">
        <ele>15.199999809265</ele>
        <time>2021-03-11T08:31:55.000Z</time>
      </trkpt>
      <trkpt lat="47.27766" lon="-2.3509">
        <ele>14.800000190735</ele>
        <time>2021-03-11T08:31:56.000Z</time>
      </trkpt>
      <trkpt lat="47.27767" lon="-2.35099">
        <ele>14.39999961853</ele>
        <time>2021-03-11T08:31:57.000Z</time>
      </trkpt>
      <trkpt lat="47.27769" lon="-2.35116">
        <ele>13.39999961853</ele>
        <time>2021-03-11T08:31:59.000Z</time>
      </trkpt>
      <trkpt lat="47.27769" lon="-2.35125">
        <ele>13</ele>
        <time>2021-03-11T08:32:00.000Z</time>
      </trkpt>
      <trkpt lat="47.2777" lon="-2.35133">
        <ele>12.39999961853</ele>
        <time>2021-03-11T08:32:01.000Z</time>
      </trkpt>
      <trkpt lat="47.27771" lon="-2.35142">
        <ele>12</ele>
        <time>2021-03-11T08:32:02.000Z</time>
      </trkpt>
      <trkpt lat="47.27774" lon="-2.3519">
        <ele>12</ele>
        <time>2021-03-11T08:32:08.000Z</time>
      </trkpt>
      <trkpt lat="47.27774" lon="-2.35198">
        <ele>12</ele>
        <time>2021-03-11T08:32:09.000Z</time>
      </trkpt>
      <trkpt lat="47.27779" lon="-2.35244">
        <ele>12</ele>
        <time>2021-03-11T08:32:15.000Z</time>
      </trkpt>
      <trkpt lat="47.27781" lon="-2.3526">
        <ele>12</ele>
        <time>2021-03-11T08:32:17.000Z</time>
      </trkpt>
      <trkpt lat="47.27789" lon="-2.353">
        <ele>12</ele>
        <time>2021-03-11T08:32:22.000Z</time>
      </trkpt>
      <trkpt lat="47.27791" lon="-2.35307">
        <ele>11.60000038147</ele>
        <time>2021-03-11T08:32:23.000Z</time>
      </trkpt>
      <trkpt lat="47.27793" lon="-2.35315">
        <ele>11.199999809265</ele>
        <time>2021-03-11T08:32:24.000Z</time>
      </trkpt>
      <trkpt lat="47.27795" lon="-2.35323">
        <ele>10.800000190735</ele>
        <time>2021-03-11T08:32:25.000Z</time>
      </trkpt>
      <trkpt lat="47.27796" lon="-2.3533">
        <ele>10.39999961853</ele>
        <time>2021-03-11T08:32:26.000Z</time>
      </trkpt>
      <trkpt lat="47.27798" lon="-2.35338">
        <ele>10</ele>
        <time>2021-03-11T08:32:27.000Z</time>
      </trkpt>
      <trkpt lat="47.278" lon="-2.35346">
        <ele>10</ele>
        <time>2021-03-11T08:32:28.000Z</time>
      </trkpt>
      <trkpt lat="47.27803" lon="-2.35353">
        <ele>10</ele>
        <time>2021-03-11T08:32:29.000Z</time>
      </trkpt>
      <trkpt lat="47.27816" lon="-2.35363">
        <ele>10</ele>
        <time>2021-03-11T08:32:32.000Z</time>
      </trkpt>
      <trkpt lat="47.27837" lon="-2.35361">
        <ele>10</ele>
        <time>2021-03-11T08:32:36.000Z</time>
      </trkpt>
      <trkpt lat="47.27842" lon="-2.35361">
        <ele>10</ele>
        <time>2021-03-11T08:32:37.000Z</time>
      </trkpt>
      <trkpt lat="47.27851" lon="-2.35361">
        <ele>10</ele>
        <time>2021-03-11T08:32:39.000Z</time>
      </trkpt>
      <trkpt lat="47.27872" lon="-2.35363">
        <ele>10</ele>
        <time>2021-03-11T08:32:44.000Z</time>
      </trkpt>
      <trkpt lat="47.27886" lon="-2.35375">
        <ele>10.39999961853</ele>
        <time>2021-03-11T08:32:48.000Z</time>
      </trkpt>
      <trkpt lat="47.2789" lon="-2.35379">
        <ele>10.800000190735</ele>
        <time>2021-03-11T08:32:49.000Z</time>
      </trkpt>
      <trkpt lat="47.27893" lon="-2.35383">
        <ele>11.199999809265</ele>
        <time>2021-03-11T08:32:50.000Z</time>
      </trkpt>
      <trkpt lat="47.27896" lon="-2.35388">
        <ele>11.60000038147</ele>
        <time>2021-03-11T08:32:51.000Z</time>
      </trkpt>
      <trkpt lat="47.279" lon="-2.35393">
        <ele>12</ele>
        <time>2021-03-11T08:32:52.000Z</time>
      </trkpt>
      <trkpt lat="47.27917" lon="-2.35417">
        <ele>12</ele>
        <time>2021-03-11T08:32:57.000Z</time>
      </trkpt>
      <trkpt lat="47.27949" lon="-2.35455">
        <ele>12</ele>
        <time>2021-03-11T08:33:05.000Z</time>
      </trkpt>
      <trkpt lat="47.27972" lon="-2.3547">
        <ele>12</ele>
        <time>2021-03-11T08:33:10.000Z</time>
      </trkpt>
      <trkpt lat="47.27989" lon="-2.35499">
        <ele>12</ele>
        <time>2021-03-11T08:33:15.000Z</time>
      </trkpt>
      <trkpt lat="47.28004" lon="-2.35537">
        <ele>12</ele>
        <time>2021-03-11T08:33:22.000Z</time>
      </trkpt>
      <trkpt lat="47.2801" lon="-2.35557">
        <ele>12</ele>
        <time>2021-03-11T08:33:27.000Z</time>
      </trkpt>
      <trkpt lat="47.28016" lon="-2.35565">
        <ele>12</ele>
        <time>2021-03-11T08:33:30.000Z</time>
      </trkpt>
      <trkpt lat="47.28019" lon="-2.35564">
        <ele>12</ele>
        <time>2021-03-11T08:33:31.000Z</time>
      </trkpt>
      <trkpt lat="47.28033" lon="-2.35567">
        <ele>12</ele>
        <time>2021-03-11T08:33:35.000Z</time>
      </trkpt>
      <trkpt lat="47.28035" lon="-2.35571">
        <ele>12</ele>
        <time>2021-03-11T08:33:36.000Z</time>
      </trkpt>
      <trkpt lat="47.28038" lon="-2.35573">
        <ele>13</ele>
        <time>2021-03-11T08:33:37.000Z</time>
      </trkpt>
      <trkpt lat="47.28041" lon="-2.35575">
        <ele>13.39999961853</ele>
        <time>2021-03-11T08:33:38.000Z</time>
      </trkpt>
      <trkpt lat="47.28044" lon="-2.35577">
        <ele>13.800000190735</ele>
        <time>2021-03-11T08:33:39.000Z</time>
      </trkpt>
      <trkpt lat="47.28048" lon="-2.35578">
        <ele>14.199999809265</ele>
        <time>2021-03-11T08:33:40.000Z</time>
      </trkpt>
      <trkpt lat="47.28051" lon="-2.35579">
        <ele>14.199999809265</ele>
        <time>2021-03-11T08:33:41.000Z</time>
      </trkpt>
      <trkpt lat="47.28066" lon="-2.35585">
        <ele>14.199999809265</ele>
        <time>2021-03-11T08:33:46.000Z</time>
      </trkpt>
      <trkpt lat="47.28077" lon="-2.35604">
        <ele>14.199999809265</ele>
        <time>2021-03-11T08:33:52.000Z</time>
      </trkpt>
      <trkpt lat="47.28081" lon="-2.3561">
        <ele>14.60000038147</ele>
        <time>2021-03-11T08:33:54.000Z</time>
      </trkpt>
      <trkpt lat="47.28083" lon="-2.35612">
        <ele>15</ele>
        <time>2021-03-11T08:33:55.000Z</time>
      </trkpt>
      <trkpt lat="47.28084" lon="-2.35614">
        <ele>15.60000038147</ele>
        <time>2021-03-11T08:33:56.000Z</time>
      </trkpt>
      <trkpt lat="47.28085" lon="-2.35616">
        <ele>16</ele>
        <time>2021-03-11T08:33:57.000Z</time>
      </trkpt>
      <trkpt lat="47.28086" lon="-2.35616">
        <ele>16.39999961853</ele>
        <time>2021-03-11T08:33:58.000Z</time>
      </trkpt>
      <trkpt lat="47.28086" lon="-2.35616">
        <ele>16.39999961853</ele>
        <time>2021-03-11T08:34:00.000Z</time>
      </trkpt>
      <trkpt lat="47.28084" lon="-2.35616">
        <ele>16.39999961853</ele>
        <time>2021-03-11T08:39:29.000Z</time>
      </trkpt>
      <trkpt lat="47.28082" lon="-2.35613">
        <ele>16.39999961853</ele>
        <time>2021-03-11T08:39:31.000Z</time>
      </trkpt>
      <trkpt lat="47.28074" lon="-2.3561">
        <ele>16.39999961853</ele>
        <time>2021-03-11T08:39:37.000Z</time>
      </trkpt>
      <trkpt lat="47.28075" lon="-2.35619">
        <ele>16.39999961853</ele>
        <time>2021-03-11T08:39:41.000Z</time>
      </trkpt>
      <trkpt lat="47.28076" lon="-2.35621">
        <ele>16.39999961853</ele>
        <time>2021-03-11T08:39:42.000Z</time>
      </trkpt>
      <trkpt lat="47.2808" lon="-2.35629">
        <ele>16.39999961853</ele>
        <time>2021-03-11T08:39:48.000Z</time>
      </trkpt>
      <trkpt lat="47.28081" lon="-2.35631">
        <ele>16.799999237061</ele>
        <time>2021-03-11T08:39:49.000Z</time>
      </trkpt>
      <trkpt lat="47.28082" lon="-2.35632">
        <ele>17.200000762939</ele>
        <time>2021-03-11T08:39:50.000Z</time>
      </trkpt>
      <trkpt lat="47.28083" lon="-2.35635">
        <ele>17.799999237061</ele>
        <time>2021-03-11T08:39:51.000Z</time>
      </trkpt>
      <trkpt lat="47.28083" lon="-2.35637">
        <ele>18.200000762939</ele>
        <time>2021-03-11T08:39:52.000Z</time>
      </trkpt>
      <trkpt lat="47.28084" lon="-2.3564">
        <ele>18.60000038147</ele>
        <time>2021-03-11T08:39:53.000Z</time>
      </trkpt>
      <trkpt lat="47.28084" lon="-2.35646">
        <ele>18.60000038147</ele>
        <time>2021-03-11T08:39:55.000Z</time>
      </trkpt>
      <trkpt lat="47.28085" lon="-2.35649">
        <ele>19</ele>
        <time>2021-03-11T08:39:56.000Z</time>
      </trkpt>
      <trkpt lat="47.28085" lon="-2.35652">
        <ele>19.39999961853</ele>
        <time>2021-03-11T08:39:57.000Z</time>
      </trkpt>
      <trkpt lat="47.28085" lon="-2.35655">
        <ele>20</ele>
        <time>2021-03-11T08:39:58.000Z</time>
      </trkpt>
      <trkpt lat="47.28086" lon="-2.35658">
        <ele>20.39999961853</ele>
        <time>2021-03-11T08:39:59.000Z</time>
      </trkpt>
      <trkpt lat="47.28086" lon="-2.35662">
        <ele>20.799999237061</ele>
        <time>2021-03-11T08:40:00.000Z</time>
      </trkpt>
      <trkpt lat="47.28087" lon="-2.35669">
        <ele>20.799999237061</ele>
        <time>2021-03-11T08:40:02.000Z</time>
      </trkpt>
      <trkpt lat="47.28092" lon="-2.3569">
        <ele>21.200000762939</ele>
        <time>2021-03-11T08:40:08.000Z</time>
      </trkpt>
      <trkpt lat="47.28093" lon="-2.35693">
        <ele>21.60000038147</ele>
        <time>2021-03-11T08:40:09.000Z</time>
      </trkpt>
      <trkpt lat="47.28094" lon="-2.35696">
        <ele>22</ele>
        <time>2021-03-11T08:40:10.000Z</time>
      </trkpt>
      <trkpt lat="47.28095" lon="-2.357">
        <ele>22.799999237061</ele>
        <time>2021-03-11T08:40:11.000Z</time>
      </trkpt>
      <trkpt lat="47.28094" lon="-2.35711">
        <ele>22.799999237061</ele>
        <time>2021-03-11T08:40:14.000Z</time>
      </trkpt>
      <trkpt lat="47.28093" lon="-2.35715">
        <ele>22.799999237061</ele>
        <time>2021-03-11T08:40:15.000Z</time>
      </trkpt>
      <trkpt lat="47.28089" lon="-2.3573">
        <ele>22.799999237061</ele>
        <time>2021-03-11T08:40:19.000Z</time>
      </trkpt>
      <trkpt lat="47.28087" lon="-2.3574">
        <ele>22.799999237061</ele>
        <time>2021-03-11T08:40:21.000Z</time>
      </trkpt>
      <trkpt lat="47.28084" lon="-2.35767">
        <ele>22.799999237061</ele>
        <time>2021-03-11T08:40:26.000Z</time>
      </trkpt>
      <trkpt lat="47.28079" lon="-2.35787">
        <ele>22.39999961853</ele>
        <time>2021-03-11T08:40:31.000Z</time>
      </trkpt>
      <trkpt lat="47.2808" lon="-2.35791">
        <ele>22</ele>
        <time>2021-03-11T08:40:32.000Z</time>
      </trkpt>
      <trkpt lat="47.2808" lon="-2.35795">
        <ele>21.60000038147</ele>
        <time>2021-03-11T08:40:33.000Z</time>
      </trkpt>
      <trkpt lat="47.28083" lon="-2.358">
        <ele>21.200000762939</ele>
        <time>2021-03-11T08:40:34.000Z</time>
      </trkpt>
      <trkpt lat="47.28086" lon="-2.35804">
        <ele>20.799999237061</ele>
        <time>2021-03-11T08:40:35.000Z</time>
      </trkpt>
      <trkpt lat="47.28089" lon="-2.35809">
        <ele>20.39999961853</ele>
        <time>2021-03-11T08:40:36.000Z</time>
      </trkpt>
      <trkpt lat="47.28092" lon="-2.35813">
        <ele>20</ele>
        <time>2021-03-11T08:40:37.000Z</time>
      </trkpt>
      <trkpt lat="47.28094" lon="-2.35817">
        <ele>19.60000038147</ele>
        <time>2021-03-11T08:40:38.000Z</time>
      </trkpt>
      <trkpt lat="47.28097" lon="-2.35822">
        <ele>19.200000762939</ele>
        <time>2021-03-11T08:40:39.000Z</time>
      </trkpt>
      <trkpt lat="47.28099" lon="-2.35827">
        <ele>18.799999237061</ele>
        <time>2021-03-11T08:40:40.000Z</time>
      </trkpt>
      <trkpt lat="47.28101" lon="-2.35831">
        <ele>18.799999237061</ele>
        <time>2021-03-11T08:40:41.000Z</time>
      </trkpt>
      <trkpt lat="47.28121" lon="-2.35861">
        <ele>18.799999237061</ele>
        <time>2021-03-11T08:40:48.000Z</time>
      </trkpt>
      <trkpt lat="47.28136" lon="-2.35882">
        <ele>18.799999237061</ele>
        <time>2021-03-11T08:40:54.000Z</time>
      </trkpt>
      <trkpt lat="47.28143" lon="-2.35893">
        <ele>19.200000762939</ele>
        <time>2021-03-11T08:40:57.000Z</time>
      </trkpt>
      <trkpt lat="47.28145" lon="-2.35897">
        <ele>19.60000038147</ele>
        <time>2021-03-11T08:40:58.000Z</time>
      </trkpt>
      <trkpt lat="47.28147" lon="-2.35901">
        <ele>20</ele>
        <time>2021-03-11T08:40:59.000Z</time>
      </trkpt>
      <trkpt lat="47.28149" lon="-2.35906">
        <ele>20.39999961853</ele>
        <time>2021-03-11T08:41:00.000Z</time>
      </trkpt>
      <trkpt lat="47.28153" lon="-2.35912">
        <ele>21</ele>
        <time>2021-03-11T08:41:01.000Z</time>
      </trkpt>
      <trkpt lat="47.28167" lon="-2.35934">
        <ele>20.60000038147</ele>
        <time>2021-03-11T08:41:05.000Z</time>
      </trkpt>
      <trkpt lat="47.2817" lon="-2.3594">
        <ele>20.200000762939</ele>
        <time>2021-03-11T08:41:06.000Z</time>
      </trkpt>
      <trkpt lat="47.28171" lon="-2.35948">
        <ele>19.799999237061</ele>
        <time>2021-03-11T08:41:07.000Z</time>
      </trkpt>
      <trkpt lat="47.28173" lon="-2.35957">
        <ele>19.200000762939</ele>
        <time>2021-03-11T08:41:08.000Z</time>
      </trkpt>
      <trkpt lat="47.28174" lon="-2.35965">
        <ele>18.799999237061</ele>
        <time>2021-03-11T08:41:09.000Z</time>
      </trkpt>
      <trkpt lat="47.2818" lon="-2.35983">
        <ele>18.799999237061</ele>
        <time>2021-03-11T08:41:12.000Z</time>
      </trkpt>
      <trkpt lat="47.28182" lon="-2.35996">
        <ele>18.39999961853</ele>
        <time>2021-03-11T08:41:14.000Z</time>
      </trkpt>
      <trkpt lat="47.28183" lon="-2.36002">
        <ele>18</ele>
        <time>2021-03-11T08:41:15.000Z</time>
      </trkpt>
      <trkpt lat="47.28185" lon="-2.36008">
        <ele>17.60000038147</ele>
        <time>2021-03-11T08:41:16.000Z</time>
      </trkpt>
      <trkpt lat="47.28186" lon="-2.36013">
        <ele>17</ele>
        <time>2021-03-11T08:41:17.000Z</time>
      </trkpt>
      <trkpt lat="47.28187" lon="-2.36018">
        <ele>16.60000038147</ele>
        <time>2021-03-11T08:41:18.000Z</time>
      </trkpt>
      <trkpt lat="47.28188" lon="-2.36023">
        <ele>16.60000038147</ele>
        <time>2021-03-11T08:41:19.000Z</time>
      </trkpt>
      <trkpt lat="47.28192" lon="-2.36035">
        <ele>16.60000038147</ele>
        <time>2021-03-11T08:41:23.000Z</time>
      </trkpt>
      <trkpt lat="47.28196" lon="-2.36035">
        <ele>16.60000038147</ele>
        <time>2021-03-11T08:41:25.000Z</time>
      </trkpt>
      <trkpt lat="47.28205" lon="-2.36027">
        <ele>16.60000038147</ele>
        <time>2021-03-11T08:41:29.000Z</time>
      </trkpt>
      <trkpt lat="47.2822" lon="-2.36016">
        <ele>16.60000038147</ele>
        <time>2021-03-11T08:41:35.000Z</time>
      </trkpt>
      <trkpt lat="47.28228" lon="-2.36014">
        <ele>16.60000038147</ele>
        <time>2021-03-11T08:41:38.000Z</time>
      </trkpt>
      <trkpt lat="47.28232" lon="-2.36019">
        <ele>16.60000038147</ele>
        <time>2021-03-11T08:41:40.000Z</time>
      </trkpt>
      <trkpt lat="47.28232" lon="-2.36029">
        <ele>17</ele>
        <time>2021-03-11T08:41:43.000Z</time>
      </trkpt>
      <trkpt lat="47.28231" lon="-2.36033">
        <ele>17.39999961853</ele>
        <time>2021-03-11T08:41:44.000Z</time>
      </trkpt>
      <trkpt lat="47.28231" lon="-2.36036">
        <ele>17.799999237061</ele>
        <time>2021-03-11T08:41:45.000Z</time>
      </trkpt>
      <trkpt lat="47.2823" lon="-2.3604">
        <ele>18.200000762939</ele>
        <time>2021-03-11T08:41:46.000Z</time>
      </trkpt>
      <trkpt lat="47.2823" lon="-2.36044">
        <ele>18.60000038147</ele>
        <time>2021-03-11T08:41:47.000Z</time>
      </trkpt>
      <trkpt lat="47.28231" lon="-2.36052">
        <ele>18.60000038147</ele>
        <time>2021-03-11T08:41:49.000Z</time>
      </trkpt>
      <trkpt lat="47.28232" lon="-2.36068">
        <ele>19.200000762939</ele>
        <time>2021-03-11T08:41:53.000Z</time>
      </trkpt>
      <trkpt lat="47.28231" lon="-2.3607">
        <ele>19.60000038147</ele>
        <time>2021-03-11T08:41:54.000Z</time>
      </trkpt>
      <trkpt lat="47.2823" lon="-2.36073">
        <ele>20</ele>
        <time>2021-03-11T08:41:55.000Z</time>
      </trkpt>
      <trkpt lat="47.28229" lon="-2.36076">
        <ele>20.39999961853</ele>
        <time>2021-03-11T08:41:56.000Z</time>
      </trkpt>
      <trkpt lat="47.28229" lon="-2.36079">
        <ele>20.799999237061</ele>
        <time>2021-03-11T08:41:57.000Z</time>
      </trkpt>
      <trkpt lat="47.28229" lon="-2.36083">
        <ele>20.799999237061</ele>
        <time>2021-03-11T08:41:58.000Z</time>
      </trkpt>
      <trkpt lat="47.28229" lon="-2.36092">
        <ele>20.799999237061</ele>
        <time>2021-03-11T08:42:00.000Z</time>
      </trkpt>
      <trkpt lat="47.28241" lon="-2.3612">
        <ele>20.799999237061</ele>
        <time>2021-03-11T08:42:05.000Z</time>
      </trkpt>
      <trkpt lat="47.28253" lon="-2.36146">
        <ele>20.799999237061</ele>
        <time>2021-03-11T08:42:11.000Z</time>
      </trkpt>
      <trkpt lat="47.28253" lon="-2.36151">
        <ele>20.799999237061</ele>
        <time>2021-03-11T08:42:12.000Z</time>
      </trkpt>
      <trkpt lat="47.28253" lon="-2.36167">
        <ele>20.39999961853</ele>
        <time>2021-03-11T08:42:15.000Z</time>
      </trkpt>
      <trkpt lat="47.28254" lon="-2.36172">
        <ele>20</ele>
        <time>2021-03-11T08:42:16.000Z</time>
      </trkpt>
      <trkpt lat="47.28255" lon="-2.36177">
        <ele>19.60000038147</ele>
        <time>2021-03-11T08:42:17.000Z</time>
      </trkpt>
      <trkpt lat="47.28256" lon="-2.36182">
        <ele>19.200000762939</ele>
        <time>2021-03-11T08:42:18.000Z</time>
      </trkpt>
      <trkpt lat="47.28257" lon="-2.36188">
        <ele>18.799999237061</ele>
        <time>2021-03-11T08:42:19.000Z</time>
      </trkpt>
      <trkpt lat="47.28259" lon="-2.36201">
        <ele>18.799999237061</ele>
        <time>2021-03-11T08:42:21.000Z</time>
      </trkpt>
      <trkpt lat="47.28262" lon="-2.36208">
        <ele>18.799999237061</ele>
        <time>2021-03-11T08:42:22.000Z</time>
      </trkpt>
      <trkpt lat="47.28283" lon="-2.36229">
        <ele>18.39999961853</ele>
        <time>2021-03-11T08:42:26.000Z</time>
      </trkpt>
      <trkpt lat="47.28288" lon="-2.36233">
        <ele>18</ele>
        <time>2021-03-11T08:42:27.000Z</time>
      </trkpt>
      <trkpt lat="47.28293" lon="-2.36235">
        <ele>17.60000038147</ele>
        <time>2021-03-11T08:42:28.000Z</time>
      </trkpt>
      <trkpt lat="47.28298" lon="-2.36236">
        <ele>17</ele>
        <time>2021-03-11T08:42:29.000Z</time>
      </trkpt>
      <trkpt lat="47.28303" lon="-2.36237">
        <ele>16.60000038147</ele>
        <time>2021-03-11T08:42:30.000Z</time>
      </trkpt>
      <trkpt lat="47.28308" lon="-2.36238">
        <ele>16.60000038147</ele>
        <time>2021-03-11T08:42:31.000Z</time>
      </trkpt>
      <trkpt lat="47.28328" lon="-2.36248">
        <ele>16.60000038147</ele>
        <time>2021-03-11T08:42:36.000Z</time>
      </trkpt>
      <trkpt lat="47.28349" lon="-2.36257">
        <ele>16.60000038147</ele>
        <time>2021-03-11T08:42:43.000Z</time>
      </trkpt>
      <trkpt lat="47.28353" lon="-2.36261">
        <ele>16.60000038147</ele>
        <time>2021-03-11T08:42:46.000Z</time>
      </trkpt>
      <trkpt lat="47.28354" lon="-2.36263">
        <ele>16.60000038147</ele>
        <time>2021-03-11T08:42:48.000Z</time>
      </trkpt>
      <trkpt lat="47.28354" lon="-2.36273">
        <ele>17</ele>
        <time>2021-03-11T08:42:53.000Z</time>
      </trkpt>
      <trkpt lat="47.28354" lon="-2.36277">
        <ele>17.39999961853</ele>
        <time>2021-03-11T08:42:54.000Z</time>
      </trkpt>
      <trkpt lat="47.28353" lon="-2.36282">
        <ele>18</ele>
        <time>2021-03-11T08:42:55.000Z</time>
      </trkpt>
      <trkpt lat="47.28353" lon="-2.36284">
        <ele>18.39999961853</ele>
        <time>2021-03-11T08:42:56.000Z</time>
      </trkpt>
      <trkpt lat="47.28352" lon="-2.36287">
        <ele>18.799999237061</ele>
        <time>2021-03-11T08:42:57.000Z</time>
      </trkpt>
      <trkpt lat="47.28353" lon="-2.36296">
        <ele>18.799999237061</ele>
        <time>2021-03-11T08:43:00.000Z</time>
      </trkpt>
      <trkpt lat="47.28356" lon="-2.363">
        <ele>18.799999237061</ele>
        <time>2021-03-11T08:43:03.000Z</time>
      </trkpt>
      <trkpt lat="47.28358" lon="-2.36301">
        <ele>18.799999237061</ele>
        <time>2021-03-11T08:43:04.000Z</time>
      </trkpt>
      <trkpt lat="47.28368" lon="-2.36309">
        <ele>19.200000762939</ele>
        <time>2021-03-11T08:43:09.000Z</time>
      </trkpt>
      <trkpt lat="47.28371" lon="-2.36311">
        <ele>19.60000038147</ele>
        <time>2021-03-11T08:43:10.000Z</time>
      </trkpt>
      <trkpt lat="47.28373" lon="-2.36314">
        <ele>20</ele>
        <time>2021-03-11T08:43:11.000Z</time>
      </trkpt>
      <trkpt lat="47.28376" lon="-2.36317">
        <ele>20.39999961853</ele>
        <time>2021-03-11T08:43:12.000Z</time>
      </trkpt>
      <trkpt lat="47.28378" lon="-2.36319">
        <ele>20.799999237061</ele>
        <time>2021-03-11T08:43:13.000Z</time>
      </trkpt>
      <trkpt lat="47.28394" lon="-2.36332">
        <ele>20.799999237061</ele>
        <time>2021-03-11T08:43:18.000Z</time>
      </trkpt>
      <trkpt lat="47.28405" lon="-2.36353">
        <ele>20.799999237061</ele>
        <time>2021-03-11T08:43:23.000Z</time>
      </trkpt>
      <trkpt lat="47.2842" lon="-2.36366">
        <ele>21.60000038147</ele>
        <time>2021-03-11T08:43:28.000Z</time>
      </trkpt>
      <trkpt lat="47.28423" lon="-2.36369">
        <ele>22</ele>
        <time>2021-03-11T08:43:29.000Z</time>
      </trkpt>
      <trkpt lat="47.28427" lon="-2.36373">
        <ele>22.39999961853</ele>
        <time>2021-03-11T08:43:30.000Z</time>
      </trkpt>
      <trkpt lat="47.28431" lon="-2.36376">
        <ele>22.799999237061</ele>
        <time>2021-03-11T08:43:31.000Z</time>
      </trkpt>
      <trkpt lat="47.28442" lon="-2.36389">
        <ele>22.799999237061</ele>
        <time>2021-03-11T08:43:36.000Z</time>
      </trkpt>
      <trkpt lat="47.28453" lon="-2.36398">
        <ele>22.799999237061</ele>
        <time>2021-03-11T08:43:40.000Z</time>
      </trkpt>
      <trkpt lat="47.28454" lon="-2.364">
        <ele>23.200000762939</ele>
        <time>2021-03-11T08:43:41.000Z</time>
      </trkpt>
      <trkpt lat="47.28456" lon="-2.36401">
        <ele>23.60000038147</ele>
        <time>2021-03-11T08:43:42.000Z</time>
      </trkpt>
      <trkpt lat="47.28457" lon="-2.36403">
        <ele>24</ele>
        <time>2021-03-11T08:43:43.000Z</time>
      </trkpt>
      <trkpt lat="47.28458" lon="-2.36406">
        <ele>24.60000038147</ele>
        <time>2021-03-11T08:43:44.000Z</time>
      </trkpt>
      <trkpt lat="47.2846" lon="-2.36409">
        <ele>25</ele>
        <time>2021-03-11T08:43:45.000Z</time>
      </trkpt>
      <trkpt lat="47.28465" lon="-2.36416">
        <ele>25</ele>
        <time>2021-03-11T08:43:48.000Z</time>
      </trkpt>
      <trkpt lat="47.2847" lon="-2.36421">
        <ele>25</ele>
        <time>2021-03-11T08:43:50.000Z</time>
      </trkpt>
      <trkpt lat="47.28489" lon="-2.36442">
        <ele>25</ele>
        <time>2021-03-11T08:43:55.000Z</time>
      </trkpt>
      <trkpt lat="47.28505" lon="-2.36457">
        <ele>25</ele>
        <time>2021-03-11T08:44:00.000Z</time>
      </trkpt>
      <trkpt lat="47.28512" lon="-2.36478">
        <ele>25</ele>
        <time>2021-03-11T08:44:06.000Z</time>
      </trkpt>
      <trkpt lat="47.28516" lon="-2.36503">
        <ele>24.60000038147</ele>
        <time>2021-03-11T08:44:12.000Z</time>
      </trkpt>
      <trkpt lat="47.28515" lon="-2.36506">
        <ele>24.200000762939</ele>
        <time>2021-03-11T08:44:13.000Z</time>
      </trkpt>
      <trkpt lat="47.28515" lon="-2.36509">
        <ele>23.799999237061</ele>
        <time>2021-03-11T08:44:14.000Z</time>
      </trkpt>
      <trkpt lat="47.28514" lon="-2.36512">
        <ele>23.39999961853</ele>
        <time>2021-03-11T08:44:15.000Z</time>
      </trkpt>
      <trkpt lat="47.28513" lon="-2.36516">
        <ele>23</ele>
        <time>2021-03-11T08:44:16.000Z</time>
      </trkpt>
      <trkpt lat="47.28506" lon="-2.36524">
        <ele>23</ele>
        <time>2021-03-11T08:44:18.000Z</time>
      </trkpt>
      <trkpt lat="47.28489" lon="-2.36544">
        <ele>22.60000038147</ele>
        <time>2021-03-11T08:44:22.000Z</time>
      </trkpt>
      <trkpt lat="47.28482" lon="-2.36551">
        <ele>22</ele>
        <time>2021-03-11T08:44:23.000Z</time>
      </trkpt>
      <trkpt lat="47.28478" lon="-2.36557">
        <ele>21.60000038147</ele>
        <time>2021-03-11T08:44:24.000Z</time>
      </trkpt>
      <trkpt lat="47.28475" lon="-2.36563">
        <ele>21.200000762939</ele>
        <time>2021-03-11T08:44:25.000Z</time>
      </trkpt>
      <trkpt lat="47.28474" lon="-2.36571">
        <ele>20.799999237061</ele>
        <time>2021-03-11T08:44:26.000Z</time>
      </trkpt>
      <trkpt lat="47.28475" lon="-2.36578">
        <ele>20.799999237061</ele>
        <time>2021-03-11T08:44:27.000Z</time>
      </trkpt>
      <trkpt lat="47.28478" lon="-2.36589">
        <ele>20.799999237061</ele>
        <time>2021-03-11T08:44:29.000Z</time>
      </trkpt>
      <trkpt lat="47.2848" lon="-2.36601">
        <ele>20.799999237061</ele>
        <time>2021-03-11T08:44:31.000Z</time>
      </trkpt>
      <trkpt lat="47.28485" lon="-2.36639">
        <ele>20.799999237061</ele>
        <time>2021-03-11T08:44:37.000Z</time>
      </trkpt>
      <trkpt lat="47.28487" lon="-2.36651">
        <ele>20.799999237061</ele>
        <time>2021-03-11T08:44:39.000Z</time>
      </trkpt>
      <trkpt lat="47.28494" lon="-2.36668">
        <ele>20.799999237061</ele>
        <time>2021-03-11T08:44:42.000Z</time>
      </trkpt>
      <trkpt lat="47.28508" lon="-2.36681">
        <ele>20.799999237061</ele>
        <time>2021-03-11T08:44:46.000Z</time>
      </trkpt>
      <trkpt lat="47.28511" lon="-2.36686">
        <ele>20.39999961853</ele>
        <time>2021-03-11T08:44:47.000Z</time>
      </trkpt>
      <trkpt lat="47.28515" lon="-2.36692">
        <ele>20</ele>
        <time>2021-03-11T08:44:48.000Z</time>
      </trkpt>
      <trkpt lat="47.28519" lon="-2.36699">
        <ele>19.60000038147</ele>
        <time>2021-03-11T08:44:49.000Z</time>
      </trkpt>
      <trkpt lat="47.28523" lon="-2.36705">
        <ele>19.200000762939</ele>
        <time>2021-03-11T08:44:50.000Z</time>
      </trkpt>
      <trkpt lat="47.28528" lon="-2.36712">
        <ele>18.799999237061</ele>
        <time>2021-03-11T08:44:51.000Z</time>
      </trkpt>
      <trkpt lat="47.2855" lon="-2.36754">
        <ele>18.799999237061</ele>
        <time>2021-03-11T08:44:56.000Z</time>
      </trkpt>
      <trkpt lat="47.28576" lon="-2.36801">
        <ele>18.200000762939</ele>
        <time>2021-03-11T08:45:02.000Z</time>
      </trkpt>
      <trkpt lat="47.2858" lon="-2.36806">
        <ele>17.799999237061</ele>
        <time>2021-03-11T08:45:03.000Z</time>
      </trkpt>
      <trkpt lat="47.28584" lon="-2.3681">
        <ele>17</ele>
        <time>2021-03-11T08:45:04.000Z</time>
      </trkpt>
      <trkpt lat="47.28588" lon="-2.36814">
        <ele>16.200000762939</ele>
        <time>2021-03-11T08:45:05.000Z</time>
      </trkpt>
      <trkpt lat="47.28591" lon="-2.36819">
        <ele>14.800000190735</ele>
        <time>2021-03-11T08:45:06.000Z</time>
      </trkpt>
      <trkpt lat="47.28594" lon="-2.36825">
        <ele>14</ele>
        <time>2021-03-11T08:45:07.000Z</time>
      </trkpt>
      <trkpt lat="47.28597" lon="-2.3683">
        <ele>14</ele>
        <time>2021-03-11T08:45:08.000Z</time>
      </trkpt>
      <trkpt lat="47.286" lon="-2.36837">
        <ele>14</ele>
        <time>2021-03-11T08:45:10.000Z</time>
      </trkpt>
      <trkpt lat="47.28605" lon="-2.36841">
        <ele>14</ele>
        <time>2021-03-11T08:45:13.000Z</time>
      </trkpt>
      <trkpt lat="47.28608" lon="-2.36841">
        <ele>14</ele>
        <time>2021-03-11T08:45:14.000Z</time>
      </trkpt>
      <trkpt lat="47.28611" lon="-2.36838">
        <ele>14</ele>
        <time>2021-03-11T08:45:16.000Z</time>
      </trkpt>
      <trkpt lat="47.28617" lon="-2.3683">
        <ele>14</ele>
        <time>2021-03-11T08:45:19.000Z</time>
      </trkpt>
      <trkpt lat="47.2863" lon="-2.36811">
        <ele>14</ele>
        <time>2021-03-11T08:45:24.000Z</time>
      </trkpt>
      <trkpt lat="47.28649" lon="-2.3679">
        <ele>14</ele>
        <time>2021-03-11T08:45:31.000Z</time>
      </trkpt>
      <trkpt lat="47.2866" lon="-2.36794">
        <ele>14</ele>
        <time>2021-03-11T08:45:35.000Z</time>
      </trkpt>
      <trkpt lat="47.28672" lon="-2.36807">
        <ele>14</ele>
        <time>2021-03-11T08:45:40.000Z</time>
      </trkpt>
      <trkpt lat="47.28688" lon="-2.36843">
        <ele>14</ele>
        <time>2021-03-11T08:45:47.000Z</time>
      </trkpt>
      <trkpt lat="47.28705" lon="-2.36882">
        <ele>14</ele>
        <time>2021-03-11T08:45:53.000Z</time>
      </trkpt>
      <trkpt lat="47.28712" lon="-2.36894">
        <ele>13.60000038147</ele>
        <time>2021-03-11T08:45:55.000Z</time>
      </trkpt>
      <trkpt lat="47.28716" lon="-2.36899">
        <ele>13.199999809265</ele>
        <time>2021-03-11T08:45:56.000Z</time>
      </trkpt>
      <trkpt lat="47.28721" lon="-2.36905">
        <ele>12.800000190735</ele>
        <time>2021-03-11T08:45:57.000Z</time>
      </trkpt>
      <trkpt lat="47.28726" lon="-2.3691">
        <ele>12.39999961853</ele>
        <time>2021-03-11T08:45:58.000Z</time>
      </trkpt>
      <trkpt lat="47.2873" lon="-2.36914">
        <ele>12</ele>
        <time>2021-03-11T08:45:59.000Z</time>
      </trkpt>
      <trkpt lat="47.28741" lon="-2.36926">
        <ele>12</ele>
        <time>2021-03-11T08:46:02.000Z</time>
      </trkpt>
      <trkpt lat="47.28747" lon="-2.36937">
        <ele>12</ele>
        <time>2021-03-11T08:46:07.000Z</time>
      </trkpt>
      <trkpt lat="47.2875" lon="-2.36951">
        <ele>12.39999961853</ele>
        <time>2021-03-11T08:46:13.000Z</time>
      </trkpt>
      <trkpt lat="47.2875" lon="-2.36953">
        <ele>13.199999809265</ele>
        <time>2021-03-11T08:46:14.000Z</time>
      </trkpt>
      <trkpt lat="47.28751" lon="-2.36955">
        <ele>13.800000190735</ele>
        <time>2021-03-11T08:46:15.000Z</time>
      </trkpt>
      <trkpt lat="47.28752" lon="-2.36958">
        <ele>14.199999809265</ele>
        <time>2021-03-11T08:46:16.000Z</time>
      </trkpt>
      <trkpt lat="47.28755" lon="-2.36965">
        <ele>14.60000038147</ele>
        <time>2021-03-11T08:46:18.000Z</time>
      </trkpt>
      <trkpt lat="47.28757" lon="-2.36969">
        <ele>15</ele>
        <time>2021-03-11T08:46:19.000Z</time>
      </trkpt>
      <trkpt lat="47.28759" lon="-2.36972">
        <ele>15.39999961853</ele>
        <time>2021-03-11T08:46:20.000Z</time>
      </trkpt>
      <trkpt lat="47.28761" lon="-2.36976">
        <ele>15.800000190735</ele>
        <time>2021-03-11T08:46:21.000Z</time>
      </trkpt>
      <trkpt lat="47.28762" lon="-2.36978">
        <ele>16.200000762939</ele>
        <time>2021-03-11T08:46:22.000Z</time>
      </trkpt>
      <trkpt lat="47.2877" lon="-2.36988">
        <ele>16.200000762939</ele>
        <time>2021-03-11T08:46:26.000Z</time>
      </trkpt>
      <trkpt lat="47.28778" lon="-2.37009">
        <ele>16.200000762939</ele>
        <time>2021-03-11T08:46:30.000Z</time>
      </trkpt>
      <trkpt lat="47.28785" lon="-2.37042">
        <ele>16.200000762939</ele>
        <time>2021-03-11T08:46:35.000Z</time>
      </trkpt>
      <trkpt lat="47.28789" lon="-2.37066">
        <ele>15.800000190735</ele>
        <time>2021-03-11T08:46:38.000Z</time>
      </trkpt>
      <trkpt lat="47.2879" lon="-2.37075">
        <ele>14.800000190735</ele>
        <time>2021-03-11T08:46:39.000Z</time>
      </trkpt>
      <trkpt lat="47.28791" lon="-2.37084">
        <ele>14.39999961853</ele>
        <time>2021-03-11T08:46:40.000Z</time>
      </trkpt>
      <trkpt lat="47.28792" lon="-2.37091">
        <ele>13.800000190735</ele>
        <time>2021-03-11T08:46:41.000Z</time>
      </trkpt>
      <trkpt lat="47.28794" lon="-2.37097">
        <ele>13.199999809265</ele>
        <time>2021-03-11T08:46:42.000Z</time>
      </trkpt>
      <trkpt lat="47.28796" lon="-2.37102">
        <ele>12.60000038147</ele>
        <time>2021-03-11T08:46:43.000Z</time>
      </trkpt>
      <trkpt lat="47.28797" lon="-2.37105">
        <ele>12.199999809265</ele>
        <time>2021-03-11T08:46:44.000Z</time>
      </trkpt>
      <trkpt lat="47.28798" lon="-2.37107">
        <ele>11.60000038147</ele>
        <time>2021-03-11T08:46:45.000Z</time>
      </trkpt>
      <trkpt lat="47.288" lon="-2.37108">
        <ele>11.199999809265</ele>
        <time>2021-03-11T08:46:46.000Z</time>
      </trkpt>
      <trkpt lat="47.28803" lon="-2.37109">
        <ele>10.800000190735</ele>
        <time>2021-03-11T08:46:47.000Z</time>
      </trkpt>
      <trkpt lat="47.28806" lon="-2.3711">
        <ele>10.199999809265</ele>
        <time>2021-03-11T08:46:48.000Z</time>
      </trkpt>
      <trkpt lat="47.28809" lon="-2.3711">
        <ele>9.8000001907349</ele>
        <time>2021-03-11T08:46:49.000Z</time>
      </trkpt>
      <trkpt lat="47.28811" lon="-2.37109">
        <ele>9.3999996185303</ele>
        <time>2021-03-11T08:46:50.000Z</time>
      </trkpt>
      <trkpt lat="47.28814" lon="-2.37108">
        <ele>9</ele>
        <time>2021-03-11T08:46:51.000Z</time>
      </trkpt>
      <trkpt lat="47.28817" lon="-2.37106">
        <ele>8.3999996185303</ele>
        <time>2021-03-11T08:46:52.000Z</time>
      </trkpt>
      <trkpt lat="47.28819" lon="-2.37103">
        <ele>8</ele>
        <time>2021-03-11T08:46:53.000Z</time>
      </trkpt>
      <trkpt lat="47.28822" lon="-2.37101">
        <ele>7.5999999046326</ele>
        <time>2021-03-11T08:46:54.000Z</time>
      </trkpt>
      <trkpt lat="47.28823" lon="-2.37099">
        <ele>7</ele>
        <time>2021-03-11T08:46:55.000Z</time>
      </trkpt>
      <trkpt lat="47.28825" lon="-2.37097">
        <ele>6.5999999046326</ele>
        <time>2021-03-11T08:46:56.000Z</time>
      </trkpt>
      <trkpt lat="47.28826" lon="-2.37094">
        <ele>6.1999998092651</ele>
        <time>2021-03-11T08:46:57.000Z</time>
      </trkpt>
      <trkpt lat="47.28826" lon="-2.37091">
        <ele>5.8000001907349</ele>
        <time>2021-03-11T08:46:58.000Z</time>
      </trkpt>
      <trkpt lat="47.28826" lon="-2.37089">
        <ele>5.4000000953674</ele>
        <time>2021-03-11T08:46:59.000Z</time>
      </trkpt>
      <trkpt lat="47.28825" lon="-2.37087">
        <ele>4.8000001907349</ele>
        <time>2021-03-11T08:47:00.000Z</time>
      </trkpt>
      <trkpt lat="47.28826" lon="-2.37082">
        <ele>4.8000001907349</ele>
        <time>2021-03-11T08:47:02.000Z</time>
      </trkpt>
      <trkpt lat="47.28826" lon="-2.37076">
        <ele>4.8000001907349</ele>
        <time>2021-03-11T08:47:04.000Z</time>
      </trkpt>
      <trkpt lat="47.28822" lon="-2.37055">
        <ele>4.8000001907349</ele>
        <time>2021-03-11T08:47:08.000Z</time>
      </trkpt>
      <trkpt lat="47.28816" lon="-2.37038">
        <ele>4.8000001907349</ele>
        <time>2021-03-11T08:47:11.000Z</time>
      </trkpt>
      <trkpt lat="47.28811" lon="-2.37025">
        <ele>4.8000001907349</ele>
        <time>2021-03-11T08:47:13.000Z</time>
      </trkpt>
      <trkpt lat="47.28802" lon="-2.37003">
        <ele>4.8000001907349</ele>
        <time>2021-03-11T08:47:17.000Z</time>
      </trkpt>
      <trkpt lat="47.288" lon="-2.36997">
        <ele>4.8000001907349</ele>
        <time>2021-03-11T08:47:18.000Z</time>
      </trkpt>
      <trkpt lat="47.28795" lon="-2.36981">
        <ele>4.8000001907349</ele>
        <time>2021-03-11T08:47:21.000Z</time>
      </trkpt>
      <trkpt lat="47.28787" lon="-2.36959">
        <ele>4.8000001907349</ele>
        <time>2021-03-11T08:47:25.000Z</time>
      </trkpt>
      <trkpt lat="47.28785" lon="-2.36946">
        <ele>4.8000001907349</ele>
        <time>2021-03-11T08:47:27.000Z</time>
      </trkpt>
      <trkpt lat="47.28779" lon="-2.36916">
        <ele>4.8000001907349</ele>
        <time>2021-03-11T08:47:32.000Z</time>
      </trkpt>
      <trkpt lat="47.28778" lon="-2.36903">
        <ele>4.8000001907349</ele>
        <time>2021-03-11T08:47:34.000Z</time>
      </trkpt>
      <trkpt lat="47.28778" lon="-2.36882">
        <ele>4.8000001907349</ele>
        <time>2021-03-11T08:47:37.000Z</time>
      </trkpt>
      <trkpt lat="47.28781" lon="-2.36863">
        <ele>4.8000001907349</ele>
        <time>2021-03-11T08:47:40.000Z</time>
      </trkpt>
      <trkpt lat="47.28784" lon="-2.36851">
        <ele>4.8000001907349</ele>
        <time>2021-03-11T08:47:42.000Z</time>
      </trkpt>
      <trkpt lat="47.28786" lon="-2.36845">
        <ele>4.8000001907349</ele>
        <time>2021-03-11T08:47:43.000Z</time>
      </trkpt>
      <trkpt lat="47.28799" lon="-2.36816">
        <ele>4.8000001907349</ele>
        <time>2021-03-11T08:47:48.000Z</time>
      </trkpt>
      <trkpt lat="47.28804" lon="-2.36805">
        <ele>4.8000001907349</ele>
        <time>2021-03-11T08:47:50.000Z</time>
      </trkpt>
      <trkpt lat="47.28812" lon="-2.36789">
        <ele>4.8000001907349</ele>
        <time>2021-03-11T08:47:53.000Z</time>
      </trkpt>
      <trkpt lat="47.28814" lon="-2.36783">
        <ele>4.8000001907349</ele>
        <time>2021-03-11T08:47:54.000Z</time>
      </trkpt>
      <trkpt lat="47.28817" lon="-2.36772">
        <ele>5.4000000953674</ele>
        <time>2021-03-11T08:47:56.000Z</time>
      </trkpt>
      <trkpt lat="47.28817" lon="-2.36766">
        <ele>5.8000001907349</ele>
        <time>2021-03-11T08:47:57.000Z</time>
      </trkpt>
      <trkpt lat="47.28818" lon="-2.36761">
        <ele>6.1999998092651</ele>
        <time>2021-03-11T08:47:58.000Z</time>
      </trkpt>
      <trkpt lat="47.28818" lon="-2.36755">
        <ele>6.5999999046326</ele>
        <time>2021-03-11T08:47:59.000Z</time>
      </trkpt>
      <trkpt lat="47.28817" lon="-2.36749">
        <ele>7</ele>
        <time>2021-03-11T08:48:00.000Z</time>
      </trkpt>
      <trkpt lat="47.28815" lon="-2.36738">
        <ele>7</ele>
        <time>2021-03-11T08:48:02.000Z</time>
      </trkpt>
      <trkpt lat="47.28814" lon="-2.36732">
        <ele>7</ele>
        <time>2021-03-11T08:48:03.000Z</time>
      </trkpt>
      <trkpt lat="47.28818" lon="-2.36714">
        <ele>7.4000000953674</ele>
        <time>2021-03-11T08:48:07.000Z</time>
      </trkpt>
      <trkpt lat="47.2882" lon="-2.3671">
        <ele>7.8000001907349</ele>
        <time>2021-03-11T08:48:08.000Z</time>
      </trkpt>
      <trkpt lat="47.28822" lon="-2.36707">
        <ele>8.1999998092651</ele>
        <time>2021-03-11T08:48:09.000Z</time>
      </trkpt>
      <trkpt lat="47.28825" lon="-2.36703">
        <ele>8.8000001907349</ele>
        <time>2021-03-11T08:48:10.000Z</time>
      </trkpt>
      <trkpt lat="47.28828" lon="-2.367">
        <ele>9.1999998092651</ele>
        <time>2021-03-11T08:48:11.000Z</time>
      </trkpt>
      <trkpt lat="47.28832" lon="-2.36696">
        <ele>9.1999998092651</ele>
        <time>2021-03-11T08:48:12.000Z</time>
      </trkpt>
      <trkpt lat="47.28839" lon="-2.36688">
        <ele>9.1999998092651</ele>
        <time>2021-03-11T08:48:14.000Z</time>
      </trkpt>
      <trkpt lat="47.28845" lon="-2.36681">
        <ele>9.1999998092651</ele>
        <time>2021-03-11T08:48:17.000Z</time>
      </trkpt>
      <trkpt lat="47.28847" lon="-2.36679">
        <ele>9.1999998092651</ele>
        <time>2021-03-11T08:48:20.000Z</time>
      </trkpt>
      <trkpt lat="47.28844" lon="-2.36686">
        <ele>9.1999998092651</ele>
        <time>2021-03-11T08:48:37.000Z</time>
      </trkpt>
      <trkpt lat="47.28842" lon="-2.36689">
        <ele>9.1999998092651</ele>
        <time>2021-03-11T08:48:38.000Z</time>
      </trkpt>
      <trkpt lat="47.28833" lon="-2.36698">
        <ele>9.1999998092651</ele>
        <time>2021-03-11T08:48:41.000Z</time>
      </trkpt>
      <trkpt lat="47.28827" lon="-2.36704">
        <ele>9.1999998092651</ele>
        <time>2021-03-11T08:48:43.000Z</time>
      </trkpt>
      <trkpt lat="47.28824" lon="-2.36709">
        <ele>9.1999998092651</ele>
        <time>2021-03-11T08:48:44.000Z</time>
      </trkpt>
      <trkpt lat="47.28818" lon="-2.36728">
        <ele>9.1999998092651</ele>
        <time>2021-03-11T08:48:47.000Z</time>
      </trkpt>
      <trkpt lat="47.2882" lon="-2.36761">
        <ele>9.1999998092651</ele>
        <time>2021-03-11T08:48:51.000Z</time>
      </trkpt>
      <trkpt lat="47.28814" lon="-2.3679">
        <ele>9.1999998092651</ele>
        <time>2021-03-11T08:48:55.000Z</time>
      </trkpt>
      <trkpt lat="47.28809" lon="-2.36819">
        <ele>8.8000001907349</ele>
        <time>2021-03-11T08:48:59.000Z</time>
      </trkpt>
      <trkpt lat="47.28811" lon="-2.36826">
        <ele>8.3999996185303</ele>
        <time>2021-03-11T08:49:00.000Z</time>
      </trkpt>
      <trkpt lat="47.28813" lon="-2.36831">
        <ele>7.8000001907349</ele>
        <time>2021-03-11T08:49:01.000Z</time>
      </trkpt>
      <trkpt lat="47.28816" lon="-2.36836">
        <ele>7.4000000953674</ele>
        <time>2021-03-11T08:49:02.000Z</time>
      </trkpt>
      <trkpt lat="47.28818" lon="-2.3684">
        <ele>7</ele>
        <time>2021-03-11T08:49:03.000Z</time>
      </trkpt>
      <trkpt lat="47.28823" lon="-2.3685">
        <ele>7</ele>
        <time>2021-03-11T08:49:06.000Z</time>
      </trkpt>
      <trkpt lat="47.28824" lon="-2.36853">
        <ele>7.5999999046326</ele>
        <time>2021-03-11T08:49:07.000Z</time>
      </trkpt>
      <trkpt lat="47.28825" lon="-2.36856">
        <ele>8</ele>
        <time>2021-03-11T08:49:08.000Z</time>
      </trkpt>
      <trkpt lat="47.28826" lon="-2.36859">
        <ele>8.8000001907349</ele>
        <time>2021-03-11T08:49:09.000Z</time>
      </trkpt>
      <trkpt lat="47.28827" lon="-2.36862">
        <ele>9.1999998092651</ele>
        <time>2021-03-11T08:49:10.000Z</time>
      </trkpt>
      <trkpt lat="47.2883" lon="-2.36865">
        <ele>9.8000001907349</ele>
        <time>2021-03-11T08:49:11.000Z</time>
      </trkpt>
      <trkpt lat="47.28832" lon="-2.36868">
        <ele>10.199999809265</ele>
        <time>2021-03-11T08:49:12.000Z</time>
      </trkpt>
      <trkpt lat="47.28834" lon="-2.36871">
        <ele>10.60000038147</ele>
        <time>2021-03-11T08:49:13.000Z</time>
      </trkpt>
      <trkpt lat="47.28836" lon="-2.36873">
        <ele>11.199999809265</ele>
        <time>2021-03-11T08:49:14.000Z</time>
      </trkpt>
      <trkpt lat="47.28837" lon="-2.36875">
        <ele>11.60000038147</ele>
        <time>2021-03-11T08:49:15.000Z</time>
      </trkpt>
      <trkpt lat="47.28839" lon="-2.36876">
        <ele>11.60000038147</ele>
        <time>2021-03-11T08:49:16.000Z</time>
      </trkpt>
      <trkpt lat="47.28842" lon="-2.36873">
        <ele>12</ele>
        <time>2021-03-11T08:49:18.000Z</time>
      </trkpt>
      <trkpt lat="47.28844" lon="-2.3687">
        <ele>12.39999961853</ele>
        <time>2021-03-11T08:49:19.000Z</time>
      </trkpt>
      <trkpt lat="47.28845" lon="-2.36867">
        <ele>13</ele>
        <time>2021-03-11T08:49:20.000Z</time>
      </trkpt>
      <trkpt lat="47.28846" lon="-2.36863">
        <ele>13.39999961853</ele>
        <time>2021-03-11T08:49:21.000Z</time>
      </trkpt>
      <trkpt lat="47.28847" lon="-2.36858">
        <ele>13.800000190735</ele>
        <time>2021-03-11T08:49:22.000Z</time>
      </trkpt>
      <trkpt lat="47.28849" lon="-2.36853">
        <ele>13.800000190735</ele>
        <time>2021-03-11T08:49:23.000Z</time>
      </trkpt>
      <trkpt lat="47.2885" lon="-2.36848">
        <ele>13.800000190735</ele>
        <time>2021-03-11T08:49:24.000Z</time>
      </trkpt>
      <trkpt lat="47.28855" lon="-2.36825">
        <ele>14.199999809265</ele>
        <time>2021-03-11T08:49:28.000Z</time>
      </trkpt>
      <trkpt lat="47.28857" lon="-2.36819">
        <ele>14.60000038147</ele>
        <time>2021-03-11T08:49:29.000Z</time>
      </trkpt>
      <trkpt lat="47.28858" lon="-2.36813">
        <ele>15</ele>
        <time>2021-03-11T08:49:30.000Z</time>
      </trkpt>
      <trkpt lat="47.2886" lon="-2.36807">
        <ele>15.39999961853</ele>
        <time>2021-03-11T08:49:31.000Z</time>
      </trkpt>
      <trkpt lat="47.28861" lon="-2.36802">
        <ele>15.800000190735</ele>
        <time>2021-03-11T08:49:32.000Z</time>
      </trkpt>
      <trkpt lat="47.28867" lon="-2.3678">
        <ele>15.800000190735</ele>
        <time>2021-03-11T08:49:36.000Z</time>
      </trkpt>
      <trkpt lat="47.28874" lon="-2.36759">
        <ele>16.200000762939</ele>
        <time>2021-03-11T08:49:40.000Z</time>
      </trkpt>
      <trkpt lat="47.28876" lon="-2.36754">
        <ele>16.60000038147</ele>
        <time>2021-03-11T08:49:41.000Z</time>
      </trkpt>
      <trkpt lat="47.28878" lon="-2.36748">
        <ele>17</ele>
        <time>2021-03-11T08:49:42.000Z</time>
      </trkpt>
      <trkpt lat="47.28881" lon="-2.36742">
        <ele>17.39999961853</ele>
        <time>2021-03-11T08:49:43.000Z</time>
      </trkpt>
      <trkpt lat="47.28883" lon="-2.36737">
        <ele>17.799999237061</ele>
        <time>2021-03-11T08:49:44.000Z</time>
      </trkpt>
      <trkpt lat="47.28892" lon="-2.36712">
        <ele>17.799999237061</ele>
        <time>2021-03-11T08:49:48.000Z</time>
      </trkpt>
      <trkpt lat="47.28895" lon="-2.36706">
        <ele>17.799999237061</ele>
        <time>2021-03-11T08:49:49.000Z</time>
      </trkpt>
      <trkpt lat="47.28908" lon="-2.36676">
        <ele>17.799999237061</ele>
        <time>2021-03-11T08:49:54.000Z</time>
      </trkpt>
      <trkpt lat="47.28921" lon="-2.36649">
        <ele>17.799999237061</ele>
        <time>2021-03-11T08:49:59.000Z</time>
      </trkpt>
      <trkpt lat="47.28926" lon="-2.36637">
        <ele>17.799999237061</ele>
        <time>2021-03-11T08:50:01.000Z</time>
      </trkpt>
      <trkpt lat="47.28944" lon="-2.36594">
        <ele>17.799999237061</ele>
        <time>2021-03-11T08:50:08.000Z</time>
      </trkpt>
      <trkpt lat="47.28968" lon="-2.36553">
        <ele>17.799999237061</ele>
        <time>2021-03-11T08:50:15.000Z</time>
      </trkpt>
      <trkpt lat="47.28984" lon="-2.36534">
        <ele>17.799999237061</ele>
        <time>2021-03-11T08:50:19.000Z</time>
      </trkpt>
      <trkpt lat="47.28994" lon="-2.36526">
        <ele>17.799999237061</ele>
        <time>2021-03-11T08:50:21.000Z</time>
      </trkpt>
      <trkpt lat="47.29038" lon="-2.36487">
        <ele>17.799999237061</ele>
        <time>2021-03-11T08:50:30.000Z</time>
      </trkpt>
      <trkpt lat="47.29078" lon="-2.36453">
        <ele>17.799999237061</ele>
        <time>2021-03-11T08:50:38.000Z</time>
      </trkpt>
      <trkpt lat="47.29102" lon="-2.36435">
        <ele>17.799999237061</ele>
        <time>2021-03-11T08:50:43.000Z</time>
      </trkpt>
      <trkpt lat="47.29108" lon="-2.3643">
        <ele>17.799999237061</ele>
        <time>2021-03-11T08:50:44.000Z</time>
      </trkpt>
      <trkpt lat="47.29118" lon="-2.3642">
        <ele>17.799999237061</ele>
        <time>2021-03-11T08:50:46.000Z</time>
      </trkpt>
      <trkpt lat="47.29123" lon="-2.36416">
        <ele>17.799999237061</ele>
        <time>2021-03-11T08:50:47.000Z</time>
      </trkpt>
      <trkpt lat="47.29154" lon="-2.36392">
        <ele>17.799999237061</ele>
        <time>2021-03-11T08:50:53.000Z</time>
      </trkpt>
      <trkpt lat="47.29187" lon="-2.3638">
        <ele>17.799999237061</ele>
        <time>2021-03-11T08:50:59.000Z</time>
      </trkpt>
      <trkpt lat="47.29231" lon="-2.36378">
        <ele>17.799999237061</ele>
        <time>2021-03-11T08:51:06.000Z</time>
      </trkpt>
      <trkpt lat="47.29248" lon="-2.36374">
        <ele>17.799999237061</ele>
        <time>2021-03-11T08:51:09.000Z</time>
      </trkpt>
      <trkpt lat="47.29259" lon="-2.36369">
        <ele>17.799999237061</ele>
        <time>2021-03-11T08:51:11.000Z</time>
      </trkpt>
      <trkpt lat="47.29273" lon="-2.36362">
        <ele>18.39999961853</ele>
        <time>2021-03-11T08:51:14.000Z</time>
      </trkpt>
      <trkpt lat="47.29278" lon="-2.36359">
        <ele>18.799999237061</ele>
        <time>2021-03-11T08:51:15.000Z</time>
      </trkpt>
      <trkpt lat="47.29283" lon="-2.36357">
        <ele>19.200000762939</ele>
        <time>2021-03-11T08:51:16.000Z</time>
      </trkpt>
      <trkpt lat="47.29287" lon="-2.36353">
        <ele>19.60000038147</ele>
        <time>2021-03-11T08:51:17.000Z</time>
      </trkpt>
      <trkpt lat="47.29292" lon="-2.3635">
        <ele>20.200000762939</ele>
        <time>2021-03-11T08:51:18.000Z</time>
      </trkpt>
      <trkpt lat="47.29309" lon="-2.36338">
        <ele>20.60000038147</ele>
        <time>2021-03-11T08:51:22.000Z</time>
      </trkpt>
      <trkpt lat="47.29313" lon="-2.36335">
        <ele>21</ele>
        <time>2021-03-11T08:51:23.000Z</time>
      </trkpt>
      <trkpt lat="47.29317" lon="-2.36332">
        <ele>21.39999961853</ele>
        <time>2021-03-11T08:51:24.000Z</time>
      </trkpt>
      <trkpt lat="47.29321" lon="-2.36328">
        <ele>21.799999237061</ele>
        <time>2021-03-11T08:51:25.000Z</time>
      </trkpt>
      <trkpt lat="47.29325" lon="-2.36325">
        <ele>22.200000762939</ele>
        <time>2021-03-11T08:51:26.000Z</time>
      </trkpt>
      <trkpt lat="47.29341" lon="-2.36311">
        <ele>22.60000038147</ele>
        <time>2021-03-11T08:51:30.000Z</time>
      </trkpt>
      <trkpt lat="47.29345" lon="-2.36308">
        <ele>23.200000762939</ele>
        <time>2021-03-11T08:51:31.000Z</time>
      </trkpt>
      <trkpt lat="47.29349" lon="-2.36305">
        <ele>23.60000038147</ele>
        <time>2021-03-11T08:51:32.000Z</time>
      </trkpt>
      <trkpt lat="47.29354" lon="-2.36301">
        <ele>24</ele>
        <time>2021-03-11T08:51:33.000Z</time>
      </trkpt>
      <trkpt lat="47.29358" lon="-2.36298">
        <ele>24.39999961853</ele>
        <time>2021-03-11T08:51:34.000Z</time>
      </trkpt>
      <trkpt lat="47.29379" lon="-2.36283">
        <ele>24.39999961853</ele>
        <time>2021-03-11T08:51:39.000Z</time>
      </trkpt>
      <trkpt lat="47.29392" lon="-2.36273">
        <ele>24.39999961853</ele>
        <time>2021-03-11T08:51:42.000Z</time>
      </trkpt>
      <trkpt lat="47.29396" lon="-2.36269">
        <ele>24.799999237061</ele>
        <time>2021-03-11T08:51:43.000Z</time>
      </trkpt>
      <trkpt lat="47.294" lon="-2.36266">
        <ele>25.200000762939</ele>
        <time>2021-03-11T08:51:44.000Z</time>
      </trkpt>
      <trkpt lat="47.29405" lon="-2.36263">
        <ele>25.60000038147</ele>
        <time>2021-03-11T08:51:45.000Z</time>
      </trkpt>
      <trkpt lat="47.29409" lon="-2.36259">
        <ele>26.200000762939</ele>
        <time>2021-03-11T08:51:46.000Z</time>
      </trkpt>
      <trkpt lat="47.29413" lon="-2.36256">
        <ele>26.60000038147</ele>
        <time>2021-03-11T08:51:47.000Z</time>
      </trkpt>
      <trkpt lat="47.29427" lon="-2.36246">
        <ele>26.60000038147</ele>
        <time>2021-03-11T08:51:50.000Z</time>
      </trkpt>
      <trkpt lat="47.2946" lon="-2.36221">
        <ele>26.60000038147</ele>
        <time>2021-03-11T08:51:57.000Z</time>
      </trkpt>
      <trkpt lat="47.29464" lon="-2.36217">
        <ele>27</ele>
        <time>2021-03-11T08:51:58.000Z</time>
      </trkpt>
      <trkpt lat="47.29468" lon="-2.36213">
        <ele>27.39999961853</ele>
        <time>2021-03-11T08:51:59.000Z</time>
      </trkpt>
      <trkpt lat="47.29473" lon="-2.3621">
        <ele>27.799999237061</ele>
        <time>2021-03-11T08:52:00.000Z</time>
      </trkpt>
      <trkpt lat="47.29478" lon="-2.36206">
        <ele>28.200000762939</ele>
        <time>2021-03-11T08:52:01.000Z</time>
      </trkpt>
      <trkpt lat="47.29482" lon="-2.36203">
        <ele>28.60000038147</ele>
        <time>2021-03-11T08:52:02.000Z</time>
      </trkpt>
      <trkpt lat="47.29495" lon="-2.36192">
        <ele>28.60000038147</ele>
        <time>2021-03-11T08:52:05.000Z</time>
      </trkpt>
      <trkpt lat="47.29522" lon="-2.36169">
        <ele>28.60000038147</ele>
        <time>2021-03-11T08:52:11.000Z</time>
      </trkpt>
      <trkpt lat="47.29525" lon="-2.36163">
        <ele>28.60000038147</ele>
        <time>2021-03-11T08:52:12.000Z</time>
      </trkpt>
      <trkpt lat="47.29522" lon="-2.36142">
        <ele>28.60000038147</ele>
        <time>2021-03-11T08:52:15.000Z</time>
      </trkpt>
      <trkpt lat="47.29519" lon="-2.36136">
        <ele>28.60000038147</ele>
        <time>2021-03-11T08:52:16.000Z</time>
      </trkpt>
      <trkpt lat="47.295" lon="-2.36091">
        <ele>28.60000038147</ele>
        <time>2021-03-11T08:52:23.000Z</time>
      </trkpt>
      <trkpt lat="47.29487" lon="-2.36052">
        <ele>28.60000038147</ele>
        <time>2021-03-11T08:52:29.000Z</time>
      </trkpt>
      <trkpt lat="47.29472" lon="-2.36006">
        <ele>28.60000038147</ele>
        <time>2021-03-11T08:52:36.000Z</time>
      </trkpt>
      <trkpt lat="47.29468" lon="-2.35995">
        <ele>28.60000038147</ele>
        <time>2021-03-11T08:52:38.000Z</time>
      </trkpt>
      <trkpt lat="47.29463" lon="-2.35985">
        <ele>28.60000038147</ele>
        <time>2021-03-11T08:52:40.000Z</time>
      </trkpt>
      <trkpt lat="47.29463" lon="-2.35979">
        <ele>28.60000038147</ele>
        <time>2021-03-11T08:52:41.000Z</time>
      </trkpt>
      <trkpt lat="47.29467" lon="-2.35972">
        <ele>28.60000038147</ele>
        <time>2021-03-11T08:52:43.000Z</time>
      </trkpt>
      <trkpt lat="47.29475" lon="-2.35969">
        <ele>28.60000038147</ele>
        <time>2021-03-11T08:52:45.000Z</time>
      </trkpt>
      <trkpt lat="47.29479" lon="-2.35967">
        <ele>28.60000038147</ele>
        <time>2021-03-11T08:52:46.000Z</time>
      </trkpt>
      <trkpt lat="47.29483" lon="-2.35963">
        <ele>28.60000038147</ele>
        <time>2021-03-11T08:52:47.000Z</time>
      </trkpt>
      <trkpt lat="47.2952" lon="-2.35935">
        <ele>28.60000038147</ele>
        <time>2021-03-11T08:52:55.000Z</time>
      </trkpt>
      <trkpt lat="47.29545" lon="-2.35919">
        <ele>28.60000038147</ele>
        <time>2021-03-11T08:53:00.000Z</time>
      </trkpt>
      <trkpt lat="47.29554" lon="-2.35913">
        <ele>28.60000038147</ele>
        <time>2021-03-11T08:53:02.000Z</time>
      </trkpt>
      <trkpt lat="47.29584" lon="-2.35898">
        <ele>29</ele>
        <time>2021-03-11T08:53:08.000Z</time>
      </trkpt>
      <trkpt lat="47.29589" lon="-2.35896">
        <ele>29.39999961853</ele>
        <time>2021-03-11T08:53:09.000Z</time>
      </trkpt>
      <trkpt lat="47.29594" lon="-2.35893">
        <ele>29.799999237061</ele>
        <time>2021-03-11T08:53:10.000Z</time>
      </trkpt>
      <trkpt lat="47.29599" lon="-2.3589">
        <ele>30.200000762939</ele>
        <time>2021-03-11T08:53:11.000Z</time>
      </trkpt>
      <trkpt lat="47.29604" lon="-2.35887">
        <ele>30.60000038147</ele>
        <time>2021-03-11T08:53:12.000Z</time>
      </trkpt>
      <trkpt lat="47.29634" lon="-2.35871">
        <ele>30.60000038147</ele>
        <time>2021-03-11T08:53:18.000Z</time>
      </trkpt>
      <trkpt lat="47.29649" lon="-2.35861">
        <ele>30.60000038147</ele>
        <time>2021-03-11T08:53:21.000Z</time>
      </trkpt>
      <trkpt lat="47.29655" lon="-2.35849">
        <ele>30.60000038147</ele>
        <time>2021-03-11T08:53:23.000Z</time>
      </trkpt>
      <trkpt lat="47.29666" lon="-2.35834">
        <ele>30.60000038147</ele>
        <time>2021-03-11T08:53:27.000Z</time>
      </trkpt>
      <trkpt lat="47.29678" lon="-2.35837">
        <ele>30.60000038147</ele>
        <time>2021-03-11T08:53:30.000Z</time>
      </trkpt>
      <trkpt lat="47.29686" lon="-2.35838">
        <ele>30.60000038147</ele>
        <time>2021-03-11T08:53:32.000Z</time>
      </trkpt>
      <trkpt lat="47.29697" lon="-2.35835">
        <ele>30.60000038147</ele>
        <time>2021-03-11T08:53:35.000Z</time>
      </trkpt>
      <trkpt lat="47.2971" lon="-2.35829">
        <ele>30.60000038147</ele>
        <time>2021-03-11T08:53:38.000Z</time>
      </trkpt>
      <trkpt lat="47.29739" lon="-2.35811">
        <ele>30.60000038147</ele>
        <time>2021-03-11T08:53:45.000Z</time>
      </trkpt>
      <trkpt lat="47.29755" lon="-2.35803">
        <ele>31.200000762939</ele>
        <time>2021-03-11T08:53:50.000Z</time>
      </trkpt>
      <trkpt lat="47.29758" lon="-2.35802">
        <ele>31.60000038147</ele>
        <time>2021-03-11T08:53:51.000Z</time>
      </trkpt>
      <trkpt lat="47.29762" lon="-2.35801">
        <ele>32</ele>
        <time>2021-03-11T08:53:52.000Z</time>
      </trkpt>
      <trkpt lat="47.29765" lon="-2.358">
        <ele>32.400001525879</ele>
        <time>2021-03-11T08:53:53.000Z</time>
      </trkpt>
      <trkpt lat="47.29769" lon="-2.35798">
        <ele>32.799999237061</ele>
        <time>2021-03-11T08:53:54.000Z</time>
      </trkpt>
      <trkpt lat="47.29787" lon="-2.35791">
        <ele>33.200000762939</ele>
        <time>2021-03-11T08:53:59.000Z</time>
      </trkpt>
      <trkpt lat="47.29791" lon="-2.3579">
        <ele>33.599998474121</ele>
        <time>2021-03-11T08:54:00.000Z</time>
      </trkpt>
      <trkpt lat="47.29796" lon="-2.35788">
        <ele>34.200000762939</ele>
        <time>2021-03-11T08:54:01.000Z</time>
      </trkpt>
      <trkpt lat="47.298" lon="-2.35787">
        <ele>34.599998474121</ele>
        <time>2021-03-11T08:54:02.000Z</time>
      </trkpt>
      <trkpt lat="47.29804" lon="-2.35786">
        <ele>35</ele>
        <time>2021-03-11T08:54:03.000Z</time>
      </trkpt>
      <trkpt lat="47.29821" lon="-2.35781">
        <ele>35</ele>
        <time>2021-03-11T08:54:07.000Z</time>
      </trkpt>
      <trkpt lat="47.29853" lon="-2.3577">
        <ele>35</ele>
        <time>2021-03-11T08:54:13.000Z</time>
      </trkpt>
      <trkpt lat="47.29858" lon="-2.35768">
        <ele>34.599998474121</ele>
        <time>2021-03-11T08:54:14.000Z</time>
      </trkpt>
      <trkpt lat="47.29864" lon="-2.35766">
        <ele>34.200000762939</ele>
        <time>2021-03-11T08:54:15.000Z</time>
      </trkpt>
      <trkpt lat="47.2987" lon="-2.35764">
        <ele>33.799999237061</ele>
        <time>2021-03-11T08:54:16.000Z</time>
      </trkpt>
      <trkpt lat="47.29876" lon="-2.35762">
        <ele>33.400001525879</ele>
        <time>2021-03-11T08:54:17.000Z</time>
      </trkpt>
      <trkpt lat="47.29883" lon="-2.35759">
        <ele>33</ele>
        <time>2021-03-11T08:54:18.000Z</time>
      </trkpt>
      <trkpt lat="47.29889" lon="-2.35756">
        <ele>33</ele>
        <time>2021-03-11T08:54:19.000Z</time>
      </trkpt>
      <trkpt lat="47.29907" lon="-2.35745">
        <ele>33</ele>
        <time>2021-03-11T08:54:22.000Z</time>
      </trkpt>
      <trkpt lat="47.29925" lon="-2.35732">
        <ele>33</ele>
        <time>2021-03-11T08:54:25.000Z</time>
      </trkpt>
      <trkpt lat="47.2993" lon="-2.35728">
        <ele>33</ele>
        <time>2021-03-11T08:54:26.000Z</time>
      </trkpt>
      <trkpt lat="47.29951" lon="-2.35711">
        <ele>33</ele>
        <time>2021-03-11T08:54:30.000Z</time>
      </trkpt>
      <trkpt lat="47.29956" lon="-2.35708">
        <ele>33</ele>
        <time>2021-03-11T08:54:31.000Z</time>
      </trkpt>
      <trkpt lat="47.29981" lon="-2.35692">
        <ele>33</ele>
        <time>2021-03-11T08:54:36.000Z</time>
      </trkpt>
      <trkpt lat="47.30015" lon="-2.35672">
        <ele>33</ele>
        <time>2021-03-11T08:54:43.000Z</time>
      </trkpt>
      <trkpt lat="47.30049" lon="-2.35652">
        <ele>33</ele>
        <time>2021-03-11T08:54:50.000Z</time>
      </trkpt>
      <trkpt lat="47.30092" lon="-2.35625">
        <ele>33.400001525879</ele>
        <time>2021-03-11T08:54:59.000Z</time>
      </trkpt>
      <trkpt lat="47.30097" lon="-2.35622">
        <ele>33.799999237061</ele>
        <time>2021-03-11T08:55:00.000Z</time>
      </trkpt>
      <trkpt lat="47.30102" lon="-2.35619">
        <ele>34.200000762939</ele>
        <time>2021-03-11T08:55:01.000Z</time>
      </trkpt>
      <trkpt lat="47.30107" lon="-2.35616">
        <ele>34.599998474121</ele>
        <time>2021-03-11T08:55:02.000Z</time>
      </trkpt>
      <trkpt lat="47.30112" lon="-2.35612">
        <ele>35</ele>
        <time>2021-03-11T08:55:03.000Z</time>
      </trkpt>
      <trkpt lat="47.30121" lon="-2.35603">
        <ele>35</ele>
        <time>2021-03-11T08:55:05.000Z</time>
      </trkpt>
      <trkpt lat="47.3013" lon="-2.35595">
        <ele>35</ele>
        <time>2021-03-11T08:55:07.000Z</time>
      </trkpt>
      <trkpt lat="47.30154" lon="-2.35588">
        <ele>35</ele>
        <time>2021-03-11T08:55:11.000Z</time>
      </trkpt>
      <trkpt lat="47.30201" lon="-2.35571">
        <ele>35</ele>
        <time>2021-03-11T08:55:19.000Z</time>
      </trkpt>
      <trkpt lat="47.30224" lon="-2.35572">
        <ele>35</ele>
        <time>2021-03-11T08:55:23.000Z</time>
      </trkpt>
      <trkpt lat="47.30234" lon="-2.35574">
        <ele>35</ele>
        <time>2021-03-11T08:55:25.000Z</time>
      </trkpt>
      <trkpt lat="47.30273" lon="-2.35579">
        <ele>35</ele>
        <time>2021-03-11T08:55:32.000Z</time>
      </trkpt>
      <trkpt lat="47.30313" lon="-2.35589">
        <ele>35</ele>
        <time>2021-03-11T08:55:39.000Z</time>
      </trkpt>
      <trkpt lat="47.30337" lon="-2.35593">
        <ele>35</ele>
        <time>2021-03-11T08:55:43.000Z</time>
      </trkpt>
      <trkpt lat="47.30348" lon="-2.35595">
        <ele>35</ele>
        <time>2021-03-11T08:55:45.000Z</time>
      </trkpt>
      <trkpt lat="47.30354" lon="-2.35596">
        <ele>35</ele>
        <time>2021-03-11T08:55:46.000Z</time>
      </trkpt>
      <trkpt lat="47.30376" lon="-2.35593">
        <ele>35</ele>
        <time>2021-03-11T08:55:50.000Z</time>
      </trkpt>
      <trkpt lat="47.30386" lon="-2.35592">
        <ele>35</ele>
        <time>2021-03-11T08:55:52.000Z</time>
      </trkpt>
      <trkpt lat="47.30394" lon="-2.35597">
        <ele>35</ele>
        <time>2021-03-11T08:55:54.000Z</time>
      </trkpt>
      <trkpt lat="47.30403" lon="-2.35611">
        <ele>35</ele>
        <time>2021-03-11T08:55:57.000Z</time>
      </trkpt>
      <trkpt lat="47.30409" lon="-2.35621">
        <ele>35</ele>
        <time>2021-03-11T08:55:59.000Z</time>
      </trkpt>
      <trkpt lat="47.30424" lon="-2.35645">
        <ele>35</ele>
        <time>2021-03-11T08:56:04.000Z</time>
      </trkpt>
      <trkpt lat="47.30432" lon="-2.35652">
        <ele>35</ele>
        <time>2021-03-11T08:56:06.000Z</time>
      </trkpt>
      <trkpt lat="47.30436" lon="-2.35655">
        <ele>35</ele>
        <time>2021-03-11T08:56:07.000Z</time>
      </trkpt>
      <trkpt lat="47.30461" lon="-2.35674">
        <ele>35</ele>
        <time>2021-03-11T08:56:11.000Z</time>
      </trkpt>
      <trkpt lat="47.30461" lon="-2.35674">
        <ele>35</ele>
        <time>2021-03-11T08:56:12.000Z</time>
      </trkpt>
      <trkpt lat="47.30487" lon="-2.35701">
        <ele>35</ele>
        <time>2021-03-11T08:56:18.000Z</time>
      </trkpt>
      <trkpt lat="47.30521" lon="-2.35745">
        <ele>35</ele>
        <time>2021-03-11T08:56:26.000Z</time>
      </trkpt>
      <trkpt lat="47.30554" lon="-2.35789">
        <ele>35</ele>
        <time>2021-03-11T08:56:34.000Z</time>
      </trkpt>
      <trkpt lat="47.30597" lon="-2.35844">
        <ele>35</ele>
        <time>2021-03-11T08:56:44.000Z</time>
      </trkpt>
      <trkpt lat="47.30601" lon="-2.35849">
        <ele>35</ele>
        <time>2021-03-11T08:56:45.000Z</time>
      </trkpt>
      <trkpt lat="47.30637" lon="-2.35886">
        <ele>35</ele>
        <time>2021-03-11T08:56:53.000Z</time>
      </trkpt>
      <trkpt lat="47.30651" lon="-2.35896">
        <ele>35</ele>
        <time>2021-03-11T08:56:56.000Z</time>
      </trkpt>
      <trkpt lat="47.30661" lon="-2.35896">
        <ele>35</ele>
        <time>2021-03-11T08:56:58.000Z</time>
      </trkpt>
      <trkpt lat="47.30674" lon="-2.35884">
        <ele>35</ele>
        <time>2021-03-11T08:57:01.000Z</time>
      </trkpt>
      <trkpt lat="47.30708" lon="-2.35845">
        <ele>35</ele>
        <time>2021-03-11T08:57:09.000Z</time>
      </trkpt>
      <trkpt lat="47.30737" lon="-2.35812">
        <ele>35.400001525879</ele>
        <time>2021-03-11T08:57:16.000Z</time>
      </trkpt>
      <trkpt lat="47.30741" lon="-2.35808">
        <ele>35.799999237061</ele>
        <time>2021-03-11T08:57:17.000Z</time>
      </trkpt>
      <trkpt lat="47.30745" lon="-2.35804">
        <ele>36.200000762939</ele>
        <time>2021-03-11T08:57:18.000Z</time>
      </trkpt>
      <trkpt lat="47.3075" lon="-2.35801">
        <ele>36.599998474121</ele>
        <time>2021-03-11T08:57:19.000Z</time>
      </trkpt>
      <trkpt lat="47.30754" lon="-2.35798">
        <ele>37</ele>
        <time>2021-03-11T08:57:20.000Z</time>
      </trkpt>
      <trkpt lat="47.30759" lon="-2.35797">
        <ele>37</ele>
        <time>2021-03-11T08:57:21.000Z</time>
      </trkpt>
      <trkpt lat="47.30778" lon="-2.35802">
        <ele>37</ele>
        <time>2021-03-11T08:57:25.000Z</time>
      </trkpt>
      <trkpt lat="47.30787" lon="-2.35809">
        <ele>37</ele>
        <time>2021-03-11T08:57:27.000Z</time>
      </trkpt>
      <trkpt lat="47.3081" lon="-2.35826">
        <ele>37</ele>
        <time>2021-03-11T08:57:32.000Z</time>
      </trkpt>
      <trkpt lat="47.30855" lon="-2.35854">
        <ele>37</ele>
        <time>2021-03-11T08:57:41.000Z</time>
      </trkpt>
      <trkpt lat="47.30872" lon="-2.35863">
        <ele>37</ele>
        <time>2021-03-11T08:57:44.000Z</time>
      </trkpt>
      <trkpt lat="47.30889" lon="-2.35866">
        <ele>37</ele>
        <time>2021-03-11T08:57:47.000Z</time>
      </trkpt>
      <trkpt lat="47.30895" lon="-2.35866">
        <ele>37</ele>
        <time>2021-03-11T08:57:48.000Z</time>
      </trkpt>
      <trkpt lat="47.30901" lon="-2.35865">
        <ele>37</ele>
        <time>2021-03-11T08:57:49.000Z</time>
      </trkpt>
      <trkpt lat="47.30925" lon="-2.35855">
        <ele>37</ele>
        <time>2021-03-11T08:57:53.000Z</time>
      </trkpt>
      <trkpt lat="47.3097" lon="-2.35831">
        <ele>37</ele>
        <time>2021-03-11T08:58:01.000Z</time>
      </trkpt>
      <trkpt lat="47.31018" lon="-2.35809">
        <ele>37</ele>
        <time>2021-03-11T08:58:09.000Z</time>
      </trkpt>
      <trkpt lat="47.31062" lon="-2.35795">
        <ele>37</ele>
        <time>2021-03-11T08:58:16.000Z</time>
      </trkpt>
      <trkpt lat="47.31075" lon="-2.35791">
        <ele>36.599998474121</ele>
        <time>2021-03-11T08:58:18.000Z</time>
      </trkpt>
      <trkpt lat="47.31082" lon="-2.35789">
        <ele>36.200000762939</ele>
        <time>2021-03-11T08:58:19.000Z</time>
      </trkpt>
      <trkpt lat="47.31089" lon="-2.35787">
        <ele>35.799999237061</ele>
        <time>2021-03-11T08:58:20.000Z</time>
      </trkpt>
      <trkpt lat="47.31095" lon="-2.35785">
        <ele>35.400001525879</ele>
        <time>2021-03-11T08:58:21.000Z</time>
      </trkpt>
      <trkpt lat="47.31101" lon="-2.35784">
        <ele>35</ele>
        <time>2021-03-11T08:58:22.000Z</time>
      </trkpt>
      <trkpt lat="47.31108" lon="-2.35782">
        <ele>35</ele>
        <time>2021-03-11T08:58:23.000Z</time>
      </trkpt>
      <trkpt lat="47.31147" lon="-2.35773">
        <ele>35</ele>
        <time>2021-03-11T08:58:29.000Z</time>
      </trkpt>
      <trkpt lat="47.31159" lon="-2.35764">
        <ele>35</ele>
        <time>2021-03-11T08:58:31.000Z</time>
      </trkpt>
      <trkpt lat="47.31172" lon="-2.35742">
        <ele>35</ele>
        <time>2021-03-11T08:58:34.000Z</time>
      </trkpt>
      <trkpt lat="47.31176" lon="-2.35725">
        <ele>35</ele>
        <time>2021-03-11T08:58:36.000Z</time>
      </trkpt>
      <trkpt lat="47.31182" lon="-2.357">
        <ele>35</ele>
        <time>2021-03-11T08:58:39.000Z</time>
      </trkpt>
      <trkpt lat="47.3119" lon="-2.35676">
        <ele>35</ele>
        <time>2021-03-11T08:58:42.000Z</time>
      </trkpt>
      <trkpt lat="47.31199" lon="-2.35663">
        <ele>35</ele>
        <time>2021-03-11T08:58:44.000Z</time>
      </trkpt>
      <trkpt lat="47.31204" lon="-2.35657">
        <ele>35</ele>
        <time>2021-03-11T08:58:45.000Z</time>
      </trkpt>
      <trkpt lat="47.31222" lon="-2.35641">
        <ele>35</ele>
        <time>2021-03-11T08:58:48.000Z</time>
      </trkpt>
      <trkpt lat="47.31266" lon="-2.35603">
        <ele>35</ele>
        <time>2021-03-11T08:58:55.000Z</time>
      </trkpt>
      <trkpt lat="47.31314" lon="-2.35566">
        <ele>35</ele>
        <time>2021-03-11T08:59:03.000Z</time>
      </trkpt>
      <trkpt lat="47.31321" lon="-2.35563">
        <ele>34.599998474121</ele>
        <time>2021-03-11T08:59:04.000Z</time>
      </trkpt>
      <trkpt lat="47.31327" lon="-2.35558">
        <ele>34.200000762939</ele>
        <time>2021-03-11T08:59:05.000Z</time>
      </trkpt>
      <trkpt lat="47.31332" lon="-2.35554">
        <ele>33.799999237061</ele>
        <time>2021-03-11T08:59:06.000Z</time>
      </trkpt>
      <trkpt lat="47.31338" lon="-2.35549">
        <ele>33.400001525879</ele>
        <time>2021-03-11T08:59:07.000Z</time>
      </trkpt>
      <trkpt lat="47.31343" lon="-2.35546">
        <ele>32.799999237061</ele>
        <time>2021-03-11T08:59:08.000Z</time>
      </trkpt>
      <trkpt lat="47.31375" lon="-2.3553">
        <ele>32.799999237061</ele>
        <time>2021-03-11T08:59:14.000Z</time>
      </trkpt>
      <trkpt lat="47.31384" lon="-2.35527">
        <ele>32.799999237061</ele>
        <time>2021-03-11T08:59:16.000Z</time>
      </trkpt>
      <trkpt lat="47.31399" lon="-2.35526">
        <ele>32.799999237061</ele>
        <time>2021-03-11T08:59:19.000Z</time>
      </trkpt>
      <trkpt lat="47.31408" lon="-2.35526">
        <ele>32.799999237061</ele>
        <time>2021-03-11T08:59:21.000Z</time>
      </trkpt>
      <trkpt lat="47.31418" lon="-2.35526">
        <ele>32.799999237061</ele>
        <time>2021-03-11T08:59:23.000Z</time>
      </trkpt>
      <trkpt lat="47.31423" lon="-2.35526">
        <ele>32.799999237061</ele>
        <time>2021-03-11T08:59:24.000Z</time>
      </trkpt>
      <trkpt lat="47.31452" lon="-2.35525">
        <ele>32.799999237061</ele>
        <time>2021-03-11T08:59:30.000Z</time>
      </trkpt>
      <trkpt lat="47.31459" lon="-2.35524">
        <ele>32.400001525879</ele>
        <time>2021-03-11T08:59:32.000Z</time>
      </trkpt>
      <trkpt lat="47.31462" lon="-2.35522">
        <ele>32</ele>
        <time>2021-03-11T08:59:33.000Z</time>
      </trkpt>
      <trkpt lat="47.31465" lon="-2.3552">
        <ele>31.60000038147</ele>
        <time>2021-03-11T08:59:34.000Z</time>
      </trkpt>
      <trkpt lat="47.31468" lon="-2.35518">
        <ele>31.200000762939</ele>
        <time>2021-03-11T08:59:35.000Z</time>
      </trkpt>
      <trkpt lat="47.31472" lon="-2.35516">
        <ele>30.799999237061</ele>
        <time>2021-03-11T08:59:36.000Z</time>
      </trkpt>
      <trkpt lat="47.31475" lon="-2.35512">
        <ele>30.799999237061</ele>
        <time>2021-03-11T08:59:37.000Z</time>
      </trkpt>
      <trkpt lat="47.3148" lon="-2.35502">
        <ele>30.799999237061</ele>
        <time>2021-03-11T08:59:39.000Z</time>
      </trkpt>
      <trkpt lat="47.31483" lon="-2.35489">
        <ele>30.799999237061</ele>
        <time>2021-03-11T08:59:41.000Z</time>
      </trkpt>
      <trkpt lat="47.31486" lon="-2.35465">
        <ele>30.799999237061</ele>
        <time>2021-03-11T08:59:44.000Z</time>
      </trkpt>
      <trkpt lat="47.31492" lon="-2.35442">
        <ele>30.799999237061</ele>
        <time>2021-03-11T08:59:47.000Z</time>
      </trkpt>
      <trkpt lat="47.31499" lon="-2.35428">
        <ele>30.799999237061</ele>
        <time>2021-03-11T08:59:49.000Z</time>
      </trkpt>
      <trkpt lat="47.31513" lon="-2.35414">
        <ele>30.799999237061</ele>
        <time>2021-03-11T08:59:52.000Z</time>
      </trkpt>
      <trkpt lat="47.31519" lon="-2.35411">
        <ele>30.799999237061</ele>
        <time>2021-03-11T08:59:53.000Z</time>
      </trkpt>
      <trkpt lat="47.31538" lon="-2.35395">
        <ele>30.799999237061</ele>
        <time>2021-03-11T08:59:57.000Z</time>
      </trkpt>
      <trkpt lat="47.31543" lon="-2.35392">
        <ele>30.799999237061</ele>
        <time>2021-03-11T08:59:58.000Z</time>
      </trkpt>
      <trkpt lat="47.31583" lon="-2.3537">
        <ele>30.799999237061</ele>
        <time>2021-03-11T09:00:06.000Z</time>
      </trkpt>
      <trkpt lat="47.31612" lon="-2.3536">
        <ele>30.799999237061</ele>
        <time>2021-03-11T09:00:12.000Z</time>
      </trkpt>
      <trkpt lat="47.31617" lon="-2.35361">
        <ele>30.799999237061</ele>
        <time>2021-03-11T09:00:13.000Z</time>
      </trkpt>
      <trkpt lat="47.31631" lon="-2.35365">
        <ele>30.799999237061</ele>
        <time>2021-03-11T09:00:16.000Z</time>
      </trkpt>
      <trkpt lat="47.31637" lon="-2.35367">
        <ele>30.799999237061</ele>
        <time>2021-03-11T09:00:17.000Z</time>
      </trkpt>
      <trkpt lat="47.31669" lon="-2.35373">
        <ele>30.799999237061</ele>
        <time>2021-03-11T09:00:23.000Z</time>
      </trkpt>
      <trkpt lat="47.31675" lon="-2.35373">
        <ele>30.799999237061</ele>
        <time>2021-03-11T09:00:24.000Z</time>
      </trkpt>
      <trkpt lat="47.31687" lon="-2.35373">
        <ele>30.39999961853</ele>
        <time>2021-03-11T09:00:26.000Z</time>
      </trkpt>
      <trkpt lat="47.31693" lon="-2.35372">
        <ele>30</ele>
        <time>2021-03-11T09:00:27.000Z</time>
      </trkpt>
      <trkpt lat="47.31698" lon="-2.35371">
        <ele>29.60000038147</ele>
        <time>2021-03-11T09:00:28.000Z</time>
      </trkpt>
      <trkpt lat="47.31703" lon="-2.3537">
        <ele>29.200000762939</ele>
        <time>2021-03-11T09:00:29.000Z</time>
      </trkpt>
      <trkpt lat="47.31709" lon="-2.3537">
        <ele>28.799999237061</ele>
        <time>2021-03-11T09:00:30.000Z</time>
      </trkpt>
      <trkpt lat="47.31735" lon="-2.35363">
        <ele>28.799999237061</ele>
        <time>2021-03-11T09:00:35.000Z</time>
      </trkpt>
      <trkpt lat="47.31742" lon="-2.35359">
        <ele>28.799999237061</ele>
        <time>2021-03-11T09:00:38.000Z</time>
      </trkpt>
      <trkpt lat="47.31744" lon="-2.35358">
        <ele>28.799999237061</ele>
        <time>2021-03-11T09:00:39.000Z</time>
      </trkpt>
      <trkpt lat="47.31754" lon="-2.35354">
        <ele>28.799999237061</ele>
        <time>2021-03-11T09:00:42.000Z</time>
      </trkpt>
      <trkpt lat="47.31757" lon="-2.35352">
        <ele>28.799999237061</ele>
        <time>2021-03-11T09:00:43.000Z</time>
      </trkpt>
      <trkpt lat="47.31766" lon="-2.35345">
        <ele>28.39999961853</ele>
        <time>2021-03-11T09:00:46.000Z</time>
      </trkpt>
      <trkpt lat="47.3177" lon="-2.35343">
        <ele>28</ele>
        <time>2021-03-11T09:00:47.000Z</time>
      </trkpt>
      <trkpt lat="47.31774" lon="-2.35341">
        <ele>27.60000038147</ele>
        <time>2021-03-11T09:00:48.000Z</time>
      </trkpt>
      <trkpt lat="47.31776" lon="-2.35339">
        <ele>27.200000762939</ele>
        <time>2021-03-11T09:00:49.000Z</time>
      </trkpt>
      <trkpt lat="47.31779" lon="-2.35338">
        <ele>26.60000038147</ele>
        <time>2021-03-11T09:00:50.000Z</time>
      </trkpt>
      <trkpt lat="47.31781" lon="-2.35338">
        <ele>26.60000038147</ele>
        <time>2021-03-11T09:00:51.000Z</time>
      </trkpt>
      <trkpt lat="47.31783" lon="-2.35339">
        <ele>26.60000038147</ele>
        <time>2021-03-11T09:00:52.000Z</time>
      </trkpt>
      <trkpt lat="47.31785" lon="-2.35338">
        <ele>26.60000038147</ele>
        <time>2021-03-11T09:00:53.000Z</time>
      </trkpt>
      <trkpt lat="47.3179" lon="-2.3533">
        <ele>26.60000038147</ele>
        <time>2021-03-11T09:00:56.000Z</time>
      </trkpt>
      <trkpt lat="47.318" lon="-2.35321">
        <ele>26.60000038147</ele>
        <time>2021-03-11T09:00:59.000Z</time>
      </trkpt>
      <trkpt lat="47.31805" lon="-2.35317">
        <ele>26.60000038147</ele>
        <time>2021-03-11T09:01:00.000Z</time>
      </trkpt>
      <trkpt lat="47.31822" lon="-2.35306">
        <ele>26.200000762939</ele>
        <time>2021-03-11T09:01:03.000Z</time>
      </trkpt>
      <trkpt lat="47.31827" lon="-2.35302">
        <ele>25.799999237061</ele>
        <time>2021-03-11T09:01:04.000Z</time>
      </trkpt>
      <trkpt lat="47.31834" lon="-2.35297">
        <ele>25.39999961853</ele>
        <time>2021-03-11T09:01:05.000Z</time>
      </trkpt>
      <trkpt lat="47.3184" lon="-2.35293">
        <ele>25</ele>
        <time>2021-03-11T09:01:06.000Z</time>
      </trkpt>
      <trkpt lat="47.31847" lon="-2.35289">
        <ele>24.60000038147</ele>
        <time>2021-03-11T09:01:07.000Z</time>
      </trkpt>
      <trkpt lat="47.31863" lon="-2.35275">
        <ele>24.60000038147</ele>
        <time>2021-03-11T09:01:10.000Z</time>
      </trkpt>
      <trkpt lat="47.31874" lon="-2.35265">
        <ele>24.60000038147</ele>
        <time>2021-03-11T09:01:12.000Z</time>
      </trkpt>
      <trkpt lat="47.319" lon="-2.35241">
        <ele>24.200000762939</ele>
        <time>2021-03-11T09:01:17.000Z</time>
      </trkpt>
      <trkpt lat="47.31905" lon="-2.35237">
        <ele>23.799999237061</ele>
        <time>2021-03-11T09:01:18.000Z</time>
      </trkpt>
      <trkpt lat="47.31909" lon="-2.35233">
        <ele>23.39999961853</ele>
        <time>2021-03-11T09:01:19.000Z</time>
      </trkpt>
      <trkpt lat="47.31913" lon="-2.35229">
        <ele>23</ele>
        <time>2021-03-11T09:01:20.000Z</time>
      </trkpt>
      <trkpt lat="47.31918" lon="-2.35225">
        <ele>22.60000038147</ele>
        <time>2021-03-11T09:01:21.000Z</time>
      </trkpt>
      <trkpt lat="47.31926" lon="-2.35217">
        <ele>22.60000038147</ele>
        <time>2021-03-11T09:01:23.000Z</time>
      </trkpt>
      <trkpt lat="47.31931" lon="-2.35213">
        <ele>22.60000038147</ele>
        <time>2021-03-11T09:01:24.000Z</time>
      </trkpt>
      <trkpt lat="47.31946" lon="-2.35201">
        <ele>22.60000038147</ele>
        <time>2021-03-11T09:01:27.000Z</time>
      </trkpt>
      <trkpt lat="47.31956" lon="-2.35192">
        <ele>22.60000038147</ele>
        <time>2021-03-11T09:01:29.000Z</time>
      </trkpt>
      <trkpt lat="47.31966" lon="-2.35182">
        <ele>22.60000038147</ele>
        <time>2021-03-11T09:01:31.000Z</time>
      </trkpt>
      <trkpt lat="47.31971" lon="-2.35177">
        <ele>22.200000762939</ele>
        <time>2021-03-11T09:01:32.000Z</time>
      </trkpt>
      <trkpt lat="47.31976" lon="-2.35172">
        <ele>21.799999237061</ele>
        <time>2021-03-11T09:01:33.000Z</time>
      </trkpt>
      <trkpt lat="47.31981" lon="-2.35167">
        <ele>21.200000762939</ele>
        <time>2021-03-11T09:01:34.000Z</time>
      </trkpt>
      <trkpt lat="47.31986" lon="-2.35163">
        <ele>20.799999237061</ele>
        <time>2021-03-11T09:01:35.000Z</time>
      </trkpt>
      <trkpt lat="47.3199" lon="-2.35159">
        <ele>20.39999961853</ele>
        <time>2021-03-11T09:01:36.000Z</time>
      </trkpt>
      <trkpt lat="47.32019" lon="-2.35131">
        <ele>20.39999961853</ele>
        <time>2021-03-11T09:01:42.000Z</time>
      </trkpt>
      <trkpt lat="47.32029" lon="-2.35108">
        <ele>20.39999961853</ele>
        <time>2021-03-11T09:01:46.000Z</time>
      </trkpt>
      <trkpt lat="47.32029" lon="-2.35088">
        <ele>20.39999961853</ele>
        <time>2021-03-11T09:01:49.000Z</time>
      </trkpt>
      <trkpt lat="47.32028" lon="-2.35082">
        <ele>20.39999961853</ele>
        <time>2021-03-11T09:01:50.000Z</time>
      </trkpt>
      <trkpt lat="47.32031" lon="-2.35062">
        <ele>20.39999961853</ele>
        <time>2021-03-11T09:01:54.000Z</time>
      </trkpt>
      <trkpt lat="47.32045" lon="-2.35061">
        <ele>20.39999961853</ele>
        <time>2021-03-11T09:01:57.000Z</time>
      </trkpt>
      <trkpt lat="47.32062" lon="-2.35062">
        <ele>20.39999961853</ele>
        <time>2021-03-11T09:02:00.000Z</time>
      </trkpt>
      <trkpt lat="47.32074" lon="-2.35062">
        <ele>20.39999961853</ele>
        <time>2021-03-11T09:02:02.000Z</time>
      </trkpt>
      <trkpt lat="47.32111" lon="-2.35063">
        <ele>20.39999961853</ele>
        <time>2021-03-11T09:02:08.000Z</time>
      </trkpt>
      <trkpt lat="47.32152" lon="-2.35058">
        <ele>20.39999961853</ele>
        <time>2021-03-11T09:02:15.000Z</time>
      </trkpt>
      <trkpt lat="47.32157" lon="-2.35057">
        <ele>20.39999961853</ele>
        <time>2021-03-11T09:02:16.000Z</time>
      </trkpt>
      <trkpt lat="47.32178" lon="-2.35055">
        <ele>20.39999961853</ele>
        <time>2021-03-11T09:02:20.000Z</time>
      </trkpt>
      <trkpt lat="47.32188" lon="-2.35055">
        <ele>20.39999961853</ele>
        <time>2021-03-11T09:02:22.000Z</time>
      </trkpt>
      <trkpt lat="47.32204" lon="-2.35054">
        <ele>20.39999961853</ele>
        <time>2021-03-11T09:02:25.000Z</time>
      </trkpt>
      <trkpt lat="47.32225" lon="-2.35049">
        <ele>20.39999961853</ele>
        <time>2021-03-11T09:02:29.000Z</time>
      </trkpt>
      <trkpt lat="47.32229" lon="-2.35048">
        <ele>20.799999237061</ele>
        <time>2021-03-11T09:02:30.000Z</time>
      </trkpt>
      <trkpt lat="47.32233" lon="-2.35047">
        <ele>21.200000762939</ele>
        <time>2021-03-11T09:02:31.000Z</time>
      </trkpt>
      <trkpt lat="47.32238" lon="-2.35046">
        <ele>21.60000038147</ele>
        <time>2021-03-11T09:02:32.000Z</time>
      </trkpt>
      <trkpt lat="47.32243" lon="-2.35046">
        <ele>22</ele>
        <time>2021-03-11T09:02:33.000Z</time>
      </trkpt>
      <trkpt lat="47.32248" lon="-2.35045">
        <ele>22.39999961853</ele>
        <time>2021-03-11T09:02:34.000Z</time>
      </trkpt>
      <trkpt lat="47.3227" lon="-2.35044">
        <ele>22.39999961853</ele>
        <time>2021-03-11T09:02:38.000Z</time>
      </trkpt>
      <trkpt lat="47.32295" lon="-2.35043">
        <ele>22.39999961853</ele>
        <time>2021-03-11T09:02:43.000Z</time>
      </trkpt>
      <trkpt lat="47.32335" lon="-2.35044">
        <ele>22.39999961853</ele>
        <time>2021-03-11T09:02:51.000Z</time>
      </trkpt>
      <trkpt lat="47.32345" lon="-2.35044">
        <ele>22.39999961853</ele>
        <time>2021-03-11T09:02:53.000Z</time>
      </trkpt>
      <trkpt lat="47.3235" lon="-2.35044">
        <ele>23</ele>
        <time>2021-03-11T09:02:54.000Z</time>
      </trkpt>
      <trkpt lat="47.32355" lon="-2.35043">
        <ele>23.39999961853</ele>
        <time>2021-03-11T09:02:55.000Z</time>
      </trkpt>
      <trkpt lat="47.3236" lon="-2.35043">
        <ele>23.799999237061</ele>
        <time>2021-03-11T09:02:56.000Z</time>
      </trkpt>
      <trkpt lat="47.32364" lon="-2.35043">
        <ele>24.200000762939</ele>
        <time>2021-03-11T09:02:57.000Z</time>
      </trkpt>
      <trkpt lat="47.32369" lon="-2.35043">
        <ele>24.60000038147</ele>
        <time>2021-03-11T09:02:58.000Z</time>
      </trkpt>
      <trkpt lat="47.32382" lon="-2.35044">
        <ele>24.60000038147</ele>
        <time>2021-03-11T09:03:01.000Z</time>
      </trkpt>
      <trkpt lat="47.32387" lon="-2.35044">
        <ele>24.60000038147</ele>
        <time>2021-03-11T09:03:02.000Z</time>
      </trkpt>
      <trkpt lat="47.32422" lon="-2.35038">
        <ele>24.60000038147</ele>
        <time>2021-03-11T09:03:10.000Z</time>
      </trkpt>
      <trkpt lat="47.32452" lon="-2.35034">
        <ele>24.60000038147</ele>
        <time>2021-03-11T09:03:16.000Z</time>
      </trkpt>
      <trkpt lat="47.32456" lon="-2.35032">
        <ele>24.60000038147</ele>
        <time>2021-03-11T09:03:17.000Z</time>
      </trkpt>
      <trkpt lat="47.32475" lon="-2.35027">
        <ele>24.60000038147</ele>
        <time>2021-03-11T09:03:21.000Z</time>
      </trkpt>
      <trkpt lat="47.3248" lon="-2.35026">
        <ele>24.60000038147</ele>
        <time>2021-03-11T09:03:22.000Z</time>
      </trkpt>
      <trkpt lat="47.32498" lon="-2.35022">
        <ele>24.60000038147</ele>
        <time>2021-03-11T09:03:26.000Z</time>
      </trkpt>
      <trkpt lat="47.32524" lon="-2.35016">
        <ele>24.60000038147</ele>
        <time>2021-03-11T09:03:31.000Z</time>
      </trkpt>
      <trkpt lat="47.32557" lon="-2.35007">
        <ele>24.60000038147</ele>
        <time>2021-03-11T09:03:37.000Z</time>
      </trkpt>
      <trkpt lat="47.32561" lon="-2.35005">
        <ele>24.60000038147</ele>
        <time>2021-03-11T09:03:38.000Z</time>
      </trkpt>
      <trkpt lat="47.32581" lon="-2.34995">
        <ele>24.60000038147</ele>
        <time>2021-03-11T09:03:42.000Z</time>
      </trkpt>
      <trkpt lat="47.32618" lon="-2.34974">
        <ele>24.60000038147</ele>
        <time>2021-03-11T09:03:49.000Z</time>
      </trkpt>
      <trkpt lat="47.32647" lon="-2.34959">
        <ele>24.60000038147</ele>
        <time>2021-03-11T09:03:56.000Z</time>
      </trkpt>
      <trkpt lat="47.32657" lon="-2.34953">
        <ele>24.200000762939</ele>
        <time>2021-03-11T09:03:59.000Z</time>
      </trkpt>
      <trkpt lat="47.3266" lon="-2.34952">
        <ele>23.799999237061</ele>
        <time>2021-03-11T09:04:00.000Z</time>
      </trkpt>
      <trkpt lat="47.32664" lon="-2.3495">
        <ele>23.39999961853</ele>
        <time>2021-03-11T09:04:01.000Z</time>
      </trkpt>
      <trkpt lat="47.32668" lon="-2.34947">
        <ele>23</ele>
        <time>2021-03-11T09:04:02.000Z</time>
      </trkpt>
      <trkpt lat="47.32672" lon="-2.34945">
        <ele>22.60000038147</ele>
        <time>2021-03-11T09:04:03.000Z</time>
      </trkpt>
      <trkpt lat="47.32681" lon="-2.34938">
        <ele>22.60000038147</ele>
        <time>2021-03-11T09:04:05.000Z</time>
      </trkpt>
      <trkpt lat="47.32715" lon="-2.34913">
        <ele>22.60000038147</ele>
        <time>2021-03-11T09:04:12.000Z</time>
      </trkpt>
      <trkpt lat="47.32755" lon="-2.34884">
        <ele>22.60000038147</ele>
        <time>2021-03-11T09:04:20.000Z</time>
      </trkpt>
      <trkpt lat="47.32789" lon="-2.3486">
        <ele>22.60000038147</ele>
        <time>2021-03-11T09:04:27.000Z</time>
      </trkpt>
      <trkpt lat="47.32835" lon="-2.34826">
        <ele>22.60000038147</ele>
        <time>2021-03-11T09:04:36.000Z</time>
      </trkpt>
      <trkpt lat="47.32858" lon="-2.3481">
        <ele>22.200000762939</ele>
        <time>2021-03-11T09:04:40.000Z</time>
      </trkpt>
      <trkpt lat="47.32864" lon="-2.34806">
        <ele>21.799999237061</ele>
        <time>2021-03-11T09:04:41.000Z</time>
      </trkpt>
      <trkpt lat="47.32869" lon="-2.34802">
        <ele>21.39999961853</ele>
        <time>2021-03-11T09:04:42.000Z</time>
      </trkpt>
      <trkpt lat="47.32875" lon="-2.34798">
        <ele>21</ele>
        <time>2021-03-11T09:04:43.000Z</time>
      </trkpt>
      <trkpt lat="47.32881" lon="-2.34794">
        <ele>20.60000038147</ele>
        <time>2021-03-11T09:04:44.000Z</time>
      </trkpt>
      <trkpt lat="47.32921" lon="-2.34768">
        <ele>20.60000038147</ele>
        <time>2021-03-11T09:04:51.000Z</time>
      </trkpt>
      <trkpt lat="47.32932" lon="-2.34761">
        <ele>20</ele>
        <time>2021-03-11T09:04:53.000Z</time>
      </trkpt>
      <trkpt lat="47.32938" lon="-2.34757">
        <ele>19.60000038147</ele>
        <time>2021-03-11T09:04:54.000Z</time>
      </trkpt>
      <trkpt lat="47.32943" lon="-2.34754">
        <ele>19.200000762939</ele>
        <time>2021-03-11T09:04:55.000Z</time>
      </trkpt>
      <trkpt lat="47.32949" lon="-2.3475">
        <ele>18.799999237061</ele>
        <time>2021-03-11T09:04:56.000Z</time>
      </trkpt>
      <trkpt lat="47.32955" lon="-2.34746">
        <ele>18.39999961853</ele>
        <time>2021-03-11T09:04:57.000Z</time>
      </trkpt>
      <trkpt lat="47.32967" lon="-2.34739">
        <ele>18.39999961853</ele>
        <time>2021-03-11T09:04:59.000Z</time>
      </trkpt>
      <trkpt lat="47.32996" lon="-2.34719">
        <ele>18.39999961853</ele>
        <time>2021-03-11T09:05:04.000Z</time>
      </trkpt>
      <trkpt lat="47.33001" lon="-2.34714">
        <ele>18.39999961853</ele>
        <time>2021-03-11T09:05:05.000Z</time>
      </trkpt>
      <trkpt lat="47.33018" lon="-2.34699">
        <ele>18</ele>
        <time>2021-03-11T09:05:08.000Z</time>
      </trkpt>
      <trkpt lat="47.33023" lon="-2.34694">
        <ele>17.60000038147</ele>
        <time>2021-03-11T09:05:09.000Z</time>
      </trkpt>
      <trkpt lat="47.33028" lon="-2.34689">
        <ele>17.200000762939</ele>
        <time>2021-03-11T09:05:10.000Z</time>
      </trkpt>
      <trkpt lat="47.33033" lon="-2.34684">
        <ele>16.60000038147</ele>
        <time>2021-03-11T09:05:11.000Z</time>
      </trkpt>
      <trkpt lat="47.33038" lon="-2.3468">
        <ele>16.200000762939</ele>
        <time>2021-03-11T09:05:12.000Z</time>
      </trkpt>
      <trkpt lat="47.33062" lon="-2.34656">
        <ele>16.200000762939</ele>
        <time>2021-03-11T09:05:17.000Z</time>
      </trkpt>
      <trkpt lat="47.33076" lon="-2.34641">
        <ele>16.200000762939</ele>
        <time>2021-03-11T09:05:20.000Z</time>
      </trkpt>
      <trkpt lat="47.33081" lon="-2.34636">
        <ele>16.200000762939</ele>
        <time>2021-03-11T09:05:21.000Z</time>
      </trkpt>
      <trkpt lat="47.33115" lon="-2.34602">
        <ele>16.200000762939</ele>
        <time>2021-03-11T09:05:28.000Z</time>
      </trkpt>
      <trkpt lat="47.33141" lon="-2.34576">
        <ele>16.200000762939</ele>
        <time>2021-03-11T09:05:33.000Z</time>
      </trkpt>
      <trkpt lat="47.33147" lon="-2.34571">
        <ele>15.800000190735</ele>
        <time>2021-03-11T09:05:34.000Z</time>
      </trkpt>
      <trkpt lat="47.33151" lon="-2.34566">
        <ele>15.39999961853</ele>
        <time>2021-03-11T09:05:35.000Z</time>
      </trkpt>
      <trkpt lat="47.33156" lon="-2.34561">
        <ele>15</ele>
        <time>2021-03-11T09:05:36.000Z</time>
      </trkpt>
      <trkpt lat="47.33161" lon="-2.34555">
        <ele>14.199999809265</ele>
        <time>2021-03-11T09:05:37.000Z</time>
      </trkpt>
      <trkpt lat="47.33171" lon="-2.34545">
        <ele>14.199999809265</ele>
        <time>2021-03-11T09:05:39.000Z</time>
      </trkpt>
      <trkpt lat="47.33199" lon="-2.34516">
        <ele>14.199999809265</ele>
        <time>2021-03-11T09:05:45.000Z</time>
      </trkpt>
      <trkpt lat="47.33204" lon="-2.34511">
        <ele>14.199999809265</ele>
        <time>2021-03-11T09:05:46.000Z</time>
      </trkpt>
      <trkpt lat="47.33227" lon="-2.3449">
        <ele>14.199999809265</ele>
        <time>2021-03-11T09:05:51.000Z</time>
      </trkpt>
      <trkpt lat="47.3323" lon="-2.34485">
        <ele>14.199999809265</ele>
        <time>2021-03-11T09:05:52.000Z</time>
      </trkpt>
      <trkpt lat="47.33245" lon="-2.34473">
        <ele>14.199999809265</ele>
        <time>2021-03-11T09:05:55.000Z</time>
      </trkpt>
      <trkpt lat="47.33265" lon="-2.34475">
        <ele>14.199999809265</ele>
        <time>2021-03-11T09:05:59.000Z</time>
      </trkpt>
      <trkpt lat="47.33269" lon="-2.34477">
        <ele>14.199999809265</ele>
        <time>2021-03-11T09:06:00.000Z</time>
      </trkpt>
      <trkpt lat="47.33287" lon="-2.34487">
        <ele>14.199999809265</ele>
        <time>2021-03-11T09:06:04.000Z</time>
      </trkpt>
      <trkpt lat="47.33292" lon="-2.34488">
        <ele>14.199999809265</ele>
        <time>2021-03-11T09:06:05.000Z</time>
      </trkpt>
      <trkpt lat="47.33312" lon="-2.34498">
        <ele>14.60000038147</ele>
        <time>2021-03-11T09:06:09.000Z</time>
      </trkpt>
      <trkpt lat="47.33317" lon="-2.345">
        <ele>15</ele>
        <time>2021-03-11T09:06:10.000Z</time>
      </trkpt>
      <trkpt lat="47.33321" lon="-2.34503">
        <ele>15.39999961853</ele>
        <time>2021-03-11T09:06:11.000Z</time>
      </trkpt>
      <trkpt lat="47.33325" lon="-2.34505">
        <ele>15.800000190735</ele>
        <time>2021-03-11T09:06:12.000Z</time>
      </trkpt>
      <trkpt lat="47.33329" lon="-2.34506">
        <ele>16.200000762939</ele>
        <time>2021-03-11T09:06:13.000Z</time>
      </trkpt>
      <trkpt lat="47.33336" lon="-2.34507">
        <ele>16.200000762939</ele>
        <time>2021-03-11T09:06:15.000Z</time>
      </trkpt>
      <trkpt lat="47.3334" lon="-2.34505">
        <ele>16.200000762939</ele>
        <time>2021-03-11T09:06:16.000Z</time>
      </trkpt>
      <trkpt lat="47.33347" lon="-2.34494">
        <ele>16.200000762939</ele>
        <time>2021-03-11T09:06:19.000Z</time>
      </trkpt>
      <trkpt lat="47.33349" lon="-2.34491">
        <ele>16.200000762939</ele>
        <time>2021-03-11T09:06:20.000Z</time>
      </trkpt>
      <trkpt lat="47.33355" lon="-2.34487">
        <ele>16.200000762939</ele>
        <time>2021-03-11T09:06:22.000Z</time>
      </trkpt>
      <trkpt lat="47.33363" lon="-2.3449">
        <ele>16.200000762939</ele>
        <time>2021-03-11T09:06:24.000Z</time>
      </trkpt>
      <trkpt lat="47.33366" lon="-2.34494">
        <ele>16.60000038147</ele>
        <time>2021-03-11T09:06:25.000Z</time>
      </trkpt>
      <trkpt lat="47.33369" lon="-2.34499">
        <ele>17</ele>
        <time>2021-03-11T09:06:26.000Z</time>
      </trkpt>
      <trkpt lat="47.33372" lon="-2.34504">
        <ele>18</ele>
        <time>2021-03-11T09:06:27.000Z</time>
      </trkpt>
      <trkpt lat="47.33374" lon="-2.34509">
        <ele>18.39999961853</ele>
        <time>2021-03-11T09:06:28.000Z</time>
      </trkpt>
      <trkpt lat="47.33397" lon="-2.34554">
        <ele>18.39999961853</ele>
        <time>2021-03-11T09:06:36.000Z</time>
      </trkpt>
      <trkpt lat="47.33417" lon="-2.34591">
        <ele>18.39999961853</ele>
        <time>2021-03-11T09:06:43.000Z</time>
      </trkpt>
      <trkpt lat="47.33424" lon="-2.34601">
        <ele>18.799999237061</ele>
        <time>2021-03-11T09:06:45.000Z</time>
      </trkpt>
      <trkpt lat="47.33427" lon="-2.34606">
        <ele>19.200000762939</ele>
        <time>2021-03-11T09:06:46.000Z</time>
      </trkpt>
      <trkpt lat="47.3343" lon="-2.34611">
        <ele>19.60000038147</ele>
        <time>2021-03-11T09:06:47.000Z</time>
      </trkpt>
      <trkpt lat="47.33433" lon="-2.34616">
        <ele>20</ele>
        <time>2021-03-11T09:06:48.000Z</time>
      </trkpt>
      <trkpt lat="47.33436" lon="-2.34621">
        <ele>20.39999961853</ele>
        <time>2021-03-11T09:06:49.000Z</time>
      </trkpt>
      <trkpt lat="47.33442" lon="-2.3463">
        <ele>20.39999961853</ele>
        <time>2021-03-11T09:06:51.000Z</time>
      </trkpt>
      <trkpt lat="47.33447" lon="-2.3464">
        <ele>20.39999961853</ele>
        <time>2021-03-11T09:06:53.000Z</time>
      </trkpt>
      <trkpt lat="47.33456" lon="-2.34655">
        <ele>20.39999961853</ele>
        <time>2021-03-11T09:06:56.000Z</time>
      </trkpt>
      <trkpt lat="47.33459" lon="-2.3466">
        <ele>20.39999961853</ele>
        <time>2021-03-11T09:06:57.000Z</time>
      </trkpt>
      <trkpt lat="47.33477" lon="-2.3469">
        <ele>20.39999961853</ele>
        <time>2021-03-11T09:07:03.000Z</time>
      </trkpt>
      <trkpt lat="47.33489" lon="-2.34709">
        <ele>21</ele>
        <time>2021-03-11T09:07:07.000Z</time>
      </trkpt>
      <trkpt lat="47.33492" lon="-2.34713">
        <ele>21.39999961853</ele>
        <time>2021-03-11T09:07:08.000Z</time>
      </trkpt>
      <trkpt lat="47.33495" lon="-2.34717">
        <ele>21.799999237061</ele>
        <time>2021-03-11T09:07:09.000Z</time>
      </trkpt>
      <trkpt lat="47.33499" lon="-2.34721">
        <ele>22.200000762939</ele>
        <time>2021-03-11T09:07:10.000Z</time>
      </trkpt>
      <trkpt lat="47.33502" lon="-2.34724">
        <ele>22.60000038147</ele>
        <time>2021-03-11T09:07:11.000Z</time>
      </trkpt>
      <trkpt lat="47.33515" lon="-2.34743">
        <ele>22.60000038147</ele>
        <time>2021-03-11T09:07:15.000Z</time>
      </trkpt>
      <trkpt lat="47.33518" lon="-2.34749">
        <ele>22.60000038147</ele>
        <time>2021-03-11T09:07:16.000Z</time>
      </trkpt>
      <trkpt lat="47.33535" lon="-2.34774">
        <ele>23</ele>
        <time>2021-03-11T09:07:21.000Z</time>
      </trkpt>
      <trkpt lat="47.33539" lon="-2.34779">
        <ele>23.39999961853</ele>
        <time>2021-03-11T09:07:22.000Z</time>
      </trkpt>
      <trkpt lat="47.33542" lon="-2.34784">
        <ele>24</ele>
        <time>2021-03-11T09:07:23.000Z</time>
      </trkpt>
      <trkpt lat="47.33546" lon="-2.34788">
        <ele>24.39999961853</ele>
        <time>2021-03-11T09:07:24.000Z</time>
      </trkpt>
      <trkpt lat="47.3355" lon="-2.34793">
        <ele>24.799999237061</ele>
        <time>2021-03-11T09:07:25.000Z</time>
      </trkpt>
      <trkpt lat="47.33573" lon="-2.34823">
        <ele>24.799999237061</ele>
        <time>2021-03-11T09:07:31.000Z</time>
      </trkpt>
      <trkpt lat="47.33606" lon="-2.34865">
        <ele>24.799999237061</ele>
        <time>2021-03-11T09:07:39.000Z</time>
      </trkpt>
      <trkpt lat="47.3364" lon="-2.34909">
        <ele>24.799999237061</ele>
        <time>2021-03-11T09:07:46.000Z</time>
      </trkpt>
      <trkpt lat="47.33671" lon="-2.34946">
        <ele>24.799999237061</ele>
        <time>2021-03-11T09:07:52.000Z</time>
      </trkpt>
      <trkpt lat="47.3368" lon="-2.3496">
        <ele>24.200000762939</ele>
        <time>2021-03-11T09:07:54.000Z</time>
      </trkpt>
      <trkpt lat="47.33684" lon="-2.34967">
        <ele>23.799999237061</ele>
        <time>2021-03-11T09:07:55.000Z</time>
      </trkpt>
      <trkpt lat="47.33689" lon="-2.34974">
        <ele>23.39999961853</ele>
        <time>2021-03-11T09:07:56.000Z</time>
      </trkpt>
      <trkpt lat="47.33693" lon="-2.3498">
        <ele>23</ele>
        <time>2021-03-11T09:07:57.000Z</time>
      </trkpt>
      <trkpt lat="47.33697" lon="-2.34986">
        <ele>22.60000038147</ele>
        <time>2021-03-11T09:07:58.000Z</time>
      </trkpt>
      <trkpt lat="47.33701" lon="-2.34993">
        <ele>22.60000038147</ele>
        <time>2021-03-11T09:07:59.000Z</time>
      </trkpt>
      <trkpt lat="47.33708" lon="-2.35002">
        <ele>22.60000038147</ele>
        <time>2021-03-11T09:08:01.000Z</time>
      </trkpt>
      <trkpt lat="47.33717" lon="-2.35002">
        <ele>22.60000038147</ele>
        <time>2021-03-11T09:08:03.000Z</time>
      </trkpt>
      <trkpt lat="47.33723" lon="-2.34998">
        <ele>22</ele>
        <time>2021-03-11T09:08:04.000Z</time>
      </trkpt>
      <trkpt lat="47.33727" lon="-2.34993">
        <ele>21.60000038147</ele>
        <time>2021-03-11T09:08:05.000Z</time>
      </trkpt>
      <trkpt lat="47.33732" lon="-2.34989">
        <ele>20.799999237061</ele>
        <time>2021-03-11T09:08:06.000Z</time>
      </trkpt>
      <trkpt lat="47.33736" lon="-2.34984">
        <ele>20.39999961853</ele>
        <time>2021-03-11T09:08:07.000Z</time>
      </trkpt>
      <trkpt lat="47.33771" lon="-2.34953">
        <ele>20</ele>
        <time>2021-03-11T09:08:14.000Z</time>
      </trkpt>
      <trkpt lat="47.33775" lon="-2.34948">
        <ele>19.60000038147</ele>
        <time>2021-03-11T09:08:15.000Z</time>
      </trkpt>
      <trkpt lat="47.33778" lon="-2.34943">
        <ele>19.200000762939</ele>
        <time>2021-03-11T09:08:16.000Z</time>
      </trkpt>
      <trkpt lat="47.3378" lon="-2.34939">
        <ele>18.799999237061</ele>
        <time>2021-03-11T09:08:17.000Z</time>
      </trkpt>
      <trkpt lat="47.33783" lon="-2.34935">
        <ele>18.39999961853</ele>
        <time>2021-03-11T09:08:18.000Z</time>
      </trkpt>
      <trkpt lat="47.33792" lon="-2.34919">
        <ele>18.39999961853</ele>
        <time>2021-03-11T09:08:23.000Z</time>
      </trkpt>
      <trkpt lat="47.33802" lon="-2.34904">
        <ele>18.39999961853</ele>
        <time>2021-03-11T09:08:29.000Z</time>
      </trkpt>
      <trkpt lat="47.33805" lon="-2.34898">
        <ele>18.39999961853</ele>
        <time>2021-03-11T09:08:31.000Z</time>
      </trkpt>
      <trkpt lat="47.33806" lon="-2.34894">
        <ele>18.39999961853</ele>
        <time>2021-03-11T09:08:33.000Z</time>
      </trkpt>
      <trkpt lat="47.33806" lon="-2.34893">
        <ele>18.39999961853</ele>
        <time>2021-03-11T09:08:35.000Z</time>
      </trkpt>
      <trkpt lat="47.33808" lon="-2.34887">
        <ele>18.39999961853</ele>
        <time>2021-03-11T09:08:42.000Z</time>
      </trkpt>
      <trkpt lat="47.33808" lon="-2.34886">
        <ele>18.39999961853</ele>
        <time>2021-03-11T09:08:43.000Z</time>
      </trkpt>
      <trkpt lat="47.33811" lon="-2.34875">
        <ele>18.39999961853</ele>
        <time>2021-03-11T09:08:50.000Z</time>
      </trkpt>
      <trkpt lat="47.33819" lon="-2.34868">
        <ele>18.39999961853</ele>
        <time>2021-03-11T09:08:55.000Z</time>
      </trkpt>
      <trkpt lat="47.33828" lon="-2.34859">
        <ele>18.39999961853</ele>
        <time>2021-03-11T09:09:02.000Z</time>
      </trkpt>
      <trkpt lat="47.33847" lon="-2.3484">
        <ele>16.39999961853</ele>
        <time>2021-03-11T09:10:11.000Z</time>
      </trkpt>
      <trkpt lat="47.33848" lon="-2.3484">
        <ele>16.39999961853</ele>
        <time>2021-03-11T09:10:13.000Z</time>
      </trkpt>
      <trkpt lat="47.33866" lon="-2.34796">
        <ele>16.39999961853</ele>
        <time>2021-03-11T09:11:29.000Z</time>
      </trkpt>
      <trkpt lat="47.33869" lon="-2.34786">
        <ele>16.39999961853</ele>
        <time>2021-03-11T09:11:34.000Z</time>
      </trkpt>
      <trkpt lat="47.33872" lon="-2.34774">
        <ele>16.39999961853</ele>
        <time>2021-03-11T09:11:43.000Z</time>
      </trkpt>
      <trkpt lat="47.33877" lon="-2.34729">
        <ele>18.39999961853</ele>
        <time>2021-03-11T09:12:31.000Z</time>
      </trkpt>
      <trkpt lat="47.33877" lon="-2.34715">
        <ele>18.39999961853</ele>
        <time>2021-03-11T09:12:35.000Z</time>
      </trkpt>
      <trkpt lat="47.33876" lon="-2.3469">
        <ele>18.39999961853</ele>
        <time>2021-03-11T09:12:41.000Z</time>
      </trkpt>
      <trkpt lat="47.33878" lon="-2.34662">
        <ele>18.39999961853</ele>
        <time>2021-03-11T09:12:48.000Z</time>
      </trkpt>
      <trkpt lat="47.33884" lon="-2.34641">
        <ele>18.39999961853</ele>
        <time>2021-03-11T09:12:53.000Z</time>
      </trkpt>
      <trkpt lat="47.33883" lon="-2.34638">
        <ele>18.39999961853</ele>
        <time>2021-03-11T09:12:54.000Z</time>
      </trkpt>
      <trkpt lat="47.33885" lon="-2.34629">
        <ele>18.39999961853</ele>
        <time>2021-03-11T09:12:58.000Z</time>
      </trkpt>
      <trkpt lat="47.33885" lon="-2.34621">
        <ele>18.39999961853</ele>
        <time>2021-03-11T09:13:04.000Z</time>
      </trkpt>
      <trkpt lat="47.33908" lon="-2.34592">
        <ele>21</ele>
        <time>2021-03-11T09:13:48.000Z</time>
      </trkpt>
      <trkpt lat="47.33913" lon="-2.3459">
        <ele>21</ele>
        <time>2021-03-11T09:13:50.000Z</time>
      </trkpt>
      <trkpt lat="47.33918" lon="-2.3459">
        <ele>21</ele>
        <time>2021-03-11T09:13:52.000Z</time>
      </trkpt>
      <trkpt lat="47.33928" lon="-2.34588">
        <ele>21</ele>
        <time>2021-03-11T09:13:55.000Z</time>
      </trkpt>
      <trkpt lat="47.33951" lon="-2.34586">
        <ele>21</ele>
        <time>2021-03-11T09:14:02.000Z</time>
      </trkpt>
      <trkpt lat="47.33975" lon="-2.34591">
        <ele>21</ele>
        <time>2021-03-11T09:14:08.000Z</time>
      </trkpt>
      <trkpt lat="47.34003" lon="-2.34597">
        <ele>21</ele>
        <time>2021-03-11T09:14:15.000Z</time>
      </trkpt>
      <trkpt lat="47.3403" lon="-2.34594">
        <ele>21</ele>
        <time>2021-03-11T09:14:21.000Z</time>
      </trkpt>
      <trkpt lat="47.34034" lon="-2.34592">
        <ele>21</ele>
        <time>2021-03-11T09:14:22.000Z</time>
      </trkpt>
      <trkpt lat="47.34054" lon="-2.34582">
        <ele>21</ele>
        <time>2021-03-11T09:14:26.000Z</time>
      </trkpt>
      <trkpt lat="47.34072" lon="-2.34566">
        <ele>21</ele>
        <time>2021-03-11T09:14:31.000Z</time>
      </trkpt>
      <trkpt lat="47.3408" lon="-2.34558">
        <ele>21</ele>
        <time>2021-03-11T09:14:33.000Z</time>
      </trkpt>
      <trkpt lat="47.34097" lon="-2.34545">
        <ele>21</ele>
        <time>2021-03-11T09:14:37.000Z</time>
      </trkpt>
      <trkpt lat="47.34108" lon="-2.34537">
        <ele>20.60000038147</ele>
        <time>2021-03-11T09:14:40.000Z</time>
      </trkpt>
      <trkpt lat="47.34112" lon="-2.34535">
        <ele>20.200000762939</ele>
        <time>2021-03-11T09:14:41.000Z</time>
      </trkpt>
      <trkpt lat="47.34115" lon="-2.34533">
        <ele>19.39999961853</ele>
        <time>2021-03-11T09:14:42.000Z</time>
      </trkpt>
      <trkpt lat="47.34118" lon="-2.34532">
        <ele>19</ele>
        <time>2021-03-11T09:14:43.000Z</time>
      </trkpt>
      <trkpt lat="47.3413" lon="-2.34527">
        <ele>19</ele>
        <time>2021-03-11T09:14:49.000Z</time>
      </trkpt>
      <trkpt lat="47.34144" lon="-2.34521">
        <ele>19</ele>
        <time>2021-03-11T09:14:55.000Z</time>
      </trkpt>
      <trkpt lat="47.34161" lon="-2.34516">
        <ele>19</ele>
        <time>2021-03-11T09:15:01.000Z</time>
      </trkpt>
      <trkpt lat="47.34181" lon="-2.3451">
        <ele>19</ele>
        <time>2021-03-11T09:15:06.000Z</time>
      </trkpt>
      <trkpt lat="47.34191" lon="-2.34507">
        <ele>19</ele>
        <time>2021-03-11T09:15:08.000Z</time>
      </trkpt>
      <trkpt lat="47.34208" lon="-2.34499">
        <ele>19</ele>
        <time>2021-03-11T09:15:12.000Z</time>
      </trkpt>
      <trkpt lat="47.34229" lon="-2.34489">
        <ele>19</ele>
        <time>2021-03-11T09:15:18.000Z</time>
      </trkpt>
      <trkpt lat="47.34257" lon="-2.34475">
        <ele>19</ele>
        <time>2021-03-11T09:15:26.000Z</time>
      </trkpt>
      <trkpt lat="47.34262" lon="-2.34474">
        <ele>19</ele>
        <time>2021-03-11T09:15:27.000Z</time>
      </trkpt>
      <trkpt lat="47.34277" lon="-2.34468">
        <ele>19</ele>
        <time>2021-03-11T09:15:31.000Z</time>
      </trkpt>
      <trkpt lat="47.34305" lon="-2.34468">
        <ele>19</ele>
        <time>2021-03-11T09:15:38.000Z</time>
      </trkpt>
      <trkpt lat="47.34339" lon="-2.34459">
        <ele>19</ele>
        <time>2021-03-11T09:15:45.000Z</time>
      </trkpt>
      <trkpt lat="47.34354" lon="-2.34452">
        <ele>19</ele>
        <time>2021-03-11T09:15:48.000Z</time>
      </trkpt>
      <trkpt lat="47.34368" lon="-2.34442">
        <ele>19</ele>
        <time>2021-03-11T09:15:51.000Z</time>
      </trkpt>
      <trkpt lat="47.34407" lon="-2.3442">
        <ele>19</ele>
        <time>2021-03-11T09:15:59.000Z</time>
      </trkpt>
      <trkpt lat="47.34442" lon="-2.34405">
        <ele>19</ele>
        <time>2021-03-11T09:16:06.000Z</time>
      </trkpt>
      <trkpt lat="47.34476" lon="-2.34394">
        <ele>19</ele>
        <time>2021-03-11T09:16:13.000Z</time>
      </trkpt>
      <trkpt lat="47.3449" lon="-2.34385">
        <ele>19</ele>
        <time>2021-03-11T09:16:16.000Z</time>
      </trkpt>
      <trkpt lat="47.34499" lon="-2.34376">
        <ele>19</ele>
        <time>2021-03-11T09:16:18.000Z</time>
      </trkpt>
      <trkpt lat="47.34516" lon="-2.34356">
        <ele>19</ele>
        <time>2021-03-11T09:16:22.000Z</time>
      </trkpt>
      <trkpt lat="47.34524" lon="-2.34348">
        <ele>19</ele>
        <time>2021-03-11T09:16:24.000Z</time>
      </trkpt>
      <trkpt lat="47.34528" lon="-2.34344">
        <ele>18.60000038147</ele>
        <time>2021-03-11T09:16:25.000Z</time>
      </trkpt>
      <trkpt lat="47.34532" lon="-2.3434">
        <ele>18</ele>
        <time>2021-03-11T09:16:26.000Z</time>
      </trkpt>
      <trkpt lat="47.34535" lon="-2.34336">
        <ele>17.60000038147</ele>
        <time>2021-03-11T09:16:27.000Z</time>
      </trkpt>
      <trkpt lat="47.3454" lon="-2.34331">
        <ele>17.200000762939</ele>
        <time>2021-03-11T09:16:28.000Z</time>
      </trkpt>
      <trkpt lat="47.34543" lon="-2.34328">
        <ele>16.799999237061</ele>
        <time>2021-03-11T09:16:29.000Z</time>
      </trkpt>
      <trkpt lat="47.34567" lon="-2.34311">
        <ele>16.799999237061</ele>
        <time>2021-03-11T09:16:34.000Z</time>
      </trkpt>
      <trkpt lat="47.34597" lon="-2.34299">
        <ele>16.799999237061</ele>
        <time>2021-03-11T09:16:39.000Z</time>
      </trkpt>
      <trkpt lat="47.34604" lon="-2.34298">
        <ele>16.799999237061</ele>
        <time>2021-03-11T09:16:40.000Z</time>
      </trkpt>
      <trkpt lat="47.3461" lon="-2.34298">
        <ele>16.39999961853</ele>
        <time>2021-03-11T09:16:41.000Z</time>
      </trkpt>
      <trkpt lat="47.34616" lon="-2.34298">
        <ele>16</ele>
        <time>2021-03-11T09:16:42.000Z</time>
      </trkpt>
      <trkpt lat="47.34621" lon="-2.34298">
        <ele>15.60000038147</ele>
        <time>2021-03-11T09:16:43.000Z</time>
      </trkpt>
      <trkpt lat="47.34626" lon="-2.34297">
        <ele>15.199999809265</ele>
        <time>2021-03-11T09:16:44.000Z</time>
      </trkpt>
      <trkpt lat="47.34629" lon="-2.34296">
        <ele>14.800000190735</ele>
        <time>2021-03-11T09:16:45.000Z</time>
      </trkpt>
      <trkpt lat="47.34631" lon="-2.34292">
        <ele>13.800000190735</ele>
        <time>2021-03-11T09:16:46.000Z</time>
      </trkpt>
      <trkpt lat="47.34635" lon="-2.34289">
        <ele>13.39999961853</ele>
        <time>2021-03-11T09:16:47.000Z</time>
      </trkpt>
      <trkpt lat="47.34638" lon="-2.34285">
        <ele>12.800000190735</ele>
        <time>2021-03-11T09:16:48.000Z</time>
      </trkpt>
      <trkpt lat="47.34642" lon="-2.34281">
        <ele>12.39999961853</ele>
        <time>2021-03-11T09:16:49.000Z</time>
      </trkpt>
      <trkpt lat="47.34657" lon="-2.34268">
        <ele>12.39999961853</ele>
        <time>2021-03-11T09:16:52.000Z</time>
      </trkpt>
      <trkpt lat="47.34663" lon="-2.34266">
        <ele>12.39999961853</ele>
        <time>2021-03-11T09:16:53.000Z</time>
      </trkpt>
      <trkpt lat="47.34702" lon="-2.34258">
        <ele>12.39999961853</ele>
        <time>2021-03-11T09:16:59.000Z</time>
      </trkpt>
      <trkpt lat="47.3473" lon="-2.34253">
        <ele>12.39999961853</ele>
        <time>2021-03-11T09:17:04.000Z</time>
      </trkpt>
      <trkpt lat="47.34758" lon="-2.34246">
        <ele>12.39999961853</ele>
        <time>2021-03-11T09:17:10.000Z</time>
      </trkpt>
      <trkpt lat="47.34789" lon="-2.34238">
        <ele>12.39999961853</ele>
        <time>2021-03-11T09:17:17.000Z</time>
      </trkpt>
      <trkpt lat="47.3481" lon="-2.34233">
        <ele>12.39999961853</ele>
        <time>2021-03-11T09:17:22.000Z</time>
      </trkpt>
      <trkpt lat="47.34814" lon="-2.34232">
        <ele>12.39999961853</ele>
        <time>2021-03-11T09:17:23.000Z</time>
      </trkpt>
      <trkpt lat="47.34824" lon="-2.34231">
        <ele>12.800000190735</ele>
        <time>2021-03-11T09:17:26.000Z</time>
      </trkpt>
      <trkpt lat="47.34828" lon="-2.34231">
        <ele>13.199999809265</ele>
        <time>2021-03-11T09:17:27.000Z</time>
      </trkpt>
      <trkpt lat="47.34831" lon="-2.34231">
        <ele>13.60000038147</ele>
        <time>2021-03-11T09:17:28.000Z</time>
      </trkpt>
      <trkpt lat="47.34835" lon="-2.34231">
        <ele>14</ele>
        <time>2021-03-11T09:17:29.000Z</time>
      </trkpt>
      <trkpt lat="47.34838" lon="-2.34232">
        <ele>14.39999961853</ele>
        <time>2021-03-11T09:17:30.000Z</time>
      </trkpt>
      <trkpt lat="47.34849" lon="-2.34233">
        <ele>15</ele>
        <time>2021-03-11T09:17:33.000Z</time>
      </trkpt>
      <trkpt lat="47.34852" lon="-2.34235">
        <ele>15.39999961853</ele>
        <time>2021-03-11T09:17:34.000Z</time>
      </trkpt>
      <trkpt lat="47.34855" lon="-2.34236">
        <ele>16.200000762939</ele>
        <time>2021-03-11T09:17:35.000Z</time>
      </trkpt>
      <trkpt lat="47.34858" lon="-2.34237">
        <ele>16.60000038147</ele>
        <time>2021-03-11T09:17:36.000Z</time>
      </trkpt>
      <trkpt lat="47.34862" lon="-2.34236">
        <ele>17</ele>
        <time>2021-03-11T09:17:38.000Z</time>
      </trkpt>
      <trkpt lat="47.34865" lon="-2.34233">
        <ele>17.39999961853</ele>
        <time>2021-03-11T09:17:39.000Z</time>
      </trkpt>
      <trkpt lat="47.34867" lon="-2.3423">
        <ele>17.799999237061</ele>
        <time>2021-03-11T09:17:40.000Z</time>
      </trkpt>
      <trkpt lat="47.34869" lon="-2.34227">
        <ele>18.200000762939</ele>
        <time>2021-03-11T09:17:41.000Z</time>
      </trkpt>
      <trkpt lat="47.3487" lon="-2.34223">
        <ele>18.799999237061</ele>
        <time>2021-03-11T09:17:42.000Z</time>
      </trkpt>
      <trkpt lat="47.34871" lon="-2.3422">
        <ele>19.200000762939</ele>
        <time>2021-03-11T09:17:43.000Z</time>
      </trkpt>
      <trkpt lat="47.34873" lon="-2.34216">
        <ele>19.799999237061</ele>
        <time>2021-03-11T09:17:44.000Z</time>
      </trkpt>
      <trkpt lat="47.34875" lon="-2.34213">
        <ele>20.200000762939</ele>
        <time>2021-03-11T09:17:45.000Z</time>
      </trkpt>
      <trkpt lat="47.34877" lon="-2.34211">
        <ele>20.799999237061</ele>
        <time>2021-03-11T09:17:46.000Z</time>
      </trkpt>
      <trkpt lat="47.34879" lon="-2.3421">
        <ele>21.200000762939</ele>
        <time>2021-03-11T09:17:47.000Z</time>
      </trkpt>
      <trkpt lat="47.34882" lon="-2.3421">
        <ele>21.799999237061</ele>
        <time>2021-03-11T09:17:48.000Z</time>
      </trkpt>
      <trkpt lat="47.34884" lon="-2.34209">
        <ele>22.200000762939</ele>
        <time>2021-03-11T09:17:49.000Z</time>
      </trkpt>
      <trkpt lat="47.34886" lon="-2.34208">
        <ele>22.799999237061</ele>
        <time>2021-03-11T09:17:50.000Z</time>
      </trkpt>
      <trkpt lat="47.34899" lon="-2.34204">
        <ele>22.799999237061</ele>
        <time>2021-03-11T09:17:55.000Z</time>
      </trkpt>
      <trkpt lat="47.3492" lon="-2.34207">
        <ele>22.799999237061</ele>
        <time>2021-03-11T09:17:59.000Z</time>
      </trkpt>
      <trkpt lat="47.34932" lon="-2.34206">
        <ele>22.799999237061</ele>
        <time>2021-03-11T09:18:01.000Z</time>
      </trkpt>
      <trkpt lat="47.34949" lon="-2.34196">
        <ele>22.39999961853</ele>
        <time>2021-03-11T09:18:04.000Z</time>
      </trkpt>
      <trkpt lat="47.34954" lon="-2.34194">
        <ele>22</ele>
        <time>2021-03-11T09:18:05.000Z</time>
      </trkpt>
      <trkpt lat="47.34958" lon="-2.34195">
        <ele>21.39999961853</ele>
        <time>2021-03-11T09:18:06.000Z</time>
      </trkpt>
      <trkpt lat="47.34962" lon="-2.34192">
        <ele>21</ele>
        <time>2021-03-11T09:18:07.000Z</time>
      </trkpt>
      <trkpt lat="47.34966" lon="-2.34189">
        <ele>20.60000038147</ele>
        <time>2021-03-11T09:18:08.000Z</time>
      </trkpt>
      <trkpt lat="47.34972" lon="-2.34184">
        <ele>20.200000762939</ele>
        <time>2021-03-11T09:18:10.000Z</time>
      </trkpt>
      <trkpt lat="47.34974" lon="-2.34182">
        <ele>19.799999237061</ele>
        <time>2021-03-11T09:18:11.000Z</time>
      </trkpt>
      <trkpt lat="47.34976" lon="-2.34181">
        <ele>19.200000762939</ele>
        <time>2021-03-11T09:18:12.000Z</time>
      </trkpt>
      <trkpt lat="47.34979" lon="-2.3418">
        <ele>18.799999237061</ele>
        <time>2021-03-11T09:18:13.000Z</time>
      </trkpt>
      <trkpt lat="47.34982" lon="-2.34179">
        <ele>18.39999961853</ele>
        <time>2021-03-11T09:18:14.000Z</time>
      </trkpt>
      <trkpt lat="47.34982" lon="-2.34179">
        <ele>18</ele>
        <time>2021-03-11T09:18:15.000Z</time>
      </trkpt>
      <trkpt lat="47.34982" lon="-2.34179">
        <ele>17.60000038147</ele>
        <time>2021-03-11T09:18:16.000Z</time>
      </trkpt>
      <trkpt lat="47.34983" lon="-2.34176">
        <ele>16.200000762939</ele>
        <time>2021-03-11T09:18:33.000Z</time>
      </trkpt>
      <trkpt lat="47.34985" lon="-2.34168">
        <ele>16.200000762939</ele>
        <time>2021-03-11T09:18:35.000Z</time>
      </trkpt>
      <trkpt lat="47.34987" lon="-2.34163">
        <ele>16.200000762939</ele>
        <time>2021-03-11T09:18:36.000Z</time>
      </trkpt>
      <trkpt lat="47.34993" lon="-2.34152">
        <ele>16.200000762939</ele>
        <time>2021-03-11T09:18:38.000Z</time>
      </trkpt>
      <trkpt lat="47.35002" lon="-2.34143">
        <ele>15.800000190735</ele>
        <time>2021-03-11T09:18:40.000Z</time>
      </trkpt>
      <trkpt lat="47.35006" lon="-2.34139">
        <ele>15.39999961853</ele>
        <time>2021-03-11T09:18:41.000Z</time>
      </trkpt>
      <trkpt lat="47.3501" lon="-2.34135">
        <ele>15</ele>
        <time>2021-03-11T09:18:42.000Z</time>
      </trkpt>
      <trkpt lat="47.35015" lon="-2.34131">
        <ele>14.60000038147</ele>
        <time>2021-03-11T09:18:43.000Z</time>
      </trkpt>
      <trkpt lat="47.3502" lon="-2.34129">
        <ele>14.199999809265</ele>
        <time>2021-03-11T09:18:44.000Z</time>
      </trkpt>
      <trkpt lat="47.35035" lon="-2.34129">
        <ele>14.199999809265</ele>
        <time>2021-03-11T09:18:47.000Z</time>
      </trkpt>
      <trkpt lat="47.35062" lon="-2.34126">
        <ele>14.199999809265</ele>
        <time>2021-03-11T09:18:53.000Z</time>
      </trkpt>
      <trkpt lat="47.35102" lon="-2.34123">
        <ele>14.199999809265</ele>
        <time>2021-03-11T09:19:01.000Z</time>
      </trkpt>
      <trkpt lat="47.35111" lon="-2.34121">
        <ele>14.199999809265</ele>
        <time>2021-03-11T09:19:03.000Z</time>
      </trkpt>
      <trkpt lat="47.35134" lon="-2.3411">
        <ele>14.199999809265</ele>
        <time>2021-03-11T09:19:08.000Z</time>
      </trkpt>
      <trkpt lat="47.35153" lon="-2.34102">
        <ele>14.199999809265</ele>
        <time>2021-03-11T09:19:12.000Z</time>
      </trkpt>
      <trkpt lat="47.35161" lon="-2.341">
        <ele>14.199999809265</ele>
        <time>2021-03-11T09:19:14.000Z</time>
      </trkpt>
      <trkpt lat="47.35175" lon="-2.34095">
        <ele>13.60000038147</ele>
        <time>2021-03-11T09:19:18.000Z</time>
      </trkpt>
      <trkpt lat="47.35177" lon="-2.34091">
        <ele>13.199999809265</ele>
        <time>2021-03-11T09:19:19.000Z</time>
      </trkpt>
      <trkpt lat="47.35179" lon="-2.34085">
        <ele>12.60000038147</ele>
        <time>2021-03-11T09:19:20.000Z</time>
      </trkpt>
      <trkpt lat="47.3518" lon="-2.34081">
        <ele>12.199999809265</ele>
        <time>2021-03-11T09:19:21.000Z</time>
      </trkpt>
      <trkpt lat="47.35181" lon="-2.34076">
        <ele>11.800000190735</ele>
        <time>2021-03-11T09:19:22.000Z</time>
      </trkpt>
      <trkpt lat="47.35183" lon="-2.34071">
        <ele>11.800000190735</ele>
        <time>2021-03-11T09:19:23.000Z</time>
      </trkpt>
      <trkpt lat="47.35185" lon="-2.34066">
        <ele>11.39999961853</ele>
        <time>2021-03-11T09:19:24.000Z</time>
      </trkpt>
      <trkpt lat="47.35187" lon="-2.3406">
        <ele>11</ele>
        <time>2021-03-11T09:19:25.000Z</time>
      </trkpt>
      <trkpt lat="47.3519" lon="-2.34054">
        <ele>10.60000038147</ele>
        <time>2021-03-11T09:19:26.000Z</time>
      </trkpt>
      <trkpt lat="47.35192" lon="-2.34048">
        <ele>10</ele>
        <time>2021-03-11T09:19:27.000Z</time>
      </trkpt>
      <trkpt lat="47.35194" lon="-2.34042">
        <ele>9.6000003814697</ele>
        <time>2021-03-11T09:19:28.000Z</time>
      </trkpt>
      <trkpt lat="47.35201" lon="-2.34026">
        <ele>9.1999998092651</ele>
        <time>2021-03-11T09:19:31.000Z</time>
      </trkpt>
      <trkpt lat="47.35203" lon="-2.34021">
        <ele>8.8000001907349</ele>
        <time>2021-03-11T09:19:32.000Z</time>
      </trkpt>
      <trkpt lat="47.35207" lon="-2.34016">
        <ele>8.3999996185303</ele>
        <time>2021-03-11T09:19:33.000Z</time>
      </trkpt>
      <trkpt lat="47.3521" lon="-2.34011">
        <ele>8</ele>
        <time>2021-03-11T09:19:34.000Z</time>
      </trkpt>
      <trkpt lat="47.35214" lon="-2.34006">
        <ele>7.5999999046326</ele>
        <time>2021-03-11T09:19:35.000Z</time>
      </trkpt>
      <trkpt lat="47.35229" lon="-2.33998">
        <ele>7.1999998092651</ele>
        <time>2021-03-11T09:19:38.000Z</time>
      </trkpt>
      <trkpt lat="47.35234" lon="-2.33996">
        <ele>6.5999999046326</ele>
        <time>2021-03-11T09:19:39.000Z</time>
      </trkpt>
      <trkpt lat="47.3524" lon="-2.33993">
        <ele>6.1999998092651</ele>
        <time>2021-03-11T09:19:40.000Z</time>
      </trkpt>
      <trkpt lat="47.35246" lon="-2.3399">
        <ele>5.8000001907349</ele>
        <time>2021-03-11T09:19:41.000Z</time>
      </trkpt>
      <trkpt lat="47.35252" lon="-2.33987">
        <ele>5.4000000953674</ele>
        <time>2021-03-11T09:19:42.000Z</time>
      </trkpt>
      <trkpt lat="47.35257" lon="-2.33985">
        <ele>5.4000000953674</ele>
        <time>2021-03-11T09:19:43.000Z</time>
      </trkpt>
      <trkpt lat="47.35261" lon="-2.3398">
        <ele>5</ele>
        <time>2021-03-11T09:19:44.000Z</time>
      </trkpt>
      <trkpt lat="47.35263" lon="-2.33976">
        <ele>4.5999999046326</ele>
        <time>2021-03-11T09:19:45.000Z</time>
      </trkpt>
      <trkpt lat="47.35264" lon="-2.33972">
        <ele>4</ele>
        <time>2021-03-11T09:19:46.000Z</time>
      </trkpt>
      <trkpt lat="47.35266" lon="-2.3397">
        <ele>3.5999999046326</ele>
        <time>2021-03-11T09:19:47.000Z</time>
      </trkpt>
      <trkpt lat="47.35268" lon="-2.33969">
        <ele>3.2000000476837</ele>
        <time>2021-03-11T09:19:48.000Z</time>
      </trkpt>
      <trkpt lat="47.35271" lon="-2.33967">
        <ele>3.2000000476837</ele>
        <time>2021-03-11T09:19:49.000Z</time>
      </trkpt>
      <trkpt lat="47.35275" lon="-2.33966">
        <ele>3.2000000476837</ele>
        <time>2021-03-11T09:19:50.000Z</time>
      </trkpt>
      <trkpt lat="47.35281" lon="-2.33966">
        <ele>3.2000000476837</ele>
        <time>2021-03-11T09:19:51.000Z</time>
      </trkpt>
      <trkpt lat="47.35292" lon="-2.33967">
        <ele>3.2000000476837</ele>
        <time>2021-03-11T09:19:53.000Z</time>
      </trkpt>
      <trkpt lat="47.35345" lon="-2.33976">
        <ele>3.2000000476837</ele>
        <time>2021-03-11T09:20:02.000Z</time>
      </trkpt>
      <trkpt lat="47.3539" lon="-2.33984">
        <ele>3.2000000476837</ele>
        <time>2021-03-11T09:20:10.000Z</time>
      </trkpt>
      <trkpt lat="47.35395" lon="-2.33985">
        <ele>3.5999999046326</ele>
        <time>2021-03-11T09:20:11.000Z</time>
      </trkpt>
      <trkpt lat="47.35401" lon="-2.33985">
        <ele>4</ele>
        <time>2021-03-11T09:20:12.000Z</time>
      </trkpt>
      <trkpt lat="47.35406" lon="-2.33986">
        <ele>4.4000000953674</ele>
        <time>2021-03-11T09:20:13.000Z</time>
      </trkpt>
      <trkpt lat="47.35411" lon="-2.33986">
        <ele>4.8000001907349</ele>
        <time>2021-03-11T09:20:14.000Z</time>
      </trkpt>
      <trkpt lat="47.35416" lon="-2.33987">
        <ele>5.1999998092651</ele>
        <time>2021-03-11T09:20:15.000Z</time>
      </trkpt>
      <trkpt lat="47.35425" lon="-2.33987">
        <ele>5.1999998092651</ele>
        <time>2021-03-11T09:20:17.000Z</time>
      </trkpt>
      <trkpt lat="47.35429" lon="-2.33983">
        <ele>5.1999998092651</ele>
        <time>2021-03-11T09:20:18.000Z</time>
      </trkpt>
      <trkpt lat="47.35436" lon="-2.33958">
        <ele>5.1999998092651</ele>
        <time>2021-03-11T09:20:22.000Z</time>
      </trkpt>
      <trkpt lat="47.35443" lon="-2.33915">
        <ele>5.1999998092651</ele>
        <time>2021-03-11T09:20:28.000Z</time>
      </trkpt>
      <trkpt lat="47.35445" lon="-2.33908">
        <ele>5.5999999046326</ele>
        <time>2021-03-11T09:20:29.000Z</time>
      </trkpt>
      <trkpt lat="47.35447" lon="-2.33901">
        <ele>6.1999998092651</ele>
        <time>2021-03-11T09:20:30.000Z</time>
      </trkpt>
      <trkpt lat="47.35449" lon="-2.33893">
        <ele>6.5999999046326</ele>
        <time>2021-03-11T09:20:31.000Z</time>
      </trkpt>
      <trkpt lat="47.35451" lon="-2.33886">
        <ele>7</ele>
        <time>2021-03-11T09:20:32.000Z</time>
      </trkpt>
      <trkpt lat="47.35453" lon="-2.33878">
        <ele>7.4000000953674</ele>
        <time>2021-03-11T09:20:33.000Z</time>
      </trkpt>
      <trkpt lat="47.35464" lon="-2.33849">
        <ele>7.4000000953674</ele>
        <time>2021-03-11T09:20:37.000Z</time>
      </trkpt>
      <trkpt lat="47.35481" lon="-2.33805">
        <ele>7.4000000953674</ele>
        <time>2021-03-11T09:20:43.000Z</time>
      </trkpt>
      <trkpt lat="47.35494" lon="-2.33772">
        <ele>7.4000000953674</ele>
        <time>2021-03-11T09:20:48.000Z</time>
      </trkpt>
      <trkpt lat="47.35496" lon="-2.33765">
        <ele>7.4000000953674</ele>
        <time>2021-03-11T09:20:49.000Z</time>
      </trkpt>
      <trkpt lat="47.355" lon="-2.3375">
        <ele>7.4000000953674</ele>
        <time>2021-03-11T09:20:51.000Z</time>
      </trkpt>
      <trkpt lat="47.35503" lon="-2.33734">
        <ele>7.4000000953674</ele>
        <time>2021-03-11T09:20:53.000Z</time>
      </trkpt>
      <trkpt lat="47.35515" lon="-2.33668">
        <ele>7.4000000953674</ele>
        <time>2021-03-11T09:21:01.000Z</time>
      </trkpt>
      <trkpt lat="47.35525" lon="-2.33638">
        <ele>7</ele>
        <time>2021-03-11T09:21:05.000Z</time>
      </trkpt>
      <trkpt lat="47.35528" lon="-2.3363">
        <ele>6.5999999046326</ele>
        <time>2021-03-11T09:21:06.000Z</time>
      </trkpt>
      <trkpt lat="47.35531" lon="-2.33623">
        <ele>6</ele>
        <time>2021-03-11T09:21:07.000Z</time>
      </trkpt>
      <trkpt lat="47.35534" lon="-2.33616">
        <ele>5.5999999046326</ele>
        <time>2021-03-11T09:21:08.000Z</time>
      </trkpt>
      <trkpt lat="47.35537" lon="-2.33609">
        <ele>5.1999998092651</ele>
        <time>2021-03-11T09:21:09.000Z</time>
      </trkpt>
      <trkpt lat="47.35544" lon="-2.33595">
        <ele>5.1999998092651</ele>
        <time>2021-03-11T09:21:11.000Z</time>
      </trkpt>
      <trkpt lat="47.35552" lon="-2.33586">
        <ele>5.1999998092651</ele>
        <time>2021-03-11T09:21:13.000Z</time>
      </trkpt>
      <trkpt lat="47.35563" lon="-2.33583">
        <ele>5.1999998092651</ele>
        <time>2021-03-11T09:21:15.000Z</time>
      </trkpt>
      <trkpt lat="47.35573" lon="-2.3358">
        <ele>5.1999998092651</ele>
        <time>2021-03-11T09:21:17.000Z</time>
      </trkpt>
      <trkpt lat="47.35606" lon="-2.33572">
        <ele>5.1999998092651</ele>
        <time>2021-03-11T09:21:23.000Z</time>
      </trkpt>
      <trkpt lat="47.35636" lon="-2.33565">
        <ele>5.1999998092651</ele>
        <time>2021-03-11T09:21:29.000Z</time>
      </trkpt>
      <trkpt lat="47.35663" lon="-2.33559">
        <ele>5.1999998092651</ele>
        <time>2021-03-11T09:21:34.000Z</time>
      </trkpt>
      <trkpt lat="47.35668" lon="-2.33558">
        <ele>5.1999998092651</ele>
        <time>2021-03-11T09:21:35.000Z</time>
      </trkpt>
      <trkpt lat="47.35692" lon="-2.33553">
        <ele>5.1999998092651</ele>
        <time>2021-03-11T09:21:40.000Z</time>
      </trkpt>
      <trkpt lat="47.35701" lon="-2.33551">
        <ele>5.1999998092651</ele>
        <time>2021-03-11T09:21:42.000Z</time>
      </trkpt>
      <trkpt lat="47.35713" lon="-2.33547">
        <ele>5.1999998092651</ele>
        <time>2021-03-11T09:21:45.000Z</time>
      </trkpt>
      <trkpt lat="47.35732" lon="-2.33535">
        <ele>5.1999998092651</ele>
        <time>2021-03-11T09:21:51.000Z</time>
      </trkpt>
      <trkpt lat="47.35734" lon="-2.33531">
        <ele>5.1999998092651</ele>
        <time>2021-03-11T09:21:53.000Z</time>
      </trkpt>
      <trkpt lat="47.35737" lon="-2.3353">
        <ele>5.1999998092651</ele>
        <time>2021-03-11T09:21:55.000Z</time>
      </trkpt>
      <trkpt lat="47.35744" lon="-2.33535">
        <ele>5.1999998092651</ele>
        <time>2021-03-11T09:22:01.000Z</time>
      </trkpt>
      <trkpt lat="47.3575" lon="-2.33534">
        <ele>5.1999998092651</ele>
        <time>2021-03-11T09:22:04.000Z</time>
      </trkpt>
      <trkpt lat="47.35754" lon="-2.33534">
        <ele>5.1999998092651</ele>
        <time>2021-03-11T09:22:07.000Z</time>
      </trkpt>
      <trkpt lat="47.35769" lon="-2.33531">
        <ele>5.1999998092651</ele>
        <time>2021-03-11T09:22:13.000Z</time>
      </trkpt>
      <trkpt lat="47.35792" lon="-2.33526">
        <ele>5.1999998092651</ele>
        <time>2021-03-11T09:22:20.000Z</time>
      </trkpt>
      <trkpt lat="47.3581" lon="-2.33524">
        <ele>5.1999998092651</ele>
        <time>2021-03-11T09:22:25.000Z</time>
      </trkpt>
      <trkpt lat="47.35814" lon="-2.33523">
        <ele>5.1999998092651</ele>
        <time>2021-03-11T09:22:26.000Z</time>
      </trkpt>
      <trkpt lat="47.35851" lon="-2.33516">
        <ele>5.1999998092651</ele>
        <time>2021-03-11T09:22:34.000Z</time>
      </trkpt>
      <trkpt lat="47.35881" lon="-2.33507">
        <ele>5.1999998092651</ele>
        <time>2021-03-11T09:22:40.000Z</time>
      </trkpt>
      <trkpt lat="47.35903" lon="-2.33502">
        <ele>4.8000001907349</ele>
        <time>2021-03-11T09:22:44.000Z</time>
      </trkpt>
      <trkpt lat="47.35909" lon="-2.335">
        <ele>4.4000000953674</ele>
        <time>2021-03-11T09:22:45.000Z</time>
      </trkpt>
      <trkpt lat="47.35914" lon="-2.33499">
        <ele>4</ele>
        <time>2021-03-11T09:22:46.000Z</time>
      </trkpt>
      <trkpt lat="47.3592" lon="-2.33498">
        <ele>3.5999999046326</ele>
        <time>2021-03-11T09:22:47.000Z</time>
      </trkpt>
      <trkpt lat="47.35925" lon="-2.33497">
        <ele>3.2000000476837</ele>
        <time>2021-03-11T09:22:48.000Z</time>
      </trkpt>
      <trkpt lat="47.35958" lon="-2.3349">
        <ele>3.2000000476837</ele>
        <time>2021-03-11T09:22:54.000Z</time>
      </trkpt>
      <trkpt lat="47.35997" lon="-2.33479">
        <ele>3.2000000476837</ele>
        <time>2021-03-11T09:23:01.000Z</time>
      </trkpt>
      <trkpt lat="47.36022" lon="-2.33471">
        <ele>3.2000000476837</ele>
        <time>2021-03-11T09:23:07.000Z</time>
      </trkpt>
      <trkpt lat="47.36038" lon="-2.33463">
        <ele>3.2000000476837</ele>
        <time>2021-03-11T09:23:12.000Z</time>
      </trkpt>
      <trkpt lat="47.36044" lon="-2.33448">
        <ele>3.2000000476837</ele>
        <time>2021-03-11T09:23:15.000Z</time>
      </trkpt>
      <trkpt lat="47.36045" lon="-2.33441">
        <ele>3.2000000476837</ele>
        <time>2021-03-11T09:23:16.000Z</time>
      </trkpt>
      <trkpt lat="47.36049" lon="-2.334">
        <ele>3.2000000476837</ele>
        <time>2021-03-11T09:23:21.000Z</time>
      </trkpt>
      <trkpt lat="47.36056" lon="-2.33342">
        <ele>3.2000000476837</ele>
        <time>2021-03-11T09:23:28.000Z</time>
      </trkpt>
      <trkpt lat="47.36063" lon="-2.33288">
        <ele>3.2000000476837</ele>
        <time>2021-03-11T09:23:35.000Z</time>
      </trkpt>
      <trkpt lat="47.36065" lon="-2.33275">
        <ele>3.2000000476837</ele>
        <time>2021-03-11T09:23:37.000Z</time>
      </trkpt>
      <trkpt lat="47.36065" lon="-2.33261">
        <ele>3.2000000476837</ele>
        <time>2021-03-11T09:23:39.000Z</time>
      </trkpt>
      <trkpt lat="47.36065" lon="-2.33248">
        <ele>3.2000000476837</ele>
        <time>2021-03-11T09:23:41.000Z</time>
      </trkpt>
      <trkpt lat="47.36069" lon="-2.33214">
        <ele>3.2000000476837</ele>
        <time>2021-03-11T09:23:46.000Z</time>
      </trkpt>
      <trkpt lat="47.3607" lon="-2.33208">
        <ele>3.2000000476837</ele>
        <time>2021-03-11T09:23:47.000Z</time>
      </trkpt>
      <trkpt lat="47.36071" lon="-2.332">
        <ele>3.5999999046326</ele>
        <time>2021-03-11T09:23:48.000Z</time>
      </trkpt>
      <trkpt lat="47.36072" lon="-2.33193">
        <ele>4</ele>
        <time>2021-03-11T09:23:49.000Z</time>
      </trkpt>
      <trkpt lat="47.36073" lon="-2.33186">
        <ele>4.5999999046326</ele>
        <time>2021-03-11T09:23:50.000Z</time>
      </trkpt>
      <trkpt lat="47.36074" lon="-2.3318">
        <ele>5</ele>
        <time>2021-03-11T09:23:51.000Z</time>
      </trkpt>
      <trkpt lat="47.36075" lon="-2.33173">
        <ele>5.4000000953674</ele>
        <time>2021-03-11T09:23:52.000Z</time>
      </trkpt>
      <trkpt lat="47.36081" lon="-2.33114">
        <ele>5.4000000953674</ele>
        <time>2021-03-11T09:24:00.000Z</time>
      </trkpt>
      <trkpt lat="47.36083" lon="-2.33099">
        <ele>5.4000000953674</ele>
        <time>2021-03-11T09:24:02.000Z</time>
      </trkpt>
      <trkpt lat="47.36086" lon="-2.33062">
        <ele>5.4000000953674</ele>
        <time>2021-03-11T09:24:07.000Z</time>
      </trkpt>
      <trkpt lat="47.36087" lon="-2.33049">
        <ele>5.8000001907349</ele>
        <time>2021-03-11T09:24:09.000Z</time>
      </trkpt>
      <trkpt lat="47.36087" lon="-2.33042">
        <ele>6.1999998092651</ele>
        <time>2021-03-11T09:24:10.000Z</time>
      </trkpt>
      <trkpt lat="47.36088" lon="-2.33035">
        <ele>7</ele>
        <time>2021-03-11T09:24:11.000Z</time>
      </trkpt>
      <trkpt lat="47.36089" lon="-2.33028">
        <ele>7.4000000953674</ele>
        <time>2021-03-11T09:24:12.000Z</time>
      </trkpt>
      <trkpt lat="47.36092" lon="-2.33007">
        <ele>7.4000000953674</ele>
        <time>2021-03-11T09:24:15.000Z</time>
      </trkpt>
      <trkpt lat="47.36094" lon="-2.32985">
        <ele>7.4000000953674</ele>
        <time>2021-03-11T09:24:18.000Z</time>
      </trkpt>
      <trkpt lat="47.36095" lon="-2.32971">
        <ele>7.4000000953674</ele>
        <time>2021-03-11T09:24:20.000Z</time>
      </trkpt>
      <trkpt lat="47.36098" lon="-2.32941">
        <ele>7.4000000953674</ele>
        <time>2021-03-11T09:24:24.000Z</time>
      </trkpt>
      <trkpt lat="47.36103" lon="-2.32895">
        <ele>7.4000000953674</ele>
        <time>2021-03-11T09:24:30.000Z</time>
      </trkpt>
      <trkpt lat="47.36105" lon="-2.32874">
        <ele>7.4000000953674</ele>
        <time>2021-03-11T09:24:33.000Z</time>
      </trkpt>
      <trkpt lat="47.36107" lon="-2.32853">
        <ele>7.4000000953674</ele>
        <time>2021-03-11T09:24:36.000Z</time>
      </trkpt>
      <trkpt lat="47.3611" lon="-2.32803">
        <ele>7</ele>
        <time>2021-03-11T09:24:43.000Z</time>
      </trkpt>
      <trkpt lat="47.36112" lon="-2.32795">
        <ele>6.5999999046326</ele>
        <time>2021-03-11T09:24:44.000Z</time>
      </trkpt>
      <trkpt lat="47.36113" lon="-2.32786">
        <ele>6</ele>
        <time>2021-03-11T09:24:45.000Z</time>
      </trkpt>
      <trkpt lat="47.36114" lon="-2.32778">
        <ele>5.5999999046326</ele>
        <time>2021-03-11T09:24:46.000Z</time>
      </trkpt>
      <trkpt lat="47.36115" lon="-2.32769">
        <ele>5.1999998092651</ele>
        <time>2021-03-11T09:24:47.000Z</time>
      </trkpt>
      <trkpt lat="47.36118" lon="-2.32743">
        <ele>5.1999998092651</ele>
        <time>2021-03-11T09:24:50.000Z</time>
      </trkpt>
      <trkpt lat="47.36124" lon="-2.32685">
        <ele>5.1999998092651</ele>
        <time>2021-03-11T09:24:56.000Z</time>
      </trkpt>
      <trkpt lat="47.36124" lon="-2.32635">
        <ele>5.1999998092651</ele>
        <time>2021-03-11T09:25:01.000Z</time>
      </trkpt>
      <trkpt lat="47.36124" lon="-2.32579">
        <ele>5.1999998092651</ele>
        <time>2021-03-11T09:25:07.000Z</time>
      </trkpt>
      <trkpt lat="47.36124" lon="-2.32518">
        <ele>5.1999998092651</ele>
        <time>2021-03-11T09:25:14.000Z</time>
      </trkpt>
      <trkpt lat="47.36121" lon="-2.32446">
        <ele>5.1999998092651</ele>
        <time>2021-03-11T09:25:22.000Z</time>
      </trkpt>
      <trkpt lat="47.36119" lon="-2.32386">
        <ele>4.8000001907349</ele>
        <time>2021-03-11T09:25:29.000Z</time>
      </trkpt>
      <trkpt lat="47.36119" lon="-2.32378">
        <ele>4.1999998092651</ele>
        <time>2021-03-11T09:25:30.000Z</time>
      </trkpt>
      <trkpt lat="47.36119" lon="-2.3237">
        <ele>3.7999999523163</ele>
        <time>2021-03-11T09:25:31.000Z</time>
      </trkpt>
      <trkpt lat="47.36121" lon="-2.32362">
        <ele>3.4000000953674</ele>
        <time>2021-03-11T09:25:32.000Z</time>
      </trkpt>
      <trkpt lat="47.36125" lon="-2.32358">
        <ele>2.7999999523163</ele>
        <time>2021-03-11T09:25:33.000Z</time>
      </trkpt>
      <trkpt lat="47.3614" lon="-2.32356">
        <ele>2.7999999523163</ele>
        <time>2021-03-11T09:25:36.000Z</time>
      </trkpt>
      <trkpt lat="47.36178" lon="-2.32357">
        <ele>2.7999999523163</ele>
        <time>2021-03-11T09:25:43.000Z</time>
      </trkpt>
      <trkpt lat="47.36211" lon="-2.32355">
        <ele>2.7999999523163</ele>
        <time>2021-03-11T09:25:49.000Z</time>
      </trkpt>
      <trkpt lat="47.36239" lon="-2.32357">
        <ele>3.2000000476837</ele>
        <time>2021-03-11T09:25:54.000Z</time>
      </trkpt>
      <trkpt lat="47.36244" lon="-2.32357">
        <ele>3.7999999523163</ele>
        <time>2021-03-11T09:25:55.000Z</time>
      </trkpt>
      <trkpt lat="47.36249" lon="-2.32357">
        <ele>4.1999998092651</ele>
        <time>2021-03-11T09:25:56.000Z</time>
      </trkpt>
      <trkpt lat="47.36254" lon="-2.32357">
        <ele>4.5999999046326</ele>
        <time>2021-03-11T09:25:57.000Z</time>
      </trkpt>
      <trkpt lat="47.3626" lon="-2.32356">
        <ele>5</ele>
        <time>2021-03-11T09:25:58.000Z</time>
      </trkpt>
      <trkpt lat="47.3627" lon="-2.32355">
        <ele>5</ele>
        <time>2021-03-11T09:26:00.000Z</time>
      </trkpt>
      <trkpt lat="47.36279" lon="-2.32354">
        <ele>5</ele>
        <time>2021-03-11T09:26:02.000Z</time>
      </trkpt>
      <trkpt lat="47.36286" lon="-2.32349">
        <ele>5</ele>
        <time>2021-03-11T09:26:04.000Z</time>
      </trkpt>
      <trkpt lat="47.36288" lon="-2.32333">
        <ele>5</ele>
        <time>2021-03-11T09:26:07.000Z</time>
      </trkpt>
      <trkpt lat="47.36287" lon="-2.32326">
        <ele>5</ele>
        <time>2021-03-11T09:26:08.000Z</time>
      </trkpt>
      <trkpt lat="47.36286" lon="-2.32319">
        <ele>5</ele>
        <time>2021-03-11T09:26:09.000Z</time>
      </trkpt>
      <trkpt lat="47.36284" lon="-2.32295">
        <ele>5</ele>
        <time>2021-03-11T09:26:12.000Z</time>
      </trkpt>
      <trkpt lat="47.36275" lon="-2.32217">
        <ele>5</ele>
        <time>2021-03-11T09:26:21.000Z</time>
      </trkpt>
      <trkpt lat="47.36268" lon="-2.32159">
        <ele>5</ele>
        <time>2021-03-11T09:26:28.000Z</time>
      </trkpt>
      <trkpt lat="47.36261" lon="-2.32096">
        <ele>5</ele>
        <time>2021-03-11T09:26:35.000Z</time>
      </trkpt>
      <trkpt lat="47.36253" lon="-2.3204">
        <ele>5</ele>
        <time>2021-03-11T09:26:41.000Z</time>
      </trkpt>
      <trkpt lat="47.36244" lon="-2.31969">
        <ele>5</ele>
        <time>2021-03-11T09:26:48.000Z</time>
      </trkpt>
      <trkpt lat="47.36237" lon="-2.31916">
        <ele>4.4000000953674</ele>
        <time>2021-03-11T09:26:53.000Z</time>
      </trkpt>
      <trkpt lat="47.36235" lon="-2.31904">
        <ele>4</ele>
        <time>2021-03-11T09:26:54.000Z</time>
      </trkpt>
      <trkpt lat="47.36234" lon="-2.31893">
        <ele>3.5999999046326</ele>
        <time>2021-03-11T09:26:55.000Z</time>
      </trkpt>
      <trkpt lat="47.36232" lon="-2.31882">
        <ele>3.2000000476837</ele>
        <time>2021-03-11T09:26:56.000Z</time>
      </trkpt>
      <trkpt lat="47.36231" lon="-2.31871">
        <ele>2.5999999046326</ele>
        <time>2021-03-11T09:26:57.000Z</time>
      </trkpt>
      <trkpt lat="47.36219" lon="-2.3179">
        <ele>2.5999999046326</ele>
        <time>2021-03-11T09:27:04.000Z</time>
      </trkpt>
      <trkpt lat="47.36218" lon="-2.31779">
        <ele>2.5999999046326</ele>
        <time>2021-03-11T09:27:05.000Z</time>
      </trkpt>
      <trkpt lat="47.36207" lon="-2.317">
        <ele>2.5999999046326</ele>
        <time>2021-03-11T09:27:12.000Z</time>
      </trkpt>
      <trkpt lat="47.36205" lon="-2.31689">
        <ele>2.5999999046326</ele>
        <time>2021-03-11T09:27:13.000Z</time>
      </trkpt>
      <trkpt lat="47.36194" lon="-2.31613">
        <ele>2.5999999046326</ele>
        <time>2021-03-11T09:27:20.000Z</time>
      </trkpt>
      <trkpt lat="47.36184" lon="-2.31539">
        <ele>2.5999999046326</ele>
        <time>2021-03-11T09:27:27.000Z</time>
      </trkpt>
      <trkpt lat="47.36175" lon="-2.31473">
        <ele>2.5999999046326</ele>
        <time>2021-03-11T09:27:34.000Z</time>
      </trkpt>
      <trkpt lat="47.36168" lon="-2.3145">
        <ele>2.5999999046326</ele>
        <time>2021-03-11T09:27:37.000Z</time>
      </trkpt>
      <trkpt lat="47.36162" lon="-2.31439">
        <ele>2.5999999046326</ele>
        <time>2021-03-11T09:27:39.000Z</time>
      </trkpt>
      <trkpt lat="47.36143" lon="-2.31407">
        <ele>2.5999999046326</ele>
        <time>2021-03-11T09:27:45.000Z</time>
      </trkpt>
      <trkpt lat="47.36139" lon="-2.31403">
        <ele>2.5999999046326</ele>
        <time>2021-03-11T09:27:46.000Z</time>
      </trkpt>
      <trkpt lat="47.36126" lon="-2.31385">
        <ele>2.2000000476837</ele>
        <time>2021-03-11T09:27:50.000Z</time>
      </trkpt>
      <trkpt lat="47.36123" lon="-2.31381">
        <ele>1.7999999523163</ele>
        <time>2021-03-11T09:27:51.000Z</time>
      </trkpt>
      <trkpt lat="47.36119" lon="-2.31376">
        <ele>1.3999999761581</ele>
        <time>2021-03-11T09:27:52.000Z</time>
      </trkpt>
      <trkpt lat="47.36115" lon="-2.31371">
        <ele>0.60000002384186</ele>
        <time>2021-03-11T09:27:53.000Z</time>
      </trkpt>
      <trkpt lat="47.36111" lon="-2.31367">
        <ele>0.60000002384186</ele>
        <time>2021-03-11T09:27:54.000Z</time>
      </trkpt>
      <trkpt lat="47.3609" lon="-2.31354">
        <ele>0.60000002384186</ele>
        <time>2021-03-11T09:27:58.000Z</time>
      </trkpt>
      <trkpt lat="47.36063" lon="-2.31346">
        <ele>0.60000002384186</ele>
        <time>2021-03-11T09:28:04.000Z</time>
      </trkpt>
      <trkpt lat="47.3606" lon="-2.31345">
        <ele>0.60000002384186</ele>
        <time>2021-03-11T09:28:07.000Z</time>
      </trkpt>
      <trkpt lat="47.36058" lon="-2.31347">
        <ele>0.60000002384186</ele>
        <time>2021-03-11T09:29:43.000Z</time>
      </trkpt>
      <trkpt lat="47.36057" lon="-2.31352">
        <ele>0.60000002384186</ele>
        <time>2021-03-11T09:29:45.000Z</time>
      </trkpt>
      <trkpt lat="47.36057" lon="-2.31354">
        <ele>0.60000002384186</ele>
        <time>2021-03-11T09:29:46.000Z</time>
      </trkpt>
      <trkpt lat="47.36058" lon="-2.3137">
        <ele>0.60000002384186</ele>
        <time>2021-03-11T09:29:50.000Z</time>
      </trkpt>
      <trkpt lat="47.36065" lon="-2.31408">
        <ele>0.60000002384186</ele>
        <time>2021-03-11T09:29:54.000Z</time>
      </trkpt>
      <trkpt lat="47.36065" lon="-2.31414">
        <ele>0.60000002384186</ele>
        <time>2021-03-11T09:29:57.000Z</time>
      </trkpt>
      <trkpt lat="47.36067" lon="-2.31425">
        <ele>1</ele>
        <time>2021-03-11T09:29:59.000Z</time>
      </trkpt>
      <trkpt lat="47.36067" lon="-2.31431">
        <ele>1.3999999761581</ele>
        <time>2021-03-11T09:30:00.000Z</time>
      </trkpt>
      <trkpt lat="47.36068" lon="-2.31436">
        <ele>1.7999999523163</ele>
        <time>2021-03-11T09:30:01.000Z</time>
      </trkpt>
      <trkpt lat="47.36069" lon="-2.31442">
        <ele>2.2000000476837</ele>
        <time>2021-03-11T09:30:02.000Z</time>
      </trkpt>
      <trkpt lat="47.36069" lon="-2.31448">
        <ele>2.5999999046326</ele>
        <time>2021-03-11T09:30:03.000Z</time>
      </trkpt>
      <trkpt lat="47.3607" lon="-2.3146">
        <ele>2.5999999046326</ele>
        <time>2021-03-11T09:30:05.000Z</time>
      </trkpt>
      <trkpt lat="47.3607" lon="-2.31473">
        <ele>2.5999999046326</ele>
        <time>2021-03-11T09:30:07.000Z</time>
      </trkpt>
      <trkpt lat="47.36068" lon="-2.31491">
        <ele>2.5999999046326</ele>
        <time>2021-03-11T09:30:10.000Z</time>
      </trkpt>
      <trkpt lat="47.36056" lon="-2.31521">
        <ele>2.5999999046326</ele>
        <time>2021-03-11T09:30:16.000Z</time>
      </trkpt>
      <trkpt lat="47.36047" lon="-2.31535">
        <ele>2.5999999046326</ele>
        <time>2021-03-11T09:30:19.000Z</time>
      </trkpt>
      <trkpt lat="47.36038" lon="-2.31551">
        <ele>2.5999999046326</ele>
        <time>2021-03-11T09:30:22.000Z</time>
      </trkpt>
      <trkpt lat="47.36035" lon="-2.31557">
        <ele>2.5999999046326</ele>
        <time>2021-03-11T09:30:23.000Z</time>
      </trkpt>
      <trkpt lat="47.36021" lon="-2.3158">
        <ele>3</ele>
        <time>2021-03-11T09:30:27.000Z</time>
      </trkpt>
      <trkpt lat="47.36017" lon="-2.31586">
        <ele>3.4000000953674</ele>
        <time>2021-03-11T09:30:28.000Z</time>
      </trkpt>
      <trkpt lat="47.36014" lon="-2.31592">
        <ele>3.7999999523163</ele>
        <time>2021-03-11T09:30:29.000Z</time>
      </trkpt>
      <trkpt lat="47.36011" lon="-2.31597">
        <ele>4.1999998092651</ele>
        <time>2021-03-11T09:30:30.000Z</time>
      </trkpt>
      <trkpt lat="47.36008" lon="-2.31603">
        <ele>4.5999999046326</ele>
        <time>2021-03-11T09:30:31.000Z</time>
      </trkpt>
      <trkpt lat="47.35995" lon="-2.31628">
        <ele>4.5999999046326</ele>
        <time>2021-03-11T09:30:35.000Z</time>
      </trkpt>
      <trkpt lat="47.35968" lon="-2.31676">
        <ele>4.1999998092651</ele>
        <time>2021-03-11T09:30:42.000Z</time>
      </trkpt>
      <trkpt lat="47.35964" lon="-2.31683">
        <ele>3.7999999523163</ele>
        <time>2021-03-11T09:30:43.000Z</time>
      </trkpt>
      <trkpt lat="47.35961" lon="-2.3169">
        <ele>3.4000000953674</ele>
        <time>2021-03-11T09:30:44.000Z</time>
      </trkpt>
      <trkpt lat="47.35957" lon="-2.31697">
        <ele>2.5999999046326</ele>
        <time>2021-03-11T09:30:45.000Z</time>
      </trkpt>
      <trkpt lat="47.35936" lon="-2.31735">
        <ele>2.5999999046326</ele>
        <time>2021-03-11T09:30:50.000Z</time>
      </trkpt>
      <trkpt lat="47.35923" lon="-2.31758">
        <ele>2.2000000476837</ele>
        <time>2021-03-11T09:30:53.000Z</time>
      </trkpt>
      <trkpt lat="47.35918" lon="-2.31765">
        <ele>1.7999999523163</ele>
        <time>2021-03-11T09:30:54.000Z</time>
      </trkpt>
      <trkpt lat="47.35913" lon="-2.31773">
        <ele>1.3999999761581</ele>
        <time>2021-03-11T09:30:55.000Z</time>
      </trkpt>
      <trkpt lat="47.35909" lon="-2.31781">
        <ele>1</ele>
        <time>2021-03-11T09:30:56.000Z</time>
      </trkpt>
      <trkpt lat="47.35904" lon="-2.31788">
        <ele>0.60000002384186</ele>
        <time>2021-03-11T09:30:57.000Z</time>
      </trkpt>
      <trkpt lat="47.35874" lon="-2.31838">
        <ele>0.60000002384186</ele>
        <time>2021-03-11T09:31:04.000Z</time>
      </trkpt>
      <trkpt lat="47.35842" lon="-2.31894">
        <ele>0.60000002384186</ele>
        <time>2021-03-11T09:31:12.000Z</time>
      </trkpt>
      <trkpt lat="47.35816" lon="-2.31941">
        <ele>0.60000002384186</ele>
        <time>2021-03-11T09:31:19.000Z</time>
      </trkpt>
      <trkpt lat="47.35785" lon="-2.31993">
        <ele>0.60000002384186</ele>
        <time>2021-03-11T09:31:27.000Z</time>
      </trkpt>
      <trkpt lat="47.35757" lon="-2.32047">
        <ele>0.60000002384186</ele>
        <time>2021-03-11T09:31:35.000Z</time>
      </trkpt>
      <trkpt lat="47.35753" lon="-2.32054">
        <ele>0.60000002384186</ele>
        <time>2021-03-11T09:31:36.000Z</time>
      </trkpt>
      <trkpt lat="47.3573" lon="-2.32094">
        <ele>0.60000002384186</ele>
        <time>2021-03-11T09:31:42.000Z</time>
      </trkpt>
      <trkpt lat="47.35706" lon="-2.3214">
        <ele>0.60000002384186</ele>
        <time>2021-03-11T09:31:49.000Z</time>
      </trkpt>
      <trkpt lat="47.35682" lon="-2.32186">
        <ele>0.60000002384186</ele>
        <time>2021-03-11T09:31:56.000Z</time>
      </trkpt>
      <trkpt lat="47.35657" lon="-2.32231">
        <ele>0.60000002384186</ele>
        <time>2021-03-11T09:32:02.000Z</time>
      </trkpt>
      <trkpt lat="47.35626" lon="-2.32282">
        <ele>0.60000002384186</ele>
        <time>2021-03-11T09:32:09.000Z</time>
      </trkpt>
      <trkpt lat="47.35599" lon="-2.32332">
        <ele>0.60000002384186</ele>
        <time>2021-03-11T09:32:16.000Z</time>
      </trkpt>
      <trkpt lat="47.35581" lon="-2.32368">
        <ele>0.60000002384186</ele>
        <time>2021-03-11T09:32:21.000Z</time>
      </trkpt>
      <trkpt lat="47.35554" lon="-2.32426">
        <ele>0.60000002384186</ele>
        <time>2021-03-11T09:32:29.000Z</time>
      </trkpt>
      <trkpt lat="47.3553" lon="-2.32475">
        <ele>1</ele>
        <time>2021-03-11T09:32:36.000Z</time>
      </trkpt>
      <trkpt lat="47.35526" lon="-2.32482">
        <ele>1.3999999761581</ele>
        <time>2021-03-11T09:32:37.000Z</time>
      </trkpt>
      <trkpt lat="47.35523" lon="-2.3249">
        <ele>1.7999999523163</ele>
        <time>2021-03-11T09:32:38.000Z</time>
      </trkpt>
      <trkpt lat="47.3552" lon="-2.32497">
        <ele>2.2000000476837</ele>
        <time>2021-03-11T09:32:39.000Z</time>
      </trkpt>
      <trkpt lat="47.35517" lon="-2.32504">
        <ele>2.5999999046326</ele>
        <time>2021-03-11T09:32:40.000Z</time>
      </trkpt>
      <trkpt lat="47.35512" lon="-2.32517">
        <ele>2.5999999046326</ele>
        <time>2021-03-11T09:32:42.000Z</time>
      </trkpt>
      <trkpt lat="47.35502" lon="-2.32539">
        <ele>2.5999999046326</ele>
        <time>2021-03-11T09:32:46.000Z</time>
      </trkpt>
      <trkpt lat="47.355" lon="-2.32545">
        <ele>2.5999999046326</ele>
        <time>2021-03-11T09:32:47.000Z</time>
      </trkpt>
      <trkpt lat="47.35488" lon="-2.32581">
        <ele>2.5999999046326</ele>
        <time>2021-03-11T09:32:52.000Z</time>
      </trkpt>
      <trkpt lat="47.35484" lon="-2.32595">
        <ele>3</ele>
        <time>2021-03-11T09:32:54.000Z</time>
      </trkpt>
      <trkpt lat="47.35483" lon="-2.32602">
        <ele>3.4000000953674</ele>
        <time>2021-03-11T09:32:55.000Z</time>
      </trkpt>
      <trkpt lat="47.35482" lon="-2.32609">
        <ele>3.7999999523163</ele>
        <time>2021-03-11T09:32:56.000Z</time>
      </trkpt>
      <trkpt lat="47.35481" lon="-2.32616">
        <ele>4.1999998092651</ele>
        <time>2021-03-11T09:32:57.000Z</time>
      </trkpt>
      <trkpt lat="47.3548" lon="-2.32623">
        <ele>4.5999999046326</ele>
        <time>2021-03-11T09:32:58.000Z</time>
      </trkpt>
      <trkpt lat="47.35475" lon="-2.3265">
        <ele>4.5999999046326</ele>
        <time>2021-03-11T09:33:02.000Z</time>
      </trkpt>
      <trkpt lat="47.3547" lon="-2.32673">
        <ele>4.5999999046326</ele>
        <time>2021-03-11T09:33:05.000Z</time>
      </trkpt>
      <trkpt lat="47.35458" lon="-2.32707">
        <ele>4.5999999046326</ele>
        <time>2021-03-11T09:33:10.000Z</time>
      </trkpt>
      <trkpt lat="47.35433" lon="-2.32758">
        <ele>4.5999999046326</ele>
        <time>2021-03-11T09:33:18.000Z</time>
      </trkpt>
      <trkpt lat="47.35425" lon="-2.32771">
        <ele>4.5999999046326</ele>
        <time>2021-03-11T09:33:20.000Z</time>
      </trkpt>
      <trkpt lat="47.35407" lon="-2.32796">
        <ele>4.5999999046326</ele>
        <time>2021-03-11T09:33:24.000Z</time>
      </trkpt>
      <trkpt lat="47.35401" lon="-2.32801">
        <ele>5</ele>
        <time>2021-03-11T09:33:25.000Z</time>
      </trkpt>
      <trkpt lat="47.35395" lon="-2.32805">
        <ele>5.4000000953674</ele>
        <time>2021-03-11T09:33:26.000Z</time>
      </trkpt>
      <trkpt lat="47.35389" lon="-2.3281">
        <ele>5.8000001907349</ele>
        <time>2021-03-11T09:33:27.000Z</time>
      </trkpt>
      <trkpt lat="47.35383" lon="-2.32814">
        <ele>6.1999998092651</ele>
        <time>2021-03-11T09:33:28.000Z</time>
      </trkpt>
      <trkpt lat="47.35378" lon="-2.32819">
        <ele>6.5999999046326</ele>
        <time>2021-03-11T09:33:29.000Z</time>
      </trkpt>
      <trkpt lat="47.35354" lon="-2.32844">
        <ele>6.5999999046326</ele>
        <time>2021-03-11T09:33:34.000Z</time>
      </trkpt>
      <trkpt lat="47.35339" lon="-2.32869">
        <ele>6.5999999046326</ele>
        <time>2021-03-11T09:33:38.000Z</time>
      </trkpt>
      <trkpt lat="47.35335" lon="-2.32882">
        <ele>6.5999999046326</ele>
        <time>2021-03-11T09:33:40.000Z</time>
      </trkpt>
      <trkpt lat="47.35329" lon="-2.32903">
        <ele>6.5999999046326</ele>
        <time>2021-03-11T09:33:43.000Z</time>
      </trkpt>
      <trkpt lat="47.35323" lon="-2.32929">
        <ele>6.5999999046326</ele>
        <time>2021-03-11T09:33:46.000Z</time>
      </trkpt>
      <trkpt lat="47.35322" lon="-2.32938">
        <ele>6.5999999046326</ele>
        <time>2021-03-11T09:33:47.000Z</time>
      </trkpt>
      <trkpt lat="47.35321" lon="-2.32974">
        <ele>6.5999999046326</ele>
        <time>2021-03-11T09:33:51.000Z</time>
      </trkpt>
      <trkpt lat="47.35318" lon="-2.33028">
        <ele>6.1999998092651</ele>
        <time>2021-03-11T09:33:57.000Z</time>
      </trkpt>
      <trkpt lat="47.35317" lon="-2.33035">
        <ele>5.8000001907349</ele>
        <time>2021-03-11T09:33:58.000Z</time>
      </trkpt>
      <trkpt lat="47.35314" lon="-2.33042">
        <ele>5.4000000953674</ele>
        <time>2021-03-11T09:33:59.000Z</time>
      </trkpt>
      <trkpt lat="47.35312" lon="-2.33049">
        <ele>5</ele>
        <time>2021-03-11T09:34:00.000Z</time>
      </trkpt>
      <trkpt lat="47.3531" lon="-2.33057">
        <ele>4.5999999046326</ele>
        <time>2021-03-11T09:34:01.000Z</time>
      </trkpt>
      <trkpt lat="47.35307" lon="-2.33064">
        <ele>4.5999999046326</ele>
        <time>2021-03-11T09:34:02.000Z</time>
      </trkpt>
      <trkpt lat="47.35303" lon="-2.33071">
        <ele>4.5999999046326</ele>
        <time>2021-03-11T09:34:03.000Z</time>
      </trkpt>
      <trkpt lat="47.3529" lon="-2.33092">
        <ele>4.5999999046326</ele>
        <time>2021-03-11T09:34:06.000Z</time>
      </trkpt>
      <trkpt lat="47.35279" lon="-2.33104">
        <ele>4.5999999046326</ele>
        <time>2021-03-11T09:34:08.000Z</time>
      </trkpt>
      <trkpt lat="47.35234" lon="-2.33152">
        <ele>4.5999999046326</ele>
        <time>2021-03-11T09:34:16.000Z</time>
      </trkpt>
      <trkpt lat="47.35203" lon="-2.33188">
        <ele>4.5999999046326</ele>
        <time>2021-03-11T09:34:23.000Z</time>
      </trkpt>
      <trkpt lat="47.35172" lon="-2.33224">
        <ele>4.5999999046326</ele>
        <time>2021-03-11T09:34:30.000Z</time>
      </trkpt>
      <trkpt lat="47.3515" lon="-2.33259">
        <ele>4.5999999046326</ele>
        <time>2021-03-11T09:34:36.000Z</time>
      </trkpt>
      <trkpt lat="47.35125" lon="-2.33309">
        <ele>5</ele>
        <time>2021-03-11T09:34:44.000Z</time>
      </trkpt>
      <trkpt lat="47.35121" lon="-2.33316">
        <ele>5.4000000953674</ele>
        <time>2021-03-11T09:34:45.000Z</time>
      </trkpt>
      <trkpt lat="47.35117" lon="-2.33324">
        <ele>5.8000001907349</ele>
        <time>2021-03-11T09:34:46.000Z</time>
      </trkpt>
      <trkpt lat="47.35114" lon="-2.33331">
        <ele>6.1999998092651</ele>
        <time>2021-03-11T09:34:47.000Z</time>
      </trkpt>
      <trkpt lat="47.3511" lon="-2.33339">
        <ele>6.5999999046326</ele>
        <time>2021-03-11T09:34:48.000Z</time>
      </trkpt>
      <trkpt lat="47.35106" lon="-2.33347">
        <ele>6.5999999046326</ele>
        <time>2021-03-11T09:34:49.000Z</time>
      </trkpt>
      <trkpt lat="47.35075" lon="-2.33401">
        <ele>6.5999999046326</ele>
        <time>2021-03-11T09:34:56.000Z</time>
      </trkpt>
      <trkpt lat="47.35046" lon="-2.3345">
        <ele>6.5999999046326</ele>
        <time>2021-03-11T09:35:03.000Z</time>
      </trkpt>
      <trkpt lat="47.35018" lon="-2.33498">
        <ele>6.5999999046326</ele>
        <time>2021-03-11T09:35:10.000Z</time>
      </trkpt>
      <trkpt lat="47.35014" lon="-2.33505">
        <ele>6.1999998092651</ele>
        <time>2021-03-11T09:35:11.000Z</time>
      </trkpt>
      <trkpt lat="47.3501" lon="-2.33513">
        <ele>5.8000001907349</ele>
        <time>2021-03-11T09:35:12.000Z</time>
      </trkpt>
      <trkpt lat="47.35006" lon="-2.3352">
        <ele>5.4000000953674</ele>
        <time>2021-03-11T09:35:13.000Z</time>
      </trkpt>
      <trkpt lat="47.35003" lon="-2.33527">
        <ele>5</ele>
        <time>2021-03-11T09:35:14.000Z</time>
      </trkpt>
      <trkpt lat="47.35" lon="-2.33533">
        <ele>4.5999999046326</ele>
        <time>2021-03-11T09:35:15.000Z</time>
      </trkpt>
      <trkpt lat="47.34995" lon="-2.33546">
        <ele>4.5999999046326</ele>
        <time>2021-03-11T09:35:17.000Z</time>
      </trkpt>
      <trkpt lat="47.34981" lon="-2.33593">
        <ele>4.5999999046326</ele>
        <time>2021-03-11T09:35:23.000Z</time>
      </trkpt>
      <trkpt lat="47.34973" lon="-2.33643">
        <ele>4.5999999046326</ele>
        <time>2021-03-11T09:35:29.000Z</time>
      </trkpt>
      <trkpt lat="47.34966" lon="-2.3369">
        <ele>4.5999999046326</ele>
        <time>2021-03-11T09:35:35.000Z</time>
      </trkpt>
      <trkpt lat="47.34959" lon="-2.33731">
        <ele>4.5999999046326</ele>
        <time>2021-03-11T09:35:41.000Z</time>
      </trkpt>
      <trkpt lat="47.34955" lon="-2.33751">
        <ele>4.5999999046326</ele>
        <time>2021-03-11T09:35:46.000Z</time>
      </trkpt>
      <trkpt lat="47.34949" lon="-2.33776">
        <ele>4.5999999046326</ele>
        <time>2021-03-11T09:35:54.000Z</time>
      </trkpt>
      <trkpt lat="47.34947" lon="-2.33785">
        <ele>4.5999999046326</ele>
        <time>2021-03-11T09:35:57.000Z</time>
      </trkpt>
      <trkpt lat="47.34944" lon="-2.33789">
        <ele>4.5999999046326</ele>
        <time>2021-03-11T09:35:59.000Z</time>
      </trkpt>
      <trkpt lat="47.34936" lon="-2.33798">
        <ele>4.5999999046326</ele>
        <time>2021-03-11T09:36:05.000Z</time>
      </trkpt>
      <trkpt lat="47.34935" lon="-2.33799">
        <ele>4.5999999046326</ele>
        <time>2021-03-11T09:36:06.000Z</time>
      </trkpt>
      <trkpt lat="47.34928" lon="-2.33809">
        <ele>4.5999999046326</ele>
        <time>2021-03-11T09:36:12.000Z</time>
      </trkpt>
      <trkpt lat="47.34928" lon="-2.33809">
        <ele>4.5999999046326</ele>
        <time>2021-03-11T09:36:13.000Z</time>
      </trkpt>
      <trkpt lat="47.34927" lon="-2.33811">
        <ele>4.5999999046326</ele>
        <time>2021-03-11T09:36:30.000Z</time>
      </trkpt>
      <trkpt lat="47.34926" lon="-2.33813">
        <ele>4.5999999046326</ele>
        <time>2021-03-11T09:36:31.000Z</time>
      </trkpt>
      <trkpt lat="47.34915" lon="-2.33826">
        <ele>4.5999999046326</ele>
        <time>2021-03-11T09:36:36.000Z</time>
      </trkpt>
      <trkpt lat="47.34904" lon="-2.33844">
        <ele>5</ele>
        <time>2021-03-11T09:36:40.000Z</time>
      </trkpt>
      <trkpt lat="47.34901" lon="-2.33848">
        <ele>5.4000000953674</ele>
        <time>2021-03-11T09:36:41.000Z</time>
      </trkpt>
      <trkpt lat="47.34898" lon="-2.33853">
        <ele>5.8000001907349</ele>
        <time>2021-03-11T09:36:42.000Z</time>
      </trkpt>
      <trkpt lat="47.34895" lon="-2.33857">
        <ele>6.4000000953674</ele>
        <time>2021-03-11T09:36:43.000Z</time>
      </trkpt>
      <trkpt lat="47.34892" lon="-2.33861">
        <ele>6.8000001907349</ele>
        <time>2021-03-11T09:36:44.000Z</time>
      </trkpt>
      <trkpt lat="47.34868" lon="-2.33895">
        <ele>6.8000001907349</ele>
        <time>2021-03-11T09:36:51.000Z</time>
      </trkpt>
      <trkpt lat="47.3486" lon="-2.33905">
        <ele>7.1999998092651</ele>
        <time>2021-03-11T09:36:53.000Z</time>
      </trkpt>
      <trkpt lat="47.34856" lon="-2.33911">
        <ele>7.5999999046326</ele>
        <time>2021-03-11T09:36:54.000Z</time>
      </trkpt>
      <trkpt lat="47.34852" lon="-2.33916">
        <ele>8</ele>
        <time>2021-03-11T09:36:55.000Z</time>
      </trkpt>
      <trkpt lat="47.34848" lon="-2.33922">
        <ele>9</ele>
        <time>2021-03-11T09:36:56.000Z</time>
      </trkpt>
      <trkpt lat="47.34836" lon="-2.33939">
        <ele>9</ele>
        <time>2021-03-11T09:36:59.000Z</time>
      </trkpt>
      <trkpt lat="47.34827" lon="-2.3395">
        <ele>9</ele>
        <time>2021-03-11T09:37:01.000Z</time>
      </trkpt>
      <trkpt lat="47.34815" lon="-2.33966">
        <ele>9.3999996185303</ele>
        <time>2021-03-11T09:37:04.000Z</time>
      </trkpt>
      <trkpt lat="47.34811" lon="-2.33972">
        <ele>9.8000001907349</ele>
        <time>2021-03-11T09:37:05.000Z</time>
      </trkpt>
      <trkpt lat="47.34808" lon="-2.33977">
        <ele>10.199999809265</ele>
        <time>2021-03-11T09:37:06.000Z</time>
      </trkpt>
      <trkpt lat="47.34803" lon="-2.33983">
        <ele>10.60000038147</ele>
        <time>2021-03-11T09:37:07.000Z</time>
      </trkpt>
      <trkpt lat="47.348" lon="-2.33988">
        <ele>11</ele>
        <time>2021-03-11T09:37:08.000Z</time>
      </trkpt>
      <trkpt lat="47.34789" lon="-2.34004">
        <ele>11</ele>
        <time>2021-03-11T09:37:11.000Z</time>
      </trkpt>
      <trkpt lat="47.34781" lon="-2.34014">
        <ele>11</ele>
        <time>2021-03-11T09:37:13.000Z</time>
      </trkpt>
      <trkpt lat="47.34764" lon="-2.34037">
        <ele>11</ele>
        <time>2021-03-11T09:37:17.000Z</time>
      </trkpt>
      <trkpt lat="47.34752" lon="-2.34052">
        <ele>11.39999961853</ele>
        <time>2021-03-11T09:37:20.000Z</time>
      </trkpt>
      <trkpt lat="47.34748" lon="-2.34057">
        <ele>12.39999961853</ele>
        <time>2021-03-11T09:37:21.000Z</time>
      </trkpt>
      <trkpt lat="47.34744" lon="-2.34063">
        <ele>13</ele>
        <time>2021-03-11T09:37:22.000Z</time>
      </trkpt>
      <trkpt lat="47.3474" lon="-2.34068">
        <ele>13.39999961853</ele>
        <time>2021-03-11T09:37:23.000Z</time>
      </trkpt>
      <trkpt lat="47.34733" lon="-2.3408">
        <ele>13.39999961853</ele>
        <time>2021-03-11T09:37:25.000Z</time>
      </trkpt>
      <trkpt lat="47.34705" lon="-2.34118">
        <ele>13.39999961853</ele>
        <time>2021-03-11T09:37:32.000Z</time>
      </trkpt>
      <trkpt lat="47.34684" lon="-2.34156">
        <ele>13.39999961853</ele>
        <time>2021-03-11T09:37:38.000Z</time>
      </trkpt>
      <trkpt lat="47.34681" lon="-2.34162">
        <ele>13.39999961853</ele>
        <time>2021-03-11T09:37:39.000Z</time>
      </trkpt>
      <trkpt lat="47.34669" lon="-2.34198">
        <ele>13.39999961853</ele>
        <time>2021-03-11T09:37:44.000Z</time>
      </trkpt>
      <trkpt lat="47.34652" lon="-2.34247">
        <ele>13.39999961853</ele>
        <time>2021-03-11T09:37:51.000Z</time>
      </trkpt>
      <trkpt lat="47.3464" lon="-2.34285">
        <ele>13.800000190735</ele>
        <time>2021-03-11T09:37:57.000Z</time>
      </trkpt>
      <trkpt lat="47.34638" lon="-2.34291">
        <ele>14.199999809265</ele>
        <time>2021-03-11T09:37:58.000Z</time>
      </trkpt>
      <trkpt lat="47.34636" lon="-2.34296">
        <ele>14.60000038147</ele>
        <time>2021-03-11T09:37:59.000Z</time>
      </trkpt>
      <trkpt lat="47.34634" lon="-2.34302">
        <ele>15</ele>
        <time>2021-03-11T09:38:00.000Z</time>
      </trkpt>
      <trkpt lat="47.34632" lon="-2.34307">
        <ele>15.39999961853</ele>
        <time>2021-03-11T09:38:01.000Z</time>
      </trkpt>
      <trkpt lat="47.34628" lon="-2.34319">
        <ele>15.39999961853</ele>
        <time>2021-03-11T09:38:03.000Z</time>
      </trkpt>
      <trkpt lat="47.34618" lon="-2.34357">
        <ele>15.39999961853</ele>
        <time>2021-03-11T09:38:09.000Z</time>
      </trkpt>
      <trkpt lat="47.34614" lon="-2.34371">
        <ele>15.800000190735</ele>
        <time>2021-03-11T09:38:11.000Z</time>
      </trkpt>
      <trkpt lat="47.34612" lon="-2.34377">
        <ele>16.200000762939</ele>
        <time>2021-03-11T09:38:12.000Z</time>
      </trkpt>
      <trkpt lat="47.34609" lon="-2.34384">
        <ele>16.799999237061</ele>
        <time>2021-03-11T09:38:13.000Z</time>
      </trkpt>
      <trkpt lat="47.34608" lon="-2.3439">
        <ele>17.200000762939</ele>
        <time>2021-03-11T09:38:14.000Z</time>
      </trkpt>
      <trkpt lat="47.34606" lon="-2.34397">
        <ele>17.60000038147</ele>
        <time>2021-03-11T09:38:15.000Z</time>
      </trkpt>
      <trkpt lat="47.34604" lon="-2.34404">
        <ele>17.60000038147</ele>
        <time>2021-03-11T09:38:16.000Z</time>
      </trkpt>
      <trkpt lat="47.346" lon="-2.34433">
        <ele>17.60000038147</ele>
        <time>2021-03-11T09:38:20.000Z</time>
      </trkpt>
      <trkpt lat="47.34599" lon="-2.34454">
        <ele>17.60000038147</ele>
        <time>2021-03-11T09:38:23.000Z</time>
      </trkpt>
      <trkpt lat="47.34603" lon="-2.34504">
        <ele>17.60000038147</ele>
        <time>2021-03-11T09:38:30.000Z</time>
      </trkpt>
      <trkpt lat="47.34612" lon="-2.34552">
        <ele>17.60000038147</ele>
        <time>2021-03-11T09:38:37.000Z</time>
      </trkpt>
      <trkpt lat="47.34622" lon="-2.34605">
        <ele>17.60000038147</ele>
        <time>2021-03-11T09:38:44.000Z</time>
      </trkpt>
      <trkpt lat="47.34631" lon="-2.34651">
        <ele>17.60000038147</ele>
        <time>2021-03-11T09:38:49.000Z</time>
      </trkpt>
      <trkpt lat="47.34637" lon="-2.34681">
        <ele>17.200000762939</ele>
        <time>2021-03-11T09:38:52.000Z</time>
      </trkpt>
      <trkpt lat="47.34638" lon="-2.34691">
        <ele>16.799999237061</ele>
        <time>2021-03-11T09:38:53.000Z</time>
      </trkpt>
      <trkpt lat="47.34639" lon="-2.34701">
        <ele>16.200000762939</ele>
        <time>2021-03-11T09:38:54.000Z</time>
      </trkpt>
      <trkpt lat="47.3464" lon="-2.34711">
        <ele>15.800000190735</ele>
        <time>2021-03-11T09:38:55.000Z</time>
      </trkpt>
      <trkpt lat="47.34641" lon="-2.3472">
        <ele>15.39999961853</ele>
        <time>2021-03-11T09:38:56.000Z</time>
      </trkpt>
      <trkpt lat="47.34641" lon="-2.3473">
        <ele>15</ele>
        <time>2021-03-11T09:38:57.000Z</time>
      </trkpt>
      <trkpt lat="47.3464" lon="-2.34739">
        <ele>14.39999961853</ele>
        <time>2021-03-11T09:38:58.000Z</time>
      </trkpt>
      <trkpt lat="47.34639" lon="-2.34748">
        <ele>14</ele>
        <time>2021-03-11T09:38:59.000Z</time>
      </trkpt>
      <trkpt lat="47.34638" lon="-2.34758">
        <ele>13.39999961853</ele>
        <time>2021-03-11T09:39:00.000Z</time>
      </trkpt>
      <trkpt lat="47.34636" lon="-2.34767">
        <ele>13.39999961853</ele>
        <time>2021-03-11T09:39:01.000Z</time>
      </trkpt>
      <trkpt lat="47.34627" lon="-2.34792">
        <ele>13.39999961853</ele>
        <time>2021-03-11T09:39:04.000Z</time>
      </trkpt>
      <trkpt lat="47.34623" lon="-2.348">
        <ele>13.39999961853</ele>
        <time>2021-03-11T09:39:05.000Z</time>
      </trkpt>
      <trkpt lat="47.34619" lon="-2.34808">
        <ele>13.39999961853</ele>
        <time>2021-03-11T09:39:06.000Z</time>
      </trkpt>
      <trkpt lat="47.34602" lon="-2.34847">
        <ele>13</ele>
        <time>2021-03-11T09:39:11.000Z</time>
      </trkpt>
      <trkpt lat="47.34598" lon="-2.34855">
        <ele>12.60000038147</ele>
        <time>2021-03-11T09:39:12.000Z</time>
      </trkpt>
      <trkpt lat="47.34595" lon="-2.34862">
        <ele>12.199999809265</ele>
        <time>2021-03-11T09:39:13.000Z</time>
      </trkpt>
      <trkpt lat="47.34592" lon="-2.3487">
        <ele>11.800000190735</ele>
        <time>2021-03-11T09:39:14.000Z</time>
      </trkpt>
      <trkpt lat="47.3459" lon="-2.34876">
        <ele>11.39999961853</ele>
        <time>2021-03-11T09:39:15.000Z</time>
      </trkpt>
      <trkpt lat="47.3458" lon="-2.34901">
        <ele>11.39999961853</ele>
        <time>2021-03-11T09:39:19.000Z</time>
      </trkpt>
      <trkpt lat="47.34578" lon="-2.34916">
        <ele>11.39999961853</ele>
        <time>2021-03-11T09:39:22.000Z</time>
      </trkpt>
      <trkpt lat="47.3458" lon="-2.34919">
        <ele>11.39999961853</ele>
        <time>2021-03-11T09:39:23.000Z</time>
      </trkpt>
      <trkpt lat="47.34588" lon="-2.34929">
        <ele>11.39999961853</ele>
        <time>2021-03-11T09:39:27.000Z</time>
      </trkpt>
      <trkpt lat="47.34594" lon="-2.34942">
        <ele>11.39999961853</ele>
        <time>2021-03-11T09:39:30.000Z</time>
      </trkpt>
      <trkpt lat="47.34599" lon="-2.34953">
        <ele>11.39999961853</ele>
        <time>2021-03-11T09:39:32.000Z</time>
      </trkpt>
      <trkpt lat="47.34609" lon="-2.34969">
        <ele>11.39999961853</ele>
        <time>2021-03-11T09:39:35.000Z</time>
      </trkpt>
      <trkpt lat="47.34618" lon="-2.34983">
        <ele>11.39999961853</ele>
        <time>2021-03-11T09:39:38.000Z</time>
      </trkpt>
      <trkpt lat="47.34638" lon="-2.35015">
        <ele>11.39999961853</ele>
        <time>2021-03-11T09:39:45.000Z</time>
      </trkpt>
      <trkpt lat="47.34646" lon="-2.35027">
        <ele>11.39999961853</ele>
        <time>2021-03-11T09:39:50.000Z</time>
      </trkpt>
      <trkpt lat="47.34649" lon="-2.3503">
        <ele>11.39999961853</ele>
        <time>2021-03-11T09:39:53.000Z</time>
      </trkpt>
      <trkpt lat="47.34654" lon="-2.35032">
        <ele>11.39999961853</ele>
        <time>2021-03-11T09:39:57.000Z</time>
      </trkpt>
      <trkpt lat="47.34658" lon="-2.35034">
        <ele>11.39999961853</ele>
        <time>2021-03-11T09:40:00.000Z</time>
      </trkpt>
      <trkpt lat="47.34661" lon="-2.35035">
        <ele>11.39999961853</ele>
        <time>2021-03-11T09:40:03.000Z</time>
      </trkpt>
      <trkpt lat="47.34663" lon="-2.35036">
        <ele>11.39999961853</ele>
        <time>2021-03-11T09:40:05.000Z</time>
      </trkpt>
      <trkpt lat="47.34671" lon="-2.35037">
        <ele>11.39999961853</ele>
        <time>2021-03-11T09:40:12.000Z</time>
      </trkpt>
      <trkpt lat="47.34676" lon="-2.35038">
        <ele>11.39999961853</ele>
        <time>2021-03-11T09:40:14.000Z</time>
      </trkpt>
      <trkpt lat="47.3469" lon="-2.35053">
        <ele>11.39999961853</ele>
        <time>2021-03-11T09:40:19.000Z</time>
      </trkpt>
      <trkpt lat="47.34713" lon="-2.3508">
        <ele>11.39999961853</ele>
        <time>2021-03-11T09:40:25.000Z</time>
      </trkpt>
      <trkpt lat="47.34732" lon="-2.35107">
        <ele>11.39999961853</ele>
        <time>2021-03-11T09:40:31.000Z</time>
      </trkpt>
      <trkpt lat="47.34743" lon="-2.35129">
        <ele>11.39999961853</ele>
        <time>2021-03-11T09:40:36.000Z</time>
      </trkpt>
      <trkpt lat="47.34753" lon="-2.35142">
        <ele>11.39999961853</ele>
        <time>2021-03-11T09:40:40.000Z</time>
      </trkpt>
      <trkpt lat="47.34759" lon="-2.35156">
        <ele>11.39999961853</ele>
        <time>2021-03-11T09:40:44.000Z</time>
      </trkpt>
      <trkpt lat="47.3476" lon="-2.35159">
        <ele>11.39999961853</ele>
        <time>2021-03-11T09:40:45.000Z</time>
      </trkpt>
      <trkpt lat="47.34762" lon="-2.35176">
        <ele>11.39999961853</ele>
        <time>2021-03-11T09:40:50.000Z</time>
      </trkpt>
      <trkpt lat="47.34762" lon="-2.35184">
        <ele>11.39999961853</ele>
        <time>2021-03-11T09:40:52.000Z</time>
      </trkpt>
      <trkpt lat="47.34759" lon="-2.35202">
        <ele>11.39999961853</ele>
        <time>2021-03-11T09:40:56.000Z</time>
      </trkpt>
      <trkpt lat="47.34759" lon="-2.35225">
        <ele>11.39999961853</ele>
        <time>2021-03-11T09:41:01.000Z</time>
      </trkpt>
      <trkpt lat="47.34754" lon="-2.3525">
        <ele>11.39999961853</ele>
        <time>2021-03-11T09:41:06.000Z</time>
      </trkpt>
      <trkpt lat="47.3475" lon="-2.35277">
        <ele>11.39999961853</ele>
        <time>2021-03-11T09:41:12.000Z</time>
      </trkpt>
      <trkpt lat="47.34742" lon="-2.35293">
        <ele>11.39999961853</ele>
        <time>2021-03-11T09:41:16.000Z</time>
      </trkpt>
      <trkpt lat="47.34732" lon="-2.35317">
        <ele>11.39999961853</ele>
        <time>2021-03-11T09:41:23.000Z</time>
      </trkpt>
      <trkpt lat="47.34729" lon="-2.35342">
        <ele>12.199999809265</ele>
        <time>2021-03-11T09:41:28.000Z</time>
      </trkpt>
      <trkpt lat="47.34729" lon="-2.35346">
        <ele>12.60000038147</ele>
        <time>2021-03-11T09:41:29.000Z</time>
      </trkpt>
      <trkpt lat="47.34729" lon="-2.3535">
        <ele>13</ele>
        <time>2021-03-11T09:41:30.000Z</time>
      </trkpt>
      <trkpt lat="47.34729" lon="-2.35354">
        <ele>13.39999961853</ele>
        <time>2021-03-11T09:41:31.000Z</time>
      </trkpt>
      <trkpt lat="47.34728" lon="-2.35359">
        <ele>13.39999961853</ele>
        <time>2021-03-11T09:41:32.000Z</time>
      </trkpt>
      <trkpt lat="47.34723" lon="-2.35368">
        <ele>13.39999961853</ele>
        <time>2021-03-11T09:41:34.000Z</time>
      </trkpt>
      <trkpt lat="47.34718" lon="-2.35376">
        <ele>13.39999961853</ele>
        <time>2021-03-11T09:41:36.000Z</time>
      </trkpt>
      <trkpt lat="47.34704" lon="-2.35392">
        <ele>13.39999961853</ele>
        <time>2021-03-11T09:41:41.000Z</time>
      </trkpt>
      <trkpt lat="47.34696" lon="-2.35399">
        <ele>13.39999961853</ele>
        <time>2021-03-11T09:41:44.000Z</time>
      </trkpt>
      <trkpt lat="47.3469" lon="-2.35399">
        <ele>13.39999961853</ele>
        <time>2021-03-11T09:41:46.000Z</time>
      </trkpt>
      <trkpt lat="47.34677" lon="-2.35401">
        <ele>13.39999961853</ele>
        <time>2021-03-11T09:41:49.000Z</time>
      </trkpt>
      <trkpt lat="47.34661" lon="-2.35403">
        <ele>13.39999961853</ele>
        <time>2021-03-11T09:41:53.000Z</time>
      </trkpt>
      <trkpt lat="47.34658" lon="-2.35403">
        <ele>13.39999961853</ele>
        <time>2021-03-11T09:41:54.000Z</time>
      </trkpt>
      <trkpt lat="47.34656" lon="-2.35403">
        <ele>13</ele>
        <time>2021-03-11T09:41:55.000Z</time>
      </trkpt>
      <trkpt lat="47.34655" lon="-2.35404">
        <ele>12.39999961853</ele>
        <time>2021-03-11T09:41:56.000Z</time>
      </trkpt>
      <trkpt lat="47.34654" lon="-2.35405">
        <ele>12</ele>
        <time>2021-03-11T09:41:57.000Z</time>
      </trkpt>
      <trkpt lat="47.34654" lon="-2.35406">
        <ele>11.60000038147</ele>
        <time>2021-03-11T09:41:58.000Z</time>
      </trkpt>
      <trkpt lat="47.34654" lon="-2.35406">
        <ele>11.199999809265</ele>
        <time>2021-03-11T09:41:59.000Z</time>
      </trkpt>
      <trkpt lat="47.34653" lon="-2.35409">
        <ele>11.199999809265</ele>
        <time>2021-03-11T09:42:05.000Z</time>
      </trkpt>
      <trkpt lat="47.34657" lon="-2.35415">
        <ele>11.199999809265</ele>
        <time>2021-03-11T09:42:07.000Z</time>
      </trkpt>
      <trkpt lat="47.34663" lon="-2.3542">
        <ele>11.199999809265</ele>
        <time>2021-03-11T09:42:09.000Z</time>
      </trkpt>
      <trkpt lat="47.34672" lon="-2.3543">
        <ele>11.199999809265</ele>
        <time>2021-03-11T09:42:12.000Z</time>
      </trkpt>
      <trkpt lat="47.34675" lon="-2.35434">
        <ele>11.199999809265</ele>
        <time>2021-03-11T09:42:13.000Z</time>
      </trkpt>
      <trkpt lat="47.34686" lon="-2.3545">
        <ele>11.199999809265</ele>
        <time>2021-03-11T09:42:18.000Z</time>
      </trkpt>
      <trkpt lat="47.34696" lon="-2.35467">
        <ele>11.199999809265</ele>
        <time>2021-03-11T09:42:24.000Z</time>
      </trkpt>
      <trkpt lat="47.34719" lon="-2.35505">
        <ele>11.199999809265</ele>
        <time>2021-03-11T09:42:33.000Z</time>
      </trkpt>
      <trkpt lat="47.34746" lon="-2.35551">
        <ele>11.199999809265</ele>
        <time>2021-03-11T09:42:42.000Z</time>
      </trkpt>
      <trkpt lat="47.34749" lon="-2.35556">
        <ele>11.199999809265</ele>
        <time>2021-03-11T09:42:43.000Z</time>
      </trkpt>
      <trkpt lat="47.34766" lon="-2.35579">
        <ele>11.199999809265</ele>
        <time>2021-03-11T09:42:48.000Z</time>
      </trkpt>
      <trkpt lat="47.34794" lon="-2.35612">
        <ele>11.199999809265</ele>
        <time>2021-03-11T09:42:55.000Z</time>
      </trkpt>
      <trkpt lat="47.34798" lon="-2.35616">
        <ele>11.199999809265</ele>
        <time>2021-03-11T09:42:56.000Z</time>
      </trkpt>
      <trkpt lat="47.34816" lon="-2.35633">
        <ele>11.60000038147</ele>
        <time>2021-03-11T09:43:00.000Z</time>
      </trkpt>
      <trkpt lat="47.34821" lon="-2.35636">
        <ele>12</ele>
        <time>2021-03-11T09:43:01.000Z</time>
      </trkpt>
      <trkpt lat="47.34826" lon="-2.3564">
        <ele>12.39999961853</ele>
        <time>2021-03-11T09:43:02.000Z</time>
      </trkpt>
      <trkpt lat="47.34831" lon="-2.35643">
        <ele>13</ele>
        <time>2021-03-11T09:43:03.000Z</time>
      </trkpt>
      <trkpt lat="47.34836" lon="-2.35646">
        <ele>13.39999961853</ele>
        <time>2021-03-11T09:43:04.000Z</time>
      </trkpt>
      <trkpt lat="47.34855" lon="-2.35656">
        <ele>13.39999961853</ele>
        <time>2021-03-11T09:43:08.000Z</time>
      </trkpt>
      <trkpt lat="47.3486" lon="-2.3566">
        <ele>13.39999961853</ele>
        <time>2021-03-11T09:43:11.000Z</time>
      </trkpt>
      <trkpt lat="47.34861" lon="-2.35665">
        <ele>13.39999961853</ele>
        <time>2021-03-11T09:43:13.000Z</time>
      </trkpt>
      <trkpt lat="47.34858" lon="-2.35673">
        <ele>13.39999961853</ele>
        <time>2021-03-11T09:43:15.000Z</time>
      </trkpt>
      <trkpt lat="47.3485" lon="-2.35699">
        <ele>13.39999961853</ele>
        <time>2021-03-11T09:43:19.000Z</time>
      </trkpt>
      <trkpt lat="47.34841" lon="-2.35715">
        <ele>13.39999961853</ele>
        <time>2021-03-11T09:43:22.000Z</time>
      </trkpt>
      <trkpt lat="47.34835" lon="-2.3572">
        <ele>13.39999961853</ele>
        <time>2021-03-11T09:43:24.000Z</time>
      </trkpt>
      <trkpt lat="47.34828" lon="-2.35721">
        <ele>13.39999961853</ele>
        <time>2021-03-11T09:43:26.000Z</time>
      </trkpt>
      <trkpt lat="47.34823" lon="-2.35724">
        <ele>13.39999961853</ele>
        <time>2021-03-11T09:43:28.000Z</time>
      </trkpt>
      <trkpt lat="47.34821" lon="-2.35726">
        <ele>13.39999961853</ele>
        <time>2021-03-11T09:43:29.000Z</time>
      </trkpt>
      <trkpt lat="47.34808" lon="-2.3573">
        <ele>13.39999961853</ele>
        <time>2021-03-11T09:43:35.000Z</time>
      </trkpt>
      <trkpt lat="47.34798" lon="-2.35736">
        <ele>13.39999961853</ele>
        <time>2021-03-11T09:43:41.000Z</time>
      </trkpt>
      <trkpt lat="47.3479" lon="-2.35739">
        <ele>13.39999961853</ele>
        <time>2021-03-11T09:43:47.000Z</time>
      </trkpt>
      <trkpt lat="47.34787" lon="-2.35741">
        <ele>13.39999961853</ele>
        <time>2021-03-11T09:43:51.000Z</time>
      </trkpt>
      <trkpt lat="47.34783" lon="-2.35744">
        <ele>13.39999961853</ele>
        <time>2021-03-11T09:44:03.000Z</time>
      </trkpt>
      <trkpt lat="47.34781" lon="-2.35745">
        <ele>13.39999961853</ele>
        <time>2021-03-11T09:44:04.000Z</time>
      </trkpt>
      <trkpt lat="47.34765" lon="-2.35752">
        <ele>13.39999961853</ele>
        <time>2021-03-11T09:44:09.000Z</time>
      </trkpt>
      <trkpt lat="47.34742" lon="-2.35764">
        <ele>13.39999961853</ele>
        <time>2021-03-11T09:44:15.000Z</time>
      </trkpt>
      <trkpt lat="47.34733" lon="-2.35771">
        <ele>13.39999961853</ele>
        <time>2021-03-11T09:44:17.000Z</time>
      </trkpt>
      <trkpt lat="47.34711" lon="-2.35788">
        <ele>13.39999961853</ele>
        <time>2021-03-11T09:44:22.000Z</time>
      </trkpt>
      <trkpt lat="47.3468" lon="-2.35813">
        <ele>13.39999961853</ele>
        <time>2021-03-11T09:44:29.000Z</time>
      </trkpt>
      <trkpt lat="47.34646" lon="-2.3584">
        <ele>13.39999961853</ele>
        <time>2021-03-11T09:44:37.000Z</time>
      </trkpt>
      <trkpt lat="47.34631" lon="-2.35851">
        <ele>13.39999961853</ele>
        <time>2021-03-11T09:44:42.000Z</time>
      </trkpt>
      <trkpt lat="47.34611" lon="-2.35867">
        <ele>13.39999961853</ele>
        <time>2021-03-11T09:44:48.000Z</time>
      </trkpt>
      <trkpt lat="47.34585" lon="-2.35888">
        <ele>13.39999961853</ele>
        <time>2021-03-11T09:44:55.000Z</time>
      </trkpt>
      <trkpt lat="47.34566" lon="-2.35902">
        <ele>13.39999961853</ele>
        <time>2021-03-11T09:45:00.000Z</time>
      </trkpt>
      <trkpt lat="47.34543" lon="-2.35914">
        <ele>13.39999961853</ele>
        <time>2021-03-11T09:45:06.000Z</time>
      </trkpt>
      <trkpt lat="47.34515" lon="-2.35925">
        <ele>13.39999961853</ele>
        <time>2021-03-11T09:45:13.000Z</time>
      </trkpt>
      <trkpt lat="47.34494" lon="-2.35934">
        <ele>13.39999961853</ele>
        <time>2021-03-11T09:45:19.000Z</time>
      </trkpt>
      <trkpt lat="47.34482" lon="-2.35942">
        <ele>13.800000190735</ele>
        <time>2021-03-11T09:45:23.000Z</time>
      </trkpt>
      <trkpt lat="47.34479" lon="-2.35944">
        <ele>14.199999809265</ele>
        <time>2021-03-11T09:45:24.000Z</time>
      </trkpt>
      <trkpt lat="47.34476" lon="-2.35945">
        <ele>14.60000038147</ele>
        <time>2021-03-11T09:45:25.000Z</time>
      </trkpt>
      <trkpt lat="47.34472" lon="-2.35947">
        <ele>15</ele>
        <time>2021-03-11T09:45:26.000Z</time>
      </trkpt>
      <trkpt lat="47.34469" lon="-2.3595">
        <ele>15.39999961853</ele>
        <time>2021-03-11T09:45:27.000Z</time>
      </trkpt>
      <trkpt lat="47.34466" lon="-2.35952">
        <ele>15.39999961853</ele>
        <time>2021-03-11T09:45:28.000Z</time>
      </trkpt>
      <trkpt lat="47.34442" lon="-2.35971">
        <ele>15.39999961853</ele>
        <time>2021-03-11T09:45:35.000Z</time>
      </trkpt>
      <trkpt lat="47.34432" lon="-2.35978">
        <ele>15.800000190735</ele>
        <time>2021-03-11T09:45:38.000Z</time>
      </trkpt>
      <trkpt lat="47.34429" lon="-2.3598">
        <ele>16.200000762939</ele>
        <time>2021-03-11T09:45:39.000Z</time>
      </trkpt>
      <trkpt lat="47.34426" lon="-2.35983">
        <ele>16.60000038147</ele>
        <time>2021-03-11T09:45:40.000Z</time>
      </trkpt>
      <trkpt lat="47.34423" lon="-2.35985">
        <ele>17.200000762939</ele>
        <time>2021-03-11T09:45:41.000Z</time>
      </trkpt>
      <trkpt lat="47.3442" lon="-2.35988">
        <ele>17.60000038147</ele>
        <time>2021-03-11T09:45:42.000Z</time>
      </trkpt>
      <trkpt lat="47.34411" lon="-2.35995">
        <ele>17.60000038147</ele>
        <time>2021-03-11T09:45:47.000Z</time>
      </trkpt>
      <trkpt lat="47.34411" lon="-2.35997">
        <ele>17.60000038147</ele>
        <time>2021-03-11T09:45:48.000Z</time>
      </trkpt>
      <trkpt lat="47.3441" lon="-2.36003">
        <ele>18</ele>
        <time>2021-03-11T09:45:52.000Z</time>
      </trkpt>
      <trkpt lat="47.34413" lon="-2.36007">
        <ele>19.60000038147</ele>
        <time>2021-03-11T09:46:52.000Z</time>
      </trkpt>
      <trkpt lat="47.34416" lon="-2.36017">
        <ele>19.60000038147</ele>
        <time>2021-03-11T09:46:55.000Z</time>
      </trkpt>
      <trkpt lat="47.34417" lon="-2.36021">
        <ele>19.60000038147</ele>
        <time>2021-03-11T09:46:56.000Z</time>
      </trkpt>
      <trkpt lat="47.34423" lon="-2.36039">
        <ele>19.60000038147</ele>
        <time>2021-03-11T09:47:00.000Z</time>
      </trkpt>
      <trkpt lat="47.34431" lon="-2.36072">
        <ele>19.60000038147</ele>
        <time>2021-03-11T09:47:06.000Z</time>
      </trkpt>
      <trkpt lat="47.34443" lon="-2.36106">
        <ele>19.60000038147</ele>
        <time>2021-03-11T09:47:13.000Z</time>
      </trkpt>
      <trkpt lat="47.3445" lon="-2.36124">
        <ele>19.200000762939</ele>
        <time>2021-03-11T09:47:16.000Z</time>
      </trkpt>
      <trkpt lat="47.34453" lon="-2.3613">
        <ele>18.799999237061</ele>
        <time>2021-03-11T09:47:17.000Z</time>
      </trkpt>
      <trkpt lat="47.34455" lon="-2.36136">
        <ele>18.39999961853</ele>
        <time>2021-03-11T09:47:18.000Z</time>
      </trkpt>
      <trkpt lat="47.34457" lon="-2.36143">
        <ele>17.799999237061</ele>
        <time>2021-03-11T09:47:19.000Z</time>
      </trkpt>
      <trkpt lat="47.34459" lon="-2.36149">
        <ele>17.39999961853</ele>
        <time>2021-03-11T09:47:20.000Z</time>
      </trkpt>
      <trkpt lat="47.34466" lon="-2.36169">
        <ele>17.39999961853</ele>
        <time>2021-03-11T09:47:23.000Z</time>
      </trkpt>
      <trkpt lat="47.34469" lon="-2.36176">
        <ele>17.39999961853</ele>
        <time>2021-03-11T09:47:24.000Z</time>
      </trkpt>
      <trkpt lat="47.34494" lon="-2.36217">
        <ele>17.39999961853</ele>
        <time>2021-03-11T09:47:31.000Z</time>
      </trkpt>
      <trkpt lat="47.34508" lon="-2.36244">
        <ele>17.39999961853</ele>
        <time>2021-03-11T09:47:35.000Z</time>
      </trkpt>
      <trkpt lat="47.34509" lon="-2.36252">
        <ele>17.39999961853</ele>
        <time>2021-03-11T09:47:36.000Z</time>
      </trkpt>
      <trkpt lat="47.34525" lon="-2.36301">
        <ele>17.39999961853</ele>
        <time>2021-03-11T09:47:43.000Z</time>
      </trkpt>
      <trkpt lat="47.34544" lon="-2.36351">
        <ele>17.39999961853</ele>
        <time>2021-03-11T09:47:52.000Z</time>
      </trkpt>
      <trkpt lat="47.3455" lon="-2.36369">
        <ele>17.39999961853</ele>
        <time>2021-03-11T09:47:55.000Z</time>
      </trkpt>
      <trkpt lat="47.34558" lon="-2.36383">
        <ele>17.39999961853</ele>
        <time>2021-03-11T09:47:58.000Z</time>
      </trkpt>
      <trkpt lat="47.34562" lon="-2.36388">
        <ele>17.39999961853</ele>
        <time>2021-03-11T09:47:59.000Z</time>
      </trkpt>
      <trkpt lat="47.34583" lon="-2.3642">
        <ele>17.39999961853</ele>
        <time>2021-03-11T09:48:05.000Z</time>
      </trkpt>
      <trkpt lat="47.34592" lon="-2.36443">
        <ele>17.39999961853</ele>
        <time>2021-03-11T09:48:10.000Z</time>
      </trkpt>
      <trkpt lat="47.34591" lon="-2.36449">
        <ele>17.799999237061</ele>
        <time>2021-03-11T09:48:11.000Z</time>
      </trkpt>
      <trkpt lat="47.34589" lon="-2.36454">
        <ele>18.200000762939</ele>
        <time>2021-03-11T09:48:12.000Z</time>
      </trkpt>
      <trkpt lat="47.34587" lon="-2.3646">
        <ele>18.60000038147</ele>
        <time>2021-03-11T09:48:13.000Z</time>
      </trkpt>
      <trkpt lat="47.34585" lon="-2.36466">
        <ele>19.200000762939</ele>
        <time>2021-03-11T09:48:14.000Z</time>
      </trkpt>
      <trkpt lat="47.34583" lon="-2.36472">
        <ele>19.60000038147</ele>
        <time>2021-03-11T09:48:15.000Z</time>
      </trkpt>
      <trkpt lat="47.34567" lon="-2.36518">
        <ele>19.60000038147</ele>
        <time>2021-03-11T09:48:22.000Z</time>
      </trkpt>
      <trkpt lat="47.34557" lon="-2.36542">
        <ele>19.60000038147</ele>
        <time>2021-03-11T09:48:26.000Z</time>
      </trkpt>
      <trkpt lat="47.34553" lon="-2.36555">
        <ele>19.60000038147</ele>
        <time>2021-03-11T09:48:28.000Z</time>
      </trkpt>
      <trkpt lat="47.34538" lon="-2.36595">
        <ele>19.60000038147</ele>
        <time>2021-03-11T09:48:35.000Z</time>
      </trkpt>
      <trkpt lat="47.34535" lon="-2.36602">
        <ele>20</ele>
        <time>2021-03-11T09:48:36.000Z</time>
      </trkpt>
      <trkpt lat="47.34533" lon="-2.36608">
        <ele>20.39999961853</ele>
        <time>2021-03-11T09:48:37.000Z</time>
      </trkpt>
      <trkpt lat="47.3453" lon="-2.36614">
        <ele>20.799999237061</ele>
        <time>2021-03-11T09:48:38.000Z</time>
      </trkpt>
      <trkpt lat="47.34528" lon="-2.3662">
        <ele>21.39999961853</ele>
        <time>2021-03-11T09:48:39.000Z</time>
      </trkpt>
      <trkpt lat="47.34526" lon="-2.36626">
        <ele>21.799999237061</ele>
        <time>2021-03-11T09:48:40.000Z</time>
      </trkpt>
      <trkpt lat="47.34518" lon="-2.36644">
        <ele>21.799999237061</ele>
        <time>2021-03-11T09:48:43.000Z</time>
      </trkpt>
      <trkpt lat="47.34509" lon="-2.36668">
        <ele>21.799999237061</ele>
        <time>2021-03-11T09:48:47.000Z</time>
      </trkpt>
      <trkpt lat="47.34501" lon="-2.36683">
        <ele>21.799999237061</ele>
        <time>2021-03-11T09:48:50.000Z</time>
      </trkpt>
      <trkpt lat="47.3448" lon="-2.36722">
        <ele>21.799999237061</ele>
        <time>2021-03-11T09:48:58.000Z</time>
      </trkpt>
      <trkpt lat="47.34478" lon="-2.36728">
        <ele>22.200000762939</ele>
        <time>2021-03-11T09:48:59.000Z</time>
      </trkpt>
      <trkpt lat="47.34475" lon="-2.36733">
        <ele>22.799999237061</ele>
        <time>2021-03-11T09:49:00.000Z</time>
      </trkpt>
      <trkpt lat="47.34472" lon="-2.36738">
        <ele>23.200000762939</ele>
        <time>2021-03-11T09:49:01.000Z</time>
      </trkpt>
      <trkpt lat="47.34469" lon="-2.36743">
        <ele>23.60000038147</ele>
        <time>2021-03-11T09:49:02.000Z</time>
      </trkpt>
      <trkpt lat="47.34466" lon="-2.36748">
        <ele>24</ele>
        <time>2021-03-11T09:49:03.000Z</time>
      </trkpt>
      <trkpt lat="47.34463" lon="-2.36752">
        <ele>24</ele>
        <time>2021-03-11T09:49:04.000Z</time>
      </trkpt>
      <trkpt lat="47.34445" lon="-2.36783">
        <ele>24</ele>
        <time>2021-03-11T09:49:11.000Z</time>
      </trkpt>
      <trkpt lat="47.34433" lon="-2.36802">
        <ele>24.39999961853</ele>
        <time>2021-03-11T09:49:15.000Z</time>
      </trkpt>
      <trkpt lat="47.34429" lon="-2.36807">
        <ele>25</ele>
        <time>2021-03-11T09:49:16.000Z</time>
      </trkpt>
      <trkpt lat="47.34426" lon="-2.36812">
        <ele>25.39999961853</ele>
        <time>2021-03-11T09:49:17.000Z</time>
      </trkpt>
      <trkpt lat="47.34423" lon="-2.36817">
        <ele>25.799999237061</ele>
        <time>2021-03-11T09:49:18.000Z</time>
      </trkpt>
      <trkpt lat="47.3442" lon="-2.36822">
        <ele>26.200000762939</ele>
        <time>2021-03-11T09:49:19.000Z</time>
      </trkpt>
      <trkpt lat="47.34401" lon="-2.36852">
        <ele>26.200000762939</ele>
        <time>2021-03-11T09:49:25.000Z</time>
      </trkpt>
      <trkpt lat="47.34377" lon="-2.36892">
        <ele>26.200000762939</ele>
        <time>2021-03-11T09:49:33.000Z</time>
      </trkpt>
      <trkpt lat="47.34351" lon="-2.36935">
        <ele>26.200000762939</ele>
        <time>2021-03-11T09:49:41.000Z</time>
      </trkpt>
      <trkpt lat="47.34321" lon="-2.3698">
        <ele>26.200000762939</ele>
        <time>2021-03-11T09:49:50.000Z</time>
      </trkpt>
      <trkpt lat="47.34295" lon="-2.37015">
        <ele>26.200000762939</ele>
        <time>2021-03-11T09:49:57.000Z</time>
      </trkpt>
      <trkpt lat="47.34291" lon="-2.37019">
        <ele>26.200000762939</ele>
        <time>2021-03-11T09:49:58.000Z</time>
      </trkpt>
      <trkpt lat="47.34271" lon="-2.37039">
        <ele>26.200000762939</ele>
        <time>2021-03-11T09:50:03.000Z</time>
      </trkpt>
      <trkpt lat="47.34259" lon="-2.37048">
        <ele>26.200000762939</ele>
        <time>2021-03-11T09:50:06.000Z</time>
      </trkpt>
      <trkpt lat="47.34248" lon="-2.37058">
        <ele>26.200000762939</ele>
        <time>2021-03-11T09:50:09.000Z</time>
      </trkpt>
      <trkpt lat="47.3424" lon="-2.37063">
        <ele>26.200000762939</ele>
        <time>2021-03-11T09:50:11.000Z</time>
      </trkpt>
      <trkpt lat="47.34232" lon="-2.3706">
        <ele>26.200000762939</ele>
        <time>2021-03-11T09:50:13.000Z</time>
      </trkpt>
      <trkpt lat="47.34222" lon="-2.37042">
        <ele>26.200000762939</ele>
        <time>2021-03-11T09:50:16.000Z</time>
      </trkpt>
      <trkpt lat="47.34197" lon="-2.37">
        <ele>26.200000762939</ele>
        <time>2021-03-11T09:50:22.000Z</time>
      </trkpt>
      <trkpt lat="47.34166" lon="-2.36958">
        <ele>25.60000038147</ele>
        <time>2021-03-11T09:50:28.000Z</time>
      </trkpt>
      <trkpt lat="47.34162" lon="-2.3695">
        <ele>25.200000762939</ele>
        <time>2021-03-11T09:50:29.000Z</time>
      </trkpt>
      <trkpt lat="47.34157" lon="-2.36942">
        <ele>24.799999237061</ele>
        <time>2021-03-11T09:50:30.000Z</time>
      </trkpt>
      <trkpt lat="47.34153" lon="-2.36934">
        <ele>24.200000762939</ele>
        <time>2021-03-11T09:50:31.000Z</time>
      </trkpt>
      <trkpt lat="47.34148" lon="-2.36926">
        <ele>23.799999237061</ele>
        <time>2021-03-11T09:50:32.000Z</time>
      </trkpt>
      <trkpt lat="47.34143" lon="-2.36917">
        <ele>23.799999237061</ele>
        <time>2021-03-11T09:50:33.000Z</time>
      </trkpt>
      <trkpt lat="47.34135" lon="-2.369">
        <ele>23.39999961853</ele>
        <time>2021-03-11T09:50:35.000Z</time>
      </trkpt>
      <trkpt lat="47.34131" lon="-2.36891">
        <ele>23</ele>
        <time>2021-03-11T09:50:36.000Z</time>
      </trkpt>
      <trkpt lat="47.34127" lon="-2.36883">
        <ele>22.60000038147</ele>
        <time>2021-03-11T09:50:37.000Z</time>
      </trkpt>
      <trkpt lat="47.34123" lon="-2.36876">
        <ele>22.200000762939</ele>
        <time>2021-03-11T09:50:38.000Z</time>
      </trkpt>
      <trkpt lat="47.34119" lon="-2.36868">
        <ele>21.799999237061</ele>
        <time>2021-03-11T09:50:39.000Z</time>
      </trkpt>
      <trkpt lat="47.34112" lon="-2.3685">
        <ele>21.799999237061</ele>
        <time>2021-03-11T09:50:41.000Z</time>
      </trkpt>
      <trkpt lat="47.34106" lon="-2.36823">
        <ele>21.799999237061</ele>
        <time>2021-03-11T09:50:44.000Z</time>
      </trkpt>
      <trkpt lat="47.34104" lon="-2.36814">
        <ele>21.799999237061</ele>
        <time>2021-03-11T09:50:45.000Z</time>
      </trkpt>
      <trkpt lat="47.34096" lon="-2.36772">
        <ele>21.799999237061</ele>
        <time>2021-03-11T09:50:50.000Z</time>
      </trkpt>
      <trkpt lat="47.34089" lon="-2.36736">
        <ele>21.799999237061</ele>
        <time>2021-03-11T09:50:55.000Z</time>
      </trkpt>
      <trkpt lat="47.34086" lon="-2.36723">
        <ele>21.799999237061</ele>
        <time>2021-03-11T09:50:57.000Z</time>
      </trkpt>
      <trkpt lat="47.3408" lon="-2.36702">
        <ele>21.799999237061</ele>
        <time>2021-03-11T09:51:02.000Z</time>
      </trkpt>
      <trkpt lat="47.34078" lon="-2.36701">
        <ele>21.799999237061</ele>
        <time>2021-03-11T09:51:03.000Z</time>
      </trkpt>
      <trkpt lat="47.34073" lon="-2.36705">
        <ele>21.799999237061</ele>
        <time>2021-03-11T09:51:05.000Z</time>
      </trkpt>
      <trkpt lat="47.34066" lon="-2.3671">
        <ele>21.799999237061</ele>
        <time>2021-03-11T09:51:07.000Z</time>
      </trkpt>
      <trkpt lat="47.34058" lon="-2.36715">
        <ele>21.799999237061</ele>
        <time>2021-03-11T09:51:09.000Z</time>
      </trkpt>
      <trkpt lat="47.34053" lon="-2.36718">
        <ele>21.799999237061</ele>
        <time>2021-03-11T09:51:10.000Z</time>
      </trkpt>
      <trkpt lat="47.34039" lon="-2.36725">
        <ele>22.200000762939</ele>
        <time>2021-03-11T09:51:13.000Z</time>
      </trkpt>
      <trkpt lat="47.34035" lon="-2.36728">
        <ele>22.60000038147</ele>
        <time>2021-03-11T09:51:14.000Z</time>
      </trkpt>
      <trkpt lat="47.34031" lon="-2.36731">
        <ele>23</ele>
        <time>2021-03-11T09:51:15.000Z</time>
      </trkpt>
      <trkpt lat="47.34026" lon="-2.36733">
        <ele>23.39999961853</ele>
        <time>2021-03-11T09:51:16.000Z</time>
      </trkpt>
      <trkpt lat="47.34021" lon="-2.36736">
        <ele>23.799999237061</ele>
        <time>2021-03-11T09:51:17.000Z</time>
      </trkpt>
      <trkpt lat="47.33992" lon="-2.36746">
        <ele>24.200000762939</ele>
        <time>2021-03-11T09:51:23.000Z</time>
      </trkpt>
      <trkpt lat="47.33987" lon="-2.36748">
        <ele>24.799999237061</ele>
        <time>2021-03-11T09:51:24.000Z</time>
      </trkpt>
      <trkpt lat="47.33982" lon="-2.36749">
        <ele>25.200000762939</ele>
        <time>2021-03-11T09:51:25.000Z</time>
      </trkpt>
      <trkpt lat="47.33977" lon="-2.3675">
        <ele>25.60000038147</ele>
        <time>2021-03-11T09:51:26.000Z</time>
      </trkpt>
      <trkpt lat="47.33972" lon="-2.36752">
        <ele>26</ele>
        <time>2021-03-11T09:51:27.000Z</time>
      </trkpt>
      <trkpt lat="47.33958" lon="-2.36756">
        <ele>26.39999961853</ele>
        <time>2021-03-11T09:51:30.000Z</time>
      </trkpt>
      <trkpt lat="47.33953" lon="-2.36757">
        <ele>27</ele>
        <time>2021-03-11T09:51:31.000Z</time>
      </trkpt>
      <trkpt lat="47.33948" lon="-2.36758">
        <ele>27.39999961853</ele>
        <time>2021-03-11T09:51:32.000Z</time>
      </trkpt>
      <trkpt lat="47.33943" lon="-2.36759">
        <ele>27.799999237061</ele>
        <time>2021-03-11T09:51:33.000Z</time>
      </trkpt>
      <trkpt lat="47.33938" lon="-2.3676">
        <ele>28.200000762939</ele>
        <time>2021-03-11T09:51:34.000Z</time>
      </trkpt>
      <trkpt lat="47.33926" lon="-2.36764">
        <ele>28.200000762939</ele>
        <time>2021-03-11T09:51:38.000Z</time>
      </trkpt>
      <trkpt lat="47.33917" lon="-2.36763">
        <ele>28.200000762939</ele>
        <time>2021-03-11T09:51:43.000Z</time>
      </trkpt>
      <trkpt lat="47.33901" lon="-2.36762">
        <ele>28.200000762939</ele>
        <time>2021-03-11T09:51:47.000Z</time>
      </trkpt>
      <trkpt lat="47.33868" lon="-2.3677">
        <ele>28.200000762939</ele>
        <time>2021-03-11T09:51:54.000Z</time>
      </trkpt>
      <trkpt lat="47.33834" lon="-2.36779">
        <ele>28.200000762939</ele>
        <time>2021-03-11T09:52:01.000Z</time>
      </trkpt>
      <trkpt lat="47.33829" lon="-2.36781">
        <ele>28.200000762939</ele>
        <time>2021-03-11T09:52:02.000Z</time>
      </trkpt>
      <trkpt lat="47.33784" lon="-2.36795">
        <ele>28.200000762939</ele>
        <time>2021-03-11T09:52:11.000Z</time>
      </trkpt>
      <trkpt lat="47.33755" lon="-2.36807">
        <ele>28.200000762939</ele>
        <time>2021-03-11T09:52:17.000Z</time>
      </trkpt>
      <trkpt lat="47.33746" lon="-2.3681">
        <ele>28.60000038147</ele>
        <time>2021-03-11T09:52:19.000Z</time>
      </trkpt>
      <trkpt lat="47.33741" lon="-2.36812">
        <ele>29</ele>
        <time>2021-03-11T09:52:20.000Z</time>
      </trkpt>
      <trkpt lat="47.33736" lon="-2.36814">
        <ele>29.39999961853</ele>
        <time>2021-03-11T09:52:21.000Z</time>
      </trkpt>
      <trkpt lat="47.33732" lon="-2.36816">
        <ele>29.799999237061</ele>
        <time>2021-03-11T09:52:22.000Z</time>
      </trkpt>
      <trkpt lat="47.33727" lon="-2.36818">
        <ele>30.200000762939</ele>
        <time>2021-03-11T09:52:23.000Z</time>
      </trkpt>
      <trkpt lat="47.33722" lon="-2.3682">
        <ele>30.200000762939</ele>
        <time>2021-03-11T09:52:24.000Z</time>
      </trkpt>
      <trkpt lat="47.33699" lon="-2.36837">
        <ele>30.200000762939</ele>
        <time>2021-03-11T09:52:29.000Z</time>
      </trkpt>
      <trkpt lat="47.33694" lon="-2.36843">
        <ele>30.200000762939</ele>
        <time>2021-03-11T09:52:30.000Z</time>
      </trkpt>
      <trkpt lat="47.33658" lon="-2.36886">
        <ele>30.200000762939</ele>
        <time>2021-03-11T09:52:37.000Z</time>
      </trkpt>
      <trkpt lat="47.33622" lon="-2.3693">
        <ele>30.200000762939</ele>
        <time>2021-03-11T09:52:44.000Z</time>
      </trkpt>
      <trkpt lat="47.33614" lon="-2.36944">
        <ele>30.200000762939</ele>
        <time>2021-03-11T09:52:46.000Z</time>
      </trkpt>
      <trkpt lat="47.33608" lon="-2.36959">
        <ele>30.200000762939</ele>
        <time>2021-03-11T09:52:48.000Z</time>
      </trkpt>
      <trkpt lat="47.33606" lon="-2.36968">
        <ele>30.200000762939</ele>
        <time>2021-03-11T09:52:49.000Z</time>
      </trkpt>
      <trkpt lat="47.33606" lon="-2.37">
        <ele>30.200000762939</ele>
        <time>2021-03-11T09:52:53.000Z</time>
      </trkpt>
      <trkpt lat="47.33606" lon="-2.37017">
        <ele>30.200000762939</ele>
        <time>2021-03-11T09:52:55.000Z</time>
      </trkpt>
      <trkpt lat="47.33607" lon="-2.37059">
        <ele>30.200000762939</ele>
        <time>2021-03-11T09:53:00.000Z</time>
      </trkpt>
      <trkpt lat="47.33606" lon="-2.37127">
        <ele>30.200000762939</ele>
        <time>2021-03-11T09:53:08.000Z</time>
      </trkpt>
      <trkpt lat="47.33605" lon="-2.37143">
        <ele>30.200000762939</ele>
        <time>2021-03-11T09:53:10.000Z</time>
      </trkpt>
      <trkpt lat="47.33603" lon="-2.37165">
        <ele>30.200000762939</ele>
        <time>2021-03-11T09:53:13.000Z</time>
      </trkpt>
      <trkpt lat="47.33602" lon="-2.37171">
        <ele>30.200000762939</ele>
        <time>2021-03-11T09:53:14.000Z</time>
      </trkpt>
      <trkpt lat="47.33594" lon="-2.37191">
        <ele>30.200000762939</ele>
        <time>2021-03-11T09:53:18.000Z</time>
      </trkpt>
      <trkpt lat="47.33592" lon="-2.37193">
        <ele>29.799999237061</ele>
        <time>2021-03-11T09:53:19.000Z</time>
      </trkpt>
      <trkpt lat="47.33591" lon="-2.37193">
        <ele>29.39999961853</ele>
        <time>2021-03-11T09:53:20.000Z</time>
      </trkpt>
      <trkpt lat="47.33589" lon="-2.37194">
        <ele>29</ele>
        <time>2021-03-11T09:53:21.000Z</time>
      </trkpt>
      <trkpt lat="47.33588" lon="-2.37194">
        <ele>28.60000038147</ele>
        <time>2021-03-11T09:53:22.000Z</time>
      </trkpt>
      <trkpt lat="47.33586" lon="-2.37195">
        <ele>28.200000762939</ele>
        <time>2021-03-11T09:53:23.000Z</time>
      </trkpt>
      <trkpt lat="47.33578" lon="-2.37199">
        <ele>28.200000762939</ele>
        <time>2021-03-11T09:53:29.000Z</time>
      </trkpt>
      <trkpt lat="47.33571" lon="-2.37201">
        <ele>28.200000762939</ele>
        <time>2021-03-11T09:53:34.000Z</time>
      </trkpt>
      <trkpt lat="47.33569" lon="-2.37201">
        <ele>28.200000762939</ele>
        <time>2021-03-11T09:53:36.000Z</time>
      </trkpt>
      <trkpt lat="47.33567" lon="-2.372">
        <ele>28.200000762939</ele>
        <time>2021-03-11T09:53:39.000Z</time>
      </trkpt>
      <trkpt lat="47.33555" lon="-2.37208">
        <ele>28.200000762939</ele>
        <time>2021-03-11T10:04:50.000Z</time>
      </trkpt>
      <trkpt lat="47.33554" lon="-2.3721">
        <ele>28.200000762939</ele>
        <time>2021-03-11T10:04:51.000Z</time>
      </trkpt>
      <trkpt lat="47.33547" lon="-2.3722">
        <ele>28.200000762939</ele>
        <time>2021-03-11T10:04:56.000Z</time>
      </trkpt>
      <trkpt lat="47.33538" lon="-2.37229">
        <ele>28.200000762939</ele>
        <time>2021-03-11T10:05:00.000Z</time>
      </trkpt>
      <trkpt lat="47.3353" lon="-2.3723">
        <ele>27.799999237061</ele>
        <time>2021-03-11T10:05:02.000Z</time>
      </trkpt>
      <trkpt lat="47.33526" lon="-2.3723">
        <ele>27.39999961853</ele>
        <time>2021-03-11T10:05:03.000Z</time>
      </trkpt>
      <trkpt lat="47.33523" lon="-2.3723">
        <ele>27</ele>
        <time>2021-03-11T10:05:04.000Z</time>
      </trkpt>
      <trkpt lat="47.33519" lon="-2.3723">
        <ele>26.60000038147</ele>
        <time>2021-03-11T10:05:05.000Z</time>
      </trkpt>
      <trkpt lat="47.33516" lon="-2.3723">
        <ele>26.200000762939</ele>
        <time>2021-03-11T10:05:06.000Z</time>
      </trkpt>
      <trkpt lat="47.33509" lon="-2.37231">
        <ele>26.200000762939</ele>
        <time>2021-03-11T10:05:08.000Z</time>
      </trkpt>
      <trkpt lat="47.33507" lon="-2.37233">
        <ele>26.200000762939</ele>
        <time>2021-03-11T10:05:09.000Z</time>
      </trkpt>
      <trkpt lat="47.33506" lon="-2.3724">
        <ele>26.200000762939</ele>
        <time>2021-03-11T10:05:11.000Z</time>
      </trkpt>
      <trkpt lat="47.33511" lon="-2.37252">
        <ele>26.200000762939</ele>
        <time>2021-03-11T10:05:15.000Z</time>
      </trkpt>
      <trkpt lat="47.33516" lon="-2.37271">
        <ele>26.200000762939</ele>
        <time>2021-03-11T10:05:20.000Z</time>
      </trkpt>
      <trkpt lat="47.33517" lon="-2.37276">
        <ele>26.200000762939</ele>
        <time>2021-03-11T10:05:21.000Z</time>
      </trkpt>
      <trkpt lat="47.33523" lon="-2.37312">
        <ele>26.200000762939</ele>
        <time>2021-03-11T10:05:28.000Z</time>
      </trkpt>
      <trkpt lat="47.33526" lon="-2.37321">
        <ele>26.60000038147</ele>
        <time>2021-03-11T10:05:30.000Z</time>
      </trkpt>
      <trkpt lat="47.33527" lon="-2.37326">
        <ele>27</ele>
        <time>2021-03-11T10:05:31.000Z</time>
      </trkpt>
      <trkpt lat="47.33529" lon="-2.37331">
        <ele>27.39999961853</ele>
        <time>2021-03-11T10:05:32.000Z</time>
      </trkpt>
      <trkpt lat="47.3353" lon="-2.37335">
        <ele>28</ele>
        <time>2021-03-11T10:05:33.000Z</time>
      </trkpt>
      <trkpt lat="47.33532" lon="-2.3734">
        <ele>28.39999961853</ele>
        <time>2021-03-11T10:05:34.000Z</time>
      </trkpt>
      <trkpt lat="47.33534" lon="-2.37348">
        <ele>28.39999961853</ele>
        <time>2021-03-11T10:05:36.000Z</time>
      </trkpt>
      <trkpt lat="47.3354" lon="-2.37376">
        <ele>28.799999237061</ele>
        <time>2021-03-11T10:05:42.000Z</time>
      </trkpt>
      <trkpt lat="47.3354" lon="-2.37381">
        <ele>29.200000762939</ele>
        <time>2021-03-11T10:05:43.000Z</time>
      </trkpt>
      <trkpt lat="47.3354" lon="-2.37387">
        <ele>29.60000038147</ele>
        <time>2021-03-11T10:05:44.000Z</time>
      </trkpt>
      <trkpt lat="47.33541" lon="-2.37392">
        <ele>30</ele>
        <time>2021-03-11T10:05:45.000Z</time>
      </trkpt>
      <trkpt lat="47.33541" lon="-2.37397">
        <ele>30.39999961853</ele>
        <time>2021-03-11T10:05:46.000Z</time>
      </trkpt>
      <trkpt lat="47.33539" lon="-2.37412">
        <ele>30.39999961853</ele>
        <time>2021-03-11T10:05:49.000Z</time>
      </trkpt>
      <trkpt lat="47.33538" lon="-2.37442">
        <ele>30.39999961853</ele>
        <time>2021-03-11T10:05:55.000Z</time>
      </trkpt>
      <trkpt lat="47.33531" lon="-2.37473">
        <ele>30.39999961853</ele>
        <time>2021-03-11T10:06:01.000Z</time>
      </trkpt>
      <trkpt lat="47.33527" lon="-2.37481">
        <ele>31</ele>
        <time>2021-03-11T10:06:03.000Z</time>
      </trkpt>
      <trkpt lat="47.33525" lon="-2.37485">
        <ele>31.39999961853</ele>
        <time>2021-03-11T10:06:04.000Z</time>
      </trkpt>
      <trkpt lat="47.33524" lon="-2.3749">
        <ele>31.799999237061</ele>
        <time>2021-03-11T10:06:05.000Z</time>
      </trkpt>
      <trkpt lat="47.33522" lon="-2.37494">
        <ele>32.200000762939</ele>
        <time>2021-03-11T10:06:06.000Z</time>
      </trkpt>
      <trkpt lat="47.3352" lon="-2.37498">
        <ele>32.599998474121</ele>
        <time>2021-03-11T10:06:07.000Z</time>
      </trkpt>
      <trkpt lat="47.33518" lon="-2.37502">
        <ele>32.599998474121</ele>
        <time>2021-03-11T10:06:08.000Z</time>
      </trkpt>
      <trkpt lat="47.33504" lon="-2.37527">
        <ele>32.599998474121</ele>
        <time>2021-03-11T10:06:15.000Z</time>
      </trkpt>
      <trkpt lat="47.33498" lon="-2.37535">
        <ele>33</ele>
        <time>2021-03-11T10:06:18.000Z</time>
      </trkpt>
      <trkpt lat="47.33496" lon="-2.37538">
        <ele>33.599998474121</ele>
        <time>2021-03-11T10:06:19.000Z</time>
      </trkpt>
      <trkpt lat="47.33494" lon="-2.37541">
        <ele>34</ele>
        <time>2021-03-11T10:06:20.000Z</time>
      </trkpt>
      <trkpt lat="47.33492" lon="-2.37544">
        <ele>34.599998474121</ele>
        <time>2021-03-11T10:06:21.000Z</time>
      </trkpt>
      <trkpt lat="47.3349" lon="-2.37548">
        <ele>35.200000762939</ele>
        <time>2021-03-11T10:06:22.000Z</time>
      </trkpt>
      <trkpt lat="47.33487" lon="-2.37551">
        <ele>35.799999237061</ele>
        <time>2021-03-11T10:06:23.000Z</time>
      </trkpt>
      <trkpt lat="47.33485" lon="-2.37555">
        <ele>36.400001525879</ele>
        <time>2021-03-11T10:06:24.000Z</time>
      </trkpt>
      <trkpt lat="47.33482" lon="-2.37559">
        <ele>37</ele>
        <time>2021-03-11T10:06:25.000Z</time>
      </trkpt>
      <trkpt lat="47.33479" lon="-2.37563">
        <ele>37</ele>
        <time>2021-03-11T10:06:26.000Z</time>
      </trkpt>
      <trkpt lat="47.3346" lon="-2.37587">
        <ele>37</ele>
        <time>2021-03-11T10:06:33.000Z</time>
      </trkpt>
      <trkpt lat="47.3344" lon="-2.37604">
        <ele>37</ele>
        <time>2021-03-11T10:06:39.000Z</time>
      </trkpt>
      <trkpt lat="47.3342" lon="-2.37621">
        <ele>36.599998474121</ele>
        <time>2021-03-11T10:06:45.000Z</time>
      </trkpt>
      <trkpt lat="47.33417" lon="-2.37624">
        <ele>36</ele>
        <time>2021-03-11T10:06:46.000Z</time>
      </trkpt>
      <trkpt lat="47.33414" lon="-2.37628">
        <ele>35.599998474121</ele>
        <time>2021-03-11T10:06:47.000Z</time>
      </trkpt>
      <trkpt lat="47.3341" lon="-2.37631">
        <ele>35.200000762939</ele>
        <time>2021-03-11T10:06:48.000Z</time>
      </trkpt>
      <trkpt lat="47.33407" lon="-2.37634">
        <ele>34.799999237061</ele>
        <time>2021-03-11T10:06:49.000Z</time>
      </trkpt>
      <trkpt lat="47.33403" lon="-2.37639">
        <ele>34.799999237061</ele>
        <time>2021-03-11T10:06:50.000Z</time>
      </trkpt>
      <trkpt lat="47.33397" lon="-2.37649">
        <ele>34.799999237061</ele>
        <time>2021-03-11T10:06:52.000Z</time>
      </trkpt>
      <trkpt lat="47.33394" lon="-2.37654">
        <ele>34.799999237061</ele>
        <time>2021-03-11T10:06:53.000Z</time>
      </trkpt>
      <trkpt lat="47.33389" lon="-2.37685">
        <ele>34.799999237061</ele>
        <time>2021-03-11T10:06:58.000Z</time>
      </trkpt>
      <trkpt lat="47.33389" lon="-2.37704">
        <ele>35.200000762939</ele>
        <time>2021-03-11T10:07:01.000Z</time>
      </trkpt>
      <trkpt lat="47.33388" lon="-2.3771">
        <ele>35.599998474121</ele>
        <time>2021-03-11T10:07:02.000Z</time>
      </trkpt>
      <trkpt lat="47.33388" lon="-2.37716">
        <ele>36.200000762939</ele>
        <time>2021-03-11T10:07:03.000Z</time>
      </trkpt>
      <trkpt lat="47.33388" lon="-2.37723">
        <ele>36.599998474121</ele>
        <time>2021-03-11T10:07:04.000Z</time>
      </trkpt>
      <trkpt lat="47.33388" lon="-2.37729">
        <ele>37</ele>
        <time>2021-03-11T10:07:05.000Z</time>
      </trkpt>
      <trkpt lat="47.33388" lon="-2.37741">
        <ele>37</ele>
        <time>2021-03-11T10:07:07.000Z</time>
      </trkpt>
      <trkpt lat="47.33386" lon="-2.37796">
        <ele>37</ele>
        <time>2021-03-11T10:07:15.000Z</time>
      </trkpt>
      <trkpt lat="47.33376" lon="-2.37829">
        <ele>37</ele>
        <time>2021-03-11T10:07:20.000Z</time>
      </trkpt>
      <trkpt lat="47.33364" lon="-2.37853">
        <ele>37</ele>
        <time>2021-03-11T10:07:24.000Z</time>
      </trkpt>
      <trkpt lat="47.3336" lon="-2.37856">
        <ele>37</ele>
        <time>2021-03-11T10:07:25.000Z</time>
      </trkpt>
      <trkpt lat="47.33356" lon="-2.37856">
        <ele>36.599998474121</ele>
        <time>2021-03-11T10:07:26.000Z</time>
      </trkpt>
      <trkpt lat="47.33351" lon="-2.37855">
        <ele>36.200000762939</ele>
        <time>2021-03-11T10:07:27.000Z</time>
      </trkpt>
      <trkpt lat="47.33347" lon="-2.37855">
        <ele>35.799999237061</ele>
        <time>2021-03-11T10:07:28.000Z</time>
      </trkpt>
      <trkpt lat="47.33342" lon="-2.37854">
        <ele>35.400001525879</ele>
        <time>2021-03-11T10:07:29.000Z</time>
      </trkpt>
      <trkpt lat="47.33337" lon="-2.37855">
        <ele>35</ele>
        <time>2021-03-11T10:07:30.000Z</time>
      </trkpt>
      <trkpt lat="47.33328" lon="-2.37858">
        <ele>35</ele>
        <time>2021-03-11T10:07:32.000Z</time>
      </trkpt>
      <trkpt lat="47.33323" lon="-2.3786">
        <ele>35</ele>
        <time>2021-03-11T10:07:33.000Z</time>
      </trkpt>
      <trkpt lat="47.33297" lon="-2.37871">
        <ele>34.400001525879</ele>
        <time>2021-03-11T10:07:38.000Z</time>
      </trkpt>
      <trkpt lat="47.33291" lon="-2.37872">
        <ele>34</ele>
        <time>2021-03-11T10:07:39.000Z</time>
      </trkpt>
      <trkpt lat="47.33284" lon="-2.37874">
        <ele>33.599998474121</ele>
        <time>2021-03-11T10:07:40.000Z</time>
      </trkpt>
      <trkpt lat="47.33277" lon="-2.37876">
        <ele>33</ele>
        <time>2021-03-11T10:07:41.000Z</time>
      </trkpt>
      <trkpt lat="47.33271" lon="-2.37878">
        <ele>32.599998474121</ele>
        <time>2021-03-11T10:07:42.000Z</time>
      </trkpt>
      <trkpt lat="47.3326" lon="-2.37881">
        <ele>32.599998474121</ele>
        <time>2021-03-11T10:07:44.000Z</time>
      </trkpt>
      <trkpt lat="47.33254" lon="-2.3788">
        <ele>32.200000762939</ele>
        <time>2021-03-11T10:07:45.000Z</time>
      </trkpt>
      <trkpt lat="47.33247" lon="-2.37877">
        <ele>31.60000038147</ele>
        <time>2021-03-11T10:07:46.000Z</time>
      </trkpt>
      <trkpt lat="47.3324" lon="-2.37873">
        <ele>31.200000762939</ele>
        <time>2021-03-11T10:07:47.000Z</time>
      </trkpt>
      <trkpt lat="47.33234" lon="-2.37868">
        <ele>30.60000038147</ele>
        <time>2021-03-11T10:07:48.000Z</time>
      </trkpt>
      <trkpt lat="47.33228" lon="-2.37862">
        <ele>29.799999237061</ele>
        <time>2021-03-11T10:07:49.000Z</time>
      </trkpt>
      <trkpt lat="47.33223" lon="-2.37856">
        <ele>28.39999961853</ele>
        <time>2021-03-11T10:07:50.000Z</time>
      </trkpt>
      <trkpt lat="47.33218" lon="-2.3785">
        <ele>27.799999237061</ele>
        <time>2021-03-11T10:07:51.000Z</time>
      </trkpt>
      <trkpt lat="47.33208" lon="-2.37836">
        <ele>27.799999237061</ele>
        <time>2021-03-11T10:07:53.000Z</time>
      </trkpt>
      <trkpt lat="47.33177" lon="-2.37781">
        <ele>27.200000762939</ele>
        <time>2021-03-11T10:08:00.000Z</time>
      </trkpt>
      <trkpt lat="47.33173" lon="-2.37772">
        <ele>26.799999237061</ele>
        <time>2021-03-11T10:08:01.000Z</time>
      </trkpt>
      <trkpt lat="47.33169" lon="-2.37763">
        <ele>26.200000762939</ele>
        <time>2021-03-11T10:08:02.000Z</time>
      </trkpt>
      <trkpt lat="47.33164" lon="-2.37754">
        <ele>25.799999237061</ele>
        <time>2021-03-11T10:08:03.000Z</time>
      </trkpt>
      <trkpt lat="47.3316" lon="-2.37746">
        <ele>25.200000762939</ele>
        <time>2021-03-11T10:08:04.000Z</time>
      </trkpt>
      <trkpt lat="47.33155" lon="-2.3774">
        <ele>25.200000762939</ele>
        <time>2021-03-11T10:08:05.000Z</time>
      </trkpt>
      <trkpt lat="47.33138" lon="-2.37738">
        <ele>25.200000762939</ele>
        <time>2021-03-11T10:08:08.000Z</time>
      </trkpt>
      <trkpt lat="47.33122" lon="-2.37753">
        <ele>25.200000762939</ele>
        <time>2021-03-11T10:08:12.000Z</time>
      </trkpt>
      <trkpt lat="47.33115" lon="-2.3776">
        <ele>25.200000762939</ele>
        <time>2021-03-11T10:08:14.000Z</time>
      </trkpt>
      <trkpt lat="47.3311" lon="-2.37768">
        <ele>25.200000762939</ele>
        <time>2021-03-11T10:08:16.000Z</time>
      </trkpt>
      <trkpt lat="47.33103" lon="-2.37776">
        <ele>25.200000762939</ele>
        <time>2021-03-11T10:08:18.000Z</time>
      </trkpt>
      <trkpt lat="47.33084" lon="-2.37796">
        <ele>25.200000762939</ele>
        <time>2021-03-11T10:08:24.000Z</time>
      </trkpt>
      <trkpt lat="47.33056" lon="-2.37824">
        <ele>25.200000762939</ele>
        <time>2021-03-11T10:08:32.000Z</time>
      </trkpt>
      <trkpt lat="47.33032" lon="-2.37852">
        <ele>25.200000762939</ele>
        <time>2021-03-11T10:08:40.000Z</time>
      </trkpt>
      <trkpt lat="47.33021" lon="-2.37877">
        <ele>25.200000762939</ele>
        <time>2021-03-11T10:08:45.000Z</time>
      </trkpt>
      <trkpt lat="47.33018" lon="-2.37881">
        <ele>25.60000038147</ele>
        <time>2021-03-11T10:08:46.000Z</time>
      </trkpt>
      <trkpt lat="47.33015" lon="-2.37886">
        <ele>26</ele>
        <time>2021-03-11T10:08:47.000Z</time>
      </trkpt>
      <trkpt lat="47.33012" lon="-2.37892">
        <ele>26.39999961853</ele>
        <time>2021-03-11T10:08:48.000Z</time>
      </trkpt>
      <trkpt lat="47.33008" lon="-2.37898">
        <ele>26.799999237061</ele>
        <time>2021-03-11T10:08:49.000Z</time>
      </trkpt>
      <trkpt lat="47.33005" lon="-2.37903">
        <ele>27.200000762939</ele>
        <time>2021-03-11T10:08:50.000Z</time>
      </trkpt>
      <trkpt lat="47.32992" lon="-2.37924">
        <ele>27.200000762939</ele>
        <time>2021-03-11T10:08:54.000Z</time>
      </trkpt>
      <trkpt lat="47.32984" lon="-2.37935">
        <ele>27.200000762939</ele>
        <time>2021-03-11T10:08:56.000Z</time>
      </trkpt>
      <trkpt lat="47.32974" lon="-2.3795">
        <ele>27.200000762939</ele>
        <time>2021-03-11T10:08:59.000Z</time>
      </trkpt>
      <trkpt lat="47.32961" lon="-2.3797">
        <ele>27.200000762939</ele>
        <time>2021-03-11T10:09:03.000Z</time>
      </trkpt>
      <trkpt lat="47.32957" lon="-2.37974">
        <ele>27.200000762939</ele>
        <time>2021-03-11T10:09:04.000Z</time>
      </trkpt>
      <trkpt lat="47.32946" lon="-2.37989">
        <ele>27.200000762939</ele>
        <time>2021-03-11T10:09:07.000Z</time>
      </trkpt>
      <trkpt lat="47.32943" lon="-2.37995">
        <ele>27.200000762939</ele>
        <time>2021-03-11T10:09:08.000Z</time>
      </trkpt>
      <trkpt lat="47.32936" lon="-2.38006">
        <ele>27.799999237061</ele>
        <time>2021-03-11T10:09:10.000Z</time>
      </trkpt>
      <trkpt lat="47.32932" lon="-2.38011">
        <ele>28.39999961853</ele>
        <time>2021-03-11T10:09:11.000Z</time>
      </trkpt>
      <trkpt lat="47.32928" lon="-2.38017">
        <ele>29</ele>
        <time>2021-03-11T10:09:12.000Z</time>
      </trkpt>
      <trkpt lat="47.32924" lon="-2.38022">
        <ele>29.60000038147</ele>
        <time>2021-03-11T10:09:13.000Z</time>
      </trkpt>
      <trkpt lat="47.3292" lon="-2.38028">
        <ele>30.200000762939</ele>
        <time>2021-03-11T10:09:14.000Z</time>
      </trkpt>
      <trkpt lat="47.32917" lon="-2.38034">
        <ele>30.200000762939</ele>
        <time>2021-03-11T10:09:15.000Z</time>
      </trkpt>
      <trkpt lat="47.3291" lon="-2.38045">
        <ele>30.60000038147</ele>
        <time>2021-03-11T10:09:17.000Z</time>
      </trkpt>
      <trkpt lat="47.32907" lon="-2.3805">
        <ele>31</ele>
        <time>2021-03-11T10:09:18.000Z</time>
      </trkpt>
      <trkpt lat="47.32904" lon="-2.38056">
        <ele>31.60000038147</ele>
        <time>2021-03-11T10:09:19.000Z</time>
      </trkpt>
      <trkpt lat="47.32901" lon="-2.38061">
        <ele>32</ele>
        <time>2021-03-11T10:09:20.000Z</time>
      </trkpt>
      <trkpt lat="47.32898" lon="-2.38066">
        <ele>32.400001525879</ele>
        <time>2021-03-11T10:09:21.000Z</time>
      </trkpt>
      <trkpt lat="47.32888" lon="-2.38082">
        <ele>32</ele>
        <time>2021-03-11T10:09:24.000Z</time>
      </trkpt>
      <trkpt lat="47.32885" lon="-2.38087">
        <ele>31.60000038147</ele>
        <time>2021-03-11T10:09:25.000Z</time>
      </trkpt>
      <trkpt lat="47.32882" lon="-2.38092">
        <ele>31.200000762939</ele>
        <time>2021-03-11T10:09:26.000Z</time>
      </trkpt>
      <trkpt lat="47.32879" lon="-2.38097">
        <ele>30.799999237061</ele>
        <time>2021-03-11T10:09:27.000Z</time>
      </trkpt>
      <trkpt lat="47.32876" lon="-2.38102">
        <ele>30.39999961853</ele>
        <time>2021-03-11T10:09:28.000Z</time>
      </trkpt>
      <trkpt lat="47.32861" lon="-2.38127">
        <ele>30.39999961853</ele>
        <time>2021-03-11T10:09:33.000Z</time>
      </trkpt>
      <trkpt lat="47.32844" lon="-2.38158">
        <ele>30.39999961853</ele>
        <time>2021-03-11T10:09:39.000Z</time>
      </trkpt>
      <trkpt lat="47.32836" lon="-2.38174">
        <ele>30.39999961853</ele>
        <time>2021-03-11T10:09:42.000Z</time>
      </trkpt>
      <trkpt lat="47.32828" lon="-2.38196">
        <ele>30.39999961853</ele>
        <time>2021-03-11T10:09:46.000Z</time>
      </trkpt>
      <trkpt lat="47.32826" lon="-2.38201">
        <ele>30.799999237061</ele>
        <time>2021-03-11T10:09:47.000Z</time>
      </trkpt>
      <trkpt lat="47.32824" lon="-2.38207">
        <ele>31.200000762939</ele>
        <time>2021-03-11T10:09:48.000Z</time>
      </trkpt>
      <trkpt lat="47.32822" lon="-2.38212">
        <ele>31.60000038147</ele>
        <time>2021-03-11T10:09:49.000Z</time>
      </trkpt>
      <trkpt lat="47.3282" lon="-2.38217">
        <ele>32</ele>
        <time>2021-03-11T10:09:50.000Z</time>
      </trkpt>
      <trkpt lat="47.32819" lon="-2.38222">
        <ele>32.400001525879</ele>
        <time>2021-03-11T10:09:51.000Z</time>
      </trkpt>
      <trkpt lat="47.32817" lon="-2.38227">
        <ele>32.400001525879</ele>
        <time>2021-03-11T10:09:52.000Z</time>
      </trkpt>
      <trkpt lat="47.32807" lon="-2.38262">
        <ele>32.400001525879</ele>
        <time>2021-03-11T10:09:59.000Z</time>
      </trkpt>
      <trkpt lat="47.32804" lon="-2.38276">
        <ele>32.799999237061</ele>
        <time>2021-03-11T10:10:02.000Z</time>
      </trkpt>
      <trkpt lat="47.32802" lon="-2.38282">
        <ele>33.200000762939</ele>
        <time>2021-03-11T10:10:03.000Z</time>
      </trkpt>
      <trkpt lat="47.32801" lon="-2.38287">
        <ele>33.599998474121</ele>
        <time>2021-03-11T10:10:04.000Z</time>
      </trkpt>
      <trkpt lat="47.328" lon="-2.38291">
        <ele>34</ele>
        <time>2021-03-11T10:10:05.000Z</time>
      </trkpt>
      <trkpt lat="47.32799" lon="-2.38295">
        <ele>34.400001525879</ele>
        <time>2021-03-11T10:10:06.000Z</time>
      </trkpt>
      <trkpt lat="47.32794" lon="-2.38317">
        <ele>35</ele>
        <time>2021-03-11T10:10:11.000Z</time>
      </trkpt>
      <trkpt lat="47.32793" lon="-2.38322">
        <ele>35.400001525879</ele>
        <time>2021-03-11T10:10:12.000Z</time>
      </trkpt>
      <trkpt lat="47.32792" lon="-2.38326">
        <ele>35.799999237061</ele>
        <time>2021-03-11T10:10:13.000Z</time>
      </trkpt>
      <trkpt lat="47.32791" lon="-2.3833">
        <ele>36.200000762939</ele>
        <time>2021-03-11T10:10:14.000Z</time>
      </trkpt>
      <trkpt lat="47.3279" lon="-2.38335">
        <ele>36.599998474121</ele>
        <time>2021-03-11T10:10:15.000Z</time>
      </trkpt>
      <trkpt lat="47.32788" lon="-2.38349">
        <ele>36.599998474121</ele>
        <time>2021-03-11T10:10:18.000Z</time>
      </trkpt>
      <trkpt lat="47.32787" lon="-2.38354">
        <ele>37</ele>
        <time>2021-03-11T10:10:19.000Z</time>
      </trkpt>
      <trkpt lat="47.32786" lon="-2.38358">
        <ele>37.400001525879</ele>
        <time>2021-03-11T10:10:20.000Z</time>
      </trkpt>
      <trkpt lat="47.32785" lon="-2.38363">
        <ele>38</ele>
        <time>2021-03-11T10:10:21.000Z</time>
      </trkpt>
      <trkpt lat="47.32784" lon="-2.38367">
        <ele>38.400001525879</ele>
        <time>2021-03-11T10:10:22.000Z</time>
      </trkpt>
      <trkpt lat="47.32784" lon="-2.38371">
        <ele>38.799999237061</ele>
        <time>2021-03-11T10:10:23.000Z</time>
      </trkpt>
      <trkpt lat="47.32783" lon="-2.38376">
        <ele>38.799999237061</ele>
        <time>2021-03-11T10:10:24.000Z</time>
      </trkpt>
      <trkpt lat="47.32775" lon="-2.38392">
        <ele>38.799999237061</ele>
        <time>2021-03-11T10:10:29.000Z</time>
      </trkpt>
      <trkpt lat="47.32762" lon="-2.38396">
        <ele>39.200000762939</ele>
        <time>2021-03-11T10:10:33.000Z</time>
      </trkpt>
      <trkpt lat="47.32758" lon="-2.38396">
        <ele>39.599998474121</ele>
        <time>2021-03-11T10:10:34.000Z</time>
      </trkpt>
      <trkpt lat="47.32754" lon="-2.38397">
        <ele>40</ele>
        <time>2021-03-11T10:10:35.000Z</time>
      </trkpt>
      <trkpt lat="47.3275" lon="-2.38398">
        <ele>40.400001525879</ele>
        <time>2021-03-11T10:10:36.000Z</time>
      </trkpt>
      <trkpt lat="47.32745" lon="-2.38399">
        <ele>40.799999237061</ele>
        <time>2021-03-11T10:10:37.000Z</time>
      </trkpt>
      <trkpt lat="47.3273" lon="-2.38401">
        <ele>40.799999237061</ele>
        <time>2021-03-11T10:10:40.000Z</time>
      </trkpt>
      <trkpt lat="47.3271" lon="-2.38406">
        <ele>40.799999237061</ele>
        <time>2021-03-11T10:10:44.000Z</time>
      </trkpt>
      <trkpt lat="47.327" lon="-2.38404">
        <ele>40.799999237061</ele>
        <time>2021-03-11T10:10:46.000Z</time>
      </trkpt>
      <trkpt lat="47.3268" lon="-2.38389">
        <ele>40.400001525879</ele>
        <time>2021-03-11T10:10:50.000Z</time>
      </trkpt>
      <trkpt lat="47.32675" lon="-2.38382">
        <ele>39.799999237061</ele>
        <time>2021-03-11T10:10:51.000Z</time>
      </trkpt>
      <trkpt lat="47.3267" lon="-2.38376">
        <ele>39</ele>
        <time>2021-03-11T10:10:52.000Z</time>
      </trkpt>
      <trkpt lat="47.32665" lon="-2.38369">
        <ele>38.200000762939</ele>
        <time>2021-03-11T10:10:53.000Z</time>
      </trkpt>
      <trkpt lat="47.3266" lon="-2.38361">
        <ele>37.599998474121</ele>
        <time>2021-03-11T10:10:54.000Z</time>
      </trkpt>
      <trkpt lat="47.32654" lon="-2.38354">
        <ele>36.799999237061</ele>
        <time>2021-03-11T10:10:55.000Z</time>
      </trkpt>
      <trkpt lat="47.32649" lon="-2.38346">
        <ele>36.200000762939</ele>
        <time>2021-03-11T10:10:56.000Z</time>
      </trkpt>
      <trkpt lat="47.32643" lon="-2.38338">
        <ele>35.599998474121</ele>
        <time>2021-03-11T10:10:57.000Z</time>
      </trkpt>
      <trkpt lat="47.32637" lon="-2.3833">
        <ele>35</ele>
        <time>2021-03-11T10:10:58.000Z</time>
      </trkpt>
      <trkpt lat="47.32631" lon="-2.38322">
        <ele>34.400001525879</ele>
        <time>2021-03-11T10:10:59.000Z</time>
      </trkpt>
      <trkpt lat="47.32625" lon="-2.38313">
        <ele>33.799999237061</ele>
        <time>2021-03-11T10:11:00.000Z</time>
      </trkpt>
      <trkpt lat="47.32618" lon="-2.38305">
        <ele>33.799999237061</ele>
        <time>2021-03-11T10:11:01.000Z</time>
      </trkpt>
      <trkpt lat="47.32594" lon="-2.38295">
        <ele>33.799999237061</ele>
        <time>2021-03-11T10:11:04.000Z</time>
      </trkpt>
      <trkpt lat="47.32572" lon="-2.38302">
        <ele>33.799999237061</ele>
        <time>2021-03-11T10:11:07.000Z</time>
      </trkpt>
      <trkpt lat="47.32558" lon="-2.38308">
        <ele>33.400001525879</ele>
        <time>2021-03-11T10:11:09.000Z</time>
      </trkpt>
      <trkpt lat="47.32553" lon="-2.3831">
        <ele>32.799999237061</ele>
        <time>2021-03-11T10:11:10.000Z</time>
      </trkpt>
      <trkpt lat="47.32547" lon="-2.38312">
        <ele>32.400001525879</ele>
        <time>2021-03-11T10:11:11.000Z</time>
      </trkpt>
      <trkpt lat="47.32542" lon="-2.38314">
        <ele>32</ele>
        <time>2021-03-11T10:11:12.000Z</time>
      </trkpt>
      <trkpt lat="47.32538" lon="-2.38316">
        <ele>31.39999961853</ele>
        <time>2021-03-11T10:11:13.000Z</time>
      </trkpt>
      <trkpt lat="47.32531" lon="-2.38321">
        <ele>31.39999961853</ele>
        <time>2021-03-11T10:11:16.000Z</time>
      </trkpt>
      <trkpt lat="47.3253" lon="-2.38329">
        <ele>31.39999961853</ele>
        <time>2021-03-11T10:11:18.000Z</time>
      </trkpt>
      <trkpt lat="47.3253" lon="-2.38338">
        <ele>31.39999961853</ele>
        <time>2021-03-11T10:11:20.000Z</time>
      </trkpt>
      <trkpt lat="47.32529" lon="-2.38352">
        <ele>31.799999237061</ele>
        <time>2021-03-11T10:11:23.000Z</time>
      </trkpt>
      <trkpt lat="47.32529" lon="-2.38356">
        <ele>32.400001525879</ele>
        <time>2021-03-11T10:11:24.000Z</time>
      </trkpt>
      <trkpt lat="47.32529" lon="-2.38361">
        <ele>32.799999237061</ele>
        <time>2021-03-11T10:11:25.000Z</time>
      </trkpt>
      <trkpt lat="47.32528" lon="-2.38365">
        <ele>33.200000762939</ele>
        <time>2021-03-11T10:11:26.000Z</time>
      </trkpt>
      <trkpt lat="47.32528" lon="-2.38369">
        <ele>33.599998474121</ele>
        <time>2021-03-11T10:11:27.000Z</time>
      </trkpt>
      <trkpt lat="47.32526" lon="-2.3838">
        <ele>33.599998474121</ele>
        <time>2021-03-11T10:11:30.000Z</time>
      </trkpt>
      <trkpt lat="47.3252" lon="-2.38385">
        <ele>33.599998474121</ele>
        <time>2021-03-11T10:11:32.000Z</time>
      </trkpt>
      <trkpt lat="47.32508" lon="-2.38385">
        <ele>33.599998474121</ele>
        <time>2021-03-11T10:11:35.000Z</time>
      </trkpt>
      <trkpt lat="47.32504" lon="-2.38386">
        <ele>33.599998474121</ele>
        <time>2021-03-11T10:11:36.000Z</time>
      </trkpt>
      <trkpt lat="47.32494" lon="-2.38382">
        <ele>33.599998474121</ele>
        <time>2021-03-11T10:11:40.000Z</time>
      </trkpt>
      <trkpt lat="47.32477" lon="-2.38375">
        <ele>33.599998474121</ele>
        <time>2021-03-11T10:11:46.000Z</time>
      </trkpt>
      <trkpt lat="47.32457" lon="-2.38366">
        <ele>33.599998474121</ele>
        <time>2021-03-11T10:11:52.000Z</time>
      </trkpt>
      <trkpt lat="47.32432" lon="-2.38356">
        <ele>33.599998474121</ele>
        <time>2021-03-11T10:11:58.000Z</time>
      </trkpt>
      <trkpt lat="47.32428" lon="-2.38354">
        <ele>33.599998474121</ele>
        <time>2021-03-11T10:11:59.000Z</time>
      </trkpt>
      <trkpt lat="47.32399" lon="-2.38339">
        <ele>33.599998474121</ele>
        <time>2021-03-11T10:12:05.000Z</time>
      </trkpt>
      <trkpt lat="47.3236" lon="-2.3832">
        <ele>33.599998474121</ele>
        <time>2021-03-11T10:12:12.000Z</time>
      </trkpt>
      <trkpt lat="47.32325" lon="-2.38304">
        <ele>33.599998474121</ele>
        <time>2021-03-11T10:12:18.000Z</time>
      </trkpt>
      <trkpt lat="47.32312" lon="-2.38299">
        <ele>33.200000762939</ele>
        <time>2021-03-11T10:12:20.000Z</time>
      </trkpt>
      <trkpt lat="47.32306" lon="-2.38297">
        <ele>32.799999237061</ele>
        <time>2021-03-11T10:12:21.000Z</time>
      </trkpt>
      <trkpt lat="47.32299" lon="-2.38295">
        <ele>32</ele>
        <time>2021-03-11T10:12:22.000Z</time>
      </trkpt>
      <trkpt lat="47.32292" lon="-2.38292">
        <ele>31.60000038147</ele>
        <time>2021-03-11T10:12:23.000Z</time>
      </trkpt>
      <trkpt lat="47.32285" lon="-2.3829">
        <ele>31.60000038147</ele>
        <time>2021-03-11T10:12:24.000Z</time>
      </trkpt>
      <trkpt lat="47.32278" lon="-2.38288">
        <ele>31.60000038147</ele>
        <time>2021-03-11T10:12:25.000Z</time>
      </trkpt>
      <trkpt lat="47.32257" lon="-2.38289">
        <ele>31.60000038147</ele>
        <time>2021-03-11T10:12:28.000Z</time>
      </trkpt>
      <trkpt lat="47.3222" lon="-2.38293">
        <ele>31.60000038147</ele>
        <time>2021-03-11T10:12:34.000Z</time>
      </trkpt>
      <trkpt lat="47.32213" lon="-2.38299">
        <ele>31.200000762939</ele>
        <time>2021-03-11T10:12:36.000Z</time>
      </trkpt>
      <trkpt lat="47.3221" lon="-2.38303">
        <ele>30.799999237061</ele>
        <time>2021-03-11T10:12:37.000Z</time>
      </trkpt>
      <trkpt lat="47.32209" lon="-2.38306">
        <ele>30.39999961853</ele>
        <time>2021-03-11T10:12:38.000Z</time>
      </trkpt>
      <trkpt lat="47.32207" lon="-2.38309">
        <ele>30</ele>
        <time>2021-03-11T10:12:39.000Z</time>
      </trkpt>
      <trkpt lat="47.32204" lon="-2.38312">
        <ele>29.60000038147</ele>
        <time>2021-03-11T10:12:40.000Z</time>
      </trkpt>
      <trkpt lat="47.32201" lon="-2.38315">
        <ele>29.60000038147</ele>
        <time>2021-03-11T10:12:41.000Z</time>
      </trkpt>
      <trkpt lat="47.32188" lon="-2.38336">
        <ele>29.60000038147</ele>
        <time>2021-03-11T10:12:46.000Z</time>
      </trkpt>
      <trkpt lat="47.32171" lon="-2.38363">
        <ele>29.60000038147</ele>
        <time>2021-03-11T10:12:52.000Z</time>
      </trkpt>
      <trkpt lat="47.32155" lon="-2.38384">
        <ele>29.60000038147</ele>
        <time>2021-03-11T10:12:57.000Z</time>
      </trkpt>
      <trkpt lat="47.32138" lon="-2.38408">
        <ele>29.60000038147</ele>
        <time>2021-03-11T10:13:03.000Z</time>
      </trkpt>
      <trkpt lat="47.32135" lon="-2.38411">
        <ele>29.60000038147</ele>
        <time>2021-03-11T10:13:04.000Z</time>
      </trkpt>
      <trkpt lat="47.32111" lon="-2.38426">
        <ele>29.60000038147</ele>
        <time>2021-03-11T10:13:10.000Z</time>
      </trkpt>
      <trkpt lat="47.32106" lon="-2.38427">
        <ele>29.60000038147</ele>
        <time>2021-03-11T10:13:11.000Z</time>
      </trkpt>
      <trkpt lat="47.32093" lon="-2.38434">
        <ele>29.60000038147</ele>
        <time>2021-03-11T10:13:14.000Z</time>
      </trkpt>
      <trkpt lat="47.32089" lon="-2.38435">
        <ele>29.60000038147</ele>
        <time>2021-03-11T10:13:15.000Z</time>
      </trkpt>
      <trkpt lat="47.32078" lon="-2.38441">
        <ele>30</ele>
        <time>2021-03-11T10:13:18.000Z</time>
      </trkpt>
      <trkpt lat="47.32075" lon="-2.38442">
        <ele>30.39999961853</ele>
        <time>2021-03-11T10:13:19.000Z</time>
      </trkpt>
      <trkpt lat="47.32071" lon="-2.38444">
        <ele>30.799999237061</ele>
        <time>2021-03-11T10:13:20.000Z</time>
      </trkpt>
      <trkpt lat="47.32067" lon="-2.38445">
        <ele>31.200000762939</ele>
        <time>2021-03-11T10:13:21.000Z</time>
      </trkpt>
      <trkpt lat="47.32063" lon="-2.38447">
        <ele>31.60000038147</ele>
        <time>2021-03-11T10:13:22.000Z</time>
      </trkpt>
      <trkpt lat="47.32051" lon="-2.3845">
        <ele>31.60000038147</ele>
        <time>2021-03-11T10:13:25.000Z</time>
      </trkpt>
      <trkpt lat="47.32023" lon="-2.38459">
        <ele>31.60000038147</ele>
        <time>2021-03-11T10:13:32.000Z</time>
      </trkpt>
      <trkpt lat="47.32007" lon="-2.38467">
        <ele>32.400001525879</ele>
        <time>2021-03-11T10:13:36.000Z</time>
      </trkpt>
      <trkpt lat="47.32003" lon="-2.38469">
        <ele>32.799999237061</ele>
        <time>2021-03-11T10:13:37.000Z</time>
      </trkpt>
      <trkpt lat="47.31999" lon="-2.3847">
        <ele>33.200000762939</ele>
        <time>2021-03-11T10:13:38.000Z</time>
      </trkpt>
      <trkpt lat="47.31995" lon="-2.38472">
        <ele>33.599998474121</ele>
        <time>2021-03-11T10:13:39.000Z</time>
      </trkpt>
      <trkpt lat="47.31986" lon="-2.38476">
        <ele>33.599998474121</ele>
        <time>2021-03-11T10:13:41.000Z</time>
      </trkpt>
      <trkpt lat="47.31974" lon="-2.38483">
        <ele>33.599998474121</ele>
        <time>2021-03-11T10:13:44.000Z</time>
      </trkpt>
      <trkpt lat="47.3197" lon="-2.38485">
        <ele>33.599998474121</ele>
        <time>2021-03-11T10:13:45.000Z</time>
      </trkpt>
      <trkpt lat="47.31946" lon="-2.38489">
        <ele>33.599998474121</ele>
        <time>2021-03-11T10:13:51.000Z</time>
      </trkpt>
      <trkpt lat="47.31937" lon="-2.38491">
        <ele>34</ele>
        <time>2021-03-11T10:13:53.000Z</time>
      </trkpt>
      <trkpt lat="47.31933" lon="-2.38492">
        <ele>34.400001525879</ele>
        <time>2021-03-11T10:13:54.000Z</time>
      </trkpt>
      <trkpt lat="47.31929" lon="-2.38493">
        <ele>34.799999237061</ele>
        <time>2021-03-11T10:13:55.000Z</time>
      </trkpt>
      <trkpt lat="47.31926" lon="-2.38494">
        <ele>35.200000762939</ele>
        <time>2021-03-11T10:13:56.000Z</time>
      </trkpt>
      <trkpt lat="47.31922" lon="-2.38495">
        <ele>35.599998474121</ele>
        <time>2021-03-11T10:13:57.000Z</time>
      </trkpt>
      <trkpt lat="47.31914" lon="-2.38499">
        <ele>35.599998474121</ele>
        <time>2021-03-11T10:13:59.000Z</time>
      </trkpt>
      <trkpt lat="47.31889" lon="-2.38513">
        <ele>35.599998474121</ele>
        <time>2021-03-11T10:14:06.000Z</time>
      </trkpt>
      <trkpt lat="47.31882" lon="-2.38515">
        <ele>36.200000762939</ele>
        <time>2021-03-11T10:14:08.000Z</time>
      </trkpt>
      <trkpt lat="47.31879" lon="-2.38517">
        <ele>36.599998474121</ele>
        <time>2021-03-11T10:14:09.000Z</time>
      </trkpt>
      <trkpt lat="47.31876" lon="-2.38518">
        <ele>37</ele>
        <time>2021-03-11T10:14:10.000Z</time>
      </trkpt>
      <trkpt lat="47.31872" lon="-2.3852">
        <ele>37.400001525879</ele>
        <time>2021-03-11T10:14:11.000Z</time>
      </trkpt>
      <trkpt lat="47.31869" lon="-2.38521">
        <ele>37.799999237061</ele>
        <time>2021-03-11T10:14:12.000Z</time>
      </trkpt>
      <trkpt lat="47.31866" lon="-2.38523">
        <ele>37.799999237061</ele>
        <time>2021-03-11T10:14:13.000Z</time>
      </trkpt>
      <trkpt lat="47.31851" lon="-2.38529">
        <ele>38.400001525879</ele>
        <time>2021-03-11T10:14:18.000Z</time>
      </trkpt>
      <trkpt lat="47.31848" lon="-2.38531">
        <ele>38.799999237061</ele>
        <time>2021-03-11T10:14:19.000Z</time>
      </trkpt>
      <trkpt lat="47.31845" lon="-2.38532">
        <ele>39.200000762939</ele>
        <time>2021-03-11T10:14:20.000Z</time>
      </trkpt>
      <trkpt lat="47.31842" lon="-2.38533">
        <ele>39.599998474121</ele>
        <time>2021-03-11T10:14:21.000Z</time>
      </trkpt>
      <trkpt lat="47.31838" lon="-2.38534">
        <ele>40</ele>
        <time>2021-03-11T10:14:22.000Z</time>
      </trkpt>
      <trkpt lat="47.31829" lon="-2.38537">
        <ele>40</ele>
        <time>2021-03-11T10:14:25.000Z</time>
      </trkpt>
      <trkpt lat="47.31816" lon="-2.38539">
        <ele>40</ele>
        <time>2021-03-11T10:14:31.000Z</time>
      </trkpt>
      <trkpt lat="47.31814" lon="-2.3854">
        <ele>40</ele>
        <time>2021-03-11T10:14:32.000Z</time>
      </trkpt>
      <trkpt lat="47.31812" lon="-2.38547">
        <ele>40</ele>
        <time>2021-03-11T10:14:35.000Z</time>
      </trkpt>
      <trkpt lat="47.31811" lon="-2.38553">
        <ele>40.400001525879</ele>
        <time>2021-03-11T10:14:37.000Z</time>
      </trkpt>
      <trkpt lat="47.31811" lon="-2.38557">
        <ele>40.799999237061</ele>
        <time>2021-03-11T10:14:38.000Z</time>
      </trkpt>
      <trkpt lat="47.31811" lon="-2.38562">
        <ele>41.200000762939</ele>
        <time>2021-03-11T10:14:39.000Z</time>
      </trkpt>
      <trkpt lat="47.31811" lon="-2.38566">
        <ele>41.599998474121</ele>
        <time>2021-03-11T10:14:40.000Z</time>
      </trkpt>
      <trkpt lat="47.31811" lon="-2.38571">
        <ele>42</ele>
        <time>2021-03-11T10:14:41.000Z</time>
      </trkpt>
      <trkpt lat="47.31813" lon="-2.38609">
        <ele>42</ele>
        <time>2021-03-11T10:14:48.000Z</time>
      </trkpt>
      <trkpt lat="47.31816" lon="-2.38645">
        <ele>42</ele>
        <time>2021-03-11T10:14:54.000Z</time>
      </trkpt>
      <trkpt lat="47.31821" lon="-2.38699">
        <ele>42</ele>
        <time>2021-03-11T10:15:02.000Z</time>
      </trkpt>
      <trkpt lat="47.31822" lon="-2.38746">
        <ele>42</ele>
        <time>2021-03-11T10:15:09.000Z</time>
      </trkpt>
      <trkpt lat="47.31824" lon="-2.38816">
        <ele>42</ele>
        <time>2021-03-11T10:15:19.000Z</time>
      </trkpt>
      <trkpt lat="47.31827" lon="-2.38829">
        <ele>42</ele>
        <time>2021-03-11T10:15:21.000Z</time>
      </trkpt>
      <trkpt lat="47.31834" lon="-2.38858">
        <ele>42</ele>
        <time>2021-03-11T10:15:25.000Z</time>
      </trkpt>
      <trkpt lat="47.31848" lon="-2.38913">
        <ele>42</ele>
        <time>2021-03-11T10:15:33.000Z</time>
      </trkpt>
      <trkpt lat="47.3186" lon="-2.38956">
        <ele>42</ele>
        <time>2021-03-11T10:15:39.000Z</time>
      </trkpt>
      <trkpt lat="47.31873" lon="-2.38993">
        <ele>42</ele>
        <time>2021-03-11T10:15:44.000Z</time>
      </trkpt>
      <trkpt lat="47.3189" lon="-2.39048">
        <ele>42</ele>
        <time>2021-03-11T10:15:52.000Z</time>
      </trkpt>
      <trkpt lat="47.31905" lon="-2.39098">
        <ele>42</ele>
        <time>2021-03-11T10:15:59.000Z</time>
      </trkpt>
      <trkpt lat="47.31919" lon="-2.3914">
        <ele>42</ele>
        <time>2021-03-11T10:16:05.000Z</time>
      </trkpt>
      <trkpt lat="47.31935" lon="-2.3919">
        <ele>42</ele>
        <time>2021-03-11T10:16:12.000Z</time>
      </trkpt>
      <trkpt lat="47.31941" lon="-2.39213">
        <ele>42</ele>
        <time>2021-03-11T10:16:15.000Z</time>
      </trkpt>
      <trkpt lat="47.31947" lon="-2.39235">
        <ele>42</ele>
        <time>2021-03-11T10:16:18.000Z</time>
      </trkpt>
      <trkpt lat="47.31962" lon="-2.39292">
        <ele>42</ele>
        <time>2021-03-11T10:16:26.000Z</time>
      </trkpt>
      <trkpt lat="47.31971" lon="-2.39327">
        <ele>42</ele>
        <time>2021-03-11T10:16:32.000Z</time>
      </trkpt>
      <trkpt lat="47.31978" lon="-2.39358">
        <ele>42</ele>
        <time>2021-03-11T10:16:39.000Z</time>
      </trkpt>
      <trkpt lat="47.31981" lon="-2.39375">
        <ele>42.400001525879</ele>
        <time>2021-03-11T10:16:43.000Z</time>
      </trkpt>
      <trkpt lat="47.31983" lon="-2.39379">
        <ele>42.799999237061</ele>
        <time>2021-03-11T10:16:44.000Z</time>
      </trkpt>
      <trkpt lat="47.31984" lon="-2.39385">
        <ele>43.200000762939</ele>
        <time>2021-03-11T10:16:45.000Z</time>
      </trkpt>
      <trkpt lat="47.31985" lon="-2.3939">
        <ele>43.599998474121</ele>
        <time>2021-03-11T10:16:46.000Z</time>
      </trkpt>
      <trkpt lat="47.31986" lon="-2.39394">
        <ele>44</ele>
        <time>2021-03-11T10:16:47.000Z</time>
      </trkpt>
      <trkpt lat="47.31991" lon="-2.39418">
        <ele>44</ele>
        <time>2021-03-11T10:16:52.000Z</time>
      </trkpt>
      <trkpt lat="47.31998" lon="-2.39445">
        <ele>44</ele>
        <time>2021-03-11T10:16:59.000Z</time>
      </trkpt>
      <trkpt lat="47.32005" lon="-2.39475">
        <ele>44</ele>
        <time>2021-03-11T10:17:06.000Z</time>
      </trkpt>
      <trkpt lat="47.32013" lon="-2.39517">
        <ele>44</ele>
        <time>2021-03-11T10:17:14.000Z</time>
      </trkpt>
      <trkpt lat="47.32023" lon="-2.39553">
        <ele>44</ele>
        <time>2021-03-11T10:17:21.000Z</time>
      </trkpt>
      <trkpt lat="47.32032" lon="-2.39588">
        <ele>44.599998474121</ele>
        <time>2021-03-11T10:17:28.000Z</time>
      </trkpt>
      <trkpt lat="47.32034" lon="-2.39594">
        <ele>45</ele>
        <time>2021-03-11T10:17:29.000Z</time>
      </trkpt>
      <trkpt lat="47.32035" lon="-2.396">
        <ele>45.400001525879</ele>
        <time>2021-03-11T10:17:30.000Z</time>
      </trkpt>
      <trkpt lat="47.32036" lon="-2.39605">
        <ele>45.799999237061</ele>
        <time>2021-03-11T10:17:31.000Z</time>
      </trkpt>
      <trkpt lat="47.32037" lon="-2.3961">
        <ele>46.200000762939</ele>
        <time>2021-03-11T10:17:32.000Z</time>
      </trkpt>
      <trkpt lat="47.3204" lon="-2.39625">
        <ele>46.200000762939</ele>
        <time>2021-03-11T10:17:35.000Z</time>
      </trkpt>
      <trkpt lat="47.32049" lon="-2.39656">
        <ele>46.200000762939</ele>
        <time>2021-03-11T10:17:42.000Z</time>
      </trkpt>
      <trkpt lat="47.32055" lon="-2.39681">
        <ele>46.200000762939</ele>
        <time>2021-03-11T10:17:47.000Z</time>
      </trkpt>
      <trkpt lat="47.32062" lon="-2.39707">
        <ele>46.599998474121</ele>
        <time>2021-03-11T10:17:53.000Z</time>
      </trkpt>
      <trkpt lat="47.32064" lon="-2.39712">
        <ele>47</ele>
        <time>2021-03-11T10:17:54.000Z</time>
      </trkpt>
      <trkpt lat="47.32066" lon="-2.39717">
        <ele>47.400001525879</ele>
        <time>2021-03-11T10:17:55.000Z</time>
      </trkpt>
      <trkpt lat="47.32067" lon="-2.39721">
        <ele>48</ele>
        <time>2021-03-11T10:17:56.000Z</time>
      </trkpt>
      <trkpt lat="47.32069" lon="-2.39726">
        <ele>48.400001525879</ele>
        <time>2021-03-11T10:17:57.000Z</time>
      </trkpt>
      <trkpt lat="47.3207" lon="-2.3973">
        <ele>48.400001525879</ele>
        <time>2021-03-11T10:17:58.000Z</time>
      </trkpt>
      <trkpt lat="47.32078" lon="-2.39762">
        <ele>48.400001525879</ele>
        <time>2021-03-11T10:18:05.000Z</time>
      </trkpt>
      <trkpt lat="47.32085" lon="-2.39785">
        <ele>48.400001525879</ele>
        <time>2021-03-11T10:18:11.000Z</time>
      </trkpt>
      <trkpt lat="47.32087" lon="-2.39802">
        <ele>48.400001525879</ele>
        <time>2021-03-11T10:18:16.000Z</time>
      </trkpt>
      <trkpt lat="47.32085" lon="-2.39806">
        <ele>48.400001525879</ele>
        <time>2021-03-11T10:18:17.000Z</time>
      </trkpt>
      <trkpt lat="47.32077" lon="-2.39817">
        <ele>48.400001525879</ele>
        <time>2021-03-11T10:18:20.000Z</time>
      </trkpt>
      <trkpt lat="47.32073" lon="-2.39823">
        <ele>48.400001525879</ele>
        <time>2021-03-11T10:18:21.000Z</time>
      </trkpt>
      <trkpt lat="47.32055" lon="-2.39842">
        <ele>48.400001525879</ele>
        <time>2021-03-11T10:18:26.000Z</time>
      </trkpt>
      <trkpt lat="47.32026" lon="-2.39867">
        <ele>48.400001525879</ele>
        <time>2021-03-11T10:18:33.000Z</time>
      </trkpt>
      <trkpt lat="47.32" lon="-2.39892">
        <ele>48.400001525879</ele>
        <time>2021-03-11T10:18:39.000Z</time>
      </trkpt>
      <trkpt lat="47.31985" lon="-2.39908">
        <ele>48.400001525879</ele>
        <time>2021-03-11T10:18:42.000Z</time>
      </trkpt>
      <trkpt lat="47.3198" lon="-2.39913">
        <ele>48</ele>
        <time>2021-03-11T10:18:43.000Z</time>
      </trkpt>
      <trkpt lat="47.31975" lon="-2.39918">
        <ele>47.400001525879</ele>
        <time>2021-03-11T10:18:44.000Z</time>
      </trkpt>
      <trkpt lat="47.31971" lon="-2.39923">
        <ele>47</ele>
        <time>2021-03-11T10:18:45.000Z</time>
      </trkpt>
      <trkpt lat="47.31967" lon="-2.39928">
        <ele>46.599998474121</ele>
        <time>2021-03-11T10:18:46.000Z</time>
      </trkpt>
      <trkpt lat="47.31962" lon="-2.39932">
        <ele>46</ele>
        <time>2021-03-11T10:18:47.000Z</time>
      </trkpt>
      <trkpt lat="47.31951" lon="-2.39942">
        <ele>46</ele>
        <time>2021-03-11T10:18:49.000Z</time>
      </trkpt>
      <trkpt lat="47.31919" lon="-2.39973">
        <ele>46</ele>
        <time>2021-03-11T10:18:55.000Z</time>
      </trkpt>
      <trkpt lat="47.31914" lon="-2.3998">
        <ele>45.599998474121</ele>
        <time>2021-03-11T10:18:56.000Z</time>
      </trkpt>
      <trkpt lat="47.3191" lon="-2.39985">
        <ele>44.799999237061</ele>
        <time>2021-03-11T10:18:57.000Z</time>
      </trkpt>
      <trkpt lat="47.31905" lon="-2.39991">
        <ele>44.400001525879</ele>
        <time>2021-03-11T10:18:58.000Z</time>
      </trkpt>
      <trkpt lat="47.31901" lon="-2.39997">
        <ele>44</ele>
        <time>2021-03-11T10:18:59.000Z</time>
      </trkpt>
      <trkpt lat="47.31891" lon="-2.40009">
        <ele>44</ele>
        <time>2021-03-11T10:19:01.000Z</time>
      </trkpt>
      <trkpt lat="47.31863" lon="-2.4005">
        <ele>44</ele>
        <time>2021-03-11T10:19:08.000Z</time>
      </trkpt>
      <trkpt lat="47.31845" lon="-2.40075">
        <ele>44</ele>
        <time>2021-03-11T10:19:13.000Z</time>
      </trkpt>
      <trkpt lat="47.31825" lon="-2.40105">
        <ele>44</ele>
        <time>2021-03-11T10:19:19.000Z</time>
      </trkpt>
      <trkpt lat="47.31796" lon="-2.40146">
        <ele>44</ele>
        <time>2021-03-11T10:19:27.000Z</time>
      </trkpt>
      <trkpt lat="47.31787" lon="-2.40161">
        <ele>44</ele>
        <time>2021-03-11T10:19:30.000Z</time>
      </trkpt>
      <trkpt lat="47.31776" lon="-2.40176">
        <ele>44</ele>
        <time>2021-03-11T10:19:33.000Z</time>
      </trkpt>
      <trkpt lat="47.31757" lon="-2.4021">
        <ele>44</ele>
        <time>2021-03-11T10:19:39.000Z</time>
      </trkpt>
      <trkpt lat="47.31738" lon="-2.4024">
        <ele>44</ele>
        <time>2021-03-11T10:19:45.000Z</time>
      </trkpt>
      <trkpt lat="47.31722" lon="-2.40268">
        <ele>44</ele>
        <time>2021-03-11T10:19:51.000Z</time>
      </trkpt>
      <trkpt lat="47.31702" lon="-2.40297">
        <ele>44</ele>
        <time>2021-03-11T10:19:57.000Z</time>
      </trkpt>
      <trkpt lat="47.31691" lon="-2.40315">
        <ele>44</ele>
        <time>2021-03-11T10:20:02.000Z</time>
      </trkpt>
      <trkpt lat="47.31687" lon="-2.40326">
        <ele>44</ele>
        <time>2021-03-11T10:20:05.000Z</time>
      </trkpt>
      <trkpt lat="47.31683" lon="-2.40328">
        <ele>44</ele>
        <time>2021-03-11T10:20:06.000Z</time>
      </trkpt>
      <trkpt lat="47.31675" lon="-2.40321">
        <ele>44</ele>
        <time>2021-03-11T10:20:09.000Z</time>
      </trkpt>
      <trkpt lat="47.31672" lon="-2.40318">
        <ele>44</ele>
        <time>2021-03-11T10:20:10.000Z</time>
      </trkpt>
      <trkpt lat="47.31668" lon="-2.40314">
        <ele>44</ele>
        <time>2021-03-11T10:20:11.000Z</time>
      </trkpt>
      <trkpt lat="47.31656" lon="-2.40304">
        <ele>44</ele>
        <time>2021-03-11T10:20:14.000Z</time>
      </trkpt>
      <trkpt lat="47.31651" lon="-2.403">
        <ele>43.599998474121</ele>
        <time>2021-03-11T10:20:15.000Z</time>
      </trkpt>
      <trkpt lat="47.31647" lon="-2.40298">
        <ele>43.200000762939</ele>
        <time>2021-03-11T10:20:16.000Z</time>
      </trkpt>
      <trkpt lat="47.31642" lon="-2.40295">
        <ele>42.799999237061</ele>
        <time>2021-03-11T10:20:17.000Z</time>
      </trkpt>
      <trkpt lat="47.31639" lon="-2.40293">
        <ele>42.200000762939</ele>
        <time>2021-03-11T10:20:18.000Z</time>
      </trkpt>
      <trkpt lat="47.31635" lon="-2.4029">
        <ele>41.799999237061</ele>
        <time>2021-03-11T10:20:19.000Z</time>
      </trkpt>
      <trkpt lat="47.31606" lon="-2.40271">
        <ele>41.799999237061</ele>
        <time>2021-03-11T10:20:25.000Z</time>
      </trkpt>
      <trkpt lat="47.31576" lon="-2.40249">
        <ele>41.799999237061</ele>
        <time>2021-03-11T10:20:31.000Z</time>
      </trkpt>
      <trkpt lat="47.31551" lon="-2.40228">
        <ele>41.799999237061</ele>
        <time>2021-03-11T10:20:37.000Z</time>
      </trkpt>
      <trkpt lat="47.31538" lon="-2.4022">
        <ele>41.400001525879</ele>
        <time>2021-03-11T10:20:40.000Z</time>
      </trkpt>
      <trkpt lat="47.31533" lon="-2.40216">
        <ele>41</ele>
        <time>2021-03-11T10:20:41.000Z</time>
      </trkpt>
      <trkpt lat="47.31528" lon="-2.40212">
        <ele>40.599998474121</ele>
        <time>2021-03-11T10:20:42.000Z</time>
      </trkpt>
      <trkpt lat="47.31523" lon="-2.40209">
        <ele>40.200000762939</ele>
        <time>2021-03-11T10:20:43.000Z</time>
      </trkpt>
      <trkpt lat="47.31518" lon="-2.40205">
        <ele>39.799999237061</ele>
        <time>2021-03-11T10:20:44.000Z</time>
      </trkpt>
      <trkpt lat="47.3149" lon="-2.40184">
        <ele>39.799999237061</ele>
        <time>2021-03-11T10:20:50.000Z</time>
      </trkpt>
      <trkpt lat="47.3147" lon="-2.40172">
        <ele>39.799999237061</ele>
        <time>2021-03-11T10:20:54.000Z</time>
      </trkpt>
      <trkpt lat="47.31465" lon="-2.40167">
        <ele>39.799999237061</ele>
        <time>2021-03-11T10:20:55.000Z</time>
      </trkpt>
      <trkpt lat="47.31428" lon="-2.40138">
        <ele>39.400001525879</ele>
        <time>2021-03-11T10:21:02.000Z</time>
      </trkpt>
      <trkpt lat="47.31424" lon="-2.40134">
        <ele>39</ele>
        <time>2021-03-11T10:21:03.000Z</time>
      </trkpt>
      <trkpt lat="47.31418" lon="-2.40131">
        <ele>38.599998474121</ele>
        <time>2021-03-11T10:21:04.000Z</time>
      </trkpt>
      <trkpt lat="47.31413" lon="-2.40128">
        <ele>38.200000762939</ele>
        <time>2021-03-11T10:21:05.000Z</time>
      </trkpt>
      <trkpt lat="47.31407" lon="-2.40125">
        <ele>37.799999237061</ele>
        <time>2021-03-11T10:21:06.000Z</time>
      </trkpt>
      <trkpt lat="47.31402" lon="-2.40121">
        <ele>37.799999237061</ele>
        <time>2021-03-11T10:21:07.000Z</time>
      </trkpt>
      <trkpt lat="47.31367" lon="-2.40102">
        <ele>37.799999237061</ele>
        <time>2021-03-11T10:21:14.000Z</time>
      </trkpt>
      <trkpt lat="47.31362" lon="-2.40098">
        <ele>37.400001525879</ele>
        <time>2021-03-11T10:21:15.000Z</time>
      </trkpt>
      <trkpt lat="47.31356" lon="-2.40095">
        <ele>37</ele>
        <time>2021-03-11T10:21:16.000Z</time>
      </trkpt>
      <trkpt lat="47.3135" lon="-2.40092">
        <ele>36.599998474121</ele>
        <time>2021-03-11T10:21:17.000Z</time>
      </trkpt>
      <trkpt lat="47.31345" lon="-2.40091">
        <ele>36.200000762939</ele>
        <time>2021-03-11T10:21:18.000Z</time>
      </trkpt>
      <trkpt lat="47.31339" lon="-2.40089">
        <ele>35.799999237061</ele>
        <time>2021-03-11T10:21:19.000Z</time>
      </trkpt>
      <trkpt lat="47.31334" lon="-2.40086">
        <ele>35.799999237061</ele>
        <time>2021-03-11T10:21:20.000Z</time>
      </trkpt>
      <trkpt lat="47.31305" lon="-2.40076">
        <ele>35.799999237061</ele>
        <time>2021-03-11T10:21:26.000Z</time>
      </trkpt>
      <trkpt lat="47.31281" lon="-2.40072">
        <ele>35.799999237061</ele>
        <time>2021-03-11T10:21:32.000Z</time>
      </trkpt>
      <trkpt lat="47.31275" lon="-2.40069">
        <ele>35.799999237061</ele>
        <time>2021-03-11T10:21:33.000Z</time>
      </trkpt>
      <trkpt lat="47.31265" lon="-2.40066">
        <ele>35.400001525879</ele>
        <time>2021-03-11T10:21:35.000Z</time>
      </trkpt>
      <trkpt lat="47.3126" lon="-2.40064">
        <ele>34.799999237061</ele>
        <time>2021-03-11T10:21:36.000Z</time>
      </trkpt>
      <trkpt lat="47.31257" lon="-2.40061">
        <ele>34.400001525879</ele>
        <time>2021-03-11T10:21:37.000Z</time>
      </trkpt>
      <trkpt lat="47.31255" lon="-2.40058">
        <ele>34</ele>
        <time>2021-03-11T10:21:38.000Z</time>
      </trkpt>
      <trkpt lat="47.31253" lon="-2.40054">
        <ele>33.599998474121</ele>
        <time>2021-03-11T10:21:39.000Z</time>
      </trkpt>
      <trkpt lat="47.3125" lon="-2.40052">
        <ele>34.200000762939</ele>
        <time>2021-03-11T10:21:40.000Z</time>
      </trkpt>
      <trkpt lat="47.31247" lon="-2.4005">
        <ele>34.599998474121</ele>
        <time>2021-03-11T10:21:41.000Z</time>
      </trkpt>
      <trkpt lat="47.31243" lon="-2.40048">
        <ele>35</ele>
        <time>2021-03-11T10:21:42.000Z</time>
      </trkpt>
      <trkpt lat="47.3124" lon="-2.40043">
        <ele>35.400001525879</ele>
        <time>2021-03-11T10:21:43.000Z</time>
      </trkpt>
      <trkpt lat="47.3124" lon="-2.40038">
        <ele>36</ele>
        <time>2021-03-11T10:21:44.000Z</time>
      </trkpt>
      <trkpt lat="47.31239" lon="-2.40033">
        <ele>35.599998474121</ele>
        <time>2021-03-11T10:21:45.000Z</time>
      </trkpt>
      <trkpt lat="47.31238" lon="-2.40029">
        <ele>35.200000762939</ele>
        <time>2021-03-11T10:21:46.000Z</time>
      </trkpt>
      <trkpt lat="47.31236" lon="-2.40025">
        <ele>34.599998474121</ele>
        <time>2021-03-11T10:21:47.000Z</time>
      </trkpt>
      <trkpt lat="47.31234" lon="-2.40021">
        <ele>34.200000762939</ele>
        <time>2021-03-11T10:21:48.000Z</time>
      </trkpt>
      <trkpt lat="47.31233" lon="-2.40017">
        <ele>33.799999237061</ele>
        <time>2021-03-11T10:21:49.000Z</time>
      </trkpt>
      <trkpt lat="47.31231" lon="-2.40006">
        <ele>33.799999237061</ele>
        <time>2021-03-11T10:21:52.000Z</time>
      </trkpt>
      <trkpt lat="47.31225" lon="-2.39987">
        <ele>33.799999237061</ele>
        <time>2021-03-11T10:22:00.000Z</time>
      </trkpt>
      <trkpt lat="47.3122" lon="-2.39972">
        <ele>33.799999237061</ele>
        <time>2021-03-11T10:22:06.000Z</time>
      </trkpt>
      <trkpt lat="47.31219" lon="-2.39967">
        <ele>34.200000762939</ele>
        <time>2021-03-11T10:22:08.000Z</time>
      </trkpt>
      <trkpt lat="47.31218" lon="-2.39964">
        <ele>34.599998474121</ele>
        <time>2021-03-11T10:22:09.000Z</time>
      </trkpt>
      <trkpt lat="47.31217" lon="-2.39961">
        <ele>35</ele>
        <time>2021-03-11T10:22:10.000Z</time>
      </trkpt>
      <trkpt lat="47.31216" lon="-2.39958">
        <ele>35.400001525879</ele>
        <time>2021-03-11T10:22:11.000Z</time>
      </trkpt>
      <trkpt lat="47.31215" lon="-2.39957">
        <ele>35.799999237061</ele>
        <time>2021-03-11T10:22:12.000Z</time>
      </trkpt>
      <trkpt lat="47.31207" lon="-2.39937">
        <ele>35.799999237061</ele>
        <time>2021-03-11T10:22:20.000Z</time>
      </trkpt>
      <trkpt lat="47.31206" lon="-2.39934">
        <ele>36.200000762939</ele>
        <time>2021-03-11T10:22:21.000Z</time>
      </trkpt>
      <trkpt lat="47.31206" lon="-2.39931">
        <ele>36.599998474121</ele>
        <time>2021-03-11T10:22:22.000Z</time>
      </trkpt>
      <trkpt lat="47.31205" lon="-2.39928">
        <ele>37</ele>
        <time>2021-03-11T10:22:23.000Z</time>
      </trkpt>
      <trkpt lat="47.31204" lon="-2.39925">
        <ele>37.400001525879</ele>
        <time>2021-03-11T10:22:24.000Z</time>
      </trkpt>
      <trkpt lat="47.31203" lon="-2.39923">
        <ele>37.799999237061</ele>
        <time>2021-03-11T10:22:25.000Z</time>
      </trkpt>
      <trkpt lat="47.31202" lon="-2.3992">
        <ele>37.799999237061</ele>
        <time>2021-03-11T10:22:26.000Z</time>
      </trkpt>
      <trkpt lat="47.31202" lon="-2.39918">
        <ele>37.799999237061</ele>
        <time>2021-03-11T10:22:27.000Z</time>
      </trkpt>
      <trkpt lat="47.312" lon="-2.39913">
        <ele>37.799999237061</ele>
        <time>2021-03-11T10:22:30.000Z</time>
      </trkpt>
      <trkpt lat="47.31196" lon="-2.39897">
        <ele>37.799999237061</ele>
        <time>2021-03-11T10:22:35.000Z</time>
      </trkpt>
      <trkpt lat="47.31195" lon="-2.39894">
        <ele>37.799999237061</ele>
        <time>2021-03-11T10:22:36.000Z</time>
      </trkpt>
      <trkpt lat="47.31195" lon="-2.39891">
        <ele>38.400001525879</ele>
        <time>2021-03-11T10:22:37.000Z</time>
      </trkpt>
      <trkpt lat="47.31194" lon="-2.39888">
        <ele>38.799999237061</ele>
        <time>2021-03-11T10:22:38.000Z</time>
      </trkpt>
      <trkpt lat="47.31193" lon="-2.39885">
        <ele>39.200000762939</ele>
        <time>2021-03-11T10:22:39.000Z</time>
      </trkpt>
      <trkpt lat="47.31191" lon="-2.39881">
        <ele>39.799999237061</ele>
        <time>2021-03-11T10:22:40.000Z</time>
      </trkpt>
      <trkpt lat="47.31189" lon="-2.39875">
        <ele>40.200000762939</ele>
        <time>2021-03-11T10:22:41.000Z</time>
      </trkpt>
      <trkpt lat="47.31183" lon="-2.39861">
        <ele>40.200000762939</ele>
        <time>2021-03-11T10:22:43.000Z</time>
      </trkpt>
      <trkpt lat="47.31179" lon="-2.39849">
        <ele>40.200000762939</ele>
        <time>2021-03-11T10:22:45.000Z</time>
      </trkpt>
      <trkpt lat="47.31163" lon="-2.39816">
        <ele>40.200000762939</ele>
        <time>2021-03-11T10:22:51.000Z</time>
      </trkpt>
      <trkpt lat="47.31147" lon="-2.39774">
        <ele>40.200000762939</ele>
        <time>2021-03-11T10:22:58.000Z</time>
      </trkpt>
      <trkpt lat="47.3113" lon="-2.39727">
        <ele>40.200000762939</ele>
        <time>2021-03-11T10:23:06.000Z</time>
      </trkpt>
      <trkpt lat="47.31127" lon="-2.39716">
        <ele>40.200000762939</ele>
        <time>2021-03-11T10:23:08.000Z</time>
      </trkpt>
      <trkpt lat="47.31119" lon="-2.39692">
        <ele>40.200000762939</ele>
        <time>2021-03-11T10:23:12.000Z</time>
      </trkpt>
      <trkpt lat="47.31101" lon="-2.39642">
        <ele>40.599998474121</ele>
        <time>2021-03-11T10:23:20.000Z</time>
      </trkpt>
      <trkpt lat="47.31099" lon="-2.39636">
        <ele>41</ele>
        <time>2021-03-11T10:23:21.000Z</time>
      </trkpt>
      <trkpt lat="47.31097" lon="-2.39629">
        <ele>41.599998474121</ele>
        <time>2021-03-11T10:23:22.000Z</time>
      </trkpt>
      <trkpt lat="47.31095" lon="-2.39622">
        <ele>42</ele>
        <time>2021-03-11T10:23:23.000Z</time>
      </trkpt>
      <trkpt lat="47.31092" lon="-2.39615">
        <ele>42.400001525879</ele>
        <time>2021-03-11T10:23:24.000Z</time>
      </trkpt>
      <trkpt lat="47.31084" lon="-2.39592">
        <ele>42.400001525879</ele>
        <time>2021-03-11T10:23:27.000Z</time>
      </trkpt>
      <trkpt lat="47.31073" lon="-2.39558">
        <ele>42.400001525879</ele>
        <time>2021-03-11T10:23:31.000Z</time>
      </trkpt>
      <trkpt lat="47.31066" lon="-2.3954">
        <ele>42.400001525879</ele>
        <time>2021-03-11T10:23:33.000Z</time>
      </trkpt>
      <trkpt lat="47.31044" lon="-2.39479">
        <ele>42.400001525879</ele>
        <time>2021-03-11T10:23:39.000Z</time>
      </trkpt>
      <trkpt lat="47.31028" lon="-2.3943">
        <ele>42.400001525879</ele>
        <time>2021-03-11T10:23:44.000Z</time>
      </trkpt>
      <trkpt lat="47.31008" lon="-2.39369">
        <ele>42.400001525879</ele>
        <time>2021-03-11T10:23:51.000Z</time>
      </trkpt>
      <trkpt lat="47.30985" lon="-2.39299">
        <ele>42.400001525879</ele>
        <time>2021-03-11T10:23:59.000Z</time>
      </trkpt>
      <trkpt lat="47.3096" lon="-2.3924">
        <ele>42.400001525879</ele>
        <time>2021-03-11T10:24:06.000Z</time>
      </trkpt>
      <trkpt lat="47.3094" lon="-2.39191">
        <ele>42.400001525879</ele>
        <time>2021-03-11T10:24:12.000Z</time>
      </trkpt>
      <trkpt lat="47.30913" lon="-2.3912">
        <ele>42.400001525879</ele>
        <time>2021-03-11T10:24:21.000Z</time>
      </trkpt>
      <trkpt lat="47.3091" lon="-2.39113">
        <ele>42.400001525879</ele>
        <time>2021-03-11T10:24:22.000Z</time>
      </trkpt>
      <trkpt lat="47.30901" lon="-2.39083">
        <ele>42.400001525879</ele>
        <time>2021-03-11T10:24:26.000Z</time>
      </trkpt>
      <trkpt lat="47.309" lon="-2.39074">
        <ele>42.400001525879</ele>
        <time>2021-03-11T10:24:27.000Z</time>
      </trkpt>
      <trkpt lat="47.30901" lon="-2.39048">
        <ele>42.400001525879</ele>
        <time>2021-03-11T10:24:30.000Z</time>
      </trkpt>
      <trkpt lat="47.30901" lon="-2.39039">
        <ele>42.400001525879</ele>
        <time>2021-03-11T10:24:31.000Z</time>
      </trkpt>
      <trkpt lat="47.30904" lon="-2.38997">
        <ele>42.400001525879</ele>
        <time>2021-03-11T10:24:36.000Z</time>
      </trkpt>
      <trkpt lat="47.30911" lon="-2.38964">
        <ele>42.400001525879</ele>
        <time>2021-03-11T10:24:40.000Z</time>
      </trkpt>
      <trkpt lat="47.30916" lon="-2.38951">
        <ele>42.400001525879</ele>
        <time>2021-03-11T10:24:42.000Z</time>
      </trkpt>
      <trkpt lat="47.30919" lon="-2.38945">
        <ele>42.400001525879</ele>
        <time>2021-03-11T10:24:43.000Z</time>
      </trkpt>
      <trkpt lat="47.30925" lon="-2.38935">
        <ele>42.400001525879</ele>
        <time>2021-03-11T10:24:46.000Z</time>
      </trkpt>
      <trkpt lat="47.30925" lon="-2.38933">
        <ele>42.400001525879</ele>
        <time>2021-03-11T10:24:49.000Z</time>
      </trkpt>
      <trkpt lat="47.30926" lon="-2.3893">
        <ele>42.400001525879</ele>
        <time>2021-03-11T10:25:40.000Z</time>
      </trkpt>
      <trkpt lat="47.30927" lon="-2.38924">
        <ele>42.400001525879</ele>
        <time>2021-03-11T10:25:42.000Z</time>
      </trkpt>
      <trkpt lat="47.30923" lon="-2.38905">
        <ele>42.400001525879</ele>
        <time>2021-03-11T10:25:48.000Z</time>
      </trkpt>
      <trkpt lat="47.30912" lon="-2.3889">
        <ele>42.400001525879</ele>
        <time>2021-03-11T10:25:54.000Z</time>
      </trkpt>
      <trkpt lat="47.309" lon="-2.38885">
        <ele>42.400001525879</ele>
        <time>2021-03-11T10:26:01.000Z</time>
      </trkpt>
      <trkpt lat="47.30885" lon="-2.38886">
        <ele>42.400001525879</ele>
        <time>2021-03-11T10:26:06.000Z</time>
      </trkpt>
      <trkpt lat="47.30875" lon="-2.38878">
        <ele>42.400001525879</ele>
        <time>2021-03-11T10:26:09.000Z</time>
      </trkpt>
      <trkpt lat="47.30872" lon="-2.38859">
        <ele>42.400001525879</ele>
        <time>2021-03-11T10:26:12.000Z</time>
      </trkpt>
      <trkpt lat="47.30878" lon="-2.3884">
        <ele>42.400001525879</ele>
        <time>2021-03-11T10:26:15.000Z</time>
      </trkpt>
      <trkpt lat="47.3088" lon="-2.38834">
        <ele>42.400001525879</ele>
        <time>2021-03-11T10:26:16.000Z</time>
      </trkpt>
      <trkpt lat="47.30879" lon="-2.38812">
        <ele>42.400001525879</ele>
        <time>2021-03-11T10:26:19.000Z</time>
      </trkpt>
      <trkpt lat="47.30867" lon="-2.38798">
        <ele>42.400001525879</ele>
        <time>2021-03-11T10:26:22.000Z</time>
      </trkpt>
      <trkpt lat="47.30857" lon="-2.38794">
        <ele>42.400001525879</ele>
        <time>2021-03-11T10:26:24.000Z</time>
      </trkpt>
      <trkpt lat="47.30853" lon="-2.38793">
        <ele>42.400001525879</ele>
        <time>2021-03-11T10:26:25.000Z</time>
      </trkpt>
      <trkpt lat="47.30844" lon="-2.38792">
        <ele>42.400001525879</ele>
        <time>2021-03-11T10:26:27.000Z</time>
      </trkpt>
      <trkpt lat="47.30832" lon="-2.38789">
        <ele>42.799999237061</ele>
        <time>2021-03-11T10:26:30.000Z</time>
      </trkpt>
      <trkpt lat="47.30829" lon="-2.38788">
        <ele>43.200000762939</ele>
        <time>2021-03-11T10:26:31.000Z</time>
      </trkpt>
      <trkpt lat="47.30826" lon="-2.38786">
        <ele>43.599998474121</ele>
        <time>2021-03-11T10:26:32.000Z</time>
      </trkpt>
      <trkpt lat="47.30822" lon="-2.38785">
        <ele>44.400001525879</ele>
        <time>2021-03-11T10:26:33.000Z</time>
      </trkpt>
      <trkpt lat="47.30801" lon="-2.3877">
        <ele>44.400001525879</ele>
        <time>2021-03-11T10:26:39.000Z</time>
      </trkpt>
      <trkpt lat="47.30782" lon="-2.38741">
        <ele>44.400001525879</ele>
        <time>2021-03-11T10:26:45.000Z</time>
      </trkpt>
      <trkpt lat="47.30779" lon="-2.38735">
        <ele>44.400001525879</ele>
        <time>2021-03-11T10:26:46.000Z</time>
      </trkpt>
      <trkpt lat="47.30763" lon="-2.38683">
        <ele>44.400001525879</ele>
        <time>2021-03-11T10:26:54.000Z</time>
      </trkpt>
      <trkpt lat="47.30751" lon="-2.38635">
        <ele>44.400001525879</ele>
        <time>2021-03-11T10:27:02.000Z</time>
      </trkpt>
      <trkpt lat="47.30746" lon="-2.38615">
        <ele>44.400001525879</ele>
        <time>2021-03-11T10:27:06.000Z</time>
      </trkpt>
      <trkpt lat="47.3075" lon="-2.38607">
        <ele>44.400001525879</ele>
        <time>2021-03-11T10:27:08.000Z</time>
      </trkpt>
      <trkpt lat="47.30753" lon="-2.38604">
        <ele>44.799999237061</ele>
        <time>2021-03-11T10:27:09.000Z</time>
      </trkpt>
      <trkpt lat="47.30757" lon="-2.38602">
        <ele>45.400001525879</ele>
        <time>2021-03-11T10:27:10.000Z</time>
      </trkpt>
      <trkpt lat="47.30761" lon="-2.38601">
        <ele>45.799999237061</ele>
        <time>2021-03-11T10:27:11.000Z</time>
      </trkpt>
      <trkpt lat="47.30765" lon="-2.386">
        <ele>46.200000762939</ele>
        <time>2021-03-11T10:27:12.000Z</time>
      </trkpt>
      <trkpt lat="47.3077" lon="-2.38598">
        <ele>46.599998474121</ele>
        <time>2021-03-11T10:27:13.000Z</time>
      </trkpt>
      <trkpt lat="47.30791" lon="-2.38591">
        <ele>46.599998474121</ele>
        <time>2021-03-11T10:27:17.000Z</time>
      </trkpt>
      <trkpt lat="47.30832" lon="-2.38575">
        <ele>46.599998474121</ele>
        <time>2021-03-11T10:27:25.000Z</time>
      </trkpt>
      <trkpt lat="47.30842" lon="-2.38571">
        <ele>46.599998474121</ele>
        <time>2021-03-11T10:27:27.000Z</time>
      </trkpt>
      <trkpt lat="47.30865" lon="-2.38563">
        <ele>46.599998474121</ele>
        <time>2021-03-11T10:27:32.000Z</time>
      </trkpt>
      <trkpt lat="47.30896" lon="-2.38549">
        <ele>46.599998474121</ele>
        <time>2021-03-11T10:27:39.000Z</time>
      </trkpt>
      <trkpt lat="47.3093" lon="-2.38533">
        <ele>46.599998474121</ele>
        <time>2021-03-11T10:27:46.000Z</time>
      </trkpt>
      <trkpt lat="47.30939" lon="-2.38526">
        <ele>46.599998474121</ele>
        <time>2021-03-11T10:27:48.000Z</time>
      </trkpt>
      <trkpt lat="47.30958" lon="-2.3851">
        <ele>46.599998474121</ele>
        <time>2021-03-11T10:27:53.000Z</time>
      </trkpt>
      <trkpt lat="47.30985" lon="-2.38471">
        <ele>46.599998474121</ele>
        <time>2021-03-11T10:28:00.000Z</time>
      </trkpt>
      <trkpt lat="47.31012" lon="-2.38424">
        <ele>46.599998474121</ele>
        <time>2021-03-11T10:28:07.000Z</time>
      </trkpt>
      <trkpt lat="47.31045" lon="-2.38381">
        <ele>46.599998474121</ele>
        <time>2021-03-11T10:28:14.000Z</time>
      </trkpt>
      <trkpt lat="47.31078" lon="-2.38342">
        <ele>46.599998474121</ele>
        <time>2021-03-11T10:28:21.000Z</time>
      </trkpt>
      <trkpt lat="47.31118" lon="-2.38304">
        <ele>46.599998474121</ele>
        <time>2021-03-11T10:28:29.000Z</time>
      </trkpt>
      <trkpt lat="47.31152" lon="-2.38278">
        <ele>46.599998474121</ele>
        <time>2021-03-11T10:28:35.000Z</time>
      </trkpt>
      <trkpt lat="47.31205" lon="-2.38238">
        <ele>46.200000762939</ele>
        <time>2021-03-11T10:28:44.000Z</time>
      </trkpt>
      <trkpt lat="47.31212" lon="-2.38233">
        <ele>45.799999237061</ele>
        <time>2021-03-11T10:28:45.000Z</time>
      </trkpt>
      <trkpt lat="47.31218" lon="-2.38228">
        <ele>45.200000762939</ele>
        <time>2021-03-11T10:28:46.000Z</time>
      </trkpt>
      <trkpt lat="47.31225" lon="-2.38223">
        <ele>44.799999237061</ele>
        <time>2021-03-11T10:28:47.000Z</time>
      </trkpt>
      <trkpt lat="47.31231" lon="-2.38218">
        <ele>44.400001525879</ele>
        <time>2021-03-11T10:28:48.000Z</time>
      </trkpt>
      <trkpt lat="47.31261" lon="-2.38193">
        <ele>44.400001525879</ele>
        <time>2021-03-11T10:28:53.000Z</time>
      </trkpt>
      <trkpt lat="47.31268" lon="-2.38187">
        <ele>44</ele>
        <time>2021-03-11T10:28:54.000Z</time>
      </trkpt>
      <trkpt lat="47.31274" lon="-2.38182">
        <ele>43.599998474121</ele>
        <time>2021-03-11T10:28:55.000Z</time>
      </trkpt>
      <trkpt lat="47.31281" lon="-2.38176">
        <ele>43</ele>
        <time>2021-03-11T10:28:56.000Z</time>
      </trkpt>
      <trkpt lat="47.31288" lon="-2.3817">
        <ele>42.599998474121</ele>
        <time>2021-03-11T10:28:57.000Z</time>
      </trkpt>
      <trkpt lat="47.31295" lon="-2.38164">
        <ele>42.200000762939</ele>
        <time>2021-03-11T10:28:58.000Z</time>
      </trkpt>
      <trkpt lat="47.31308" lon="-2.38151">
        <ele>42.200000762939</ele>
        <time>2021-03-11T10:29:00.000Z</time>
      </trkpt>
      <trkpt lat="47.31357" lon="-2.38109">
        <ele>42.200000762939</ele>
        <time>2021-03-11T10:29:07.000Z</time>
      </trkpt>
      <trkpt lat="47.31398" lon="-2.38076">
        <ele>41.799999237061</ele>
        <time>2021-03-11T10:29:13.000Z</time>
      </trkpt>
      <trkpt lat="47.31405" lon="-2.3807">
        <ele>41.400001525879</ele>
        <time>2021-03-11T10:29:14.000Z</time>
      </trkpt>
      <trkpt lat="47.31412" lon="-2.38064">
        <ele>41</ele>
        <time>2021-03-11T10:29:15.000Z</time>
      </trkpt>
      <trkpt lat="47.31418" lon="-2.38058">
        <ele>40.599998474121</ele>
        <time>2021-03-11T10:29:16.000Z</time>
      </trkpt>
      <trkpt lat="47.31424" lon="-2.38052">
        <ele>40</ele>
        <time>2021-03-11T10:29:17.000Z</time>
      </trkpt>
      <trkpt lat="47.31442" lon="-2.38031">
        <ele>40</ele>
        <time>2021-03-11T10:29:20.000Z</time>
      </trkpt>
      <trkpt lat="47.31463" lon="-2.38">
        <ele>39.599998474121</ele>
        <time>2021-03-11T10:29:24.000Z</time>
      </trkpt>
      <trkpt lat="47.31468" lon="-2.37992">
        <ele>38.599998474121</ele>
        <time>2021-03-11T10:29:25.000Z</time>
      </trkpt>
      <trkpt lat="47.31473" lon="-2.37984">
        <ele>38.200000762939</ele>
        <time>2021-03-11T10:29:26.000Z</time>
      </trkpt>
      <trkpt lat="47.31478" lon="-2.37975">
        <ele>37.799999237061</ele>
        <time>2021-03-11T10:29:27.000Z</time>
      </trkpt>
      <trkpt lat="47.31498" lon="-2.37933">
        <ele>37.799999237061</ele>
        <time>2021-03-11T10:29:32.000Z</time>
      </trkpt>
      <trkpt lat="47.31516" lon="-2.3789">
        <ele>37.799999237061</ele>
        <time>2021-03-11T10:29:38.000Z</time>
      </trkpt>
      <trkpt lat="47.3153" lon="-2.3784">
        <ele>37.799999237061</ele>
        <time>2021-03-11T10:29:45.000Z</time>
      </trkpt>
      <trkpt lat="47.31543" lon="-2.37777">
        <ele>37.799999237061</ele>
        <time>2021-03-11T10:29:54.000Z</time>
      </trkpt>
      <trkpt lat="47.31555" lon="-2.37738">
        <ele>37.799999237061</ele>
        <time>2021-03-11T10:29:59.000Z</time>
      </trkpt>
      <trkpt lat="47.31578" lon="-2.37694">
        <ele>37.799999237061</ele>
        <time>2021-03-11T10:30:05.000Z</time>
      </trkpt>
      <trkpt lat="47.31604" lon="-2.37658">
        <ele>37.799999237061</ele>
        <time>2021-03-11T10:30:11.000Z</time>
      </trkpt>
      <trkpt lat="47.31607" lon="-2.37651">
        <ele>37.799999237061</ele>
        <time>2021-03-11T10:30:12.000Z</time>
      </trkpt>
      <trkpt lat="47.31613" lon="-2.3763">
        <ele>37.799999237061</ele>
        <time>2021-03-11T10:30:15.000Z</time>
      </trkpt>
      <trkpt lat="47.31613" lon="-2.37606">
        <ele>37.799999237061</ele>
        <time>2021-03-11T10:30:18.000Z</time>
      </trkpt>
      <trkpt lat="47.31614" lon="-2.37591">
        <ele>37.799999237061</ele>
        <time>2021-03-11T10:30:20.000Z</time>
      </trkpt>
      <trkpt lat="47.31615" lon="-2.37575">
        <ele>38.200000762939</ele>
        <time>2021-03-11T10:30:22.000Z</time>
      </trkpt>
      <trkpt lat="47.31615" lon="-2.37566">
        <ele>38.599998474121</ele>
        <time>2021-03-11T10:30:23.000Z</time>
      </trkpt>
      <trkpt lat="47.31617" lon="-2.37558">
        <ele>39</ele>
        <time>2021-03-11T10:30:24.000Z</time>
      </trkpt>
      <trkpt lat="47.31618" lon="-2.3755">
        <ele>39.400001525879</ele>
        <time>2021-03-11T10:30:25.000Z</time>
      </trkpt>
      <trkpt lat="47.31621" lon="-2.37543">
        <ele>40</ele>
        <time>2021-03-11T10:30:26.000Z</time>
      </trkpt>
      <trkpt lat="47.31635" lon="-2.37499">
        <ele>40</ele>
        <time>2021-03-11T10:30:32.000Z</time>
      </trkpt>
      <trkpt lat="47.31636" lon="-2.37491">
        <ele>40</ele>
        <time>2021-03-11T10:30:33.000Z</time>
      </trkpt>
      <trkpt lat="47.31637" lon="-2.37468">
        <ele>40</ele>
        <time>2021-03-11T10:30:36.000Z</time>
      </trkpt>
      <trkpt lat="47.31636" lon="-2.37453">
        <ele>40</ele>
        <time>2021-03-11T10:30:38.000Z</time>
      </trkpt>
      <trkpt lat="47.31633" lon="-2.37399">
        <ele>40</ele>
        <time>2021-03-11T10:30:45.000Z</time>
      </trkpt>
      <trkpt lat="47.31631" lon="-2.37384">
        <ele>40</ele>
        <time>2021-03-11T10:30:47.000Z</time>
      </trkpt>
      <trkpt lat="47.31624" lon="-2.37353">
        <ele>40</ele>
        <time>2021-03-11T10:30:51.000Z</time>
      </trkpt>
      <trkpt lat="47.31622" lon="-2.37345">
        <ele>40</ele>
        <time>2021-03-11T10:30:52.000Z</time>
      </trkpt>
      <trkpt lat="47.31618" lon="-2.3732">
        <ele>40</ele>
        <time>2021-03-11T10:30:55.000Z</time>
      </trkpt>
      <trkpt lat="47.31618" lon="-2.37304">
        <ele>40.400001525879</ele>
        <time>2021-03-11T10:30:57.000Z</time>
      </trkpt>
      <trkpt lat="47.3162" lon="-2.37296">
        <ele>40.799999237061</ele>
        <time>2021-03-11T10:30:58.000Z</time>
      </trkpt>
      <trkpt lat="47.31622" lon="-2.37289">
        <ele>41.200000762939</ele>
        <time>2021-03-11T10:30:59.000Z</time>
      </trkpt>
      <trkpt lat="47.31625" lon="-2.37283">
        <ele>41.599998474121</ele>
        <time>2021-03-11T10:31:00.000Z</time>
      </trkpt>
      <trkpt lat="47.31629" lon="-2.37278">
        <ele>42</ele>
        <time>2021-03-11T10:31:01.000Z</time>
      </trkpt>
      <trkpt lat="47.31634" lon="-2.37273">
        <ele>42</ele>
        <time>2021-03-11T10:31:02.000Z</time>
      </trkpt>
      <trkpt lat="47.31643" lon="-2.37265">
        <ele>42</ele>
        <time>2021-03-11T10:31:04.000Z</time>
      </trkpt>
      <trkpt lat="47.31667" lon="-2.37245">
        <ele>42</ele>
        <time>2021-03-11T10:31:09.000Z</time>
      </trkpt>
      <trkpt lat="47.31681" lon="-2.37231">
        <ele>42</ele>
        <time>2021-03-11T10:31:12.000Z</time>
      </trkpt>
      <trkpt lat="47.31688" lon="-2.37218">
        <ele>42</ele>
        <time>2021-03-11T10:31:14.000Z</time>
      </trkpt>
      <trkpt lat="47.31689" lon="-2.37192">
        <ele>42</ele>
        <time>2021-03-11T10:31:17.000Z</time>
      </trkpt>
      <trkpt lat="47.31679" lon="-2.3716">
        <ele>42</ele>
        <time>2021-03-11T10:31:21.000Z</time>
      </trkpt>
      <trkpt lat="47.31676" lon="-2.37153">
        <ele>42</ele>
        <time>2021-03-11T10:31:22.000Z</time>
      </trkpt>
      <trkpt lat="47.31666" lon="-2.37132">
        <ele>42.400001525879</ele>
        <time>2021-03-11T10:31:25.000Z</time>
      </trkpt>
      <trkpt lat="47.31662" lon="-2.37125">
        <ele>42.799999237061</ele>
        <time>2021-03-11T10:31:26.000Z</time>
      </trkpt>
      <trkpt lat="47.31658" lon="-2.37117">
        <ele>43.599998474121</ele>
        <time>2021-03-11T10:31:27.000Z</time>
      </trkpt>
      <trkpt lat="47.31654" lon="-2.37109">
        <ele>44</ele>
        <time>2021-03-11T10:31:28.000Z</time>
      </trkpt>
      <trkpt lat="47.31619" lon="-2.37036">
        <ele>44</ele>
        <time>2021-03-11T10:31:37.000Z</time>
      </trkpt>
      <trkpt lat="47.31599" lon="-2.3698">
        <ele>44</ele>
        <time>2021-03-11T10:31:43.000Z</time>
      </trkpt>
      <trkpt lat="47.31596" lon="-2.3697">
        <ele>43.599998474121</ele>
        <time>2021-03-11T10:31:44.000Z</time>
      </trkpt>
      <trkpt lat="47.31593" lon="-2.36961">
        <ele>43.200000762939</ele>
        <time>2021-03-11T10:31:45.000Z</time>
      </trkpt>
      <trkpt lat="47.3159" lon="-2.36951">
        <ele>42.799999237061</ele>
        <time>2021-03-11T10:31:46.000Z</time>
      </trkpt>
      <trkpt lat="47.31587" lon="-2.36941">
        <ele>42.400001525879</ele>
        <time>2021-03-11T10:31:47.000Z</time>
      </trkpt>
      <trkpt lat="47.31584" lon="-2.36932">
        <ele>42</ele>
        <time>2021-03-11T10:31:48.000Z</time>
      </trkpt>
      <trkpt lat="47.31578" lon="-2.36913">
        <ele>42</ele>
        <time>2021-03-11T10:31:50.000Z</time>
      </trkpt>
      <trkpt lat="47.31572" lon="-2.36893">
        <ele>41.400001525879</ele>
        <time>2021-03-11T10:31:52.000Z</time>
      </trkpt>
      <trkpt lat="47.31569" lon="-2.36883">
        <ele>41</ele>
        <time>2021-03-11T10:31:53.000Z</time>
      </trkpt>
      <trkpt lat="47.31566" lon="-2.36872">
        <ele>40.599998474121</ele>
        <time>2021-03-11T10:31:54.000Z</time>
      </trkpt>
      <trkpt lat="47.31563" lon="-2.36862">
        <ele>40</ele>
        <time>2021-03-11T10:31:55.000Z</time>
      </trkpt>
      <trkpt lat="47.3156" lon="-2.36851">
        <ele>39.599998474121</ele>
        <time>2021-03-11T10:31:56.000Z</time>
      </trkpt>
      <trkpt lat="47.31557" lon="-2.3684">
        <ele>39.599998474121</ele>
        <time>2021-03-11T10:31:57.000Z</time>
      </trkpt>
      <trkpt lat="47.31552" lon="-2.36821">
        <ele>39</ele>
        <time>2021-03-11T10:31:59.000Z</time>
      </trkpt>
      <trkpt lat="47.3155" lon="-2.36814">
        <ele>38.599998474121</ele>
        <time>2021-03-11T10:32:00.000Z</time>
      </trkpt>
      <trkpt lat="47.31549" lon="-2.36807">
        <ele>38</ele>
        <time>2021-03-11T10:32:01.000Z</time>
      </trkpt>
      <trkpt lat="47.31547" lon="-2.36799">
        <ele>37.599998474121</ele>
        <time>2021-03-11T10:32:02.000Z</time>
      </trkpt>
      <trkpt lat="47.31546" lon="-2.36791">
        <ele>37</ele>
        <time>2021-03-11T10:32:03.000Z</time>
      </trkpt>
      <trkpt lat="47.31544" lon="-2.36784">
        <ele>36.599998474121</ele>
        <time>2021-03-11T10:32:04.000Z</time>
      </trkpt>
      <trkpt lat="47.31542" lon="-2.36777">
        <ele>36</ele>
        <time>2021-03-11T10:32:05.000Z</time>
      </trkpt>
      <trkpt lat="47.31541" lon="-2.3677">
        <ele>35.400001525879</ele>
        <time>2021-03-11T10:32:06.000Z</time>
      </trkpt>
      <trkpt lat="47.3154" lon="-2.36764">
        <ele>35</ele>
        <time>2021-03-11T10:32:07.000Z</time>
      </trkpt>
      <trkpt lat="47.31537" lon="-2.36754">
        <ele>34.599998474121</ele>
        <time>2021-03-11T10:32:09.000Z</time>
      </trkpt>
      <trkpt lat="47.31536" lon="-2.36749">
        <ele>34.200000762939</ele>
        <time>2021-03-11T10:32:10.000Z</time>
      </trkpt>
      <trkpt lat="47.31537" lon="-2.36745">
        <ele>33.799999237061</ele>
        <time>2021-03-11T10:32:11.000Z</time>
      </trkpt>
      <trkpt lat="47.31536" lon="-2.36742">
        <ele>33.400001525879</ele>
        <time>2021-03-11T10:32:12.000Z</time>
      </trkpt>
      <trkpt lat="47.31535" lon="-2.36737">
        <ele>33</ele>
        <time>2021-03-11T10:32:13.000Z</time>
      </trkpt>
      <trkpt lat="47.31529" lon="-2.36714">
        <ele>33</ele>
        <time>2021-03-11T10:32:17.000Z</time>
      </trkpt>
      <trkpt lat="47.31524" lon="-2.36692">
        <ele>32.599998474121</ele>
        <time>2021-03-11T10:32:21.000Z</time>
      </trkpt>
      <trkpt lat="47.31523" lon="-2.36686">
        <ele>32.200000762939</ele>
        <time>2021-03-11T10:32:22.000Z</time>
      </trkpt>
      <trkpt lat="47.31522" lon="-2.3668">
        <ele>31.799999237061</ele>
        <time>2021-03-11T10:32:23.000Z</time>
      </trkpt>
      <trkpt lat="47.31521" lon="-2.36674">
        <ele>31.39999961853</ele>
        <time>2021-03-11T10:32:24.000Z</time>
      </trkpt>
      <trkpt lat="47.31519" lon="-2.36669">
        <ele>31</ele>
        <time>2021-03-11T10:32:25.000Z</time>
      </trkpt>
      <trkpt lat="47.31514" lon="-2.36647">
        <ele>31</ele>
        <time>2021-03-11T10:32:29.000Z</time>
      </trkpt>
      <trkpt lat="47.31505" lon="-2.36621">
        <ele>31</ele>
        <time>2021-03-11T10:32:34.000Z</time>
      </trkpt>
      <trkpt lat="47.315" lon="-2.36599">
        <ele>31</ele>
        <time>2021-03-11T10:32:39.000Z</time>
      </trkpt>
      <trkpt lat="47.31495" lon="-2.36583">
        <ele>31</ele>
        <time>2021-03-11T10:32:45.000Z</time>
      </trkpt>
      <trkpt lat="47.31495" lon="-2.36567">
        <ele>31</ele>
        <time>2021-03-11T10:32:50.000Z</time>
      </trkpt>
      <trkpt lat="47.31495" lon="-2.36551">
        <ele>31</ele>
        <time>2021-03-11T10:32:55.000Z</time>
      </trkpt>
      <trkpt lat="47.31497" lon="-2.36543">
        <ele>31</ele>
        <time>2021-03-11T10:33:00.000Z</time>
      </trkpt>
      <trkpt lat="47.31496" lon="-2.36542">
        <ele>31</ele>
        <time>2021-03-11T10:33:02.000Z</time>
      </trkpt>
      <trkpt lat="47.31496" lon="-2.36499">
        <ele>31</ele>
        <time>2021-03-11T10:33:50.000Z</time>
      </trkpt>
      <trkpt lat="47.31496" lon="-2.36497">
        <ele>31</ele>
        <time>2021-03-11T10:33:51.000Z</time>
      </trkpt>
      <trkpt lat="47.31496" lon="-2.36496">
        <ele>31</ele>
        <time>2021-03-11T10:33:52.000Z</time>
      </trkpt>
      <trkpt lat="47.315" lon="-2.36492">
        <ele>31</ele>
        <time>2021-03-11T10:33:57.000Z</time>
      </trkpt>
      <trkpt lat="47.315" lon="-2.3649">
        <ele>31</ele>
        <time>2021-03-11T10:33:58.000Z</time>
      </trkpt>
      <trkpt lat="47.31501" lon="-2.36486">
        <ele>31</ele>
        <time>2021-03-11T10:34:01.000Z</time>
      </trkpt>
      <trkpt lat="47.315" lon="-2.36476">
        <ele>31</ele>
        <time>2021-03-11T10:34:07.000Z</time>
      </trkpt>
      <trkpt lat="47.31499" lon="-2.36465">
        <ele>31</ele>
        <time>2021-03-11T10:34:14.000Z</time>
      </trkpt>
      <trkpt lat="47.31497" lon="-2.36461">
        <ele>31</ele>
        <time>2021-03-11T10:34:17.000Z</time>
      </trkpt>
      <trkpt lat="47.31497" lon="-2.36459">
        <ele>31</ele>
        <time>2021-03-11T10:34:20.000Z</time>
      </trkpt>
      <trkpt lat="47.31496" lon="-2.36458">
        <ele>31</ele>
        <time>2021-03-11T10:34:22.000Z</time>
      </trkpt>
      <trkpt lat="47.31492" lon="-2.36382">
        <ele>33</ele>
        <time>2021-03-11T10:35:18.000Z</time>
      </trkpt>
      <trkpt lat="47.31493" lon="-2.3638">
        <ele>33</ele>
        <time>2021-03-11T10:35:20.000Z</time>
      </trkpt>
      <trkpt lat="47.31493" lon="-2.3638">
        <ele>33</ele>
        <time>2021-03-11T10:35:21.000Z</time>
      </trkpt>
      <trkpt lat="47.31493" lon="-2.36376">
        <ele>33</ele>
        <time>2021-03-11T10:35:26.000Z</time>
      </trkpt>
      <trkpt lat="47.31493" lon="-2.3637">
        <ele>33</ele>
        <time>2021-03-11T10:35:28.000Z</time>
      </trkpt>
      <trkpt lat="47.31493" lon="-2.36367">
        <ele>33.400001525879</ele>
        <time>2021-03-11T10:35:29.000Z</time>
      </trkpt>
      <trkpt lat="47.31493" lon="-2.36364">
        <ele>33.799999237061</ele>
        <time>2021-03-11T10:35:30.000Z</time>
      </trkpt>
      <trkpt lat="47.31493" lon="-2.36361">
        <ele>34.200000762939</ele>
        <time>2021-03-11T10:35:31.000Z</time>
      </trkpt>
      <trkpt lat="47.31493" lon="-2.36357">
        <ele>34.599998474121</ele>
        <time>2021-03-11T10:35:32.000Z</time>
      </trkpt>
      <trkpt lat="47.31494" lon="-2.36354">
        <ele>35</ele>
        <time>2021-03-11T10:35:33.000Z</time>
      </trkpt>
      <trkpt lat="47.31494" lon="-2.36348">
        <ele>35</ele>
        <time>2021-03-11T10:35:35.000Z</time>
      </trkpt>
      <trkpt lat="47.31495" lon="-2.36323">
        <ele>35</ele>
        <time>2021-03-11T10:35:42.000Z</time>
      </trkpt>
      <trkpt lat="47.31489" lon="-2.36299">
        <ele>35</ele>
        <time>2021-03-11T10:35:48.000Z</time>
      </trkpt>
      <trkpt lat="47.31484" lon="-2.36276">
        <ele>35</ele>
        <time>2021-03-11T10:35:54.000Z</time>
      </trkpt>
      <trkpt lat="47.31483" lon="-2.36273">
        <ele>35.400001525879</ele>
        <time>2021-03-11T10:35:55.000Z</time>
      </trkpt>
      <trkpt lat="47.31482" lon="-2.36269">
        <ele>35.799999237061</ele>
        <time>2021-03-11T10:35:56.000Z</time>
      </trkpt>
      <trkpt lat="47.31481" lon="-2.36265">
        <ele>36.200000762939</ele>
        <time>2021-03-11T10:35:57.000Z</time>
      </trkpt>
      <trkpt lat="47.3148" lon="-2.36261">
        <ele>36.799999237061</ele>
        <time>2021-03-11T10:35:58.000Z</time>
      </trkpt>
      <trkpt lat="47.31479" lon="-2.36256">
        <ele>37.200000762939</ele>
        <time>2021-03-11T10:35:59.000Z</time>
      </trkpt>
      <trkpt lat="47.31477" lon="-2.3625">
        <ele>37.200000762939</ele>
        <time>2021-03-11T10:36:01.000Z</time>
      </trkpt>
      <trkpt lat="47.31471" lon="-2.36229">
        <ele>37.200000762939</ele>
        <time>2021-03-11T10:36:07.000Z</time>
      </trkpt>
      <trkpt lat="47.31464" lon="-2.36198">
        <ele>37.200000762939</ele>
        <time>2021-03-11T10:36:15.000Z</time>
      </trkpt>
      <trkpt lat="47.31461" lon="-2.36183">
        <ele>37.200000762939</ele>
        <time>2021-03-11T10:36:21.000Z</time>
      </trkpt>
      <trkpt lat="47.3146" lon="-2.36182">
        <ele>37.200000762939</ele>
        <time>2021-03-11T10:36:22.000Z</time>
      </trkpt>
      <trkpt lat="47.31459" lon="-2.36181">
        <ele>37.599998474121</ele>
        <time>2021-03-11T10:36:23.000Z</time>
      </trkpt>
      <trkpt lat="47.31457" lon="-2.3618">
        <ele>38.400001525879</ele>
        <time>2021-03-11T10:36:24.000Z</time>
      </trkpt>
      <trkpt lat="47.31455" lon="-2.36179">
        <ele>39</ele>
        <time>2021-03-11T10:36:25.000Z</time>
      </trkpt>
      <trkpt lat="47.31453" lon="-2.36179">
        <ele>39.400001525879</ele>
        <time>2021-03-11T10:36:26.000Z</time>
      </trkpt>
      <trkpt lat="47.3144" lon="-2.36187">
        <ele>39.400001525879</ele>
        <time>2021-03-11T10:36:31.000Z</time>
      </trkpt>
      <trkpt lat="47.31423" lon="-2.36198">
        <ele>39.400001525879</ele>
        <time>2021-03-11T10:36:38.000Z</time>
      </trkpt>
      <trkpt lat="47.31403" lon="-2.36208">
        <ele>39.400001525879</ele>
        <time>2021-03-11T10:36:45.000Z</time>
      </trkpt>
      <trkpt lat="47.31378" lon="-2.36218">
        <ele>39.400001525879</ele>
        <time>2021-03-11T10:36:52.000Z</time>
      </trkpt>
      <trkpt lat="47.31358" lon="-2.36239">
        <ele>39.799999237061</ele>
        <time>2021-03-11T10:36:58.000Z</time>
      </trkpt>
      <trkpt lat="47.31356" lon="-2.36243">
        <ele>40.200000762939</ele>
        <time>2021-03-11T10:36:59.000Z</time>
      </trkpt>
      <trkpt lat="47.31353" lon="-2.36247">
        <ele>40.599998474121</ele>
        <time>2021-03-11T10:37:00.000Z</time>
      </trkpt>
      <trkpt lat="47.31351" lon="-2.36251">
        <ele>41</ele>
        <time>2021-03-11T10:37:01.000Z</time>
      </trkpt>
      <trkpt lat="47.31348" lon="-2.36255">
        <ele>41.400001525879</ele>
        <time>2021-03-11T10:37:02.000Z</time>
      </trkpt>
      <trkpt lat="47.31342" lon="-2.3626">
        <ele>41.400001525879</ele>
        <time>2021-03-11T10:37:04.000Z</time>
      </trkpt>
      <trkpt lat="47.31326" lon="-2.36276">
        <ele>41.400001525879</ele>
        <time>2021-03-11T10:37:09.000Z</time>
      </trkpt>
      <trkpt lat="47.31304" lon="-2.36294">
        <ele>41.400001525879</ele>
        <time>2021-03-11T10:37:16.000Z</time>
      </trkpt>
      <trkpt lat="47.31282" lon="-2.36305">
        <ele>41.400001525879</ele>
        <time>2021-03-11T10:37:22.000Z</time>
      </trkpt>
      <trkpt lat="47.31257" lon="-2.36316">
        <ele>41.400001525879</ele>
        <time>2021-03-11T10:37:28.000Z</time>
      </trkpt>
      <trkpt lat="47.31236" lon="-2.3633">
        <ele>41</ele>
        <time>2021-03-11T10:37:33.000Z</time>
      </trkpt>
      <trkpt lat="47.31231" lon="-2.36333">
        <ele>40.599998474121</ele>
        <time>2021-03-11T10:37:34.000Z</time>
      </trkpt>
      <trkpt lat="47.31227" lon="-2.36337">
        <ele>40.200000762939</ele>
        <time>2021-03-11T10:37:35.000Z</time>
      </trkpt>
      <trkpt lat="47.31223" lon="-2.36339">
        <ele>39.799999237061</ele>
        <time>2021-03-11T10:37:36.000Z</time>
      </trkpt>
      <trkpt lat="47.31218" lon="-2.36342">
        <ele>39.400001525879</ele>
        <time>2021-03-11T10:37:37.000Z</time>
      </trkpt>
      <trkpt lat="47.312" lon="-2.36352">
        <ele>39.400001525879</ele>
        <time>2021-03-11T10:37:41.000Z</time>
      </trkpt>
      <trkpt lat="47.31186" lon="-2.3636">
        <ele>39</ele>
        <time>2021-03-11T10:37:44.000Z</time>
      </trkpt>
      <trkpt lat="47.31181" lon="-2.36363">
        <ele>38.599998474121</ele>
        <time>2021-03-11T10:37:45.000Z</time>
      </trkpt>
      <trkpt lat="47.31176" lon="-2.36366">
        <ele>38.200000762939</ele>
        <time>2021-03-11T10:37:46.000Z</time>
      </trkpt>
      <trkpt lat="47.31171" lon="-2.36369">
        <ele>37.799999237061</ele>
        <time>2021-03-11T10:37:47.000Z</time>
      </trkpt>
      <trkpt lat="47.31167" lon="-2.36373">
        <ele>37.400001525879</ele>
        <time>2021-03-11T10:37:48.000Z</time>
      </trkpt>
      <trkpt lat="47.31141" lon="-2.36392">
        <ele>37.400001525879</ele>
        <time>2021-03-11T10:37:54.000Z</time>
      </trkpt>
      <trkpt lat="47.31137" lon="-2.36394">
        <ele>37.400001525879</ele>
        <time>2021-03-11T10:37:55.000Z</time>
      </trkpt>
      <trkpt lat="47.31133" lon="-2.36397">
        <ele>37.400001525879</ele>
        <time>2021-03-11T10:37:56.000Z</time>
      </trkpt>
      <trkpt lat="47.31112" lon="-2.36408">
        <ele>37.400001525879</ele>
        <time>2021-03-11T10:38:01.000Z</time>
      </trkpt>
      <trkpt lat="47.31099" lon="-2.36414">
        <ele>37.400001525879</ele>
        <time>2021-03-11T10:38:06.000Z</time>
      </trkpt>
      <trkpt lat="47.31091" lon="-2.36415">
        <ele>37.400001525879</ele>
        <time>2021-03-11T10:38:11.000Z</time>
      </trkpt>
      <trkpt lat="47.31076" lon="-2.36418">
        <ele>37.400001525879</ele>
        <time>2021-03-11T10:38:15.000Z</time>
      </trkpt>
      <trkpt lat="47.3105" lon="-2.36419">
        <ele>37.400001525879</ele>
        <time>2021-03-11T10:38:21.000Z</time>
      </trkpt>
      <trkpt lat="47.31028" lon="-2.36424">
        <ele>37.400001525879</ele>
        <time>2021-03-11T10:38:26.000Z</time>
      </trkpt>
      <trkpt lat="47.3102" lon="-2.36427">
        <ele>37.400001525879</ele>
        <time>2021-03-11T10:38:28.000Z</time>
      </trkpt>
      <trkpt lat="47.3099" lon="-2.36437">
        <ele>37.400001525879</ele>
        <time>2021-03-11T10:38:35.000Z</time>
      </trkpt>
      <trkpt lat="47.30962" lon="-2.3645">
        <ele>37.400001525879</ele>
        <time>2021-03-11T10:38:42.000Z</time>
      </trkpt>
      <trkpt lat="47.30949" lon="-2.36454">
        <ele>37.799999237061</ele>
        <time>2021-03-11T10:38:45.000Z</time>
      </trkpt>
      <trkpt lat="47.30943" lon="-2.36455">
        <ele>38.200000762939</ele>
        <time>2021-03-11T10:38:46.000Z</time>
      </trkpt>
      <trkpt lat="47.30938" lon="-2.36456">
        <ele>38.799999237061</ele>
        <time>2021-03-11T10:38:47.000Z</time>
      </trkpt>
      <trkpt lat="47.30933" lon="-2.36458">
        <ele>39.200000762939</ele>
        <time>2021-03-11T10:38:48.000Z</time>
      </trkpt>
      <trkpt lat="47.30928" lon="-2.3646">
        <ele>39.599998474121</ele>
        <time>2021-03-11T10:38:49.000Z</time>
      </trkpt>
      <trkpt lat="47.30914" lon="-2.36464">
        <ele>39.599998474121</ele>
        <time>2021-03-11T10:38:52.000Z</time>
      </trkpt>
      <trkpt lat="47.3091" lon="-2.36466">
        <ele>39.599998474121</ele>
        <time>2021-03-11T10:38:53.000Z</time>
      </trkpt>
      <trkpt lat="47.30896" lon="-2.36472">
        <ele>39.599998474121</ele>
        <time>2021-03-11T10:38:56.000Z</time>
      </trkpt>
      <trkpt lat="47.30883" lon="-2.36477">
        <ele>39.599998474121</ele>
        <time>2021-03-11T10:38:59.000Z</time>
      </trkpt>
      <trkpt lat="47.30853" lon="-2.36483">
        <ele>40</ele>
        <time>2021-03-11T10:39:06.000Z</time>
      </trkpt>
      <trkpt lat="47.30849" lon="-2.36484">
        <ele>40.599998474121</ele>
        <time>2021-03-11T10:39:07.000Z</time>
      </trkpt>
      <trkpt lat="47.30844" lon="-2.36485">
        <ele>41</ele>
        <time>2021-03-11T10:39:08.000Z</time>
      </trkpt>
      <trkpt lat="47.3084" lon="-2.36485">
        <ele>41.599998474121</ele>
        <time>2021-03-11T10:39:09.000Z</time>
      </trkpt>
      <trkpt lat="47.30836" lon="-2.36486">
        <ele>42</ele>
        <time>2021-03-11T10:39:10.000Z</time>
      </trkpt>
      <trkpt lat="47.30829" lon="-2.36484">
        <ele>42</ele>
        <time>2021-03-11T10:39:12.000Z</time>
      </trkpt>
      <trkpt lat="47.30816" lon="-2.36471">
        <ele>42</ele>
        <time>2021-03-11T10:39:16.000Z</time>
      </trkpt>
      <trkpt lat="47.30799" lon="-2.36472">
        <ele>42</ele>
        <time>2021-03-11T10:39:20.000Z</time>
      </trkpt>
      <trkpt lat="47.3079" lon="-2.36477">
        <ele>42</ele>
        <time>2021-03-11T10:39:22.000Z</time>
      </trkpt>
      <trkpt lat="47.30781" lon="-2.3648">
        <ele>42</ele>
        <time>2021-03-11T10:39:24.000Z</time>
      </trkpt>
      <trkpt lat="47.30772" lon="-2.36484">
        <ele>42</ele>
        <time>2021-03-11T10:39:26.000Z</time>
      </trkpt>
      <trkpt lat="47.30741" lon="-2.36497">
        <ele>42</ele>
        <time>2021-03-11T10:39:33.000Z</time>
      </trkpt>
      <trkpt lat="47.30712" lon="-2.36511">
        <ele>42</ele>
        <time>2021-03-11T10:39:40.000Z</time>
      </trkpt>
      <trkpt lat="47.30703" lon="-2.36521">
        <ele>42</ele>
        <time>2021-03-11T10:39:44.000Z</time>
      </trkpt>
      <trkpt lat="47.30694" lon="-2.36514">
        <ele>42</ele>
        <time>2021-03-11T10:39:48.000Z</time>
      </trkpt>
      <trkpt lat="47.30691" lon="-2.36513">
        <ele>42</ele>
        <time>2021-03-11T10:39:49.000Z</time>
      </trkpt>
      <trkpt lat="47.30685" lon="-2.36515">
        <ele>42.400001525879</ele>
        <time>2021-03-11T10:39:51.000Z</time>
      </trkpt>
      <trkpt lat="47.30682" lon="-2.36516">
        <ele>42.799999237061</ele>
        <time>2021-03-11T10:39:52.000Z</time>
      </trkpt>
      <trkpt lat="47.30679" lon="-2.36517">
        <ele>43.400001525879</ele>
        <time>2021-03-11T10:39:53.000Z</time>
      </trkpt>
      <trkpt lat="47.30675" lon="-2.36518">
        <ele>43.799999237061</ele>
        <time>2021-03-11T10:39:54.000Z</time>
      </trkpt>
      <trkpt lat="47.30671" lon="-2.36519">
        <ele>44.200000762939</ele>
        <time>2021-03-11T10:39:55.000Z</time>
      </trkpt>
      <trkpt lat="47.3066" lon="-2.36523">
        <ele>44.200000762939</ele>
        <time>2021-03-11T10:39:58.000Z</time>
      </trkpt>
      <trkpt lat="47.30634" lon="-2.36538">
        <ele>44.200000762939</ele>
        <time>2021-03-11T10:40:05.000Z</time>
      </trkpt>
      <trkpt lat="47.30611" lon="-2.36544">
        <ele>44.200000762939</ele>
        <time>2021-03-11T10:40:11.000Z</time>
      </trkpt>
      <trkpt lat="47.30586" lon="-2.3655">
        <ele>44.200000762939</ele>
        <time>2021-03-11T10:40:17.000Z</time>
      </trkpt>
      <trkpt lat="47.30569" lon="-2.36558">
        <ele>44.200000762939</ele>
        <time>2021-03-11T10:40:22.000Z</time>
      </trkpt>
      <trkpt lat="47.30561" lon="-2.36567">
        <ele>44.200000762939</ele>
        <time>2021-03-11T10:40:26.000Z</time>
      </trkpt>
      <trkpt lat="47.30548" lon="-2.36574">
        <ele>44.200000762939</ele>
        <time>2021-03-11T10:40:32.000Z</time>
      </trkpt>
      <trkpt lat="47.3054" lon="-2.36581">
        <ele>44.200000762939</ele>
        <time>2021-03-11T10:40:36.000Z</time>
      </trkpt>
      <trkpt lat="47.30537" lon="-2.36583">
        <ele>44.200000762939</ele>
        <time>2021-03-11T10:40:37.000Z</time>
      </trkpt>
      <trkpt lat="47.30525" lon="-2.36591">
        <ele>44.200000762939</ele>
        <time>2021-03-11T10:40:42.000Z</time>
      </trkpt>
      <trkpt lat="47.3051" lon="-2.36598">
        <ele>44.200000762939</ele>
        <time>2021-03-11T10:40:49.000Z</time>
      </trkpt>
      <trkpt lat="47.305" lon="-2.36602">
        <ele>44.200000762939</ele>
        <time>2021-03-11T10:40:55.000Z</time>
      </trkpt>
      <trkpt lat="47.30492" lon="-2.36604">
        <ele>44.200000762939</ele>
        <time>2021-03-11T10:41:00.000Z</time>
      </trkpt>
      <trkpt lat="47.30487" lon="-2.36604">
        <ele>44.200000762939</ele>
        <time>2021-03-11T10:41:06.000Z</time>
      </trkpt>
      <trkpt lat="47.30478" lon="-2.36609">
        <ele>45.799999237061</ele>
        <time>2021-03-11T10:41:17.000Z</time>
      </trkpt>
      <trkpt lat="47.30476" lon="-2.36609">
        <ele>45.599998474121</ele>
        <time>2021-03-11T10:41:18.000Z</time>
      </trkpt>
      <trkpt lat="47.30475" lon="-2.3661">
        <ele>45.400001525879</ele>
        <time>2021-03-11T10:41:19.000Z</time>
      </trkpt>
      <trkpt lat="47.30473" lon="-2.3661">
        <ele>45.400001525879</ele>
        <time>2021-03-11T10:41:20.000Z</time>
      </trkpt>
      <trkpt lat="47.30471" lon="-2.36611">
        <ele>45.400001525879</ele>
        <time>2021-03-11T10:41:21.000Z</time>
      </trkpt>
      <trkpt lat="47.30464" lon="-2.36617">
        <ele>45.400001525879</ele>
        <time>2021-03-11T10:41:26.000Z</time>
      </trkpt>
      <trkpt lat="47.30458" lon="-2.36623">
        <ele>45.400001525879</ele>
        <time>2021-03-11T10:41:31.000Z</time>
      </trkpt>
      <trkpt lat="47.30448" lon="-2.36631">
        <ele>45.400001525879</ele>
        <time>2021-03-11T10:41:36.000Z</time>
      </trkpt>
      <trkpt lat="47.30436" lon="-2.36641">
        <ele>45.400001525879</ele>
        <time>2021-03-11T10:41:41.000Z</time>
      </trkpt>
      <trkpt lat="47.30422" lon="-2.36651">
        <ele>45.400001525879</ele>
        <time>2021-03-11T10:41:48.000Z</time>
      </trkpt>
      <trkpt lat="47.30405" lon="-2.36656">
        <ele>45.400001525879</ele>
        <time>2021-03-11T10:41:53.000Z</time>
      </trkpt>
      <trkpt lat="47.30381" lon="-2.36659">
        <ele>45.400001525879</ele>
        <time>2021-03-11T10:42:00.000Z</time>
      </trkpt>
      <trkpt lat="47.30351" lon="-2.36656">
        <ele>45.400001525879</ele>
        <time>2021-03-11T10:42:07.000Z</time>
      </trkpt>
      <trkpt lat="47.30326" lon="-2.36649">
        <ele>45</ele>
        <time>2021-03-11T10:42:12.000Z</time>
      </trkpt>
      <trkpt lat="47.30322" lon="-2.36648">
        <ele>44.599998474121</ele>
        <time>2021-03-11T10:42:13.000Z</time>
      </trkpt>
      <trkpt lat="47.30319" lon="-2.36648">
        <ele>44.200000762939</ele>
        <time>2021-03-11T10:42:14.000Z</time>
      </trkpt>
      <trkpt lat="47.30315" lon="-2.36648">
        <ele>43.799999237061</ele>
        <time>2021-03-11T10:42:15.000Z</time>
      </trkpt>
      <trkpt lat="47.30311" lon="-2.36648">
        <ele>43.400001525879</ele>
        <time>2021-03-11T10:42:16.000Z</time>
      </trkpt>
      <trkpt lat="47.30296" lon="-2.36651">
        <ele>43.400001525879</ele>
        <time>2021-03-11T10:42:20.000Z</time>
      </trkpt>
      <trkpt lat="47.30268" lon="-2.36662">
        <ele>43.400001525879</ele>
        <time>2021-03-11T10:42:27.000Z</time>
      </trkpt>
      <trkpt lat="47.30236" lon="-2.3667">
        <ele>43.400001525879</ele>
        <time>2021-03-11T10:42:34.000Z</time>
      </trkpt>
      <trkpt lat="47.302" lon="-2.36674">
        <ele>43.400001525879</ele>
        <time>2021-03-11T10:42:42.000Z</time>
      </trkpt>
      <trkpt lat="47.30182" lon="-2.3668">
        <ele>43.400001525879</ele>
        <time>2021-03-11T10:42:48.000Z</time>
      </trkpt>
      <trkpt lat="47.30179" lon="-2.3668">
        <ele>43.400001525879</ele>
        <time>2021-03-11T10:42:52.000Z</time>
      </trkpt>
      <trkpt lat="47.30176" lon="-2.36682">
        <ele>43.200000762939</ele>
        <time>2021-03-11T10:46:20.000Z</time>
      </trkpt>
      <trkpt lat="47.30174" lon="-2.36684">
        <ele>42.799999237061</ele>
        <time>2021-03-11T10:46:21.000Z</time>
      </trkpt>
      <trkpt lat="47.30172" lon="-2.36685">
        <ele>42.400001525879</ele>
        <time>2021-03-11T10:46:22.000Z</time>
      </trkpt>
      <trkpt lat="47.3017" lon="-2.36685">
        <ele>42</ele>
        <time>2021-03-11T10:46:23.000Z</time>
      </trkpt>
      <trkpt lat="47.30168" lon="-2.36684">
        <ele>41.599998474121</ele>
        <time>2021-03-11T10:46:24.000Z</time>
      </trkpt>
      <trkpt lat="47.30165" lon="-2.36684">
        <ele>41.200000762939</ele>
        <time>2021-03-11T10:46:25.000Z</time>
      </trkpt>
      <trkpt lat="47.30151" lon="-2.36687">
        <ele>41.200000762939</ele>
        <time>2021-03-11T10:46:29.000Z</time>
      </trkpt>
      <trkpt lat="47.30145" lon="-2.36691">
        <ele>41.200000762939</ele>
        <time>2021-03-11T10:46:30.000Z</time>
      </trkpt>
      <trkpt lat="47.30117" lon="-2.36707">
        <ele>41.200000762939</ele>
        <time>2021-03-11T10:46:35.000Z</time>
      </trkpt>
      <trkpt lat="47.30112" lon="-2.36711">
        <ele>41.200000762939</ele>
        <time>2021-03-11T10:46:36.000Z</time>
      </trkpt>
      <trkpt lat="47.30089" lon="-2.3673">
        <ele>41.200000762939</ele>
        <time>2021-03-11T10:46:42.000Z</time>
      </trkpt>
      <trkpt lat="47.30082" lon="-2.36739">
        <ele>41.200000762939</ele>
        <time>2021-03-11T10:46:44.000Z</time>
      </trkpt>
      <trkpt lat="47.30076" lon="-2.36748">
        <ele>41.200000762939</ele>
        <time>2021-03-11T10:46:46.000Z</time>
      </trkpt>
      <trkpt lat="47.30065" lon="-2.36762">
        <ele>41.200000762939</ele>
        <time>2021-03-11T10:46:51.000Z</time>
      </trkpt>
      <trkpt lat="47.30053" lon="-2.36776">
        <ele>41.200000762939</ele>
        <time>2021-03-11T10:46:55.000Z</time>
      </trkpt>
      <trkpt lat="47.3005" lon="-2.3678">
        <ele>41.599998474121</ele>
        <time>2021-03-11T10:46:56.000Z</time>
      </trkpt>
      <trkpt lat="47.30046" lon="-2.36784">
        <ele>42</ele>
        <time>2021-03-11T10:46:57.000Z</time>
      </trkpt>
      <trkpt lat="47.30043" lon="-2.36788">
        <ele>42.599998474121</ele>
        <time>2021-03-11T10:46:58.000Z</time>
      </trkpt>
      <trkpt lat="47.3004" lon="-2.36792">
        <ele>43</ele>
        <time>2021-03-11T10:46:59.000Z</time>
      </trkpt>
      <trkpt lat="47.30036" lon="-2.36796">
        <ele>43.400001525879</ele>
        <time>2021-03-11T10:47:00.000Z</time>
      </trkpt>
      <trkpt lat="47.30032" lon="-2.368">
        <ele>43.400001525879</ele>
        <time>2021-03-11T10:47:01.000Z</time>
      </trkpt>
      <trkpt lat="47.3" lon="-2.36839">
        <ele>43.400001525879</ele>
        <time>2021-03-11T10:47:11.000Z</time>
      </trkpt>
      <trkpt lat="47.29973" lon="-2.3687">
        <ele>43.400001525879</ele>
        <time>2021-03-11T10:47:19.000Z</time>
      </trkpt>
      <trkpt lat="47.29949" lon="-2.36899">
        <ele>43.400001525879</ele>
        <time>2021-03-11T10:47:27.000Z</time>
      </trkpt>
      <trkpt lat="47.29924" lon="-2.36929">
        <ele>43.400001525879</ele>
        <time>2021-03-11T10:47:36.000Z</time>
      </trkpt>
      <trkpt lat="47.29909" lon="-2.36951">
        <ele>43.400001525879</ele>
        <time>2021-03-11T10:47:42.000Z</time>
      </trkpt>
      <trkpt lat="47.29901" lon="-2.36969">
        <ele>43.400001525879</ele>
        <time>2021-03-11T10:47:46.000Z</time>
      </trkpt>
      <trkpt lat="47.29898" lon="-2.36971">
        <ele>43.400001525879</ele>
        <time>2021-03-11T10:47:47.000Z</time>
      </trkpt>
      <trkpt lat="47.29881" lon="-2.36973">
        <ele>43.400001525879</ele>
        <time>2021-03-11T10:47:51.000Z</time>
      </trkpt>
      <trkpt lat="47.29872" lon="-2.3698">
        <ele>43.400001525879</ele>
        <time>2021-03-11T10:47:53.000Z</time>
      </trkpt>
      <trkpt lat="47.29865" lon="-2.3699">
        <ele>43.400001525879</ele>
        <time>2021-03-11T10:47:55.000Z</time>
      </trkpt>
      <trkpt lat="47.29852" lon="-2.37008">
        <ele>43.400001525879</ele>
        <time>2021-03-11T10:47:59.000Z</time>
      </trkpt>
      <trkpt lat="47.29824" lon="-2.37044">
        <ele>43.400001525879</ele>
        <time>2021-03-11T10:48:07.000Z</time>
      </trkpt>
      <trkpt lat="47.29811" lon="-2.37073">
        <ele>43.400001525879</ele>
        <time>2021-03-11T10:48:12.000Z</time>
      </trkpt>
      <trkpt lat="47.29809" lon="-2.37078">
        <ele>43.400001525879</ele>
        <time>2021-03-11T10:48:13.000Z</time>
      </trkpt>
      <trkpt lat="47.29809" lon="-2.37091">
        <ele>43.799999237061</ele>
        <time>2021-03-11T10:48:15.000Z</time>
      </trkpt>
      <trkpt lat="47.29809" lon="-2.37097">
        <ele>44.400001525879</ele>
        <time>2021-03-11T10:48:16.000Z</time>
      </trkpt>
      <trkpt lat="47.29809" lon="-2.37103">
        <ele>44.799999237061</ele>
        <time>2021-03-11T10:48:17.000Z</time>
      </trkpt>
      <trkpt lat="47.29809" lon="-2.37109">
        <ele>45.200000762939</ele>
        <time>2021-03-11T10:48:18.000Z</time>
      </trkpt>
      <trkpt lat="47.29807" lon="-2.37114">
        <ele>45.599998474121</ele>
        <time>2021-03-11T10:48:19.000Z</time>
      </trkpt>
      <trkpt lat="47.29803" lon="-2.37136">
        <ele>45.599998474121</ele>
        <time>2021-03-11T10:48:23.000Z</time>
      </trkpt>
      <trkpt lat="47.29799" lon="-2.37145">
        <ele>45.200000762939</ele>
        <time>2021-03-11T10:48:25.000Z</time>
      </trkpt>
      <trkpt lat="47.29796" lon="-2.37149">
        <ele>44.799999237061</ele>
        <time>2021-03-11T10:48:26.000Z</time>
      </trkpt>
      <trkpt lat="47.29793" lon="-2.37153">
        <ele>44.400001525879</ele>
        <time>2021-03-11T10:48:27.000Z</time>
      </trkpt>
      <trkpt lat="47.2979" lon="-2.37158">
        <ele>44</ele>
        <time>2021-03-11T10:48:28.000Z</time>
      </trkpt>
      <trkpt lat="47.29787" lon="-2.37162">
        <ele>43.400001525879</ele>
        <time>2021-03-11T10:48:29.000Z</time>
      </trkpt>
      <trkpt lat="47.29771" lon="-2.37173">
        <ele>43.400001525879</ele>
        <time>2021-03-11T10:48:33.000Z</time>
      </trkpt>
      <trkpt lat="47.29755" lon="-2.37182">
        <ele>43.400001525879</ele>
        <time>2021-03-11T10:48:37.000Z</time>
      </trkpt>
      <trkpt lat="47.29746" lon="-2.37183">
        <ele>43.400001525879</ele>
        <time>2021-03-11T10:48:39.000Z</time>
      </trkpt>
      <trkpt lat="47.29741" lon="-2.37183">
        <ele>43.400001525879</ele>
        <time>2021-03-11T10:48:40.000Z</time>
      </trkpt>
      <trkpt lat="47.29719" lon="-2.37185">
        <ele>43.400001525879</ele>
        <time>2021-03-11T10:48:45.000Z</time>
      </trkpt>
      <trkpt lat="47.29709" lon="-2.37189">
        <ele>43.400001525879</ele>
        <time>2021-03-11T10:48:47.000Z</time>
      </trkpt>
      <trkpt lat="47.29663" lon="-2.37207">
        <ele>43.400001525879</ele>
        <time>2021-03-11T10:48:57.000Z</time>
      </trkpt>
      <trkpt lat="47.29655" lon="-2.3721">
        <ele>43</ele>
        <time>2021-03-11T10:48:59.000Z</time>
      </trkpt>
      <trkpt lat="47.2965" lon="-2.37212">
        <ele>42.599998474121</ele>
        <time>2021-03-11T10:49:00.000Z</time>
      </trkpt>
      <trkpt lat="47.29646" lon="-2.37214">
        <ele>42.200000762939</ele>
        <time>2021-03-11T10:49:01.000Z</time>
      </trkpt>
      <trkpt lat="47.29642" lon="-2.37215">
        <ele>41.599998474121</ele>
        <time>2021-03-11T10:49:02.000Z</time>
      </trkpt>
      <trkpt lat="47.29637" lon="-2.37217">
        <ele>41.200000762939</ele>
        <time>2021-03-11T10:49:03.000Z</time>
      </trkpt>
      <trkpt lat="47.29624" lon="-2.37223">
        <ele>41.200000762939</ele>
        <time>2021-03-11T10:49:06.000Z</time>
      </trkpt>
      <trkpt lat="47.29587" lon="-2.37246">
        <ele>41.200000762939</ele>
        <time>2021-03-11T10:49:14.000Z</time>
      </trkpt>
      <trkpt lat="47.2957" lon="-2.37256">
        <ele>41.200000762939</ele>
        <time>2021-03-11T10:49:19.000Z</time>
      </trkpt>
      <trkpt lat="47.29564" lon="-2.3726">
        <ele>40.799999237061</ele>
        <time>2021-03-11T10:49:21.000Z</time>
      </trkpt>
      <trkpt lat="47.2956" lon="-2.37262">
        <ele>40.400001525879</ele>
        <time>2021-03-11T10:49:22.000Z</time>
      </trkpt>
      <trkpt lat="47.29557" lon="-2.37264">
        <ele>39.799999237061</ele>
        <time>2021-03-11T10:49:23.000Z</time>
      </trkpt>
      <trkpt lat="47.29553" lon="-2.37266">
        <ele>39.400001525879</ele>
        <time>2021-03-11T10:49:24.000Z</time>
      </trkpt>
      <trkpt lat="47.2955" lon="-2.37268">
        <ele>39</ele>
        <time>2021-03-11T10:49:25.000Z</time>
      </trkpt>
      <trkpt lat="47.29541" lon="-2.37273">
        <ele>39</ele>
        <time>2021-03-11T10:49:27.000Z</time>
      </trkpt>
      <trkpt lat="47.29508" lon="-2.37285">
        <ele>38.400001525879</ele>
        <time>2021-03-11T10:49:33.000Z</time>
      </trkpt>
      <trkpt lat="47.29502" lon="-2.37286">
        <ele>38</ele>
        <time>2021-03-11T10:49:34.000Z</time>
      </trkpt>
      <trkpt lat="47.29495" lon="-2.37286">
        <ele>37</ele>
        <time>2021-03-11T10:49:35.000Z</time>
      </trkpt>
      <trkpt lat="47.29489" lon="-2.37286">
        <ele>36.400001525879</ele>
        <time>2021-03-11T10:49:36.000Z</time>
      </trkpt>
      <trkpt lat="47.29484" lon="-2.37287">
        <ele>36.400001525879</ele>
        <time>2021-03-11T10:49:37.000Z</time>
      </trkpt>
      <trkpt lat="47.29479" lon="-2.37289">
        <ele>36.400001525879</ele>
        <time>2021-03-11T10:49:38.000Z</time>
      </trkpt>
      <trkpt lat="47.29469" lon="-2.3729">
        <ele>36</ele>
        <time>2021-03-11T10:49:40.000Z</time>
      </trkpt>
      <trkpt lat="47.29464" lon="-2.37287">
        <ele>35.599998474121</ele>
        <time>2021-03-11T10:49:41.000Z</time>
      </trkpt>
      <trkpt lat="47.2946" lon="-2.37283">
        <ele>35.200000762939</ele>
        <time>2021-03-11T10:49:42.000Z</time>
      </trkpt>
      <trkpt lat="47.29455" lon="-2.37279">
        <ele>34.799999237061</ele>
        <time>2021-03-11T10:49:43.000Z</time>
      </trkpt>
      <trkpt lat="47.2945" lon="-2.37274">
        <ele>34.400001525879</ele>
        <time>2021-03-11T10:49:44.000Z</time>
      </trkpt>
      <trkpt lat="47.2944" lon="-2.37264">
        <ele>34.400001525879</ele>
        <time>2021-03-11T10:49:46.000Z</time>
      </trkpt>
      <trkpt lat="47.29419" lon="-2.37244">
        <ele>34.400001525879</ele>
        <time>2021-03-11T10:49:50.000Z</time>
      </trkpt>
      <trkpt lat="47.29413" lon="-2.3724">
        <ele>34</ele>
        <time>2021-03-11T10:49:51.000Z</time>
      </trkpt>
      <trkpt lat="47.29407" lon="-2.37236">
        <ele>33.599998474121</ele>
        <time>2021-03-11T10:49:52.000Z</time>
      </trkpt>
      <trkpt lat="47.29402" lon="-2.37231">
        <ele>33.200000762939</ele>
        <time>2021-03-11T10:49:53.000Z</time>
      </trkpt>
      <trkpt lat="47.29397" lon="-2.37228">
        <ele>32.599998474121</ele>
        <time>2021-03-11T10:49:54.000Z</time>
      </trkpt>
      <trkpt lat="47.29391" lon="-2.37224">
        <ele>32.200000762939</ele>
        <time>2021-03-11T10:49:55.000Z</time>
      </trkpt>
      <trkpt lat="47.29374" lon="-2.37216">
        <ele>32.200000762939</ele>
        <time>2021-03-11T10:49:58.000Z</time>
      </trkpt>
      <trkpt lat="47.29345" lon="-2.37202">
        <ele>32.200000762939</ele>
        <time>2021-03-11T10:50:04.000Z</time>
      </trkpt>
      <trkpt lat="47.2934" lon="-2.372">
        <ele>32.200000762939</ele>
        <time>2021-03-11T10:50:05.000Z</time>
      </trkpt>
      <trkpt lat="47.29324" lon="-2.37189">
        <ele>32.200000762939</ele>
        <time>2021-03-11T10:50:09.000Z</time>
      </trkpt>
      <trkpt lat="47.29321" lon="-2.37186">
        <ele>32.200000762939</ele>
        <time>2021-03-11T10:50:10.000Z</time>
      </trkpt>
      <trkpt lat="47.29307" lon="-2.37174">
        <ele>32.200000762939</ele>
        <time>2021-03-11T10:50:14.000Z</time>
      </trkpt>
      <trkpt lat="47.293" lon="-2.37167">
        <ele>32.200000762939</ele>
        <time>2021-03-11T10:50:16.000Z</time>
      </trkpt>
      <trkpt lat="47.29283" lon="-2.37149">
        <ele>32.200000762939</ele>
        <time>2021-03-11T10:50:22.000Z</time>
      </trkpt>
      <trkpt lat="47.29264" lon="-2.37124">
        <ele>32.200000762939</ele>
        <time>2021-03-11T10:50:29.000Z</time>
      </trkpt>
      <trkpt lat="47.29233" lon="-2.37091">
        <ele>32.200000762939</ele>
        <time>2021-03-11T10:50:39.000Z</time>
      </trkpt>
      <trkpt lat="47.2921" lon="-2.37064">
        <ele>32.200000762939</ele>
        <time>2021-03-11T10:50:46.000Z</time>
      </trkpt>
      <trkpt lat="47.29201" lon="-2.37052">
        <ele>33</ele>
        <time>2021-03-11T10:50:49.000Z</time>
      </trkpt>
      <trkpt lat="47.29197" lon="-2.37048">
        <ele>33.400001525879</ele>
        <time>2021-03-11T10:50:50.000Z</time>
      </trkpt>
      <trkpt lat="47.29194" lon="-2.37045">
        <ele>33.799999237061</ele>
        <time>2021-03-11T10:50:51.000Z</time>
      </trkpt>
      <trkpt lat="47.29191" lon="-2.37041">
        <ele>34.200000762939</ele>
        <time>2021-03-11T10:50:52.000Z</time>
      </trkpt>
      <trkpt lat="47.29185" lon="-2.37033">
        <ele>34.200000762939</ele>
        <time>2021-03-11T10:50:54.000Z</time>
      </trkpt>
      <trkpt lat="47.29158" lon="-2.36997">
        <ele>34.200000762939</ele>
        <time>2021-03-11T10:51:03.000Z</time>
      </trkpt>
      <trkpt lat="47.29151" lon="-2.3699">
        <ele>33.799999237061</ele>
        <time>2021-03-11T10:51:05.000Z</time>
      </trkpt>
      <trkpt lat="47.29148" lon="-2.36986">
        <ele>33.400001525879</ele>
        <time>2021-03-11T10:51:06.000Z</time>
      </trkpt>
      <trkpt lat="47.29145" lon="-2.36982">
        <ele>33</ele>
        <time>2021-03-11T10:51:07.000Z</time>
      </trkpt>
      <trkpt lat="47.29142" lon="-2.36978">
        <ele>32.599998474121</ele>
        <time>2021-03-11T10:51:08.000Z</time>
      </trkpt>
      <trkpt lat="47.29139" lon="-2.36974">
        <ele>32.200000762939</ele>
        <time>2021-03-11T10:51:09.000Z</time>
      </trkpt>
      <trkpt lat="47.29133" lon="-2.3697">
        <ele>32.200000762939</ele>
        <time>2021-03-11T10:51:11.000Z</time>
      </trkpt>
      <trkpt lat="47.29119" lon="-2.3696">
        <ele>32.200000762939</ele>
        <time>2021-03-11T10:51:17.000Z</time>
      </trkpt>
      <trkpt lat="47.29108" lon="-2.36956">
        <ele>32.200000762939</ele>
        <time>2021-03-11T10:51:23.000Z</time>
      </trkpt>
      <trkpt lat="47.29087" lon="-2.36951">
        <ele>31.60000038147</ele>
        <time>2021-03-11T10:51:30.000Z</time>
      </trkpt>
      <trkpt lat="47.29085" lon="-2.36949">
        <ele>31.200000762939</ele>
        <time>2021-03-11T10:51:31.000Z</time>
      </trkpt>
      <trkpt lat="47.29082" lon="-2.36948">
        <ele>30.60000038147</ele>
        <time>2021-03-11T10:51:32.000Z</time>
      </trkpt>
      <trkpt lat="47.2908" lon="-2.36947">
        <ele>30.200000762939</ele>
        <time>2021-03-11T10:51:33.000Z</time>
      </trkpt>
      <trkpt lat="47.29078" lon="-2.36945">
        <ele>29.799999237061</ele>
        <time>2021-03-11T10:51:34.000Z</time>
      </trkpt>
      <trkpt lat="47.29069" lon="-2.3694">
        <ele>29.799999237061</ele>
        <time>2021-03-11T10:51:37.000Z</time>
      </trkpt>
      <trkpt lat="47.29053" lon="-2.36926">
        <ele>29.799999237061</ele>
        <time>2021-03-11T10:51:42.000Z</time>
      </trkpt>
      <trkpt lat="47.29043" lon="-2.36913">
        <ele>29.799999237061</ele>
        <time>2021-03-11T10:51:47.000Z</time>
      </trkpt>
      <trkpt lat="47.29031" lon="-2.36899">
        <ele>29.799999237061</ele>
        <time>2021-03-11T10:51:51.000Z</time>
      </trkpt>
      <trkpt lat="47.29027" lon="-2.36895">
        <ele>29.799999237061</ele>
        <time>2021-03-11T10:51:52.000Z</time>
      </trkpt>
      <trkpt lat="47.29018" lon="-2.36886">
        <ele>29.799999237061</ele>
        <time>2021-03-11T10:51:54.000Z</time>
      </trkpt>
      <trkpt lat="47.29003" lon="-2.36871">
        <ele>29.799999237061</ele>
        <time>2021-03-11T10:51:57.000Z</time>
      </trkpt>
      <trkpt lat="47.28971" lon="-2.36843">
        <ele>29.799999237061</ele>
        <time>2021-03-11T10:52:03.000Z</time>
      </trkpt>
      <trkpt lat="47.28967" lon="-2.36838">
        <ele>29.200000762939</ele>
        <time>2021-03-11T10:52:04.000Z</time>
      </trkpt>
      <trkpt lat="47.28962" lon="-2.36833">
        <ele>28.799999237061</ele>
        <time>2021-03-11T10:52:05.000Z</time>
      </trkpt>
      <trkpt lat="47.28958" lon="-2.36829">
        <ele>28.39999961853</ele>
        <time>2021-03-11T10:52:06.000Z</time>
      </trkpt>
      <trkpt lat="47.28953" lon="-2.36826">
        <ele>28</ele>
        <time>2021-03-11T10:52:07.000Z</time>
      </trkpt>
      <trkpt lat="47.28949" lon="-2.36822">
        <ele>27.60000038147</ele>
        <time>2021-03-11T10:52:08.000Z</time>
      </trkpt>
      <trkpt lat="47.28934" lon="-2.36808">
        <ele>27.60000038147</ele>
        <time>2021-03-11T10:52:12.000Z</time>
      </trkpt>
      <trkpt lat="47.28931" lon="-2.36804">
        <ele>27.60000038147</ele>
        <time>2021-03-11T10:52:13.000Z</time>
      </trkpt>
      <trkpt lat="47.2892" lon="-2.36792">
        <ele>27.200000762939</ele>
        <time>2021-03-11T10:52:17.000Z</time>
      </trkpt>
      <trkpt lat="47.28916" lon="-2.36789">
        <ele>26.799999237061</ele>
        <time>2021-03-11T10:52:18.000Z</time>
      </trkpt>
      <trkpt lat="47.28913" lon="-2.36786">
        <ele>26.39999961853</ele>
        <time>2021-03-11T10:52:19.000Z</time>
      </trkpt>
      <trkpt lat="47.28909" lon="-2.36783">
        <ele>26</ele>
        <time>2021-03-11T10:52:20.000Z</time>
      </trkpt>
      <trkpt lat="47.28905" lon="-2.3678">
        <ele>25.60000038147</ele>
        <time>2021-03-11T10:52:21.000Z</time>
      </trkpt>
      <trkpt lat="47.28897" lon="-2.36777">
        <ele>25.60000038147</ele>
        <time>2021-03-11T10:52:23.000Z</time>
      </trkpt>
      <trkpt lat="47.28893" lon="-2.36777">
        <ele>25.200000762939</ele>
        <time>2021-03-11T10:52:24.000Z</time>
      </trkpt>
      <trkpt lat="47.2889" lon="-2.36777">
        <ele>24.60000038147</ele>
        <time>2021-03-11T10:52:25.000Z</time>
      </trkpt>
      <trkpt lat="47.28888" lon="-2.36777">
        <ele>24.200000762939</ele>
        <time>2021-03-11T10:52:26.000Z</time>
      </trkpt>
      <trkpt lat="47.28885" lon="-2.36777">
        <ele>23.799999237061</ele>
        <time>2021-03-11T10:52:27.000Z</time>
      </trkpt>
      <trkpt lat="47.28883" lon="-2.36777">
        <ele>23.200000762939</ele>
        <time>2021-03-11T10:52:28.000Z</time>
      </trkpt>
      <trkpt lat="47.2888" lon="-2.36778">
        <ele>23.200000762939</ele>
        <time>2021-03-11T10:52:29.000Z</time>
      </trkpt>
      <trkpt lat="47.28878" lon="-2.36779">
        <ele>23.200000762939</ele>
        <time>2021-03-11T10:52:30.000Z</time>
      </trkpt>
      <trkpt lat="47.28872" lon="-2.36789">
        <ele>23.200000762939</ele>
        <time>2021-03-11T10:52:33.000Z</time>
      </trkpt>
      <trkpt lat="47.28869" lon="-2.368">
        <ele>23.200000762939</ele>
        <time>2021-03-11T10:52:35.000Z</time>
      </trkpt>
      <trkpt lat="47.28865" lon="-2.36819">
        <ele>23.200000762939</ele>
        <time>2021-03-11T10:52:38.000Z</time>
      </trkpt>
      <trkpt lat="47.28853" lon="-2.36871">
        <ele>23.200000762939</ele>
        <time>2021-03-11T10:52:46.000Z</time>
      </trkpt>
      <trkpt lat="47.28848" lon="-2.36879">
        <ele>22.799999237061</ele>
        <time>2021-03-11T10:52:48.000Z</time>
      </trkpt>
      <trkpt lat="47.28846" lon="-2.36882">
        <ele>22.39999961853</ele>
        <time>2021-03-11T10:52:49.000Z</time>
      </trkpt>
      <trkpt lat="47.28843" lon="-2.36882">
        <ele>22</ele>
        <time>2021-03-11T10:52:50.000Z</time>
      </trkpt>
      <trkpt lat="47.28839" lon="-2.36879">
        <ele>21.39999961853</ele>
        <time>2021-03-11T10:52:51.000Z</time>
      </trkpt>
      <trkpt lat="47.28835" lon="-2.36875">
        <ele>21</ele>
        <time>2021-03-11T10:52:52.000Z</time>
      </trkpt>
      <trkpt lat="47.28832" lon="-2.3687">
        <ele>20</ele>
        <time>2021-03-11T10:52:53.000Z</time>
      </trkpt>
      <trkpt lat="47.28829" lon="-2.36864">
        <ele>19.39999961853</ele>
        <time>2021-03-11T10:52:54.000Z</time>
      </trkpt>
      <trkpt lat="47.28827" lon="-2.36857">
        <ele>18.799999237061</ele>
        <time>2021-03-11T10:52:55.000Z</time>
      </trkpt>
      <trkpt lat="47.28825" lon="-2.3685">
        <ele>18</ele>
        <time>2021-03-11T10:52:56.000Z</time>
      </trkpt>
      <trkpt lat="47.28823" lon="-2.36843">
        <ele>17.39999961853</ele>
        <time>2021-03-11T10:52:57.000Z</time>
      </trkpt>
      <trkpt lat="47.2882" lon="-2.36835">
        <ele>16.60000038147</ele>
        <time>2021-03-11T10:52:58.000Z</time>
      </trkpt>
      <trkpt lat="47.28818" lon="-2.36829">
        <ele>16</ele>
        <time>2021-03-11T10:52:59.000Z</time>
      </trkpt>
      <trkpt lat="47.28814" lon="-2.36823">
        <ele>15.199999809265</ele>
        <time>2021-03-11T10:53:00.000Z</time>
      </trkpt>
      <trkpt lat="47.28811" lon="-2.3682">
        <ele>14.39999961853</ele>
        <time>2021-03-11T10:53:01.000Z</time>
      </trkpt>
      <trkpt lat="47.28807" lon="-2.36819">
        <ele>13.800000190735</ele>
        <time>2021-03-11T10:53:02.000Z</time>
      </trkpt>
      <trkpt lat="47.28803" lon="-2.36821">
        <ele>13</ele>
        <time>2021-03-11T10:53:03.000Z</time>
      </trkpt>
      <trkpt lat="47.288" lon="-2.36825">
        <ele>12.39999961853</ele>
        <time>2021-03-11T10:53:04.000Z</time>
      </trkpt>
      <trkpt lat="47.28796" lon="-2.3683">
        <ele>11.60000038147</ele>
        <time>2021-03-11T10:53:05.000Z</time>
      </trkpt>
      <trkpt lat="47.28791" lon="-2.36842">
        <ele>11.60000038147</ele>
        <time>2021-03-11T10:53:07.000Z</time>
      </trkpt>
      <trkpt lat="47.28789" lon="-2.36848">
        <ele>11.60000038147</ele>
        <time>2021-03-11T10:53:08.000Z</time>
      </trkpt>
      <trkpt lat="47.28787" lon="-2.36854">
        <ele>11.60000038147</ele>
        <time>2021-03-11T10:53:09.000Z</time>
      </trkpt>
      <trkpt lat="47.2878" lon="-2.36878">
        <ele>11.199999809265</ele>
        <time>2021-03-11T10:53:13.000Z</time>
      </trkpt>
      <trkpt lat="47.28778" lon="-2.36885">
        <ele>10.800000190735</ele>
        <time>2021-03-11T10:53:14.000Z</time>
      </trkpt>
      <trkpt lat="47.28778" lon="-2.3689">
        <ele>10.39999961853</ele>
        <time>2021-03-11T10:53:15.000Z</time>
      </trkpt>
      <trkpt lat="47.28777" lon="-2.36895">
        <ele>10</ele>
        <time>2021-03-11T10:53:16.000Z</time>
      </trkpt>
      <trkpt lat="47.28777" lon="-2.36899">
        <ele>9.6000003814697</ele>
        <time>2021-03-11T10:53:17.000Z</time>
      </trkpt>
      <trkpt lat="47.28778" lon="-2.36902">
        <ele>9.6000003814697</ele>
        <time>2021-03-11T10:53:18.000Z</time>
      </trkpt>
      <trkpt lat="47.28778" lon="-2.36905">
        <ele>9.6000003814697</ele>
        <time>2021-03-11T10:53:19.000Z</time>
      </trkpt>
      <trkpt lat="47.28774" lon="-2.36907">
        <ele>9.6000003814697</ele>
        <time>2021-03-11T10:53:21.000Z</time>
      </trkpt>
      <trkpt lat="47.28769" lon="-2.36906">
        <ele>9.6000003814697</ele>
        <time>2021-03-11T10:53:24.000Z</time>
      </trkpt>
      <trkpt lat="47.28763" lon="-2.36905">
        <ele>9.6000003814697</ele>
        <time>2021-03-11T10:53:27.000Z</time>
      </trkpt>
      <trkpt lat="47.2875" lon="-2.36903">
        <ele>10.199999809265</ele>
        <time>2021-03-11T10:53:34.000Z</time>
      </trkpt>
      <trkpt lat="47.28748" lon="-2.36904">
        <ele>10.60000038147</ele>
        <time>2021-03-11T10:53:35.000Z</time>
      </trkpt>
      <trkpt lat="47.28746" lon="-2.36904">
        <ele>11.199999809265</ele>
        <time>2021-03-11T10:53:36.000Z</time>
      </trkpt>
      <trkpt lat="47.28744" lon="-2.36906">
        <ele>11.60000038147</ele>
        <time>2021-03-11T10:53:37.000Z</time>
      </trkpt>
      <trkpt lat="47.28742" lon="-2.36907">
        <ele>12</ele>
        <time>2021-03-11T10:53:38.000Z</time>
      </trkpt>
      <trkpt lat="47.28738" lon="-2.36908">
        <ele>12.39999961853</ele>
        <time>2021-03-11T10:53:40.000Z</time>
      </trkpt>
      <trkpt lat="47.28736" lon="-2.36909">
        <ele>12.800000190735</ele>
        <time>2021-03-11T10:53:41.000Z</time>
      </trkpt>
      <trkpt lat="47.28734" lon="-2.36909">
        <ele>13.199999809265</ele>
        <time>2021-03-11T10:53:42.000Z</time>
      </trkpt>
      <trkpt lat="47.28732" lon="-2.36909">
        <ele>14</ele>
        <time>2021-03-11T10:53:43.000Z</time>
      </trkpt>
      <trkpt lat="47.28727" lon="-2.36908">
        <ele>14.39999961853</ele>
        <time>2021-03-11T10:53:45.000Z</time>
      </trkpt>
      <trkpt lat="47.28726" lon="-2.36907">
        <ele>14.800000190735</ele>
        <time>2021-03-11T10:53:46.000Z</time>
      </trkpt>
      <trkpt lat="47.28724" lon="-2.36906">
        <ele>15.199999809265</ele>
        <time>2021-03-11T10:53:47.000Z</time>
      </trkpt>
      <trkpt lat="47.28722" lon="-2.36905">
        <ele>15.800000190735</ele>
        <time>2021-03-11T10:53:48.000Z</time>
      </trkpt>
      <trkpt lat="47.28721" lon="-2.36903">
        <ele>16.200000762939</ele>
        <time>2021-03-11T10:53:49.000Z</time>
      </trkpt>
      <trkpt lat="47.28714" lon="-2.36892">
        <ele>16.200000762939</ele>
        <time>2021-03-11T10:53:54.000Z</time>
      </trkpt>
      <trkpt lat="47.28704" lon="-2.36871">
        <ele>16.200000762939</ele>
        <time>2021-03-11T10:54:01.000Z</time>
      </trkpt>
      <trkpt lat="47.28688" lon="-2.36843">
        <ele>16.200000762939</ele>
        <time>2021-03-11T10:54:07.000Z</time>
      </trkpt>
      <trkpt lat="47.28686" lon="-2.36839">
        <ele>17</ele>
        <time>2021-03-11T10:54:08.000Z</time>
      </trkpt>
      <trkpt lat="47.28684" lon="-2.36835">
        <ele>17.39999961853</ele>
        <time>2021-03-11T10:54:09.000Z</time>
      </trkpt>
      <trkpt lat="47.28681" lon="-2.36831">
        <ele>17.799999237061</ele>
        <time>2021-03-11T10:54:10.000Z</time>
      </trkpt>
      <trkpt lat="47.28679" lon="-2.36827">
        <ele>18.200000762939</ele>
        <time>2021-03-11T10:54:11.000Z</time>
      </trkpt>
      <trkpt lat="47.28676" lon="-2.36821">
        <ele>18.200000762939</ele>
        <time>2021-03-11T10:54:13.000Z</time>
      </trkpt>
      <trkpt lat="47.28667" lon="-2.36805">
        <ele>18.60000038147</ele>
        <time>2021-03-11T10:54:19.000Z</time>
      </trkpt>
      <trkpt lat="47.28666" lon="-2.36803">
        <ele>19</ele>
        <time>2021-03-11T10:54:20.000Z</time>
      </trkpt>
      <trkpt lat="47.28664" lon="-2.36801">
        <ele>19.39999961853</ele>
        <time>2021-03-11T10:54:21.000Z</time>
      </trkpt>
      <trkpt lat="47.28661" lon="-2.36798">
        <ele>19.799999237061</ele>
        <time>2021-03-11T10:54:22.000Z</time>
      </trkpt>
      <trkpt lat="47.28659" lon="-2.36796">
        <ele>20.39999961853</ele>
        <time>2021-03-11T10:54:23.000Z</time>
      </trkpt>
      <trkpt lat="47.28656" lon="-2.36796">
        <ele>20.39999961853</ele>
        <time>2021-03-11T10:54:24.000Z</time>
      </trkpt>
      <trkpt lat="47.28644" lon="-2.36801">
        <ele>20.39999961853</ele>
        <time>2021-03-11T10:54:28.000Z</time>
      </trkpt>
      <trkpt lat="47.28625" lon="-2.36824">
        <ele>20.39999961853</ele>
        <time>2021-03-11T10:54:35.000Z</time>
      </trkpt>
      <trkpt lat="47.28613" lon="-2.36839">
        <ele>19.799999237061</ele>
        <time>2021-03-11T10:54:39.000Z</time>
      </trkpt>
      <trkpt lat="47.2861" lon="-2.3684">
        <ele>19.39999961853</ele>
        <time>2021-03-11T10:54:40.000Z</time>
      </trkpt>
      <trkpt lat="47.28608" lon="-2.3684">
        <ele>19</ele>
        <time>2021-03-11T10:54:41.000Z</time>
      </trkpt>
      <trkpt lat="47.28606" lon="-2.3684">
        <ele>18.60000038147</ele>
        <time>2021-03-11T10:54:42.000Z</time>
      </trkpt>
      <trkpt lat="47.28604" lon="-2.36839">
        <ele>18.200000762939</ele>
        <time>2021-03-11T10:54:43.000Z</time>
      </trkpt>
      <trkpt lat="47.28602" lon="-2.36837">
        <ele>18.200000762939</ele>
        <time>2021-03-11T10:54:44.000Z</time>
      </trkpt>
      <trkpt lat="47.28598" lon="-2.36831">
        <ele>18.200000762939</ele>
        <time>2021-03-11T10:54:46.000Z</time>
      </trkpt>
      <trkpt lat="47.28594" lon="-2.36822">
        <ele>18.200000762939</ele>
        <time>2021-03-11T10:54:48.000Z</time>
      </trkpt>
      <trkpt lat="47.28582" lon="-2.36804">
        <ele>18.200000762939</ele>
        <time>2021-03-11T10:54:52.000Z</time>
      </trkpt>
      <trkpt lat="47.28575" lon="-2.36797">
        <ele>18.200000762939</ele>
        <time>2021-03-11T10:54:54.000Z</time>
      </trkpt>
      <trkpt lat="47.28572" lon="-2.36793">
        <ele>18.200000762939</ele>
        <time>2021-03-11T10:54:55.000Z</time>
      </trkpt>
      <trkpt lat="47.28565" lon="-2.36784">
        <ele>18.200000762939</ele>
        <time>2021-03-11T10:54:57.000Z</time>
      </trkpt>
      <trkpt lat="47.28559" lon="-2.36775">
        <ele>18.200000762939</ele>
        <time>2021-03-11T10:54:59.000Z</time>
      </trkpt>
      <trkpt lat="47.2854" lon="-2.3674">
        <ele>18.200000762939</ele>
        <time>2021-03-11T10:55:06.000Z</time>
      </trkpt>
      <trkpt lat="47.28538" lon="-2.36736">
        <ele>18.60000038147</ele>
        <time>2021-03-11T10:55:07.000Z</time>
      </trkpt>
      <trkpt lat="47.28536" lon="-2.36732">
        <ele>19</ele>
        <time>2021-03-11T10:55:08.000Z</time>
      </trkpt>
      <trkpt lat="47.28534" lon="-2.36727">
        <ele>19.39999961853</ele>
        <time>2021-03-11T10:55:09.000Z</time>
      </trkpt>
      <trkpt lat="47.28531" lon="-2.36723">
        <ele>19.799999237061</ele>
        <time>2021-03-11T10:55:10.000Z</time>
      </trkpt>
      <trkpt lat="47.28529" lon="-2.3672">
        <ele>20.200000762939</ele>
        <time>2021-03-11T10:55:11.000Z</time>
      </trkpt>
      <trkpt lat="47.28521" lon="-2.36706">
        <ele>20.200000762939</ele>
        <time>2021-03-11T10:55:15.000Z</time>
      </trkpt>
      <trkpt lat="47.28511" lon="-2.36688">
        <ele>20.60000038147</ele>
        <time>2021-03-11T10:55:21.000Z</time>
      </trkpt>
      <trkpt lat="47.2851" lon="-2.36686">
        <ele>21.200000762939</ele>
        <time>2021-03-11T10:55:22.000Z</time>
      </trkpt>
      <trkpt lat="47.28509" lon="-2.36685">
        <ele>21.60000038147</ele>
        <time>2021-03-11T10:55:23.000Z</time>
      </trkpt>
      <trkpt lat="47.28508" lon="-2.36684">
        <ele>22</ele>
        <time>2021-03-11T10:55:24.000Z</time>
      </trkpt>
      <trkpt lat="47.28507" lon="-2.36684">
        <ele>22.39999961853</ele>
        <time>2021-03-11T10:55:25.000Z</time>
      </trkpt>
      <trkpt lat="47.28507" lon="-2.36683">
        <ele>22.39999961853</ele>
        <time>2021-03-11T10:55:26.000Z</time>
      </trkpt>
      <trkpt lat="47.28501" lon="-2.36684">
        <ele>24.60000038147</ele>
        <time>2021-03-11T11:07:25.000Z</time>
      </trkpt>
      <trkpt lat="47.28487" lon="-2.36692">
        <ele>24.60000038147</ele>
        <time>2021-03-11T11:07:30.000Z</time>
      </trkpt>
      <trkpt lat="47.28468" lon="-2.36709">
        <ele>24.60000038147</ele>
        <time>2021-03-11T11:07:36.000Z</time>
      </trkpt>
      <trkpt lat="47.2845" lon="-2.36717">
        <ele>24.60000038147</ele>
        <time>2021-03-11T11:07:42.000Z</time>
      </trkpt>
      <trkpt lat="47.28447" lon="-2.36715">
        <ele>24.60000038147</ele>
        <time>2021-03-11T11:07:43.000Z</time>
      </trkpt>
      <trkpt lat="47.28439" lon="-2.36699">
        <ele>24.60000038147</ele>
        <time>2021-03-11T11:07:47.000Z</time>
      </trkpt>
      <trkpt lat="47.28424" lon="-2.36669">
        <ele>24.60000038147</ele>
        <time>2021-03-11T11:07:53.000Z</time>
      </trkpt>
      <trkpt lat="47.28419" lon="-2.36658">
        <ele>24.60000038147</ele>
        <time>2021-03-11T11:07:55.000Z</time>
      </trkpt>
      <trkpt lat="47.28417" lon="-2.36653">
        <ele>24.200000762939</ele>
        <time>2021-03-11T11:07:56.000Z</time>
      </trkpt>
      <trkpt lat="47.28413" lon="-2.36648">
        <ele>23.799999237061</ele>
        <time>2021-03-11T11:07:57.000Z</time>
      </trkpt>
      <trkpt lat="47.28409" lon="-2.36642">
        <ele>23.39999961853</ele>
        <time>2021-03-11T11:07:58.000Z</time>
      </trkpt>
      <trkpt lat="47.28405" lon="-2.36636">
        <ele>23</ele>
        <time>2021-03-11T11:07:59.000Z</time>
      </trkpt>
      <trkpt lat="47.28401" lon="-2.36629">
        <ele>22.60000038147</ele>
        <time>2021-03-11T11:08:00.000Z</time>
      </trkpt>
      <trkpt lat="47.2838" lon="-2.36599">
        <ele>22.60000038147</ele>
        <time>2021-03-11T11:08:04.000Z</time>
      </trkpt>
      <trkpt lat="47.28371" lon="-2.36587">
        <ele>22</ele>
        <time>2021-03-11T11:08:06.000Z</time>
      </trkpt>
      <trkpt lat="47.28365" lon="-2.36583">
        <ele>21.39999961853</ele>
        <time>2021-03-11T11:08:07.000Z</time>
      </trkpt>
      <trkpt lat="47.28358" lon="-2.36581">
        <ele>20.799999237061</ele>
        <time>2021-03-11T11:08:08.000Z</time>
      </trkpt>
      <trkpt lat="47.28352" lon="-2.36582">
        <ele>20.200000762939</ele>
        <time>2021-03-11T11:08:09.000Z</time>
      </trkpt>
      <trkpt lat="47.28344" lon="-2.36586">
        <ele>19.60000038147</ele>
        <time>2021-03-11T11:08:10.000Z</time>
      </trkpt>
      <trkpt lat="47.28338" lon="-2.36592">
        <ele>19.200000762939</ele>
        <time>2021-03-11T11:08:11.000Z</time>
      </trkpt>
      <trkpt lat="47.28332" lon="-2.36597">
        <ele>18.60000038147</ele>
        <time>2021-03-11T11:08:12.000Z</time>
      </trkpt>
      <trkpt lat="47.28326" lon="-2.36604">
        <ele>18</ele>
        <time>2021-03-11T11:08:13.000Z</time>
      </trkpt>
      <trkpt lat="47.2832" lon="-2.36611">
        <ele>17.39999961853</ele>
        <time>2021-03-11T11:08:14.000Z</time>
      </trkpt>
      <trkpt lat="47.2831" lon="-2.36624">
        <ele>17.39999961853</ele>
        <time>2021-03-11T11:08:16.000Z</time>
      </trkpt>
      <trkpt lat="47.28293" lon="-2.36644">
        <ele>16.799999237061</ele>
        <time>2021-03-11T11:08:19.000Z</time>
      </trkpt>
      <trkpt lat="47.28287" lon="-2.36651">
        <ele>16.39999961853</ele>
        <time>2021-03-11T11:08:20.000Z</time>
      </trkpt>
      <trkpt lat="47.28282" lon="-2.36658">
        <ele>15.800000190735</ele>
        <time>2021-03-11T11:08:21.000Z</time>
      </trkpt>
      <trkpt lat="47.28275" lon="-2.36665">
        <ele>15.39999961853</ele>
        <time>2021-03-11T11:08:22.000Z</time>
      </trkpt>
      <trkpt lat="47.2827" lon="-2.36672">
        <ele>14.800000190735</ele>
        <time>2021-03-11T11:08:23.000Z</time>
      </trkpt>
      <trkpt lat="47.28264" lon="-2.36679">
        <ele>14.39999961853</ele>
        <time>2021-03-11T11:08:24.000Z</time>
      </trkpt>
      <trkpt lat="47.28258" lon="-2.36686">
        <ele>13.60000038147</ele>
        <time>2021-03-11T11:08:25.000Z</time>
      </trkpt>
      <trkpt lat="47.28252" lon="-2.36694">
        <ele>13.199999809265</ele>
        <time>2021-03-11T11:08:26.000Z</time>
      </trkpt>
      <trkpt lat="47.28246" lon="-2.36701">
        <ele>12.60000038147</ele>
        <time>2021-03-11T11:08:27.000Z</time>
      </trkpt>
      <trkpt lat="47.2824" lon="-2.36708">
        <ele>12</ele>
        <time>2021-03-11T11:08:28.000Z</time>
      </trkpt>
      <trkpt lat="47.28234" lon="-2.36714">
        <ele>11.39999961853</ele>
        <time>2021-03-11T11:08:29.000Z</time>
      </trkpt>
      <trkpt lat="47.28228" lon="-2.3672">
        <ele>10.800000190735</ele>
        <time>2021-03-11T11:08:30.000Z</time>
      </trkpt>
      <trkpt lat="47.28222" lon="-2.36726">
        <ele>10.199999809265</ele>
        <time>2021-03-11T11:08:31.000Z</time>
      </trkpt>
      <trkpt lat="47.28203" lon="-2.36749">
        <ele>9.8000001907349</ele>
        <time>2021-03-11T11:08:35.000Z</time>
      </trkpt>
      <trkpt lat="47.28199" lon="-2.36753">
        <ele>9.3999996185303</ele>
        <time>2021-03-11T11:08:36.000Z</time>
      </trkpt>
      <trkpt lat="47.28195" lon="-2.36758">
        <ele>8.8000001907349</ele>
        <time>2021-03-11T11:08:37.000Z</time>
      </trkpt>
      <trkpt lat="47.28191" lon="-2.36762">
        <ele>8.3999996185303</ele>
        <time>2021-03-11T11:08:38.000Z</time>
      </trkpt>
      <trkpt lat="47.28187" lon="-2.36767">
        <ele>8</ele>
        <time>2021-03-11T11:08:39.000Z</time>
      </trkpt>
      <trkpt lat="47.28175" lon="-2.3678">
        <ele>7.5999999046326</ele>
        <time>2021-03-11T11:08:42.000Z</time>
      </trkpt>
      <trkpt lat="47.28171" lon="-2.36784">
        <ele>7.1999998092651</ele>
        <time>2021-03-11T11:08:43.000Z</time>
      </trkpt>
      <trkpt lat="47.28167" lon="-2.36788">
        <ele>6.5999999046326</ele>
        <time>2021-03-11T11:08:44.000Z</time>
      </trkpt>
      <trkpt lat="47.28163" lon="-2.36792">
        <ele>6.1999998092651</ele>
        <time>2021-03-11T11:08:45.000Z</time>
      </trkpt>
      <trkpt lat="47.2816" lon="-2.36796">
        <ele>5.8000001907349</ele>
        <time>2021-03-11T11:08:46.000Z</time>
      </trkpt>
      <trkpt lat="47.28154" lon="-2.36803">
        <ele>5.8000001907349</ele>
        <time>2021-03-11T11:08:48.000Z</time>
      </trkpt>
      <trkpt lat="47.28144" lon="-2.36818">
        <ele>5.4000000953674</ele>
        <time>2021-03-11T11:08:52.000Z</time>
      </trkpt>
      <trkpt lat="47.28143" lon="-2.36823">
        <ele>5</ele>
        <time>2021-03-11T11:08:53.000Z</time>
      </trkpt>
      <trkpt lat="47.28143" lon="-2.3683">
        <ele>4.5999999046326</ele>
        <time>2021-03-11T11:08:54.000Z</time>
      </trkpt>
      <trkpt lat="47.28143" lon="-2.36836">
        <ele>4</ele>
        <time>2021-03-11T11:08:55.000Z</time>
      </trkpt>
      <trkpt lat="47.28144" lon="-2.36843">
        <ele>3.5999999046326</ele>
        <time>2021-03-11T11:08:56.000Z</time>
      </trkpt>
      <trkpt lat="47.28144" lon="-2.36851">
        <ele>3.5999999046326</ele>
        <time>2021-03-11T11:08:57.000Z</time>
      </trkpt>
      <trkpt lat="47.28143" lon="-2.36859">
        <ele>3.5999999046326</ele>
        <time>2021-03-11T11:08:58.000Z</time>
      </trkpt>
      <trkpt lat="47.28135" lon="-2.36878">
        <ele>3.5999999046326</ele>
        <time>2021-03-11T11:09:01.000Z</time>
      </trkpt>
      <trkpt lat="47.28114" lon="-2.36889">
        <ele>3.5999999046326</ele>
        <time>2021-03-11T11:09:05.000Z</time>
      </trkpt>
      <trkpt lat="47.28094" lon="-2.36883">
        <ele>3.5999999046326</ele>
        <time>2021-03-11T11:09:09.000Z</time>
      </trkpt>
      <trkpt lat="47.28079" lon="-2.36892">
        <ele>3.5999999046326</ele>
        <time>2021-03-11T11:09:12.000Z</time>
      </trkpt>
      <trkpt lat="47.28072" lon="-2.36901">
        <ele>3.5999999046326</ele>
        <time>2021-03-11T11:09:14.000Z</time>
      </trkpt>
      <trkpt lat="47.2806" lon="-2.36914">
        <ele>3.5999999046326</ele>
        <time>2021-03-11T11:09:17.000Z</time>
      </trkpt>
      <trkpt lat="47.28031" lon="-2.36949">
        <ele>3.5999999046326</ele>
        <time>2021-03-11T11:09:25.000Z</time>
      </trkpt>
      <trkpt lat="47.28008" lon="-2.36974">
        <ele>3.5999999046326</ele>
        <time>2021-03-11T11:09:31.000Z</time>
      </trkpt>
      <trkpt lat="47.27999" lon="-2.36983">
        <ele>4</ele>
        <time>2021-03-11T11:09:33.000Z</time>
      </trkpt>
      <trkpt lat="47.27995" lon="-2.36987">
        <ele>4.5999999046326</ele>
        <time>2021-03-11T11:09:34.000Z</time>
      </trkpt>
      <trkpt lat="47.27991" lon="-2.36991">
        <ele>5</ele>
        <time>2021-03-11T11:09:35.000Z</time>
      </trkpt>
      <trkpt lat="47.27987" lon="-2.36995">
        <ele>5.4000000953674</ele>
        <time>2021-03-11T11:09:36.000Z</time>
      </trkpt>
      <trkpt lat="47.27984" lon="-2.37">
        <ele>5.8000001907349</ele>
        <time>2021-03-11T11:09:37.000Z</time>
      </trkpt>
      <trkpt lat="47.27976" lon="-2.37008">
        <ele>5.8000001907349</ele>
        <time>2021-03-11T11:09:39.000Z</time>
      </trkpt>
      <trkpt lat="47.27952" lon="-2.37036">
        <ele>5.8000001907349</ele>
        <time>2021-03-11T11:09:46.000Z</time>
      </trkpt>
      <trkpt lat="47.27946" lon="-2.37043">
        <ele>5.8000001907349</ele>
        <time>2021-03-11T11:09:48.000Z</time>
      </trkpt>
      <trkpt lat="47.27934" lon="-2.37057">
        <ele>5.8000001907349</ele>
        <time>2021-03-11T11:09:52.000Z</time>
      </trkpt>
      <trkpt lat="47.27924" lon="-2.37072">
        <ele>5.8000001907349</ele>
        <time>2021-03-11T11:09:56.000Z</time>
      </trkpt>
      <trkpt lat="47.27906" lon="-2.37091">
        <ele>5.8000001907349</ele>
        <time>2021-03-11T11:10:01.000Z</time>
      </trkpt>
      <trkpt lat="47.27895" lon="-2.37104">
        <ele>5.8000001907349</ele>
        <time>2021-03-11T11:10:04.000Z</time>
      </trkpt>
      <trkpt lat="47.27891" lon="-2.37108">
        <ele>6.4000000953674</ele>
        <time>2021-03-11T11:10:05.000Z</time>
      </trkpt>
      <trkpt lat="47.27887" lon="-2.37112">
        <ele>6.8000001907349</ele>
        <time>2021-03-11T11:10:06.000Z</time>
      </trkpt>
      <trkpt lat="47.27883" lon="-2.37116">
        <ele>7.1999998092651</ele>
        <time>2021-03-11T11:10:07.000Z</time>
      </trkpt>
      <trkpt lat="47.2788" lon="-2.37119">
        <ele>7.8000001907349</ele>
        <time>2021-03-11T11:10:08.000Z</time>
      </trkpt>
      <trkpt lat="47.27876" lon="-2.37123">
        <ele>8.1999998092651</ele>
        <time>2021-03-11T11:10:09.000Z</time>
      </trkpt>
      <trkpt lat="47.27872" lon="-2.37126">
        <ele>8.1999998092651</ele>
        <time>2021-03-11T11:10:10.000Z</time>
      </trkpt>
      <trkpt lat="47.27869" lon="-2.37131">
        <ele>8.6000003814697</ele>
        <time>2021-03-11T11:10:11.000Z</time>
      </trkpt>
      <trkpt lat="47.27866" lon="-2.37135">
        <ele>9</ele>
        <time>2021-03-11T11:10:12.000Z</time>
      </trkpt>
      <trkpt lat="47.27863" lon="-2.37139">
        <ele>9.3999996185303</ele>
        <time>2021-03-11T11:10:13.000Z</time>
      </trkpt>
      <trkpt lat="47.2786" lon="-2.37142">
        <ele>9.8000001907349</ele>
        <time>2021-03-11T11:10:14.000Z</time>
      </trkpt>
      <trkpt lat="47.27857" lon="-2.37145">
        <ele>10.199999809265</ele>
        <time>2021-03-11T11:10:15.000Z</time>
      </trkpt>
      <trkpt lat="47.27854" lon="-2.37148">
        <ele>10.199999809265</ele>
        <time>2021-03-11T11:10:16.000Z</time>
      </trkpt>
      <trkpt lat="47.27833" lon="-2.37179">
        <ele>10.199999809265</ele>
        <time>2021-03-11T11:10:24.000Z</time>
      </trkpt>
      <trkpt lat="47.27828" lon="-2.37191">
        <ele>9.8000001907349</ele>
        <time>2021-03-11T11:10:27.000Z</time>
      </trkpt>
      <trkpt lat="47.27825" lon="-2.37193">
        <ele>8.8000001907349</ele>
        <time>2021-03-11T11:10:28.000Z</time>
      </trkpt>
      <trkpt lat="47.27821" lon="-2.37192">
        <ele>8.1999998092651</ele>
        <time>2021-03-11T11:10:29.000Z</time>
      </trkpt>
      <trkpt lat="47.27818" lon="-2.37189">
        <ele>7.8000001907349</ele>
        <time>2021-03-11T11:10:30.000Z</time>
      </trkpt>
      <trkpt lat="47.27815" lon="-2.37178">
        <ele>7.8000001907349</ele>
        <time>2021-03-11T11:10:32.000Z</time>
      </trkpt>
      <trkpt lat="47.27814" lon="-2.37172">
        <ele>7.4000000953674</ele>
        <time>2021-03-11T11:10:33.000Z</time>
      </trkpt>
      <trkpt lat="47.27813" lon="-2.37166">
        <ele>7</ele>
        <time>2021-03-11T11:10:34.000Z</time>
      </trkpt>
      <trkpt lat="47.27811" lon="-2.3716">
        <ele>6.4000000953674</ele>
        <time>2021-03-11T11:10:35.000Z</time>
      </trkpt>
      <trkpt lat="47.27808" lon="-2.37154">
        <ele>6</ele>
        <time>2021-03-11T11:10:36.000Z</time>
      </trkpt>
      <trkpt lat="47.27806" lon="-2.37148">
        <ele>5.5999999046326</ele>
        <time>2021-03-11T11:10:37.000Z</time>
      </trkpt>
      <trkpt lat="47.27802" lon="-2.37134">
        <ele>5.5999999046326</ele>
        <time>2021-03-11T11:10:39.000Z</time>
      </trkpt>
      <trkpt lat="47.27796" lon="-2.37111">
        <ele>5.5999999046326</ele>
        <time>2021-03-11T11:10:42.000Z</time>
      </trkpt>
      <trkpt lat="47.27776" lon="-2.37031">
        <ele>5.5999999046326</ele>
        <time>2021-03-11T11:10:52.000Z</time>
      </trkpt>
      <trkpt lat="47.27757" lon="-2.36963">
        <ele>5.5999999046326</ele>
        <time>2021-03-11T11:11:00.000Z</time>
      </trkpt>
      <trkpt lat="47.27734" lon="-2.36885">
        <ele>5.5999999046326</ele>
        <time>2021-03-11T11:11:09.000Z</time>
      </trkpt>
      <trkpt lat="47.2771" lon="-2.36804">
        <ele>5.5999999046326</ele>
        <time>2021-03-11T11:11:18.000Z</time>
      </trkpt>
      <trkpt lat="47.27702" lon="-2.36776">
        <ele>5.5999999046326</ele>
        <time>2021-03-11T11:11:21.000Z</time>
      </trkpt>
      <trkpt lat="47.2768" lon="-2.36716">
        <ele>5.5999999046326</ele>
        <time>2021-03-11T11:11:28.000Z</time>
      </trkpt>
      <trkpt lat="47.27656" lon="-2.36647">
        <ele>5.5999999046326</ele>
        <time>2021-03-11T11:11:37.000Z</time>
      </trkpt>
      <trkpt lat="47.27639" lon="-2.36601">
        <ele>5.5999999046326</ele>
        <time>2021-03-11T11:11:44.000Z</time>
      </trkpt>
      <trkpt lat="47.27618" lon="-2.36535">
        <ele>5.5999999046326</ele>
        <time>2021-03-11T11:11:52.000Z</time>
      </trkpt>
      <trkpt lat="47.27592" lon="-2.36465">
        <ele>5.5999999046326</ele>
        <time>2021-03-11T11:12:00.000Z</time>
      </trkpt>
      <trkpt lat="47.27568" lon="-2.36401">
        <ele>5.5999999046326</ele>
        <time>2021-03-11T11:12:07.000Z</time>
      </trkpt>
      <trkpt lat="47.27542" lon="-2.36331">
        <ele>5.5999999046326</ele>
        <time>2021-03-11T11:12:14.000Z</time>
      </trkpt>
      <trkpt lat="47.27514" lon="-2.36257">
        <ele>5.5999999046326</ele>
        <time>2021-03-11T11:12:21.000Z</time>
      </trkpt>
      <trkpt lat="47.27505" lon="-2.36235">
        <ele>5.5999999046326</ele>
        <time>2021-03-11T11:12:23.000Z</time>
      </trkpt>
      <trkpt lat="47.27479" lon="-2.36165">
        <ele>5.5999999046326</ele>
        <time>2021-03-11T11:12:29.000Z</time>
      </trkpt>
      <trkpt lat="47.2747" lon="-2.36142">
        <ele>5.5999999046326</ele>
        <time>2021-03-11T11:12:31.000Z</time>
      </trkpt>
      <trkpt lat="47.27454" lon="-2.36093">
        <ele>5.5999999046326</ele>
        <time>2021-03-11T11:12:35.000Z</time>
      </trkpt>
      <trkpt lat="47.2743" lon="-2.36033">
        <ele>5.5999999046326</ele>
        <time>2021-03-11T11:12:40.000Z</time>
      </trkpt>
      <trkpt lat="47.274" lon="-2.35966">
        <ele>5.5999999046326</ele>
        <time>2021-03-11T11:12:46.000Z</time>
      </trkpt>
      <trkpt lat="47.27391" lon="-2.35942">
        <ele>5.5999999046326</ele>
        <time>2021-03-11T11:12:48.000Z</time>
      </trkpt>
      <trkpt lat="47.27362" lon="-2.35869">
        <ele>5.5999999046326</ele>
        <time>2021-03-11T11:12:54.000Z</time>
      </trkpt>
      <trkpt lat="47.27353" lon="-2.35846">
        <ele>5.1999998092651</ele>
        <time>2021-03-11T11:12:56.000Z</time>
      </trkpt>
      <trkpt lat="47.27348" lon="-2.35834">
        <ele>4.8000001907349</ele>
        <time>2021-03-11T11:12:57.000Z</time>
      </trkpt>
      <trkpt lat="47.27343" lon="-2.35822">
        <ele>4.1999998092651</ele>
        <time>2021-03-11T11:12:58.000Z</time>
      </trkpt>
      <trkpt lat="47.27339" lon="-2.35809">
        <ele>3.7999999523163</ele>
        <time>2021-03-11T11:12:59.000Z</time>
      </trkpt>
      <trkpt lat="47.27333" lon="-2.35797">
        <ele>3.4000000953674</ele>
        <time>2021-03-11T11:13:00.000Z</time>
      </trkpt>
      <trkpt lat="47.27316" lon="-2.35748">
        <ele>3.4000000953674</ele>
        <time>2021-03-11T11:13:04.000Z</time>
      </trkpt>
      <trkpt lat="47.2731" lon="-2.35739">
        <ele>3.4000000953674</ele>
        <time>2021-03-11T11:13:05.000Z</time>
      </trkpt>
      <trkpt lat="47.27305" lon="-2.35726">
        <ele>3.4000000953674</ele>
        <time>2021-03-11T11:13:06.000Z</time>
      </trkpt>
      <trkpt lat="47.27301" lon="-2.35715">
        <ele>3.4000000953674</ele>
        <time>2021-03-11T11:13:07.000Z</time>
      </trkpt>
      <trkpt lat="47.27277" lon="-2.35664">
        <ele>3.4000000953674</ele>
        <time>2021-03-11T11:13:12.000Z</time>
      </trkpt>
      <trkpt lat="47.27247" lon="-2.35593">
        <ele>3.4000000953674</ele>
        <time>2021-03-11T11:13:19.000Z</time>
      </trkpt>
      <trkpt lat="47.27216" lon="-2.35523">
        <ele>3.4000000953674</ele>
        <time>2021-03-11T11:13:26.000Z</time>
      </trkpt>
      <trkpt lat="47.27208" lon="-2.35505">
        <ele>3.4000000953674</ele>
        <time>2021-03-11T11:13:28.000Z</time>
      </trkpt>
      <trkpt lat="47.27179" lon="-2.35446">
        <ele>3.4000000953674</ele>
        <time>2021-03-11T11:13:34.000Z</time>
      </trkpt>
      <trkpt lat="47.27145" lon="-2.35381">
        <ele>3.4000000953674</ele>
        <time>2021-03-11T11:13:40.000Z</time>
      </trkpt>
      <trkpt lat="47.27108" lon="-2.3532">
        <ele>3.4000000953674</ele>
        <time>2021-03-11T11:13:46.000Z</time>
      </trkpt>
      <trkpt lat="47.27095" lon="-2.35299">
        <ele>3.4000000953674</ele>
        <time>2021-03-11T11:13:48.000Z</time>
      </trkpt>
      <trkpt lat="47.27055" lon="-2.35237">
        <ele>3.4000000953674</ele>
        <time>2021-03-11T11:13:54.000Z</time>
      </trkpt>
      <trkpt lat="47.27015" lon="-2.35176">
        <ele>3.4000000953674</ele>
        <time>2021-03-11T11:14:00.000Z</time>
      </trkpt>
      <trkpt lat="47.26977" lon="-2.35116">
        <ele>3.4000000953674</ele>
        <time>2021-03-11T11:14:06.000Z</time>
      </trkpt>
      <trkpt lat="47.26952" lon="-2.35078">
        <ele>3.4000000953674</ele>
        <time>2021-03-11T11:14:10.000Z</time>
      </trkpt>
      <trkpt lat="47.26913" lon="-2.35019">
        <ele>3.4000000953674</ele>
        <time>2021-03-11T11:14:16.000Z</time>
      </trkpt>
      <trkpt lat="47.269" lon="-2.35">
        <ele>3.4000000953674</ele>
        <time>2021-03-11T11:14:18.000Z</time>
      </trkpt>
      <trkpt lat="47.26844" lon="-2.34912">
        <ele>3.4000000953674</ele>
        <time>2021-03-11T11:14:24.000Z</time>
      </trkpt>
      <trkpt lat="47.26844" lon="-2.34912">
        <ele>3.4000000953674</ele>
        <time>2021-03-11T11:14:27.000Z</time>
      </trkpt>
      <trkpt lat="47.268" lon="-2.3485">
        <ele>3.4000000953674</ele>
        <time>2021-03-11T11:14:34.000Z</time>
      </trkpt>
      <trkpt lat="47.26761" lon="-2.34794">
        <ele>3.4000000953674</ele>
        <time>2021-03-11T11:14:41.000Z</time>
      </trkpt>
      <trkpt lat="47.26717" lon="-2.34743">
        <ele>3.4000000953674</ele>
        <time>2021-03-11T11:14:48.000Z</time>
      </trkpt>
      <trkpt lat="47.26675" lon="-2.34689">
        <ele>3.4000000953674</ele>
        <time>2021-03-11T11:14:55.000Z</time>
      </trkpt>
      <trkpt lat="47.26634" lon="-2.34638">
        <ele>3.4000000953674</ele>
        <time>2021-03-11T11:15:02.000Z</time>
      </trkpt>
      <trkpt lat="47.26593" lon="-2.34587">
        <ele>3.4000000953674</ele>
        <time>2021-03-11T11:15:09.000Z</time>
      </trkpt>
      <trkpt lat="47.2658" lon="-2.34572">
        <ele>3.4000000953674</ele>
        <time>2021-03-11T11:15:11.000Z</time>
      </trkpt>
      <trkpt lat="47.26536" lon="-2.34526">
        <ele>3.4000000953674</ele>
        <time>2021-03-11T11:15:18.000Z</time>
      </trkpt>
      <trkpt lat="47.26516" lon="-2.34512">
        <ele>3.4000000953674</ele>
        <time>2021-03-11T11:15:21.000Z</time>
      </trkpt>
      <trkpt lat="47.2647" lon="-2.3448">
        <ele>3.4000000953674</ele>
        <time>2021-03-11T11:15:28.000Z</time>
      </trkpt>
      <trkpt lat="47.26423" lon="-2.34447">
        <ele>3.4000000953674</ele>
        <time>2021-03-11T11:15:35.000Z</time>
      </trkpt>
      <trkpt lat="47.26369" lon="-2.34405">
        <ele>3.4000000953674</ele>
        <time>2021-03-11T11:15:43.000Z</time>
      </trkpt>
      <trkpt lat="47.26336" lon="-2.34377">
        <ele>3.4000000953674</ele>
        <time>2021-03-11T11:15:48.000Z</time>
      </trkpt>
      <trkpt lat="47.26329" lon="-2.34373">
        <ele>3.4000000953674</ele>
        <time>2021-03-11T11:15:49.000Z</time>
      </trkpt>
      <trkpt lat="47.26312" lon="-2.34353">
        <ele>3.4000000953674</ele>
        <time>2021-03-11T11:15:52.000Z</time>
      </trkpt>
      <trkpt lat="47.263" lon="-2.34339">
        <ele>3.4000000953674</ele>
        <time>2021-03-11T11:15:54.000Z</time>
      </trkpt>
      <trkpt lat="47.26282" lon="-2.34321">
        <ele>3.4000000953674</ele>
        <time>2021-03-11T11:15:57.000Z</time>
      </trkpt>
      <trkpt lat="47.26276" lon="-2.34315">
        <ele>3.4000000953674</ele>
        <time>2021-03-11T11:15:58.000Z</time>
      </trkpt>
      <trkpt lat="47.26228" lon="-2.34263">
        <ele>3.4000000953674</ele>
        <time>2021-03-11T11:16:06.000Z</time>
      </trkpt>
      <trkpt lat="47.26222" lon="-2.34257">
        <ele>3.4000000953674</ele>
        <time>2021-03-11T11:16:07.000Z</time>
      </trkpt>
      <trkpt lat="47.26184" lon="-2.3422">
        <ele>3.4000000953674</ele>
        <time>2021-03-11T11:16:13.000Z</time>
      </trkpt>
      <trkpt lat="47.26147" lon="-2.34185">
        <ele>3.4000000953674</ele>
        <time>2021-03-11T11:16:19.000Z</time>
      </trkpt>
      <trkpt lat="47.26141" lon="-2.34182">
        <ele>3.4000000953674</ele>
        <time>2021-03-11T11:16:20.000Z</time>
      </trkpt>
      <trkpt lat="47.26117" lon="-2.34164">
        <ele>3.4000000953674</ele>
        <time>2021-03-11T11:16:24.000Z</time>
      </trkpt>
      <trkpt lat="47.26104" lon="-2.34156">
        <ele>3.4000000953674</ele>
        <time>2021-03-11T11:16:26.000Z</time>
      </trkpt>
      <trkpt lat="47.26085" lon="-2.34145">
        <ele>3.4000000953674</ele>
        <time>2021-03-11T11:16:29.000Z</time>
      </trkpt>
      <trkpt lat="47.26053" lon="-2.34127">
        <ele>3</ele>
        <time>2021-03-11T11:16:34.000Z</time>
      </trkpt>
      <trkpt lat="47.26047" lon="-2.34124">
        <ele>2.5999999046326</ele>
        <time>2021-03-11T11:16:35.000Z</time>
      </trkpt>
      <trkpt lat="47.26041" lon="-2.34122">
        <ele>2.2000000476837</ele>
        <time>2021-03-11T11:16:36.000Z</time>
      </trkpt>
      <trkpt lat="47.26035" lon="-2.34119">
        <ele>1.6000000238419</ele>
        <time>2021-03-11T11:16:37.000Z</time>
      </trkpt>
      <trkpt lat="47.26029" lon="-2.34116">
        <ele>1.2000000476837</ele>
        <time>2021-03-11T11:16:38.000Z</time>
      </trkpt>
      <trkpt lat="47.25986" lon="-2.34096">
        <ele>1.2000000476837</ele>
        <time>2021-03-11T11:16:45.000Z</time>
      </trkpt>
      <trkpt lat="47.25953" lon="-2.34082">
        <ele>1.2000000476837</ele>
        <time>2021-03-11T11:16:51.000Z</time>
      </trkpt>
      <trkpt lat="47.25928" lon="-2.34072">
        <ele>1.2000000476837</ele>
        <time>2021-03-11T11:16:56.000Z</time>
      </trkpt>
      <trkpt lat="47.25917" lon="-2.34072">
        <ele>1.2000000476837</ele>
        <time>2021-03-11T11:16:58.000Z</time>
      </trkpt>
      <trkpt lat="47.25912" lon="-2.34072">
        <ele>1.2000000476837</ele>
        <time>2021-03-11T11:16:59.000Z</time>
      </trkpt>
      <trkpt lat="47.25902" lon="-2.34065">
        <ele>1.2000000476837</ele>
        <time>2021-03-11T11:17:01.000Z</time>
      </trkpt>
      <trkpt lat="47.25897" lon="-2.34042">
        <ele>1.2000000476837</ele>
        <time>2021-03-11T11:17:04.000Z</time>
      </trkpt>
      <trkpt lat="47.25902" lon="-2.3402">
        <ele>1.2000000476837</ele>
        <time>2021-03-11T11:17:07.000Z</time>
      </trkpt>
      <trkpt lat="47.25904" lon="-2.34013">
        <ele>1.2000000476837</ele>
        <time>2021-03-11T11:17:08.000Z</time>
      </trkpt>
      <trkpt lat="47.25906" lon="-2.34007">
        <ele>1.2000000476837</ele>
        <time>2021-03-11T11:17:09.000Z</time>
      </trkpt>
      <trkpt lat="47.25911" lon="-2.33986">
        <ele>1.2000000476837</ele>
        <time>2021-03-11T11:17:12.000Z</time>
      </trkpt>
      <trkpt lat="47.25913" lon="-2.33979">
        <ele>1.2000000476837</ele>
        <time>2021-03-11T11:17:13.000Z</time>
      </trkpt>
      <trkpt lat="47.25923" lon="-2.33953">
        <ele>1.2000000476837</ele>
        <time>2021-03-11T11:17:17.000Z</time>
      </trkpt>
      <trkpt lat="47.25932" lon="-2.33935">
        <ele>1.2000000476837</ele>
        <time>2021-03-11T11:17:20.000Z</time>
      </trkpt>
      <trkpt lat="47.25937" lon="-2.33927">
        <ele>1.2000000476837</ele>
        <time>2021-03-11T11:17:22.000Z</time>
      </trkpt>
      <trkpt lat="47.25942" lon="-2.33917">
        <ele>1.2000000476837</ele>
        <time>2021-03-11T11:17:24.000Z</time>
      </trkpt>
      <trkpt lat="47.25945" lon="-2.33906">
        <ele>1.2000000476837</ele>
        <time>2021-03-11T11:17:26.000Z</time>
      </trkpt>
      <trkpt lat="47.25951" lon="-2.33887">
        <ele>1.2000000476837</ele>
        <time>2021-03-11T11:17:29.000Z</time>
      </trkpt>
      <trkpt lat="47.25954" lon="-2.33881">
        <ele>1.2000000476837</ele>
        <time>2021-03-11T11:17:30.000Z</time>
      </trkpt>
      <trkpt lat="47.25956" lon="-2.33874">
        <ele>1.2000000476837</ele>
        <time>2021-03-11T11:17:31.000Z</time>
      </trkpt>
      <trkpt lat="47.25965" lon="-2.33842">
        <ele>1.2000000476837</ele>
        <time>2021-03-11T11:17:35.000Z</time>
      </trkpt>
      <trkpt lat="47.25987" lon="-2.33768">
        <ele>1.2000000476837</ele>
        <time>2021-03-11T11:17:44.000Z</time>
      </trkpt>
      <trkpt lat="47.2599" lon="-2.3376">
        <ele>1.2000000476837</ele>
        <time>2021-03-11T11:17:45.000Z</time>
      </trkpt>
      <trkpt lat="47.26007" lon="-2.33699">
        <ele>1.2000000476837</ele>
        <time>2021-03-11T11:17:53.000Z</time>
      </trkpt>
      <trkpt lat="47.26011" lon="-2.33685">
        <ele>1.2000000476837</ele>
        <time>2021-03-11T11:17:55.000Z</time>
      </trkpt>
      <trkpt lat="47.26016" lon="-2.33661">
        <ele>1.2000000476837</ele>
        <time>2021-03-11T11:17:58.000Z</time>
      </trkpt>
      <trkpt lat="47.26016" lon="-2.33634">
        <ele>1.2000000476837</ele>
        <time>2021-03-11T11:18:01.000Z</time>
      </trkpt>
      <trkpt lat="47.26015" lon="-2.33625">
        <ele>1.2000000476837</ele>
        <time>2021-03-11T11:18:02.000Z</time>
      </trkpt>
      <trkpt lat="47.26005" lon="-2.3358">
        <ele>1.2000000476837</ele>
        <time>2021-03-11T11:18:07.000Z</time>
      </trkpt>
      <trkpt lat="47.26003" lon="-2.33572">
        <ele>1.2000000476837</ele>
        <time>2021-03-11T11:18:08.000Z</time>
      </trkpt>
      <trkpt lat="47.25991" lon="-2.3355">
        <ele>1.2000000476837</ele>
        <time>2021-03-11T11:18:11.000Z</time>
      </trkpt>
      <trkpt lat="47.25984" lon="-2.33536">
        <ele>1.2000000476837</ele>
        <time>2021-03-11T11:18:13.000Z</time>
      </trkpt>
      <trkpt lat="47.25974" lon="-2.33515">
        <ele>1.2000000476837</ele>
        <time>2021-03-11T11:18:17.000Z</time>
      </trkpt>
      <trkpt lat="47.2597" lon="-2.3351">
        <ele>1.2000000476837</ele>
        <time>2021-03-11T11:18:18.000Z</time>
      </trkpt>
      <trkpt lat="47.2596" lon="-2.33499">
        <ele>1.2000000476837</ele>
        <time>2021-03-11T11:18:21.000Z</time>
      </trkpt>
      <trkpt lat="47.25954" lon="-2.33481">
        <ele>1.2000000476837</ele>
        <time>2021-03-11T11:18:24.000Z</time>
      </trkpt>
      <trkpt lat="47.25952" lon="-2.33475">
        <ele>1.2000000476837</ele>
        <time>2021-03-11T11:18:25.000Z</time>
      </trkpt>
      <trkpt lat="47.25941" lon="-2.3345">
        <ele>1.2000000476837</ele>
        <time>2021-03-11T11:18:29.000Z</time>
      </trkpt>
      <trkpt lat="47.2592" lon="-2.3339">
        <ele>1.2000000476837</ele>
        <time>2021-03-11T11:18:37.000Z</time>
      </trkpt>
      <trkpt lat="47.25918" lon="-2.33382">
        <ele>1.2000000476837</ele>
        <time>2021-03-11T11:18:38.000Z</time>
      </trkpt>
      <trkpt lat="47.25914" lon="-2.33357">
        <ele>1.2000000476837</ele>
        <time>2021-03-11T11:18:41.000Z</time>
      </trkpt>
      <trkpt lat="47.25906" lon="-2.3329">
        <ele>1.2000000476837</ele>
        <time>2021-03-11T11:18:48.000Z</time>
      </trkpt>
      <trkpt lat="47.25903" lon="-2.33209">
        <ele>1.2000000476837</ele>
        <time>2021-03-11T11:18:56.000Z</time>
      </trkpt>
      <trkpt lat="47.25903" lon="-2.33199">
        <ele>1.2000000476837</ele>
        <time>2021-03-11T11:18:57.000Z</time>
      </trkpt>
      <trkpt lat="47.25896" lon="-2.33138">
        <ele>1.2000000476837</ele>
        <time>2021-03-11T11:19:03.000Z</time>
      </trkpt>
      <trkpt lat="47.25887" lon="-2.33102">
        <ele>1.2000000476837</ele>
        <time>2021-03-11T11:19:07.000Z</time>
      </trkpt>
      <trkpt lat="47.25882" lon="-2.33086">
        <ele>1.2000000476837</ele>
        <time>2021-03-11T11:19:09.000Z</time>
      </trkpt>
      <trkpt lat="47.2587" lon="-2.33044">
        <ele>1.6000000238419</ele>
        <time>2021-03-11T11:19:14.000Z</time>
      </trkpt>
      <trkpt lat="47.25867" lon="-2.33036">
        <ele>2</ele>
        <time>2021-03-11T11:19:15.000Z</time>
      </trkpt>
      <trkpt lat="47.25865" lon="-2.33028">
        <ele>2.5999999046326</ele>
        <time>2021-03-11T11:19:16.000Z</time>
      </trkpt>
      <trkpt lat="47.25862" lon="-2.3302">
        <ele>3</ele>
        <time>2021-03-11T11:19:17.000Z</time>
      </trkpt>
      <trkpt lat="47.25859" lon="-2.33012">
        <ele>3.4000000953674</ele>
        <time>2021-03-11T11:19:18.000Z</time>
      </trkpt>
      <trkpt lat="47.25846" lon="-2.32982">
        <ele>3.4000000953674</ele>
        <time>2021-03-11T11:19:22.000Z</time>
      </trkpt>
      <trkpt lat="47.25827" lon="-2.32958">
        <ele>3.7999999523163</ele>
        <time>2021-03-11T11:19:26.000Z</time>
      </trkpt>
      <trkpt lat="47.25822" lon="-2.32952">
        <ele>4.1999998092651</ele>
        <time>2021-03-11T11:19:27.000Z</time>
      </trkpt>
      <trkpt lat="47.25816" lon="-2.32946">
        <ele>4.5999999046326</ele>
        <time>2021-03-11T11:19:28.000Z</time>
      </trkpt>
      <trkpt lat="47.25812" lon="-2.32939">
        <ele>5</ele>
        <time>2021-03-11T11:19:29.000Z</time>
      </trkpt>
      <trkpt lat="47.25807" lon="-2.32933">
        <ele>5.4000000953674</ele>
        <time>2021-03-11T11:19:30.000Z</time>
      </trkpt>
      <trkpt lat="47.25779" lon="-2.32897">
        <ele>5.4000000953674</ele>
        <time>2021-03-11T11:19:36.000Z</time>
      </trkpt>
      <trkpt lat="47.25766" lon="-2.32878">
        <ele>5.4000000953674</ele>
        <time>2021-03-11T11:19:39.000Z</time>
      </trkpt>
      <trkpt lat="47.25755" lon="-2.32855">
        <ele>5.4000000953674</ele>
        <time>2021-03-11T11:19:42.000Z</time>
      </trkpt>
      <trkpt lat="47.25749" lon="-2.3284">
        <ele>5.8000001907349</ele>
        <time>2021-03-11T11:19:44.000Z</time>
      </trkpt>
      <trkpt lat="47.25746" lon="-2.32833">
        <ele>6.1999998092651</ele>
        <time>2021-03-11T11:19:45.000Z</time>
      </trkpt>
      <trkpt lat="47.25743" lon="-2.32825">
        <ele>6.8000001907349</ele>
        <time>2021-03-11T11:19:46.000Z</time>
      </trkpt>
      <trkpt lat="47.25741" lon="-2.32816">
        <ele>7.1999998092651</ele>
        <time>2021-03-11T11:19:47.000Z</time>
      </trkpt>
      <trkpt lat="47.25739" lon="-2.32808">
        <ele>7.5999999046326</ele>
        <time>2021-03-11T11:19:48.000Z</time>
      </trkpt>
      <trkpt lat="47.25737" lon="-2.32799">
        <ele>7.5999999046326</ele>
        <time>2021-03-11T11:19:49.000Z</time>
      </trkpt>
      <trkpt lat="47.25727" lon="-2.32739">
        <ele>7.5999999046326</ele>
        <time>2021-03-11T11:19:56.000Z</time>
      </trkpt>
      <trkpt lat="47.25721" lon="-2.32679">
        <ele>7.5999999046326</ele>
        <time>2021-03-11T11:20:02.000Z</time>
      </trkpt>
      <trkpt lat="47.25713" lon="-2.32619">
        <ele>7.5999999046326</ele>
        <time>2021-03-11T11:20:08.000Z</time>
      </trkpt>
      <trkpt lat="47.25694" lon="-2.32549">
        <ele>7.5999999046326</ele>
        <time>2021-03-11T11:20:16.000Z</time>
      </trkpt>
      <trkpt lat="47.25686" lon="-2.32523">
        <ele>7</ele>
        <time>2021-03-11T11:20:19.000Z</time>
      </trkpt>
      <trkpt lat="47.25683" lon="-2.32514">
        <ele>6.5999999046326</ele>
        <time>2021-03-11T11:20:20.000Z</time>
      </trkpt>
      <trkpt lat="47.25681" lon="-2.32506">
        <ele>5.5999999046326</ele>
        <time>2021-03-11T11:20:21.000Z</time>
      </trkpt>
      <trkpt lat="47.25678" lon="-2.32498">
        <ele>5.1999998092651</ele>
        <time>2021-03-11T11:20:22.000Z</time>
      </trkpt>
      <trkpt lat="47.25675" lon="-2.3249">
        <ele>4.8000001907349</ele>
        <time>2021-03-11T11:20:23.000Z</time>
      </trkpt>
      <trkpt lat="47.25673" lon="-2.32483">
        <ele>4.1999998092651</ele>
        <time>2021-03-11T11:20:24.000Z</time>
      </trkpt>
      <trkpt lat="47.2567" lon="-2.32476">
        <ele>3.7999999523163</ele>
        <time>2021-03-11T11:20:25.000Z</time>
      </trkpt>
      <trkpt lat="47.25668" lon="-2.32469">
        <ele>3.4000000953674</ele>
        <time>2021-03-11T11:20:26.000Z</time>
      </trkpt>
      <trkpt lat="47.25665" lon="-2.32462">
        <ele>3</ele>
        <time>2021-03-11T11:20:27.000Z</time>
      </trkpt>
      <trkpt lat="47.25664" lon="-2.32456">
        <ele>3</ele>
        <time>2021-03-11T11:20:28.000Z</time>
      </trkpt>
      <trkpt lat="47.25661" lon="-2.32444">
        <ele>3</ele>
        <time>2021-03-11T11:20:30.000Z</time>
      </trkpt>
      <trkpt lat="47.25658" lon="-2.32424">
        <ele>3</ele>
        <time>2021-03-11T11:20:33.000Z</time>
      </trkpt>
      <trkpt lat="47.25656" lon="-2.32417">
        <ele>3</ele>
        <time>2021-03-11T11:20:34.000Z</time>
      </trkpt>
      <trkpt lat="47.25653" lon="-2.32402">
        <ele>3</ele>
        <time>2021-03-11T11:20:36.000Z</time>
      </trkpt>
      <trkpt lat="47.25655" lon="-2.32386">
        <ele>3</ele>
        <time>2021-03-11T11:20:38.000Z</time>
      </trkpt>
      <trkpt lat="47.25655" lon="-2.32369">
        <ele>3</ele>
        <time>2021-03-11T11:20:40.000Z</time>
      </trkpt>
      <trkpt lat="47.25654" lon="-2.32361">
        <ele>3</ele>
        <time>2021-03-11T11:20:41.000Z</time>
      </trkpt>
      <trkpt lat="47.25652" lon="-2.32342">
        <ele>3</ele>
        <time>2021-03-11T11:20:43.000Z</time>
      </trkpt>
      <trkpt lat="47.25646" lon="-2.32276">
        <ele>3.4000000953674</ele>
        <time>2021-03-11T11:20:50.000Z</time>
      </trkpt>
      <trkpt lat="47.25646" lon="-2.32266">
        <ele>3.7999999523163</ele>
        <time>2021-03-11T11:20:51.000Z</time>
      </trkpt>
      <trkpt lat="47.25646" lon="-2.32257">
        <ele>4.4000000953674</ele>
        <time>2021-03-11T11:20:52.000Z</time>
      </trkpt>
      <trkpt lat="47.25645" lon="-2.32247">
        <ele>4.8000001907349</ele>
        <time>2021-03-11T11:20:53.000Z</time>
      </trkpt>
      <trkpt lat="47.25644" lon="-2.32239">
        <ele>5.4000000953674</ele>
        <time>2021-03-11T11:20:54.000Z</time>
      </trkpt>
      <trkpt lat="47.25644" lon="-2.3223">
        <ele>5.8000001907349</ele>
        <time>2021-03-11T11:20:55.000Z</time>
      </trkpt>
      <trkpt lat="47.25643" lon="-2.32221">
        <ele>6.4000000953674</ele>
        <time>2021-03-11T11:20:56.000Z</time>
      </trkpt>
      <trkpt lat="47.25642" lon="-2.32213">
        <ele>7.1999998092651</ele>
        <time>2021-03-11T11:20:57.000Z</time>
      </trkpt>
      <trkpt lat="47.25641" lon="-2.32204">
        <ele>7.8000001907349</ele>
        <time>2021-03-11T11:20:58.000Z</time>
      </trkpt>
      <trkpt lat="47.2564" lon="-2.32195">
        <ele>8.6000003814697</ele>
        <time>2021-03-11T11:20:59.000Z</time>
      </trkpt>
      <trkpt lat="47.25638" lon="-2.32187">
        <ele>9.3999996185303</ele>
        <time>2021-03-11T11:21:00.000Z</time>
      </trkpt>
      <trkpt lat="47.25635" lon="-2.32178">
        <ele>10</ele>
        <time>2021-03-11T11:21:01.000Z</time>
      </trkpt>
      <trkpt lat="47.25619" lon="-2.32116">
        <ele>10</ele>
        <time>2021-03-11T11:21:08.000Z</time>
      </trkpt>
      <trkpt lat="47.25601" lon="-2.32065">
        <ele>10</ele>
        <time>2021-03-11T11:21:14.000Z</time>
      </trkpt>
      <trkpt lat="47.25586" lon="-2.32023">
        <ele>10.39999961853</ele>
        <time>2021-03-11T11:21:19.000Z</time>
      </trkpt>
      <trkpt lat="47.25583" lon="-2.32014">
        <ele>10.800000190735</ele>
        <time>2021-03-11T11:21:20.000Z</time>
      </trkpt>
      <trkpt lat="47.25581" lon="-2.32006">
        <ele>11.199999809265</ele>
        <time>2021-03-11T11:21:21.000Z</time>
      </trkpt>
      <trkpt lat="47.25579" lon="-2.31998">
        <ele>11.800000190735</ele>
        <time>2021-03-11T11:21:22.000Z</time>
      </trkpt>
      <trkpt lat="47.25577" lon="-2.31989">
        <ele>12.199999809265</ele>
        <time>2021-03-11T11:21:23.000Z</time>
      </trkpt>
      <trkpt lat="47.25571" lon="-2.31965">
        <ele>12.199999809265</ele>
        <time>2021-03-11T11:21:26.000Z</time>
      </trkpt>
      <trkpt lat="47.25565" lon="-2.31923">
        <ele>12.199999809265</ele>
        <time>2021-03-11T11:21:32.000Z</time>
      </trkpt>
      <trkpt lat="47.25562" lon="-2.31914">
        <ele>12.199999809265</ele>
        <time>2021-03-11T11:21:35.000Z</time>
      </trkpt>
      <trkpt lat="47.2556" lon="-2.31913">
        <ele>12.199999809265</ele>
        <time>2021-03-11T11:21:37.000Z</time>
      </trkpt>
      <trkpt lat="47.25555" lon="-2.31915">
        <ele>12.199999809265</ele>
        <time>2021-03-11T11:21:39.000Z</time>
      </trkpt>
      <trkpt lat="47.25545" lon="-2.31919">
        <ele>12.60000038147</ele>
        <time>2021-03-11T11:21:42.000Z</time>
      </trkpt>
      <trkpt lat="47.25542" lon="-2.31919">
        <ele>13</ele>
        <time>2021-03-11T11:21:43.000Z</time>
      </trkpt>
      <trkpt lat="47.25539" lon="-2.31919">
        <ele>13.39999961853</ele>
        <time>2021-03-11T11:21:44.000Z</time>
      </trkpt>
      <trkpt lat="47.25537" lon="-2.31916">
        <ele>13.800000190735</ele>
        <time>2021-03-11T11:21:45.000Z</time>
      </trkpt>
      <trkpt lat="47.25535" lon="-2.31911">
        <ele>14.199999809265</ele>
        <time>2021-03-11T11:21:46.000Z</time>
      </trkpt>
      <trkpt lat="47.25531" lon="-2.31896">
        <ele>14.199999809265</ele>
        <time>2021-03-11T11:21:49.000Z</time>
      </trkpt>
      <trkpt lat="47.2553" lon="-2.31885">
        <ele>14.199999809265</ele>
        <time>2021-03-11T11:21:51.000Z</time>
      </trkpt>
      <trkpt lat="47.25525" lon="-2.31855">
        <ele>14.199999809265</ele>
        <time>2021-03-11T11:21:57.000Z</time>
      </trkpt>
      <trkpt lat="47.25519" lon="-2.31833">
        <ele>14.199999809265</ele>
        <time>2021-03-11T11:22:03.000Z</time>
      </trkpt>
      <trkpt lat="47.25519" lon="-2.31832">
        <ele>14.199999809265</ele>
        <time>2021-03-11T11:22:05.000Z</time>
      </trkpt>
      <trkpt lat="47.25517" lon="-2.3183">
        <ele>14.199999809265</ele>
        <time>2021-03-11T11:23:55.000Z</time>
      </trkpt>
      <trkpt lat="47.25509" lon="-2.31824">
        <ele>14.199999809265</ele>
        <time>2021-03-11T11:24:00.000Z</time>
      </trkpt>
      <trkpt lat="47.25512" lon="-2.31815">
        <ele>14.199999809265</ele>
        <time>2021-03-11T11:24:03.000Z</time>
      </trkpt>
      <trkpt lat="47.25516" lon="-2.31812">
        <ele>14.199999809265</ele>
        <time>2021-03-11T11:24:05.000Z</time>
      </trkpt>
      <trkpt lat="47.25525" lon="-2.31808">
        <ele>14.199999809265</ele>
        <time>2021-03-11T11:24:08.000Z</time>
      </trkpt>
      <trkpt lat="47.25546" lon="-2.318">
        <ele>14.199999809265</ele>
        <time>2021-03-11T11:24:14.000Z</time>
      </trkpt>
      <trkpt lat="47.25561" lon="-2.31794">
        <ele>14.199999809265</ele>
        <time>2021-03-11T11:24:19.000Z</time>
      </trkpt>
      <trkpt lat="47.25571" lon="-2.31773">
        <ele>14.199999809265</ele>
        <time>2021-03-11T11:24:24.000Z</time>
      </trkpt>
      <trkpt lat="47.25585" lon="-2.31752">
        <ele>14.199999809265</ele>
        <time>2021-03-11T11:24:28.000Z</time>
      </trkpt>
      <trkpt lat="47.25587" lon="-2.31745">
        <ele>13.39999961853</ele>
        <time>2021-03-11T11:24:29.000Z</time>
      </trkpt>
      <trkpt lat="47.25589" lon="-2.31737">
        <ele>12.800000190735</ele>
        <time>2021-03-11T11:24:30.000Z</time>
      </trkpt>
      <trkpt lat="47.25591" lon="-2.3173">
        <ele>12.39999961853</ele>
        <time>2021-03-11T11:24:31.000Z</time>
      </trkpt>
      <trkpt lat="47.25592" lon="-2.31723">
        <ele>12</ele>
        <time>2021-03-11T11:24:32.000Z</time>
      </trkpt>
      <trkpt lat="47.25594" lon="-2.31717">
        <ele>12</ele>
        <time>2021-03-11T11:24:33.000Z</time>
      </trkpt>
      <trkpt lat="47.25607" lon="-2.31706">
        <ele>12</ele>
        <time>2021-03-11T11:24:36.000Z</time>
      </trkpt>
      <trkpt lat="47.25631" lon="-2.31703">
        <ele>12</ele>
        <time>2021-03-11T11:24:40.000Z</time>
      </trkpt>
      <trkpt lat="47.2565" lon="-2.31687">
        <ele>12</ele>
        <time>2021-03-11T11:24:44.000Z</time>
      </trkpt>
      <trkpt lat="47.25653" lon="-2.31678">
        <ele>11.60000038147</ele>
        <time>2021-03-11T11:24:45.000Z</time>
      </trkpt>
      <trkpt lat="47.25656" lon="-2.31671">
        <ele>11.199999809265</ele>
        <time>2021-03-11T11:24:46.000Z</time>
      </trkpt>
      <trkpt lat="47.25659" lon="-2.31664">
        <ele>10.800000190735</ele>
        <time>2021-03-11T11:24:47.000Z</time>
      </trkpt>
      <trkpt lat="47.25662" lon="-2.3166">
        <ele>10.39999961853</ele>
        <time>2021-03-11T11:24:48.000Z</time>
      </trkpt>
      <trkpt lat="47.25667" lon="-2.3166">
        <ele>10</ele>
        <time>2021-03-11T11:24:49.000Z</time>
      </trkpt>
      <trkpt lat="47.25672" lon="-2.31663">
        <ele>10</ele>
        <time>2021-03-11T11:24:50.000Z</time>
      </trkpt>
      <trkpt lat="47.25687" lon="-2.31673">
        <ele>10</ele>
        <time>2021-03-11T11:24:53.000Z</time>
      </trkpt>
      <trkpt lat="47.25693" lon="-2.31676">
        <ele>9</ele>
        <time>2021-03-11T11:24:54.000Z</time>
      </trkpt>
      <trkpt lat="47.25699" lon="-2.31679">
        <ele>8.6000003814697</ele>
        <time>2021-03-11T11:24:55.000Z</time>
      </trkpt>
      <trkpt lat="47.25705" lon="-2.31681">
        <ele>8.1999998092651</ele>
        <time>2021-03-11T11:24:56.000Z</time>
      </trkpt>
      <trkpt lat="47.25711" lon="-2.31685">
        <ele>7.5999999046326</ele>
        <time>2021-03-11T11:24:57.000Z</time>
      </trkpt>
      <trkpt lat="47.25729" lon="-2.31694">
        <ele>7.5999999046326</ele>
        <time>2021-03-11T11:25:00.000Z</time>
      </trkpt>
      <trkpt lat="47.25746" lon="-2.31684">
        <ele>7.5999999046326</ele>
        <time>2021-03-11T11:25:03.000Z</time>
      </trkpt>
      <trkpt lat="47.25751" lon="-2.3168">
        <ele>7.5999999046326</ele>
        <time>2021-03-11T11:25:04.000Z</time>
      </trkpt>
      <trkpt lat="47.25779" lon="-2.31657">
        <ele>7.5999999046326</ele>
        <time>2021-03-11T11:25:10.000Z</time>
      </trkpt>
      <trkpt lat="47.25822" lon="-2.31621">
        <ele>7.5999999046326</ele>
        <time>2021-03-11T11:25:20.000Z</time>
      </trkpt>
      <trkpt lat="47.25834" lon="-2.31611">
        <ele>7.5999999046326</ele>
        <time>2021-03-11T11:25:23.000Z</time>
      </trkpt>
      <trkpt lat="47.25842" lon="-2.31602">
        <ele>7.5999999046326</ele>
        <time>2021-03-11T11:25:25.000Z</time>
      </trkpt>
      <trkpt lat="47.25873" lon="-2.31574">
        <ele>7.5999999046326</ele>
        <time>2021-03-11T11:25:31.000Z</time>
      </trkpt>
      <trkpt lat="47.25884" lon="-2.31562">
        <ele>7.5999999046326</ele>
        <time>2021-03-11T11:25:33.000Z</time>
      </trkpt>
      <trkpt lat="47.25891" lon="-2.31544">
        <ele>7.5999999046326</ele>
        <time>2021-03-11T11:25:35.000Z</time>
      </trkpt>
      <trkpt lat="47.259" lon="-2.31521">
        <ele>7.5999999046326</ele>
        <time>2021-03-11T11:25:38.000Z</time>
      </trkpt>
      <trkpt lat="47.25902" lon="-2.31516">
        <ele>7.1999998092651</ele>
        <time>2021-03-11T11:25:39.000Z</time>
      </trkpt>
      <trkpt lat="47.25904" lon="-2.31512">
        <ele>6.8000001907349</ele>
        <time>2021-03-11T11:25:40.000Z</time>
      </trkpt>
      <trkpt lat="47.25906" lon="-2.31509">
        <ele>6.4000000953674</ele>
        <time>2021-03-11T11:25:41.000Z</time>
      </trkpt>
      <trkpt lat="47.25908" lon="-2.31507">
        <ele>6</ele>
        <time>2021-03-11T11:25:42.000Z</time>
      </trkpt>
      <trkpt lat="47.2591" lon="-2.31504">
        <ele>5.4000000953674</ele>
        <time>2021-03-11T11:25:43.000Z</time>
      </trkpt>
      <trkpt lat="47.2591" lon="-2.31501">
        <ele>5.4000000953674</ele>
        <time>2021-03-11T11:25:46.000Z</time>
      </trkpt>
      <trkpt lat="47.25911" lon="-2.31498">
        <ele>5.4000000953674</ele>
        <time>2021-03-11T11:25:49.000Z</time>
      </trkpt>
      <trkpt lat="47.25913" lon="-2.31491">
        <ele>5.4000000953674</ele>
        <time>2021-03-11T11:25:51.000Z</time>
      </trkpt>
      <trkpt lat="47.25923" lon="-2.31462">
        <ele>5.4000000953674</ele>
        <time>2021-03-11T11:25:56.000Z</time>
      </trkpt>
      <trkpt lat="47.25926" lon="-2.31457">
        <ele>5.4000000953674</ele>
        <time>2021-03-11T11:25:57.000Z</time>
      </trkpt>
      <trkpt lat="47.25929" lon="-2.31453">
        <ele>5</ele>
        <time>2021-03-11T11:25:58.000Z</time>
      </trkpt>
      <trkpt lat="47.25932" lon="-2.31451">
        <ele>4.5999999046326</ele>
        <time>2021-03-11T11:25:59.000Z</time>
      </trkpt>
      <trkpt lat="47.25935" lon="-2.31452">
        <ele>4.1999998092651</ele>
        <time>2021-03-11T11:26:00.000Z</time>
      </trkpt>
      <trkpt lat="47.25939" lon="-2.31454">
        <ele>3.5999999046326</ele>
        <time>2021-03-11T11:26:01.000Z</time>
      </trkpt>
      <trkpt lat="47.25943" lon="-2.31457">
        <ele>3.2000000476837</ele>
        <time>2021-03-11T11:26:02.000Z</time>
      </trkpt>
      <trkpt lat="47.25962" lon="-2.31479">
        <ele>3.2000000476837</ele>
        <time>2021-03-11T11:26:07.000Z</time>
      </trkpt>
      <trkpt lat="47.2598" lon="-2.31512">
        <ele>3.2000000476837</ele>
        <time>2021-03-11T11:26:12.000Z</time>
      </trkpt>
      <trkpt lat="47.26003" lon="-2.3155">
        <ele>3.2000000476837</ele>
        <time>2021-03-11T11:26:19.000Z</time>
      </trkpt>
      <trkpt lat="47.26009" lon="-2.31557">
        <ele>3.2000000476837</ele>
        <time>2021-03-11T11:26:21.000Z</time>
      </trkpt>
      <trkpt lat="47.26017" lon="-2.31554">
        <ele>3.2000000476837</ele>
        <time>2021-03-11T11:26:23.000Z</time>
      </trkpt>
      <trkpt lat="47.26027" lon="-2.31535">
        <ele>3.2000000476837</ele>
        <time>2021-03-11T11:26:27.000Z</time>
      </trkpt>
      <trkpt lat="47.26029" lon="-2.31529">
        <ele>3.2000000476837</ele>
        <time>2021-03-11T11:26:28.000Z</time>
      </trkpt>
      <trkpt lat="47.26037" lon="-2.31511">
        <ele>3.2000000476837</ele>
        <time>2021-03-11T11:26:32.000Z</time>
      </trkpt>
      <trkpt lat="47.26047" lon="-2.31518">
        <ele>3.2000000476837</ele>
        <time>2021-03-11T11:26:35.000Z</time>
      </trkpt>
      <trkpt lat="47.26058" lon="-2.31536">
        <ele>3.2000000476837</ele>
        <time>2021-03-11T11:26:38.000Z</time>
      </trkpt>
      <trkpt lat="47.26061" lon="-2.31541">
        <ele>3.2000000476837</ele>
        <time>2021-03-11T11:26:39.000Z</time>
      </trkpt>
      <trkpt lat="47.26064" lon="-2.31547">
        <ele>3.2000000476837</ele>
        <time>2021-03-11T11:26:40.000Z</time>
      </trkpt>
      <trkpt lat="47.26071" lon="-2.31566">
        <ele>3.2000000476837</ele>
        <time>2021-03-11T11:26:43.000Z</time>
      </trkpt>
      <trkpt lat="47.26074" lon="-2.31571">
        <ele>3.2000000476837</ele>
        <time>2021-03-11T11:26:44.000Z</time>
      </trkpt>
      <trkpt lat="47.26076" lon="-2.31574">
        <ele>2.7999999523163</ele>
        <time>2021-03-11T11:26:45.000Z</time>
      </trkpt>
      <trkpt lat="47.26079" lon="-2.31574">
        <ele>2.4000000953674</ele>
        <time>2021-03-11T11:26:46.000Z</time>
      </trkpt>
      <trkpt lat="47.26082" lon="-2.31575">
        <ele>2</ele>
        <time>2021-03-11T11:26:47.000Z</time>
      </trkpt>
      <trkpt lat="47.26086" lon="-2.31577">
        <ele>1.6000000238419</ele>
        <time>2021-03-11T11:26:48.000Z</time>
      </trkpt>
      <trkpt lat="47.26089" lon="-2.31581">
        <ele>1.2000000476837</ele>
        <time>2021-03-11T11:26:49.000Z</time>
      </trkpt>
      <trkpt lat="47.26092" lon="-2.31585">
        <ele>1.2000000476837</ele>
        <time>2021-03-11T11:26:50.000Z</time>
      </trkpt>
      <trkpt lat="47.26095" lon="-2.3159">
        <ele>1.2000000476837</ele>
        <time>2021-03-11T11:26:51.000Z</time>
      </trkpt>
      <trkpt lat="47.26106" lon="-2.31607">
        <ele>1.2000000476837</ele>
        <time>2021-03-11T11:26:54.000Z</time>
      </trkpt>
      <trkpt lat="47.26121" lon="-2.31612">
        <ele>1.2000000476837</ele>
        <time>2021-03-11T11:26:57.000Z</time>
      </trkpt>
      <trkpt lat="47.26127" lon="-2.31612">
        <ele>1.2000000476837</ele>
        <time>2021-03-11T11:26:58.000Z</time>
      </trkpt>
      <trkpt lat="47.26152" lon="-2.31604">
        <ele>1.2000000476837</ele>
        <time>2021-03-11T11:27:03.000Z</time>
      </trkpt>
      <trkpt lat="47.26157" lon="-2.31603">
        <ele>1.2000000476837</ele>
        <time>2021-03-11T11:27:04.000Z</time>
      </trkpt>
      <trkpt lat="47.26183" lon="-2.31593">
        <ele>1.2000000476837</ele>
        <time>2021-03-11T11:27:09.000Z</time>
      </trkpt>
      <trkpt lat="47.26203" lon="-2.31586">
        <ele>1.2000000476837</ele>
        <time>2021-03-11T11:27:13.000Z</time>
      </trkpt>
      <trkpt lat="47.26213" lon="-2.31586">
        <ele>1.2000000476837</ele>
        <time>2021-03-11T11:27:15.000Z</time>
      </trkpt>
      <trkpt lat="47.26227" lon="-2.31591">
        <ele>1.2000000476837</ele>
        <time>2021-03-11T11:27:18.000Z</time>
      </trkpt>
      <trkpt lat="47.2624" lon="-2.316">
        <ele>1.2000000476837</ele>
        <time>2021-03-11T11:27:21.000Z</time>
      </trkpt>
      <trkpt lat="47.26244" lon="-2.31604">
        <ele>1.2000000476837</ele>
        <time>2021-03-11T11:27:22.000Z</time>
      </trkpt>
      <trkpt lat="47.26257" lon="-2.31624">
        <ele>1.2000000476837</ele>
        <time>2021-03-11T11:27:26.000Z</time>
      </trkpt>
      <trkpt lat="47.26269" lon="-2.31652">
        <ele>1.2000000476837</ele>
        <time>2021-03-11T11:27:31.000Z</time>
      </trkpt>
      <trkpt lat="47.26284" lon="-2.31684">
        <ele>1.2000000476837</ele>
        <time>2021-03-11T11:27:36.000Z</time>
      </trkpt>
      <trkpt lat="47.26294" lon="-2.317">
        <ele>1.2000000476837</ele>
        <time>2021-03-11T11:27:39.000Z</time>
      </trkpt>
      <trkpt lat="47.26308" lon="-2.31708">
        <ele>1.2000000476837</ele>
        <time>2021-03-11T11:27:42.000Z</time>
      </trkpt>
      <trkpt lat="47.26317" lon="-2.31705">
        <ele>1.2000000476837</ele>
        <time>2021-03-11T11:27:44.000Z</time>
      </trkpt>
      <trkpt lat="47.26325" lon="-2.317">
        <ele>1.2000000476837</ele>
        <time>2021-03-11T11:27:46.000Z</time>
      </trkpt>
      <trkpt lat="47.26328" lon="-2.31697">
        <ele>1.2000000476837</ele>
        <time>2021-03-11T11:27:47.000Z</time>
      </trkpt>
      <trkpt lat="47.26336" lon="-2.31686">
        <ele>1.2000000476837</ele>
        <time>2021-03-11T11:27:50.000Z</time>
      </trkpt>
      <trkpt lat="47.26342" lon="-2.31682">
        <ele>1.2000000476837</ele>
        <time>2021-03-11T11:27:52.000Z</time>
      </trkpt>
      <trkpt lat="47.26349" lon="-2.31679">
        <ele>1.2000000476837</ele>
        <time>2021-03-11T11:27:54.000Z</time>
      </trkpt>
      <trkpt lat="47.26353" lon="-2.31677">
        <ele>1.6000000238419</ele>
        <time>2021-03-11T11:27:55.000Z</time>
      </trkpt>
      <trkpt lat="47.26356" lon="-2.31675">
        <ele>2</ele>
        <time>2021-03-11T11:27:56.000Z</time>
      </trkpt>
      <trkpt lat="47.2636" lon="-2.31673">
        <ele>2.4000000953674</ele>
        <time>2021-03-11T11:27:57.000Z</time>
      </trkpt>
      <trkpt lat="47.26363" lon="-2.31671">
        <ele>2.7999999523163</ele>
        <time>2021-03-11T11:27:58.000Z</time>
      </trkpt>
      <trkpt lat="47.26367" lon="-2.3167">
        <ele>3.2000000476837</ele>
        <time>2021-03-11T11:27:59.000Z</time>
      </trkpt>
      <trkpt lat="47.2637" lon="-2.31669">
        <ele>3.2000000476837</ele>
        <time>2021-03-11T11:28:00.000Z</time>
      </trkpt>
      <trkpt lat="47.26386" lon="-2.3166">
        <ele>3.2000000476837</ele>
        <time>2021-03-11T11:28:05.000Z</time>
      </trkpt>
      <trkpt lat="47.26403" lon="-2.31651">
        <ele>3.2000000476837</ele>
        <time>2021-03-11T11:28:11.000Z</time>
      </trkpt>
      <trkpt lat="47.26406" lon="-2.31649">
        <ele>3.5999999046326</ele>
        <time>2021-03-11T11:28:12.000Z</time>
      </trkpt>
      <trkpt lat="47.26407" lon="-2.31645">
        <ele>4</ele>
        <time>2021-03-11T11:28:13.000Z</time>
      </trkpt>
      <trkpt lat="47.26407" lon="-2.31641">
        <ele>4.4000000953674</ele>
        <time>2021-03-11T11:28:14.000Z</time>
      </trkpt>
      <trkpt lat="47.26407" lon="-2.31638">
        <ele>4.8000001907349</ele>
        <time>2021-03-11T11:28:15.000Z</time>
      </trkpt>
      <trkpt lat="47.26407" lon="-2.31634">
        <ele>5.4000000953674</ele>
        <time>2021-03-11T11:28:16.000Z</time>
      </trkpt>
      <trkpt lat="47.26408" lon="-2.31629">
        <ele>5.4000000953674</ele>
        <time>2021-03-11T11:28:17.000Z</time>
      </trkpt>
      <trkpt lat="47.26409" lon="-2.3162">
        <ele>5.4000000953674</ele>
        <time>2021-03-11T11:28:19.000Z</time>
      </trkpt>
      <trkpt lat="47.2641" lon="-2.31585">
        <ele>5.4000000953674</ele>
        <time>2021-03-11T11:28:26.000Z</time>
      </trkpt>
      <trkpt lat="47.26411" lon="-2.31556">
        <ele>5.4000000953674</ele>
        <time>2021-03-11T11:28:33.000Z</time>
      </trkpt>
      <trkpt lat="47.26412" lon="-2.31554">
        <ele>5.4000000953674</ele>
        <time>2021-03-11T11:28:34.000Z</time>
      </trkpt>
      <trkpt lat="47.26415" lon="-2.31555">
        <ele>5.4000000953674</ele>
        <time>2021-03-11T11:28:37.000Z</time>
      </trkpt>
      <trkpt lat="47.26416" lon="-2.31556">
        <ele>5.4000000953674</ele>
        <time>2021-03-11T11:28:39.000Z</time>
      </trkpt>
    </trkseg>
  </trk>
</gpx>